<?xml version="1.0" encoding="UTF-8" standalone="no" ?>
<gpx xmlns="http://www.topografix.com/GPX/1/1" xmlns:xsi="http://www.w3.org/2001/XMLSchema-instance" xsi:schemaLocation="http://www.topografix.com/GPX/1/1 http://www.topografix.com/GPX/1/1/gpx.xsd" version="1.1" creator="VisuGPX - https://www.visugpx.com">
  <metadata>
    <name>Plats Pays 2: Duisburg -&gt; Rees</name>
  </metadata>
  <trk>
    <name><![CDATA[Plats Pays 2: Duisburg -> Rees]]></name>
    <extensions>
      <line xmlns="http://www.topografix.com/GPX/gpx_style/0/2">
        <color>0000FF</color>
        <width>4</width>
      </line>
    </extensions>
    <trkseg>
      <trkpt lat="51.45257" lon="6.71858">
        <ele>82.553672</ele>
        <time>2026-05-06T08:18:43.090Z</time>
      </trkpt>
      <trkpt lat="51.45264" lon="6.71848">
        <ele>82.553672</ele>
        <time>2026-05-06T08:19:00.085Z</time>
      </trkpt>
      <trkpt lat="51.45292" lon="6.71883">
        <ele>82.553672</ele>
        <time>2026-05-06T08:19:38.084Z</time>
      </trkpt>
      <trkpt lat="51.45302" lon="6.71889">
        <ele>82.553672</ele>
        <time>2026-05-06T08:19:41.084Z</time>
      </trkpt>
      <trkpt lat="51.45313" lon="6.71888">
        <ele>82.553672</ele>
        <time>2026-05-06T08:19:44.091Z</time>
      </trkpt>
      <trkpt lat="51.45323" lon="6.71886">
        <ele>82.553672</ele>
        <time>2026-05-06T08:19:48.126Z</time>
      </trkpt>
      <trkpt lat="51.45332" lon="6.71885">
        <ele>82.553672</ele>
        <time>2026-05-06T08:20:04.094Z</time>
      </trkpt>
      <trkpt lat="51.45342" lon="6.71885">
        <ele>82.53804</ele>
        <time>2026-05-06T08:20:08.083Z</time>
      </trkpt>
      <trkpt lat="51.45352" lon="6.71886">
        <ele>82.508925</ele>
        <time>2026-05-06T08:20:11.085Z</time>
      </trkpt>
      <trkpt lat="51.45365" lon="6.71886">
        <ele>82.469508</ele>
        <time>2026-05-06T08:20:15.079Z</time>
      </trkpt>
      <trkpt lat="51.45376" lon="6.71887">
        <ele>82.437662</ele>
        <time>2026-05-06T08:20:20.085Z</time>
      </trkpt>
      <trkpt lat="51.45386" lon="6.71889">
        <ele>82.407489</ele>
        <time>2026-05-06T08:20:24.082Z</time>
      </trkpt>
      <trkpt lat="51.45397" lon="6.71891">
        <ele>82.375186</ele>
        <time>2026-05-06T08:20:27.095Z</time>
      </trkpt>
      <trkpt lat="51.45407" lon="6.71894">
        <ele>82.345338</ele>
        <time>2026-05-06T08:20:30.084Z</time>
      </trkpt>
      <trkpt lat="51.45418" lon="6.71897">
        <ele>82.313077</ele>
        <time>2026-05-06T08:20:33.086Z</time>
      </trkpt>
      <trkpt lat="51.45427" lon="6.719">
        <ele>82.286308</ele>
        <time>2026-05-06T08:20:36.083Z</time>
      </trkpt>
      <trkpt lat="51.45439" lon="6.71903">
        <ele>82.249669</ele>
        <time>2026-05-06T08:20:40.082Z</time>
      </trkpt>
      <trkpt lat="51.45449" lon="6.71905">
        <ele>82.21991</ele>
        <time>2026-05-06T08:20:43.087Z</time>
      </trkpt>
      <trkpt lat="51.45459" lon="6.71913">
        <ele>82.188018</ele>
        <time>2026-05-06T08:20:46.085Z</time>
      </trkpt>
      <trkpt lat="51.45468" lon="6.71918">
        <ele>82.161399</ele>
        <time>2026-05-06T08:20:49.082Z</time>
      </trkpt>
      <trkpt lat="51.45479" lon="6.71919">
        <ele>82.127873</ele>
        <time>2026-05-06T08:20:53.075Z</time>
      </trkpt>
      <trkpt lat="51.4549" lon="6.7192">
        <ele>82.096651</ele>
        <time>2026-05-06T08:20:57.087Z</time>
      </trkpt>
      <trkpt lat="51.45499" lon="6.7192">
        <ele>82.068996</ele>
        <time>2026-05-06T08:21:01.086Z</time>
      </trkpt>
      <trkpt lat="51.4551" lon="6.71924">
        <ele>82.036562</ele>
        <time>2026-05-06T08:21:05.091Z</time>
      </trkpt>
      <trkpt lat="51.45521" lon="6.71925">
        <ele>82.146166</ele>
        <time>2026-05-06T08:21:09.087Z</time>
      </trkpt>
      <trkpt lat="51.45532" lon="6.71923">
        <ele>82.330927</ele>
        <time>2026-05-06T08:21:15.082Z</time>
      </trkpt>
      <trkpt lat="51.45542" lon="6.71923">
        <ele>82.513048</ele>
        <time>2026-05-06T08:21:19.095Z</time>
      </trkpt>
      <trkpt lat="51.45551" lon="6.71923">
        <ele>82.667908</ele>
        <time>2026-05-06T08:21:22.090Z</time>
      </trkpt>
      <trkpt lat="51.45561" lon="6.71923">
        <ele>82.833086</ele>
        <time>2026-05-06T08:21:25.101Z</time>
      </trkpt>
      <trkpt lat="51.45573" lon="6.71919">
        <ele>83.044555</ele>
        <time>2026-05-06T08:21:28.091Z</time>
      </trkpt>
      <trkpt lat="51.45583" lon="6.71915">
        <ele>83.221077</ele>
        <time>2026-05-06T08:21:31.081Z</time>
      </trkpt>
      <trkpt lat="51.45594" lon="6.71911">
        <ele>83.397359</ele>
        <time>2026-05-06T08:21:34.102Z</time>
      </trkpt>
      <trkpt lat="51.45603" lon="6.71907">
        <ele>83.561647</ele>
        <time>2026-05-06T08:21:40.079Z</time>
      </trkpt>
      <trkpt lat="51.45614" lon="6.71905">
        <ele>83.751712</ele>
        <time>2026-05-06T08:21:46.088Z</time>
      </trkpt>
      <trkpt lat="51.45624" lon="6.71901">
        <ele>83.930231</ele>
        <time>2026-05-06T08:21:50.106Z</time>
      </trkpt>
      <trkpt lat="51.45635" lon="6.71902">
        <ele>84.112675</ele>
        <time>2026-05-06T08:21:54.109Z</time>
      </trkpt>
      <trkpt lat="51.45641" lon="6.71914">
        <ele>84.26737</ele>
        <time>2026-05-06T08:21:58.104Z</time>
      </trkpt>
      <trkpt lat="51.4564" lon="6.7193">
        <ele>84.444568</ele>
        <time>2026-05-06T08:22:03.099Z</time>
      </trkpt>
      <trkpt lat="51.4564" lon="6.71945">
        <ele>84.601573</ele>
        <time>2026-05-06T08:22:07.114Z</time>
      </trkpt>
      <trkpt lat="51.4564" lon="6.7196">
        <ele>84.758726</ele>
        <time>2026-05-06T08:22:11.099Z</time>
      </trkpt>
      <trkpt lat="51.45639" lon="6.71976">
        <ele>84.931333</ele>
        <time>2026-05-06T08:22:15.095Z</time>
      </trkpt>
      <trkpt lat="51.45637" lon="6.71993">
        <ele>85.112217</ele>
        <time>2026-05-06T08:22:19.103Z</time>
      </trkpt>
      <trkpt lat="51.45636" lon="6.72011">
        <ele>85.274988</ele>
        <time>2026-05-06T08:22:23.104Z</time>
      </trkpt>
      <trkpt lat="51.45635" lon="6.72029">
        <ele>85.434027</ele>
        <time>2026-05-06T08:22:27.098Z</time>
      </trkpt>
      <trkpt lat="51.45633" lon="6.72046">
        <ele>85.588334</ele>
        <time>2026-05-06T08:22:31.101Z</time>
      </trkpt>
      <trkpt lat="51.45632" lon="6.72064">
        <ele>85.751363</ele>
        <time>2026-05-06T08:22:35.099Z</time>
      </trkpt>
      <trkpt lat="51.45632" lon="6.72083">
        <ele>85.920146</ele>
        <time>2026-05-06T08:22:39.093Z</time>
      </trkpt>
      <trkpt lat="51.45631" lon="6.72101">
        <ele>86.084359</ele>
        <time>2026-05-06T08:22:43.104Z</time>
      </trkpt>
      <trkpt lat="51.4563" lon="6.72119">
        <ele>86.250725</ele>
        <time>2026-05-06T08:22:47.120Z</time>
      </trkpt>
      <trkpt lat="51.45628" lon="6.72137">
        <ele>86.412822</ele>
        <time>2026-05-06T08:22:51.099Z</time>
      </trkpt>
      <trkpt lat="51.45627" lon="6.72154">
        <ele>86.566143</ele>
        <time>2026-05-06T08:22:55.104Z</time>
      </trkpt>
      <trkpt lat="51.45625" lon="6.72171">
        <ele>86.722319</ele>
        <time>2026-05-06T08:22:59.099Z</time>
      </trkpt>
      <trkpt lat="51.45624" lon="6.72189">
        <ele>86.890731</ele>
        <time>2026-05-06T08:23:03.113Z</time>
      </trkpt>
      <trkpt lat="51.45624" lon="6.72204">
        <ele>87.023433</ele>
        <time>2026-05-06T08:23:06.100Z</time>
      </trkpt>
      <trkpt lat="51.45623" lon="6.72219">
        <ele>87.162262</ele>
        <time>2026-05-06T08:23:09.103Z</time>
      </trkpt>
      <trkpt lat="51.45622" lon="6.72235">
        <ele>87.299464</ele>
        <time>2026-05-06T08:23:12.110Z</time>
      </trkpt>
      <trkpt lat="51.45622" lon="6.72249">
        <ele>87.433066</ele>
        <time>2026-05-06T08:23:15.104Z</time>
      </trkpt>
      <trkpt lat="51.4562" lon="6.72265">
        <ele>87.573567</ele>
        <time>2026-05-06T08:23:18.100Z</time>
      </trkpt>
      <trkpt lat="51.45619" lon="6.72282">
        <ele>87.692069</ele>
        <time>2026-05-06T08:23:21.105Z</time>
      </trkpt>
      <trkpt lat="51.45618" lon="6.72298">
        <ele>87.710601</ele>
        <time>2026-05-06T08:23:24.093Z</time>
      </trkpt>
      <trkpt lat="51.45617" lon="6.72314">
        <ele>87.728723</ele>
        <time>2026-05-06T08:23:27.095Z</time>
      </trkpt>
      <trkpt lat="51.45616" lon="6.72331">
        <ele>87.747068</ele>
        <time>2026-05-06T08:23:30.101Z</time>
      </trkpt>
      <trkpt lat="51.45615" lon="6.72347">
        <ele>87.765488</ele>
        <time>2026-05-06T08:23:33.096Z</time>
      </trkpt>
      <trkpt lat="51.45614" lon="6.72363">
        <ele>87.784055</ele>
        <time>2026-05-06T08:23:36.101Z</time>
      </trkpt>
      <trkpt lat="51.45613" lon="6.72381">
        <ele>87.803688</ele>
        <time>2026-05-06T08:23:39.105Z</time>
      </trkpt>
      <trkpt lat="51.45612" lon="6.72398">
        <ele>87.822905</ele>
        <time>2026-05-06T08:23:42.102Z</time>
      </trkpt>
      <trkpt lat="51.45611" lon="6.72414">
        <ele>87.840677</ele>
        <time>2026-05-06T08:23:45.111Z</time>
      </trkpt>
      <trkpt lat="51.4561" lon="6.72429">
        <ele>87.858223</ele>
        <time>2026-05-06T08:23:48.095Z</time>
      </trkpt>
      <trkpt lat="51.45608" lon="6.72445">
        <ele>87.875581</ele>
        <time>2026-05-06T08:23:51.091Z</time>
      </trkpt>
      <trkpt lat="51.45607" lon="6.72459">
        <ele>87.891814</ele>
        <time>2026-05-06T08:23:54.100Z</time>
      </trkpt>
      <trkpt lat="51.45606" lon="6.72476">
        <ele>87.911311</ele>
        <time>2026-05-06T08:23:58.102Z</time>
      </trkpt>
      <trkpt lat="51.45605" lon="6.72492">
        <ele>87.928951</ele>
        <time>2026-05-06T08:24:02.111Z</time>
      </trkpt>
      <trkpt lat="51.45604" lon="6.72508">
        <ele>87.946498</ele>
        <time>2026-05-06T08:24:06.092Z</time>
      </trkpt>
      <trkpt lat="51.45602" lon="6.72524">
        <ele>87.965525</ele>
        <time>2026-05-06T08:24:11.108Z</time>
      </trkpt>
      <trkpt lat="51.45598" lon="6.72579">
        <ele>87.85488</ele>
        <time>2026-05-06T08:24:54.106Z</time>
      </trkpt>
      <trkpt lat="51.45597" lon="6.72597">
        <ele>87.664379</ele>
        <time>2026-05-06T08:24:57.105Z</time>
      </trkpt>
      <trkpt lat="51.45596" lon="6.72615">
        <ele>87.472657</ele>
        <time>2026-05-06T08:25:00.094Z</time>
      </trkpt>
      <trkpt lat="51.45595" lon="6.72634">
        <ele>87.275105</ele>
        <time>2026-05-06T08:25:03.106Z</time>
      </trkpt>
      <trkpt lat="51.45594" lon="6.72653">
        <ele>87.069923</ele>
        <time>2026-05-06T08:25:06.100Z</time>
      </trkpt>
      <trkpt lat="51.45593" lon="6.72673">
        <ele>86.853931</ele>
        <time>2026-05-06T08:25:09.104Z</time>
      </trkpt>
      <trkpt lat="51.45592" lon="6.72692">
        <ele>86.658883</ele>
        <time>2026-05-06T08:25:12.100Z</time>
      </trkpt>
      <trkpt lat="51.4559" lon="6.72747">
        <ele>86.078942</ele>
        <time>2026-05-06T08:26:40.097Z</time>
      </trkpt>
      <trkpt lat="51.45588" lon="6.72765">
        <ele>85.880566</ele>
        <time>2026-05-06T08:26:43.107Z</time>
      </trkpt>
      <trkpt lat="51.45586" lon="6.72785">
        <ele>85.667957</ele>
        <time>2026-05-06T08:26:46.095Z</time>
      </trkpt>
      <trkpt lat="51.45584" lon="6.72806">
        <ele>85.450173</ele>
        <time>2026-05-06T08:26:49.109Z</time>
      </trkpt>
      <trkpt lat="51.45582" lon="6.72827">
        <ele>85.228379</ele>
        <time>2026-05-06T08:26:52.103Z</time>
      </trkpt>
      <trkpt lat="51.45581" lon="6.72846">
        <ele>85.020986</ele>
        <time>2026-05-06T08:26:55.099Z</time>
      </trkpt>
      <trkpt lat="51.4558" lon="6.72865">
        <ele>84.728257</ele>
        <time>2026-05-06T08:26:58.102Z</time>
      </trkpt>
      <trkpt lat="51.45579" lon="6.72884">
        <ele>84.387065</ele>
        <time>2026-05-06T08:27:01.101Z</time>
      </trkpt>
      <trkpt lat="51.45577" lon="6.72903">
        <ele>84.048725</ele>
        <time>2026-05-06T08:27:04.114Z</time>
      </trkpt>
      <trkpt lat="51.4557" lon="6.72919">
        <ele>83.706753</ele>
        <time>2026-05-06T08:27:07.105Z</time>
      </trkpt>
      <trkpt lat="51.45558" lon="6.72929">
        <ele>83.33276</ele>
        <time>2026-05-06T08:27:10.105Z</time>
      </trkpt>
      <trkpt lat="51.45546" lon="6.72933">
        <ele>83.003317</ele>
        <time>2026-05-06T08:27:13.115Z</time>
      </trkpt>
      <trkpt lat="51.45537" lon="6.72927">
        <ele>82.728849</ele>
        <time>2026-05-06T08:27:16.105Z</time>
      </trkpt>
      <trkpt lat="51.45531" lon="6.72911">
        <ele>82.382734</ele>
        <time>2026-05-06T08:27:19.101Z</time>
      </trkpt>
      <trkpt lat="51.45531" lon="6.72895">
        <ele>82.118875</ele>
        <time>2026-05-06T08:27:21.108Z</time>
      </trkpt>
      <trkpt lat="51.45537" lon="6.72877">
        <ele>81.752978</ele>
        <time>2026-05-06T08:27:24.105Z</time>
      </trkpt>
      <trkpt lat="51.45548" lon="6.72864">
        <ele>81.382112</ele>
        <time>2026-05-06T08:27:27.101Z</time>
      </trkpt>
      <trkpt lat="51.45558" lon="6.72856">
        <ele>81.047645</ele>
        <time>2026-05-06T08:27:30.109Z</time>
      </trkpt>
      <trkpt lat="51.45571" lon="6.72853">
        <ele>80.704979</ele>
        <time>2026-05-06T08:27:33.114Z</time>
      </trkpt>
      <trkpt lat="51.45581" lon="6.72853">
        <ele>80.425129</ele>
        <time>2026-05-06T08:27:36.103Z</time>
      </trkpt>
      <trkpt lat="51.4559" lon="6.72855">
        <ele>80.160178</ele>
        <time>2026-05-06T08:27:39.101Z</time>
      </trkpt>
      <trkpt lat="51.45602" lon="6.72853">
        <ele>80.016073</ele>
        <time>2026-05-06T08:27:42.104Z</time>
      </trkpt>
      <trkpt lat="51.45612" lon="6.72851">
        <ele>80.20543</ele>
        <time>2026-05-06T08:27:44.095Z</time>
      </trkpt>
      <trkpt lat="51.45625" lon="6.7285">
        <ele>80.433445</ele>
        <time>2026-05-06T08:27:47.086Z</time>
      </trkpt>
      <trkpt lat="51.45638" lon="6.72852">
        <ele>80.677411</ele>
        <time>2026-05-06T08:27:50.100Z</time>
      </trkpt>
      <trkpt lat="51.4565" lon="6.72852">
        <ele>80.899583</ele>
        <time>2026-05-06T08:27:53.108Z</time>
      </trkpt>
      <trkpt lat="51.4566" lon="6.72848">
        <ele>81.088478</ele>
        <time>2026-05-06T08:27:56.101Z</time>
      </trkpt>
      <trkpt lat="51.4567" lon="6.72848">
        <ele>81.261475</ele>
        <time>2026-05-06T08:27:59.100Z</time>
      </trkpt>
      <trkpt lat="51.45679" lon="6.72849">
        <ele>81.42783</ele>
        <time>2026-05-06T08:28:02.104Z</time>
      </trkpt>
      <trkpt lat="51.4569" lon="6.72848">
        <ele>81.633841</ele>
        <time>2026-05-06T08:28:06.110Z</time>
      </trkpt>
      <trkpt lat="51.457" lon="6.72849">
        <ele>81.816055</ele>
        <time>2026-05-06T08:28:10.102Z</time>
      </trkpt>
      <trkpt lat="51.4571" lon="6.72851">
        <ele>82.000003</ele>
        <time>2026-05-06T08:28:14.107Z</time>
      </trkpt>
      <trkpt lat="51.4572" lon="6.72852">
        <ele>82.178967</ele>
        <time>2026-05-06T08:28:18.094Z</time>
      </trkpt>
      <trkpt lat="51.45731" lon="6.72852">
        <ele>82.386574</ele>
        <time>2026-05-06T08:28:22.108Z</time>
      </trkpt>
      <trkpt lat="51.4574" lon="6.7285">
        <ele>82.550212</ele>
        <time>2026-05-06T08:28:25.102Z</time>
      </trkpt>
      <trkpt lat="51.4575" lon="6.72847">
        <ele>82.738359</ele>
        <time>2026-05-06T08:28:29.108Z</time>
      </trkpt>
      <trkpt lat="51.45762" lon="6.72846">
        <ele>82.94059</ele>
        <time>2026-05-06T08:28:33.102Z</time>
      </trkpt>
      <trkpt lat="51.45772" lon="6.72845">
        <ele>83.134082</ele>
        <time>2026-05-06T08:28:37.099Z</time>
      </trkpt>
      <trkpt lat="51.45784" lon="6.72845">
        <ele>83.146153</ele>
        <time>2026-05-06T08:28:41.096Z</time>
      </trkpt>
      <trkpt lat="51.45795" lon="6.72845">
        <ele>83.035858</ele>
        <time>2026-05-06T08:28:45.097Z</time>
      </trkpt>
      <trkpt lat="51.45806" lon="6.72846">
        <ele>82.932139</ele>
        <time>2026-05-06T08:28:49.107Z</time>
      </trkpt>
      <trkpt lat="51.45816" lon="6.72847">
        <ele>82.826429</ele>
        <time>2026-05-06T08:28:53.094Z</time>
      </trkpt>
      <trkpt lat="51.45827" lon="6.72848">
        <ele>82.717978</ele>
        <time>2026-05-06T08:28:57.099Z</time>
      </trkpt>
      <trkpt lat="51.45839" lon="6.7285">
        <ele>82.601369</ele>
        <time>2026-05-06T08:29:01.102Z</time>
      </trkpt>
      <trkpt lat="51.4585" lon="6.7285">
        <ele>82.493975</ele>
        <time>2026-05-06T08:29:04.096Z</time>
      </trkpt>
      <trkpt lat="51.4586" lon="6.72852">
        <ele>82.395689</ele>
        <time>2026-05-06T08:29:07.096Z</time>
      </trkpt>
      <trkpt lat="51.45872" lon="6.72852">
        <ele>82.283428</ele>
        <time>2026-05-06T08:29:10.109Z</time>
      </trkpt>
      <trkpt lat="51.45885" lon="6.72853">
        <ele>82.157464</ele>
        <time>2026-05-06T08:29:13.104Z</time>
      </trkpt>
      <trkpt lat="51.45895" lon="6.72853">
        <ele>82.055938</ele>
        <time>2026-05-06T08:29:15.105Z</time>
      </trkpt>
      <trkpt lat="51.45906" lon="6.72851">
        <ele>81.952127</ele>
        <time>2026-05-06T08:29:17.114Z</time>
      </trkpt>
      <trkpt lat="51.45916" lon="6.72846">
        <ele>81.847609</ele>
        <time>2026-05-06T08:29:19.099Z</time>
      </trkpt>
      <trkpt lat="51.45926" lon="6.72841">
        <ele>81.745008</ele>
        <time>2026-05-06T08:29:21.104Z</time>
      </trkpt>
      <trkpt lat="51.45936" lon="6.72836">
        <ele>81.639619</ele>
        <time>2026-05-06T08:29:23.106Z</time>
      </trkpt>
      <trkpt lat="51.45947" lon="6.7283">
        <ele>81.533585</ele>
        <time>2026-05-06T08:29:25.111Z</time>
      </trkpt>
      <trkpt lat="51.45957" lon="6.72825">
        <ele>81.417354</ele>
        <time>2026-05-06T08:29:27.110Z</time>
      </trkpt>
      <trkpt lat="51.45966" lon="6.7282">
        <ele>81.27839</ele>
        <time>2026-05-06T08:29:29.097Z</time>
      </trkpt>
      <trkpt lat="51.45976" lon="6.72816">
        <ele>81.138588</ele>
        <time>2026-05-06T08:29:31.094Z</time>
      </trkpt>
      <trkpt lat="51.45985" lon="6.72812">
        <ele>81.000161</ele>
        <time>2026-05-06T08:29:33.102Z</time>
      </trkpt>
      <trkpt lat="51.45995" lon="6.72807">
        <ele>80.858009</ele>
        <time>2026-05-06T08:29:35.103Z</time>
      </trkpt>
      <trkpt lat="51.46005" lon="6.72801">
        <ele>80.706269</ele>
        <time>2026-05-06T08:29:37.110Z</time>
      </trkpt>
      <trkpt lat="51.46016" lon="6.72796">
        <ele>80.552919</ele>
        <time>2026-05-06T08:29:39.099Z</time>
      </trkpt>
      <trkpt lat="51.46026" lon="6.72792">
        <ele>80.402574</ele>
        <time>2026-05-06T08:29:41.103Z</time>
      </trkpt>
      <trkpt lat="51.46036" lon="6.72787">
        <ele>80.257231</ele>
        <time>2026-05-06T08:29:43.103Z</time>
      </trkpt>
      <trkpt lat="51.46045" lon="6.7278">
        <ele>80.123218</ele>
        <time>2026-05-06T08:29:45.109Z</time>
      </trkpt>
      <trkpt lat="51.46053" lon="6.72767">
        <ele>79.962316</ele>
        <time>2026-05-06T08:29:48.112Z</time>
      </trkpt>
      <trkpt lat="51.46064" lon="6.72756">
        <ele>79.786562</ele>
        <time>2026-05-06T08:29:51.100Z</time>
      </trkpt>
      <trkpt lat="51.46075" lon="6.72749">
        <ele>79.615629</ele>
        <time>2026-05-06T08:29:54.099Z</time>
      </trkpt>
      <trkpt lat="51.46086" lon="6.72743">
        <ele>79.454048</ele>
        <time>2026-05-06T08:29:57.104Z</time>
      </trkpt>
      <trkpt lat="51.46097" lon="6.72736">
        <ele>79.285955</ele>
        <time>2026-05-06T08:30:00.102Z</time>
      </trkpt>
      <trkpt lat="51.46108" lon="6.7273">
        <ele>79.117862</ele>
        <time>2026-05-06T08:30:03.102Z</time>
      </trkpt>
      <trkpt lat="51.4612" lon="6.72723">
        <ele>78.94823</ele>
        <time>2026-05-06T08:30:06.100Z</time>
      </trkpt>
      <trkpt lat="51.46131" lon="6.72716">
        <ele>79.007904</ele>
        <time>2026-05-06T08:30:09.103Z</time>
      </trkpt>
      <trkpt lat="51.46142" lon="6.72708">
        <ele>79.070806</ele>
        <time>2026-05-06T08:30:12.099Z</time>
      </trkpt>
      <trkpt lat="51.46153" lon="6.72701">
        <ele>79.136173</ele>
        <time>2026-05-06T08:30:15.100Z</time>
      </trkpt>
      <trkpt lat="51.46164" lon="6.72694">
        <ele>79.200553</ele>
        <time>2026-05-06T08:30:18.103Z</time>
      </trkpt>
      <trkpt lat="51.46176" lon="6.72686">
        <ele>79.26852</ele>
        <time>2026-05-06T08:30:21.105Z</time>
      </trkpt>
      <trkpt lat="51.46188" lon="6.72679">
        <ele>79.333887</ele>
        <time>2026-05-06T08:30:24.105Z</time>
      </trkpt>
      <trkpt lat="51.46199" lon="6.72672">
        <ele>79.400984</ele>
        <time>2026-05-06T08:30:27.100Z</time>
      </trkpt>
      <trkpt lat="51.46211" lon="6.72664">
        <ele>79.468216</ele>
        <time>2026-05-06T08:30:30.103Z</time>
      </trkpt>
      <trkpt lat="51.46222" lon="6.72658">
        <ele>79.531375</ele>
        <time>2026-05-06T08:30:33.101Z</time>
      </trkpt>
      <trkpt lat="51.46234" lon="6.7265">
        <ele>79.596865</ele>
        <time>2026-05-06T08:30:36.113Z</time>
      </trkpt>
      <trkpt lat="51.46245" lon="6.72643">
        <ele>79.661756</ele>
        <time>2026-05-06T08:30:39.102Z</time>
      </trkpt>
      <trkpt lat="51.46256" lon="6.72635">
        <ele>79.725936</ele>
        <time>2026-05-06T08:30:42.098Z</time>
      </trkpt>
      <trkpt lat="51.46267" lon="6.72626">
        <ele>79.789228</ele>
        <time>2026-05-06T08:30:45.109Z</time>
      </trkpt>
      <trkpt lat="51.46278" lon="6.72618">
        <ele>79.853682</ele>
        <time>2026-05-06T08:30:48.104Z</time>
      </trkpt>
      <trkpt lat="51.46289" lon="6.7261">
        <ele>79.895794</ele>
        <time>2026-05-06T08:30:51.104Z</time>
      </trkpt>
      <trkpt lat="51.46299" lon="6.72602">
        <ele>79.866124</ele>
        <time>2026-05-06T08:30:54.096Z</time>
      </trkpt>
      <trkpt lat="51.46309" lon="6.72596">
        <ele>79.838777</ele>
        <time>2026-05-06T08:30:57.109Z</time>
      </trkpt>
      <trkpt lat="51.46318" lon="6.7259">
        <ele>79.813283</ele>
        <time>2026-05-06T08:31:00.099Z</time>
      </trkpt>
      <trkpt lat="51.46327" lon="6.72583">
        <ele>79.787043</ele>
        <time>2026-05-06T08:31:03.099Z</time>
      </trkpt>
      <trkpt lat="51.46337" lon="6.72576">
        <ele>79.758727</ele>
        <time>2026-05-06T08:31:06.108Z</time>
      </trkpt>
      <trkpt lat="51.46346" lon="6.72568">
        <ele>79.7306</ele>
        <time>2026-05-06T08:31:09.109Z</time>
      </trkpt>
      <trkpt lat="51.46356" lon="6.7256">
        <ele>79.702619</ele>
        <time>2026-05-06T08:31:12.106Z</time>
      </trkpt>
      <trkpt lat="51.46366" lon="6.72553">
        <ele>79.674312</ele>
        <time>2026-05-06T08:31:15.103Z</time>
      </trkpt>
      <trkpt lat="51.46375" lon="6.72545">
        <ele>79.645879</ele>
        <time>2026-05-06T08:31:18.098Z</time>
      </trkpt>
      <trkpt lat="51.46385" lon="6.72536">
        <ele>79.616828</ele>
        <time>2026-05-06T08:31:21.105Z</time>
      </trkpt>
      <trkpt lat="51.46395" lon="6.72527">
        <ele>79.587244</ele>
        <time>2026-05-06T08:31:24.106Z</time>
      </trkpt>
      <trkpt lat="51.46405" lon="6.72518">
        <ele>79.558092</ele>
        <time>2026-05-06T08:31:27.092Z</time>
      </trkpt>
      <trkpt lat="51.46414" lon="6.7251">
        <ele>79.528972</ele>
        <time>2026-05-06T08:31:30.101Z</time>
      </trkpt>
      <trkpt lat="51.46425" lon="6.72502">
        <ele>79.499749</ele>
        <time>2026-05-06T08:31:33.111Z</time>
      </trkpt>
      <trkpt lat="51.46434" lon="6.72494">
        <ele>79.471933</ele>
        <time>2026-05-06T08:31:36.094Z</time>
      </trkpt>
      <trkpt lat="51.46444" lon="6.72485">
        <ele>79.442199</ele>
        <time>2026-05-06T08:31:39.099Z</time>
      </trkpt>
      <trkpt lat="51.46454" lon="6.72475">
        <ele>79.400072</ele>
        <time>2026-05-06T08:31:42.097Z</time>
      </trkpt>
      <trkpt lat="51.46464" lon="6.72466">
        <ele>79.351876</ele>
        <time>2026-05-06T08:31:45.108Z</time>
      </trkpt>
      <trkpt lat="51.46474" lon="6.72458">
        <ele>79.302823</ele>
        <time>2026-05-06T08:31:48.101Z</time>
      </trkpt>
      <trkpt lat="51.46485" lon="6.72449">
        <ele>79.2534</ele>
        <time>2026-05-06T08:31:51.103Z</time>
      </trkpt>
      <trkpt lat="51.46495" lon="6.72441">
        <ele>79.204323</ele>
        <time>2026-05-06T08:31:54.100Z</time>
      </trkpt>
      <trkpt lat="51.46506" lon="6.72432">
        <ele>79.152946</ele>
        <time>2026-05-06T08:31:57.100Z</time>
      </trkpt>
      <trkpt lat="51.46517" lon="6.72423">
        <ele>79.101198</ele>
        <time>2026-05-06T08:32:00.104Z</time>
      </trkpt>
      <trkpt lat="51.46529" lon="6.72413">
        <ele>79.048117</ele>
        <time>2026-05-06T08:32:03.110Z</time>
      </trkpt>
      <trkpt lat="51.4654" lon="6.72404">
        <ele>78.995404</ele>
        <time>2026-05-06T08:32:06.093Z</time>
      </trkpt>
      <trkpt lat="51.46551" lon="6.72395">
        <ele>78.943628</ele>
        <time>2026-05-06T08:32:09.101Z</time>
      </trkpt>
      <trkpt lat="51.46563" lon="6.72386">
        <ele>78.890178</ele>
        <time>2026-05-06T08:32:12.103Z</time>
      </trkpt>
      <trkpt lat="51.46574" lon="6.72376">
        <ele>78.836608</ele>
        <time>2026-05-06T08:32:15.102Z</time>
      </trkpt>
      <trkpt lat="51.46582" lon="6.72369">
        <ele>78.799059</ele>
        <time>2026-05-06T08:32:17.104Z</time>
      </trkpt>
      <trkpt lat="51.46593" lon="6.72358">
        <ele>78.743219</ele>
        <time>2026-05-06T08:32:20.099Z</time>
      </trkpt>
      <trkpt lat="51.46604" lon="6.72348">
        <ele>78.692057</ele>
        <time>2026-05-06T08:32:23.099Z</time>
      </trkpt>
      <trkpt lat="51.46615" lon="6.72337">
        <ele>78.739283</ele>
        <time>2026-05-06T08:32:26.114Z</time>
      </trkpt>
      <trkpt lat="51.46626" lon="6.72327">
        <ele>78.802503</ele>
        <time>2026-05-06T08:32:29.102Z</time>
      </trkpt>
      <trkpt lat="51.46637" lon="6.72316">
        <ele>78.863035</ele>
        <time>2026-05-06T08:32:32.107Z</time>
      </trkpt>
      <trkpt lat="51.46647" lon="6.72305">
        <ele>78.92205</ele>
        <time>2026-05-06T08:32:35.106Z</time>
      </trkpt>
      <trkpt lat="51.46657" lon="6.72295">
        <ele>78.980499</ele>
        <time>2026-05-06T08:32:38.100Z</time>
      </trkpt>
      <trkpt lat="51.46667" lon="6.72286">
        <ele>79.033232</ele>
        <time>2026-05-06T08:32:41.100Z</time>
      </trkpt>
      <trkpt lat="51.46676" lon="6.72277">
        <ele>79.0871</ele>
        <time>2026-05-06T08:32:44.107Z</time>
      </trkpt>
      <trkpt lat="51.46685" lon="6.72269">
        <ele>79.137752</ele>
        <time>2026-05-06T08:32:47.102Z</time>
      </trkpt>
      <trkpt lat="51.46695" lon="6.72258">
        <ele>79.193592</ele>
        <time>2026-05-06T08:32:50.103Z</time>
      </trkpt>
      <trkpt lat="51.46705" lon="6.72249">
        <ele>79.249512</ele>
        <time>2026-05-06T08:32:53.106Z</time>
      </trkpt>
      <trkpt lat="51.46714" lon="6.72238">
        <ele>79.304678</ele>
        <time>2026-05-06T08:32:56.091Z</time>
      </trkpt>
      <trkpt lat="51.46724" lon="6.72227">
        <ele>79.360941</ele>
        <time>2026-05-06T08:32:59.102Z</time>
      </trkpt>
      <trkpt lat="51.46733" lon="6.72218">
        <ele>79.412729</ele>
        <time>2026-05-06T08:33:02.104Z</time>
      </trkpt>
      <trkpt lat="51.46742" lon="6.72209">
        <ele>79.463284</ele>
        <time>2026-05-06T08:33:05.116Z</time>
      </trkpt>
      <trkpt lat="51.46751" lon="6.722">
        <ele>79.516017</ele>
        <time>2026-05-06T08:33:08.098Z</time>
      </trkpt>
      <trkpt lat="51.4676" lon="6.72191">
        <ele>79.534717</ele>
        <time>2026-05-06T08:33:11.121Z</time>
      </trkpt>
      <trkpt lat="51.4677" lon="6.72181">
        <ele>79.471534</ele>
        <time>2026-05-06T08:33:14.104Z</time>
      </trkpt>
      <trkpt lat="51.46779" lon="6.72171">
        <ele>79.409105</ele>
        <time>2026-05-06T08:33:17.097Z</time>
      </trkpt>
      <trkpt lat="51.46788" lon="6.72162">
        <ele>79.348281</ele>
        <time>2026-05-06T08:33:20.098Z</time>
      </trkpt>
      <trkpt lat="51.46797" lon="6.72152">
        <ele>79.287287</ele>
        <time>2026-05-06T08:33:23.100Z</time>
      </trkpt>
      <trkpt lat="51.46806" lon="6.72143">
        <ele>79.225911</ele>
        <time>2026-05-06T08:33:26.109Z</time>
      </trkpt>
      <trkpt lat="51.46815" lon="6.72133">
        <ele>79.164148</ele>
        <time>2026-05-06T08:33:29.095Z</time>
      </trkpt>
      <trkpt lat="51.46824" lon="6.72124">
        <ele>79.102106</ele>
        <time>2026-05-06T08:33:32.105Z</time>
      </trkpt>
      <trkpt lat="51.46833" lon="6.72114">
        <ele>79.040683</ele>
        <time>2026-05-06T08:33:35.103Z</time>
      </trkpt>
      <trkpt lat="51.46843" lon="6.72103">
        <ele>78.976799</ele>
        <time>2026-05-06T08:33:38.094Z</time>
      </trkpt>
      <trkpt lat="51.46852" lon="6.72094">
        <ele>78.916066</ele>
        <time>2026-05-06T08:33:41.101Z</time>
      </trkpt>
      <trkpt lat="51.4686" lon="6.72084">
        <ele>78.85536</ele>
        <time>2026-05-06T08:33:44.138Z</time>
      </trkpt>
      <trkpt lat="51.46869" lon="6.72073">
        <ele>78.793843</ele>
        <time>2026-05-06T08:33:47.108Z</time>
      </trkpt>
      <trkpt lat="51.46877" lon="6.72062">
        <ele>78.734532</ele>
        <time>2026-05-06T08:33:50.103Z</time>
      </trkpt>
      <trkpt lat="51.46885" lon="6.7205">
        <ele>78.671465</ele>
        <time>2026-05-06T08:33:53.104Z</time>
      </trkpt>
      <trkpt lat="51.46891" lon="6.72037">
        <ele>78.612847</ele>
        <time>2026-05-06T08:33:56.101Z</time>
      </trkpt>
      <trkpt lat="51.46898" lon="6.72023">
        <ele>78.550829</ele>
        <time>2026-05-06T08:33:59.100Z</time>
      </trkpt>
      <trkpt lat="51.46904" lon="6.72007">
        <ele>78.592946</ele>
        <time>2026-05-06T08:34:02.093Z</time>
      </trkpt>
      <trkpt lat="51.4691" lon="6.71993">
        <ele>78.665963</ele>
        <time>2026-05-06T08:34:05.097Z</time>
      </trkpt>
      <trkpt lat="51.46917" lon="6.71979">
        <ele>78.737974</ele>
        <time>2026-05-06T08:34:08.109Z</time>
      </trkpt>
      <trkpt lat="51.46923" lon="6.71966">
        <ele>78.80726</ele>
        <time>2026-05-06T08:34:11.101Z</time>
      </trkpt>
      <trkpt lat="51.46929" lon="6.71952">
        <ele>78.877675</ele>
        <time>2026-05-06T08:34:14.101Z</time>
      </trkpt>
      <trkpt lat="51.46935" lon="6.71938">
        <ele>78.951214</ele>
        <time>2026-05-06T08:34:17.094Z</time>
      </trkpt>
      <trkpt lat="51.46942" lon="6.71924">
        <ele>79.02177</ele>
        <time>2026-05-06T08:34:20.099Z</time>
      </trkpt>
      <trkpt lat="51.46949" lon="6.7191">
        <ele>79.094505</ele>
        <time>2026-05-06T08:34:23.102Z</time>
      </trkpt>
      <trkpt lat="51.46955" lon="6.71896">
        <ele>79.16747</ele>
        <time>2026-05-06T08:34:26.102Z</time>
      </trkpt>
      <trkpt lat="51.46962" lon="6.71882">
        <ele>79.24015</ele>
        <time>2026-05-06T08:34:29.104Z</time>
      </trkpt>
      <trkpt lat="51.46969" lon="6.71869">
        <ele>79.311821</ele>
        <time>2026-05-06T08:34:32.097Z</time>
      </trkpt>
      <trkpt lat="51.46975" lon="6.71856">
        <ele>79.380778</ele>
        <time>2026-05-06T08:34:35.104Z</time>
      </trkpt>
      <trkpt lat="51.46981" lon="6.71843">
        <ele>79.44884</ele>
        <time>2026-05-06T08:34:38.099Z</time>
      </trkpt>
      <trkpt lat="51.46987" lon="6.7183">
        <ele>79.51621</ele>
        <time>2026-05-06T08:34:41.105Z</time>
      </trkpt>
      <trkpt lat="51.46993" lon="6.71817">
        <ele>79.582056</ele>
        <time>2026-05-06T08:34:44.106Z</time>
      </trkpt>
      <trkpt lat="51.47" lon="6.71805">
        <ele>79.64777</ele>
        <time>2026-05-06T08:34:47.090Z</time>
      </trkpt>
      <trkpt lat="51.47005" lon="6.71792">
        <ele>79.714713</ele>
        <time>2026-05-06T08:34:50.106Z</time>
      </trkpt>
      <trkpt lat="51.47012" lon="6.71778">
        <ele>79.769206</ele>
        <time>2026-05-06T08:34:53.103Z</time>
      </trkpt>
      <trkpt lat="51.47018" lon="6.71765">
        <ele>79.816288</ele>
        <time>2026-05-06T08:34:56.081Z</time>
      </trkpt>
      <trkpt lat="51.47025" lon="6.71752">
        <ele>79.865441</ele>
        <time>2026-05-06T08:34:59.098Z</time>
      </trkpt>
      <trkpt lat="51.47032" lon="6.71739">
        <ele>79.915003</ele>
        <time>2026-05-06T08:35:02.090Z</time>
      </trkpt>
      <trkpt lat="51.47038" lon="6.71725">
        <ele>79.966041</ele>
        <time>2026-05-06T08:35:05.103Z</time>
      </trkpt>
      <trkpt lat="51.47045" lon="6.71711">
        <ele>80.015049</ele>
        <time>2026-05-06T08:35:08.105Z</time>
      </trkpt>
      <trkpt lat="51.4705" lon="6.71697">
        <ele>80.063198</ele>
        <time>2026-05-06T08:35:11.099Z</time>
      </trkpt>
      <trkpt lat="51.47057" lon="6.71683">
        <ele>80.112399</ele>
        <time>2026-05-06T08:35:14.112Z</time>
      </trkpt>
      <trkpt lat="51.47063" lon="6.71669">
        <ele>80.162497</ele>
        <time>2026-05-06T08:35:17.094Z</time>
      </trkpt>
      <trkpt lat="51.47068" lon="6.71653">
        <ele>80.213087</ele>
        <time>2026-05-06T08:35:20.106Z</time>
      </trkpt>
      <trkpt lat="51.47073" lon="6.71638">
        <ele>80.262967</ele>
        <time>2026-05-06T08:35:23.101Z</time>
      </trkpt>
      <trkpt lat="51.47078" lon="6.71623">
        <ele>80.311342</ele>
        <time>2026-05-06T08:35:26.103Z</time>
      </trkpt>
      <trkpt lat="51.47083" lon="6.71608">
        <ele>80.360754</ele>
        <time>2026-05-06T08:35:29.111Z</time>
      </trkpt>
      <trkpt lat="51.47087" lon="6.71593">
        <ele>80.408928</ele>
        <time>2026-05-06T08:35:32.102Z</time>
      </trkpt>
      <trkpt lat="51.47092" lon="6.71578">
        <ele>80.456065</ele>
        <time>2026-05-06T08:35:35.106Z</time>
      </trkpt>
      <trkpt lat="51.47096" lon="6.71563">
        <ele>80.50398</ele>
        <time>2026-05-06T08:35:38.095Z</time>
      </trkpt>
      <trkpt lat="51.47101" lon="6.71548">
        <ele>80.552934</ele>
        <time>2026-05-06T08:35:41.106Z</time>
      </trkpt>
      <trkpt lat="51.47105" lon="6.71532">
        <ele>80.561779</ele>
        <time>2026-05-06T08:35:44.103Z</time>
      </trkpt>
      <trkpt lat="51.47111" lon="6.71516">
        <ele>80.558687</ele>
        <time>2026-05-06T08:35:47.097Z</time>
      </trkpt>
      <trkpt lat="51.47115" lon="6.71501">
        <ele>80.555653</ele>
        <time>2026-05-06T08:35:50.092Z</time>
      </trkpt>
      <trkpt lat="51.4712" lon="6.71485">
        <ele>80.552568</ele>
        <time>2026-05-06T08:35:53.106Z</time>
      </trkpt>
      <trkpt lat="51.47125" lon="6.7147">
        <ele>80.549401</ele>
        <time>2026-05-06T08:35:56.111Z</time>
      </trkpt>
      <trkpt lat="51.47131" lon="6.71454">
        <ele>80.546283</ele>
        <time>2026-05-06T08:35:59.097Z</time>
      </trkpt>
      <trkpt lat="51.47136" lon="6.71439">
        <ele>80.543189</ele>
        <time>2026-05-06T08:36:02.117Z</time>
      </trkpt>
      <trkpt lat="51.47141" lon="6.71423">
        <ele>80.540009</ele>
        <time>2026-05-06T08:36:05.105Z</time>
      </trkpt>
      <trkpt lat="51.47145" lon="6.71407">
        <ele>80.536868</ele>
        <time>2026-05-06T08:36:08.106Z</time>
      </trkpt>
      <trkpt lat="51.4715" lon="6.71391">
        <ele>80.533819</ele>
        <time>2026-05-06T08:36:11.098Z</time>
      </trkpt>
      <trkpt lat="51.47156" lon="6.71377">
        <ele>80.530749</ele>
        <time>2026-05-06T08:36:14.091Z</time>
      </trkpt>
      <trkpt lat="51.47161" lon="6.71361">
        <ele>80.527639</ele>
        <time>2026-05-06T08:36:17.095Z</time>
      </trkpt>
      <trkpt lat="51.47165" lon="6.71344">
        <ele>80.524375</ele>
        <time>2026-05-06T08:36:20.102Z</time>
      </trkpt>
      <trkpt lat="51.47169" lon="6.71326">
        <ele>80.520961</ele>
        <time>2026-05-06T08:36:23.101Z</time>
      </trkpt>
      <trkpt lat="51.47173" lon="6.71307">
        <ele>80.517449</ele>
        <time>2026-05-06T08:36:26.108Z</time>
      </trkpt>
      <trkpt lat="51.47175" lon="6.71288">
        <ele>80.514063</ele>
        <time>2026-05-06T08:36:29.104Z</time>
      </trkpt>
      <trkpt lat="51.47177" lon="6.71269">
        <ele>80.457545</ele>
        <time>2026-05-06T08:36:32.106Z</time>
      </trkpt>
      <trkpt lat="51.47178" lon="6.7125">
        <ele>80.38176</ele>
        <time>2026-05-06T08:36:35.101Z</time>
      </trkpt>
      <trkpt lat="51.47179" lon="6.7123">
        <ele>80.30473</ele>
        <time>2026-05-06T08:36:38.115Z</time>
      </trkpt>
      <trkpt lat="51.4718" lon="6.7121">
        <ele>80.224871</ele>
        <time>2026-05-06T08:36:41.107Z</time>
      </trkpt>
      <trkpt lat="51.47182" lon="6.71191">
        <ele>80.145639</ele>
        <time>2026-05-06T08:36:44.100Z</time>
      </trkpt>
      <trkpt lat="51.47184" lon="6.71171">
        <ele>80.068088</ele>
        <time>2026-05-06T08:36:47.102Z</time>
      </trkpt>
      <trkpt lat="51.47185" lon="6.71152">
        <ele>79.991906</ele>
        <time>2026-05-06T08:36:50.100Z</time>
      </trkpt>
      <trkpt lat="51.47186" lon="6.71133">
        <ele>79.914481</ele>
        <time>2026-05-06T08:36:53.102Z</time>
      </trkpt>
      <trkpt lat="51.47187" lon="6.71113">
        <ele>79.835868</ele>
        <time>2026-05-06T08:36:56.110Z</time>
      </trkpt>
      <trkpt lat="51.47188" lon="6.71093">
        <ele>79.756963</ele>
        <time>2026-05-06T08:36:59.105Z</time>
      </trkpt>
      <trkpt lat="51.47188" lon="6.71073">
        <ele>79.678243</ele>
        <time>2026-05-06T08:37:02.102Z</time>
      </trkpt>
      <trkpt lat="51.47189" lon="6.71054">
        <ele>79.599289</ele>
        <time>2026-05-06T08:37:05.096Z</time>
      </trkpt>
      <trkpt lat="51.47191" lon="6.71034">
        <ele>79.521423</ele>
        <time>2026-05-06T08:37:08.110Z</time>
      </trkpt>
      <trkpt lat="51.47192" lon="6.71015">
        <ele>79.444826</ele>
        <time>2026-05-06T08:37:11.100Z</time>
      </trkpt>
      <trkpt lat="51.47193" lon="6.70996">
        <ele>79.367551</ele>
        <time>2026-05-06T08:37:14.098Z</time>
      </trkpt>
      <trkpt lat="51.47194" lon="6.70977">
        <ele>79.352393</ele>
        <time>2026-05-06T08:37:17.102Z</time>
      </trkpt>
      <trkpt lat="51.47195" lon="6.70958">
        <ele>79.339092</ele>
        <time>2026-05-06T08:37:20.117Z</time>
      </trkpt>
      <trkpt lat="51.47196" lon="6.70938">
        <ele>79.325108</ele>
        <time>2026-05-06T08:37:23.100Z</time>
      </trkpt>
      <trkpt lat="51.47198" lon="6.70918">
        <ele>79.311236</ele>
        <time>2026-05-06T08:37:26.097Z</time>
      </trkpt>
      <trkpt lat="51.47199" lon="6.70899">
        <ele>79.297504</ele>
        <time>2026-05-06T08:37:29.103Z</time>
      </trkpt>
      <trkpt lat="51.47201" lon="6.7088">
        <ele>79.284102</ele>
        <time>2026-05-06T08:37:32.108Z</time>
      </trkpt>
      <trkpt lat="51.47202" lon="6.70861">
        <ele>79.270607</ele>
        <time>2026-05-06T08:37:35.098Z</time>
      </trkpt>
      <trkpt lat="51.47203" lon="6.70842">
        <ele>79.257445</ele>
        <time>2026-05-06T08:37:38.103Z</time>
      </trkpt>
      <trkpt lat="51.47204" lon="6.70823">
        <ele>79.243668</ele>
        <time>2026-05-06T08:37:41.104Z</time>
      </trkpt>
      <trkpt lat="51.47205" lon="6.70803">
        <ele>79.230033</ele>
        <time>2026-05-06T08:37:44.111Z</time>
      </trkpt>
      <trkpt lat="51.47206" lon="6.70784">
        <ele>79.216573</ele>
        <time>2026-05-06T08:37:47.100Z</time>
      </trkpt>
      <trkpt lat="51.47207" lon="6.70765">
        <ele>79.20309</ele>
        <time>2026-05-06T08:37:50.109Z</time>
      </trkpt>
      <trkpt lat="51.47209" lon="6.70747">
        <ele>79.190192</ele>
        <time>2026-05-06T08:37:53.102Z</time>
      </trkpt>
      <trkpt lat="51.4721" lon="6.70729">
        <ele>79.177239</ele>
        <time>2026-05-06T08:37:56.112Z</time>
      </trkpt>
      <trkpt lat="51.47212" lon="6.7071">
        <ele>79.163854</ele>
        <time>2026-05-06T08:37:59.100Z</time>
      </trkpt>
      <trkpt lat="51.47213" lon="6.7069">
        <ele>79.191353</ele>
        <time>2026-05-06T08:38:02.104Z</time>
      </trkpt>
      <trkpt lat="51.47215" lon="6.70671">
        <ele>79.222283</ele>
        <time>2026-05-06T08:38:05.101Z</time>
      </trkpt>
      <trkpt lat="51.47216" lon="6.70653">
        <ele>79.252641</ele>
        <time>2026-05-06T08:38:08.101Z</time>
      </trkpt>
      <trkpt lat="51.47218" lon="6.70634">
        <ele>79.282935</ele>
        <time>2026-05-06T08:38:11.098Z</time>
      </trkpt>
      <trkpt lat="51.47219" lon="6.70615">
        <ele>79.313195</ele>
        <time>2026-05-06T08:38:14.101Z</time>
      </trkpt>
      <trkpt lat="51.47221" lon="6.70597">
        <ele>79.342627</ele>
        <time>2026-05-06T08:38:17.100Z</time>
      </trkpt>
      <trkpt lat="51.47222" lon="6.70578">
        <ele>79.372695</ele>
        <time>2026-05-06T08:38:20.104Z</time>
      </trkpt>
      <trkpt lat="51.47224" lon="6.70559">
        <ele>79.403242</ele>
        <time>2026-05-06T08:38:23.100Z</time>
      </trkpt>
      <trkpt lat="51.47225" lon="6.7054">
        <ele>79.43398</ele>
        <time>2026-05-06T08:38:26.106Z</time>
      </trkpt>
      <trkpt lat="51.47226" lon="6.70522">
        <ele>79.464527</ele>
        <time>2026-05-06T08:38:29.106Z</time>
      </trkpt>
      <trkpt lat="51.47228" lon="6.70504">
        <ele>79.493075</ele>
        <time>2026-05-06T08:38:32.106Z</time>
      </trkpt>
      <trkpt lat="51.47229" lon="6.70486">
        <ele>79.521744</ele>
        <time>2026-05-06T08:38:35.100Z</time>
      </trkpt>
      <trkpt lat="51.4723" lon="6.70469">
        <ele>79.549948</ele>
        <time>2026-05-06T08:38:38.101Z</time>
      </trkpt>
      <trkpt lat="51.47232" lon="6.70452">
        <ele>79.577663</ele>
        <time>2026-05-06T08:38:41.104Z</time>
      </trkpt>
      <trkpt lat="51.47233" lon="6.70434">
        <ele>79.605733</ele>
        <time>2026-05-06T08:38:44.113Z</time>
      </trkpt>
      <trkpt lat="51.47234" lon="6.70417">
        <ele>79.645928</ele>
        <time>2026-05-06T08:38:47.091Z</time>
      </trkpt>
      <trkpt lat="51.47235" lon="6.70399">
        <ele>79.721009</ele>
        <time>2026-05-06T08:38:50.108Z</time>
      </trkpt>
      <trkpt lat="51.47237" lon="6.70383">
        <ele>79.7911</ele>
        <time>2026-05-06T08:38:53.103Z</time>
      </trkpt>
      <trkpt lat="51.47238" lon="6.70367">
        <ele>79.861274</ele>
        <time>2026-05-06T08:38:56.095Z</time>
      </trkpt>
      <trkpt lat="51.47239" lon="6.7035">
        <ele>79.933051</ele>
        <time>2026-05-06T08:38:59.113Z</time>
      </trkpt>
      <trkpt lat="51.4724" lon="6.70333">
        <ele>80.005418</ele>
        <time>2026-05-06T08:39:02.101Z</time>
      </trkpt>
      <trkpt lat="51.47242" lon="6.70316">
        <ele>80.078626</ele>
        <time>2026-05-06T08:39:05.098Z</time>
      </trkpt>
      <trkpt lat="51.47243" lon="6.70299">
        <ele>80.151106</ele>
        <time>2026-05-06T08:39:08.099Z</time>
      </trkpt>
      <trkpt lat="51.47244" lon="6.70282">
        <ele>80.222884</ele>
        <time>2026-05-06T08:39:11.096Z</time>
      </trkpt>
      <trkpt lat="51.47245" lon="6.70265">
        <ele>80.295671</ele>
        <time>2026-05-06T08:39:14.114Z</time>
      </trkpt>
      <trkpt lat="51.47247" lon="6.70249">
        <ele>80.365934</ele>
        <time>2026-05-06T08:39:17.094Z</time>
      </trkpt>
      <trkpt lat="51.47248" lon="6.70232">
        <ele>80.438414</ele>
        <time>2026-05-06T08:39:20.122Z</time>
      </trkpt>
      <trkpt lat="51.47249" lon="6.70215">
        <ele>80.509518</ele>
        <time>2026-05-06T08:39:23.111Z</time>
      </trkpt>
      <trkpt lat="51.4725" lon="6.70199">
        <ele>80.578766</ele>
        <time>2026-05-06T08:39:26.100Z</time>
      </trkpt>
      <trkpt lat="51.47252" lon="6.70182">
        <ele>80.649278</ele>
        <time>2026-05-06T08:39:29.106Z</time>
      </trkpt>
      <trkpt lat="51.47253" lon="6.70166">
        <ele>80.719646</ele>
        <time>2026-05-06T08:39:32.109Z</time>
      </trkpt>
      <trkpt lat="51.47254" lon="6.70149">
        <ele>80.790373</ele>
        <time>2026-05-06T08:39:35.103Z</time>
      </trkpt>
      <trkpt lat="51.47255" lon="6.70132">
        <ele>80.840934</ele>
        <time>2026-05-06T08:39:38.103Z</time>
      </trkpt>
      <trkpt lat="51.47256" lon="6.70115">
        <ele>80.771545</ele>
        <time>2026-05-06T08:39:41.097Z</time>
      </trkpt>
      <trkpt lat="51.47258" lon="6.70097">
        <ele>80.70119</ele>
        <time>2026-05-06T08:39:44.100Z</time>
      </trkpt>
      <trkpt lat="51.47259" lon="6.70079">
        <ele>80.631131</ele>
        <time>2026-05-06T08:39:47.098Z</time>
      </trkpt>
      <trkpt lat="51.4726" lon="6.70062">
        <ele>80.562437</ele>
        <time>2026-05-06T08:39:50.109Z</time>
      </trkpt>
      <trkpt lat="51.47261" lon="6.70045">
        <ele>80.492818</ele>
        <time>2026-05-06T08:39:53.099Z</time>
      </trkpt>
      <trkpt lat="51.47262" lon="6.70027">
        <ele>80.422879</ele>
        <time>2026-05-06T08:39:56.097Z</time>
      </trkpt>
      <trkpt lat="51.47264" lon="6.7001">
        <ele>80.354438</ele>
        <time>2026-05-06T08:39:59.103Z</time>
      </trkpt>
      <trkpt lat="51.47265" lon="6.69993">
        <ele>80.288816</ele>
        <time>2026-05-06T08:40:02.100Z</time>
      </trkpt>
      <trkpt lat="51.47267" lon="6.69977">
        <ele>80.223634</ele>
        <time>2026-05-06T08:40:05.097Z</time>
      </trkpt>
      <trkpt lat="51.47269" lon="6.69961">
        <ele>80.158395</ele>
        <time>2026-05-06T08:40:08.108Z</time>
      </trkpt>
      <trkpt lat="51.47271" lon="6.69945">
        <ele>80.092571</ele>
        <time>2026-05-06T08:40:11.086Z</time>
      </trkpt>
      <trkpt lat="51.47275" lon="6.69928">
        <ele>80.023174</ele>
        <time>2026-05-06T08:40:14.101Z</time>
      </trkpt>
      <trkpt lat="51.47279" lon="6.69911">
        <ele>79.952352</ele>
        <time>2026-05-06T08:40:17.104Z</time>
      </trkpt>
      <trkpt lat="51.47283" lon="6.69895">
        <ele>79.882411</ele>
        <time>2026-05-06T08:40:20.106Z</time>
      </trkpt>
      <trkpt lat="51.47287" lon="6.69879">
        <ele>79.815125</ele>
        <time>2026-05-06T08:40:23.111Z</time>
      </trkpt>
      <trkpt lat="51.47292" lon="6.69864">
        <ele>79.747101</ele>
        <time>2026-05-06T08:40:26.115Z</time>
      </trkpt>
      <trkpt lat="51.47297" lon="6.69849">
        <ele>79.734506</ele>
        <time>2026-05-06T08:40:29.105Z</time>
      </trkpt>
      <trkpt lat="51.47303" lon="6.69834">
        <ele>79.782223</ele>
        <time>2026-05-06T08:40:32.101Z</time>
      </trkpt>
      <trkpt lat="51.47309" lon="6.6982">
        <ele>79.829997</ele>
        <time>2026-05-06T08:40:35.106Z</time>
      </trkpt>
      <trkpt lat="51.47315" lon="6.69807">
        <ele>79.876159</ele>
        <time>2026-05-06T08:40:38.100Z</time>
      </trkpt>
      <trkpt lat="51.47321" lon="6.69794">
        <ele>79.921188</ele>
        <time>2026-05-06T08:40:41.103Z</time>
      </trkpt>
      <trkpt lat="51.47327" lon="6.69782">
        <ele>79.965816</ele>
        <time>2026-05-06T08:40:44.102Z</time>
      </trkpt>
      <trkpt lat="51.47333" lon="6.69769">
        <ele>80.012847</ele>
        <time>2026-05-06T08:40:47.101Z</time>
      </trkpt>
      <trkpt lat="51.47339" lon="6.69757">
        <ele>80.057603</ele>
        <time>2026-05-06T08:40:50.099Z</time>
      </trkpt>
      <trkpt lat="51.47346" lon="6.69743">
        <ele>80.105304</ele>
        <time>2026-05-06T08:40:53.102Z</time>
      </trkpt>
      <trkpt lat="51.47353" lon="6.6973">
        <ele>80.153768</ele>
        <time>2026-05-06T08:40:56.114Z</time>
      </trkpt>
      <trkpt lat="51.47359" lon="6.69717">
        <ele>80.200926</ele>
        <time>2026-05-06T08:40:59.098Z</time>
      </trkpt>
      <trkpt lat="51.47365" lon="6.69704">
        <ele>80.247233</ele>
        <time>2026-05-06T08:41:02.101Z</time>
      </trkpt>
      <trkpt lat="51.47372" lon="6.69691">
        <ele>80.296565</ele>
        <time>2026-05-06T08:41:05.093Z</time>
      </trkpt>
      <trkpt lat="51.4738" lon="6.69676">
        <ele>80.349895</ele>
        <time>2026-05-06T08:41:08.102Z</time>
      </trkpt>
      <trkpt lat="51.47387" lon="6.69663">
        <ele>80.398791</ele>
        <time>2026-05-06T08:41:11.102Z</time>
      </trkpt>
      <trkpt lat="51.47393" lon="6.69649">
        <ele>80.446992</ele>
        <time>2026-05-06T08:41:14.100Z</time>
      </trkpt>
      <trkpt lat="51.474" lon="6.69636">
        <ele>80.493864</ele>
        <time>2026-05-06T08:41:17.096Z</time>
      </trkpt>
      <trkpt lat="51.47406" lon="6.69623">
        <ele>80.481995</ele>
        <time>2026-05-06T08:41:20.119Z</time>
      </trkpt>
      <trkpt lat="51.47413" lon="6.69609">
        <ele>80.335328</ele>
        <time>2026-05-06T08:41:23.104Z</time>
      </trkpt>
      <trkpt lat="51.4742" lon="6.69594">
        <ele>80.1867</ele>
        <time>2026-05-06T08:41:26.108Z</time>
      </trkpt>
      <trkpt lat="51.47427" lon="6.6958">
        <ele>80.034793</ele>
        <time>2026-05-06T08:41:29.102Z</time>
      </trkpt>
      <trkpt lat="51.47434" lon="6.69566">
        <ele>79.890073</ele>
        <time>2026-05-06T08:41:32.100Z</time>
      </trkpt>
      <trkpt lat="51.47441" lon="6.69553">
        <ele>79.747483</ele>
        <time>2026-05-06T08:41:35.099Z</time>
      </trkpt>
      <trkpt lat="51.47447" lon="6.6954">
        <ele>79.605866</ele>
        <time>2026-05-06T08:41:38.104Z</time>
      </trkpt>
      <trkpt lat="51.47454" lon="6.69527">
        <ele>79.465834</ele>
        <time>2026-05-06T08:41:41.106Z</time>
      </trkpt>
      <trkpt lat="51.47461" lon="6.69512">
        <ele>79.312313</ele>
        <time>2026-05-06T08:41:44.104Z</time>
      </trkpt>
      <trkpt lat="51.47467" lon="6.69498">
        <ele>79.169885</ele>
        <time>2026-05-06T08:41:47.094Z</time>
      </trkpt>
      <trkpt lat="51.47474" lon="6.69485">
        <ele>79.027295</ele>
        <time>2026-05-06T08:41:50.106Z</time>
      </trkpt>
      <trkpt lat="51.47481" lon="6.69472">
        <ele>78.885332</ele>
        <time>2026-05-06T08:41:53.114Z</time>
      </trkpt>
      <trkpt lat="51.47488" lon="6.69459">
        <ele>78.752188</ele>
        <time>2026-05-06T08:41:56.101Z</time>
      </trkpt>
      <trkpt lat="51.47494" lon="6.69446">
        <ele>78.615853</ele>
        <time>2026-05-06T08:41:59.099Z</time>
      </trkpt>
      <trkpt lat="51.475" lon="6.69432">
        <ele>78.47504</ele>
        <time>2026-05-06T08:42:02.098Z</time>
      </trkpt>
      <trkpt lat="51.47507" lon="6.69415">
        <ele>78.304638</ele>
        <time>2026-05-06T08:42:05.101Z</time>
      </trkpt>
      <trkpt lat="51.47511" lon="6.69401">
        <ele>78.177654</ele>
        <time>2026-05-06T08:42:07.119Z</time>
      </trkpt>
      <trkpt lat="51.47517" lon="6.69387">
        <ele>78.09957</ele>
        <time>2026-05-06T08:42:09.109Z</time>
      </trkpt>
      <trkpt lat="51.47523" lon="6.69372">
        <ele>78.041254</ele>
        <time>2026-05-06T08:42:11.105Z</time>
      </trkpt>
      <trkpt lat="51.47529" lon="6.69357">
        <ele>77.98237</ele>
        <time>2026-05-06T08:42:13.104Z</time>
      </trkpt>
      <trkpt lat="51.47535" lon="6.69343">
        <ele>77.92339</ele>
        <time>2026-05-06T08:42:15.101Z</time>
      </trkpt>
      <trkpt lat="51.47542" lon="6.69329">
        <ele>77.866103</ele>
        <time>2026-05-06T08:42:17.106Z</time>
      </trkpt>
      <trkpt lat="51.47548" lon="6.69316">
        <ele>77.810062</ele>
        <time>2026-05-06T08:42:19.095Z</time>
      </trkpt>
      <trkpt lat="51.47554" lon="6.69303">
        <ele>77.757361</ele>
        <time>2026-05-06T08:42:21.099Z</time>
      </trkpt>
      <trkpt lat="51.4756" lon="6.69291">
        <ele>77.706481</ele>
        <time>2026-05-06T08:42:23.098Z</time>
      </trkpt>
      <trkpt lat="51.47566" lon="6.69279">
        <ele>77.655335</ele>
        <time>2026-05-06T08:42:25.099Z</time>
      </trkpt>
      <trkpt lat="51.47572" lon="6.69267">
        <ele>77.605709</ele>
        <time>2026-05-06T08:42:27.101Z</time>
      </trkpt>
      <trkpt lat="51.4758" lon="6.6925">
        <ele>77.535201</ele>
        <time>2026-05-06T08:42:30.104Z</time>
      </trkpt>
      <trkpt lat="51.47587" lon="6.69234">
        <ele>77.46836</ele>
        <time>2026-05-06T08:42:33.102Z</time>
      </trkpt>
      <trkpt lat="51.47595" lon="6.69219">
        <ele>77.405446</ele>
        <time>2026-05-06T08:42:36.096Z</time>
      </trkpt>
      <trkpt lat="51.47603" lon="6.69204">
        <ele>77.338208</ele>
        <time>2026-05-06T08:42:39.100Z</time>
      </trkpt>
      <trkpt lat="51.4761" lon="6.69187">
        <ele>77.269567</ele>
        <time>2026-05-06T08:42:42.104Z</time>
      </trkpt>
      <trkpt lat="51.47618" lon="6.69171">
        <ele>77.201475</ele>
        <time>2026-05-06T08:42:45.100Z</time>
      </trkpt>
      <trkpt lat="51.47627" lon="6.69155">
        <ele>77.13536</ele>
        <time>2026-05-06T08:42:48.110Z</time>
      </trkpt>
      <trkpt lat="51.47634" lon="6.6914">
        <ele>77.073028</ele>
        <time>2026-05-06T08:42:51.106Z</time>
      </trkpt>
      <trkpt lat="51.47642" lon="6.69124">
        <ele>77.009501</ele>
        <time>2026-05-06T08:42:54.092Z</time>
      </trkpt>
      <trkpt lat="51.47649" lon="6.69109">
        <ele>76.947667</ele>
        <time>2026-05-06T08:42:57.104Z</time>
      </trkpt>
      <trkpt lat="51.47657" lon="6.69095">
        <ele>76.886673</ele>
        <time>2026-05-06T08:43:00.106Z</time>
      </trkpt>
      <trkpt lat="51.47666" lon="6.69081">
        <ele>76.825096</ele>
        <time>2026-05-06T08:43:03.093Z</time>
      </trkpt>
      <trkpt lat="51.47674" lon="6.69068">
        <ele>76.764748</ele>
        <time>2026-05-06T08:43:06.099Z</time>
      </trkpt>
      <trkpt lat="51.47682" lon="6.69056">
        <ele>76.707132</ele>
        <time>2026-05-06T08:43:09.108Z</time>
      </trkpt>
      <trkpt lat="51.4769" lon="6.69044">
        <ele>76.651445</ele>
        <time>2026-05-06T08:43:12.107Z</time>
      </trkpt>
      <trkpt lat="51.47698" lon="6.69032">
        <ele>76.595167</ele>
        <time>2026-05-06T08:43:15.101Z</time>
      </trkpt>
      <trkpt lat="51.47706" lon="6.6902">
        <ele>76.539652</ele>
        <time>2026-05-06T08:43:18.095Z</time>
      </trkpt>
      <trkpt lat="51.47714" lon="6.69009">
        <ele>76.484797</ele>
        <time>2026-05-06T08:43:21.103Z</time>
      </trkpt>
      <trkpt lat="51.47723" lon="6.68999">
        <ele>76.428945</ele>
        <time>2026-05-06T08:43:24.096Z</time>
      </trkpt>
      <trkpt lat="51.47732" lon="6.68988">
        <ele>76.373406</ele>
        <time>2026-05-06T08:43:27.109Z</time>
      </trkpt>
      <trkpt lat="51.4774" lon="6.68978">
        <ele>76.318128</ele>
        <time>2026-05-06T08:43:30.103Z</time>
      </trkpt>
      <trkpt lat="51.47749" lon="6.68969">
        <ele>76.263002</ele>
        <time>2026-05-06T08:43:33.093Z</time>
      </trkpt>
      <trkpt lat="51.47759" lon="6.68959">
        <ele>76.263683</ele>
        <time>2026-05-06T08:43:36.107Z</time>
      </trkpt>
      <trkpt lat="51.47768" lon="6.6895">
        <ele>76.268146</ele>
        <time>2026-05-06T08:43:39.093Z</time>
      </trkpt>
      <trkpt lat="51.47777" lon="6.68941">
        <ele>76.272628</ele>
        <time>2026-05-06T08:43:42.099Z</time>
      </trkpt>
      <trkpt lat="51.47787" lon="6.68933">
        <ele>76.277085</ele>
        <time>2026-05-06T08:43:45.100Z</time>
      </trkpt>
      <trkpt lat="51.47796" lon="6.68925">
        <ele>76.281447</ele>
        <time>2026-05-06T08:43:48.112Z</time>
      </trkpt>
      <trkpt lat="51.47805" lon="6.68918">
        <ele>76.285664</ele>
        <time>2026-05-06T08:43:51.103Z</time>
      </trkpt>
      <trkpt lat="51.47815" lon="6.68911">
        <ele>76.290056</ele>
        <time>2026-05-06T08:43:54.098Z</time>
      </trkpt>
      <trkpt lat="51.47825" lon="6.68904">
        <ele>76.294595</ele>
        <time>2026-05-06T08:43:57.108Z</time>
      </trkpt>
      <trkpt lat="51.47835" lon="6.68897">
        <ele>76.299041</ele>
        <time>2026-05-06T08:44:00.099Z</time>
      </trkpt>
      <trkpt lat="51.47845" lon="6.68892">
        <ele>76.303171</ele>
        <time>2026-05-06T08:44:03.108Z</time>
      </trkpt>
      <trkpt lat="51.47854" lon="6.68887">
        <ele>76.307326</ele>
        <time>2026-05-06T08:44:06.098Z</time>
      </trkpt>
      <trkpt lat="51.47864" lon="6.68882">
        <ele>76.311502</ele>
        <time>2026-05-06T08:44:09.090Z</time>
      </trkpt>
      <trkpt lat="51.47874" lon="6.68879">
        <ele>76.315698</ele>
        <time>2026-05-06T08:44:12.099Z</time>
      </trkpt>
      <trkpt lat="51.47883" lon="6.68875">
        <ele>76.319655</ele>
        <time>2026-05-06T08:44:15.120Z</time>
      </trkpt>
      <trkpt lat="51.47893" lon="6.68871">
        <ele>76.323565</ele>
        <time>2026-05-06T08:44:18.102Z</time>
      </trkpt>
      <trkpt lat="51.47902" lon="6.68867">
        <ele>76.327457</ele>
        <time>2026-05-06T08:44:21.103Z</time>
      </trkpt>
      <trkpt lat="51.47912" lon="6.68863">
        <ele>76.331749</ele>
        <time>2026-05-06T08:44:24.103Z</time>
      </trkpt>
      <trkpt lat="51.47922" lon="6.68859">
        <ele>76.266797</ele>
        <time>2026-05-06T08:44:27.096Z</time>
      </trkpt>
      <trkpt lat="51.47933" lon="6.68855">
        <ele>76.162647</ele>
        <time>2026-05-06T08:44:30.098Z</time>
      </trkpt>
      <trkpt lat="51.47943" lon="6.68852">
        <ele>76.054995</ele>
        <time>2026-05-06T08:44:33.105Z</time>
      </trkpt>
      <trkpt lat="51.47954" lon="6.68849">
        <ele>75.94993</ele>
        <time>2026-05-06T08:44:36.126Z</time>
      </trkpt>
      <trkpt lat="51.47964" lon="6.68848">
        <ele>75.845597</ele>
        <time>2026-05-06T08:44:39.094Z</time>
      </trkpt>
      <trkpt lat="51.47974" lon="6.68848">
        <ele>75.745798</ele>
        <time>2026-05-06T08:44:42.118Z</time>
      </trkpt>
      <trkpt lat="51.47984" lon="6.68846">
        <ele>75.650372</ele>
        <time>2026-05-06T08:44:45.101Z</time>
      </trkpt>
      <trkpt lat="51.47995" lon="6.68846">
        <ele>75.539669</ele>
        <time>2026-05-06T08:44:49.107Z</time>
      </trkpt>
      <trkpt lat="51.48002" lon="6.68837">
        <ele>75.451051</ele>
        <time>2026-05-06T08:45:01.108Z</time>
      </trkpt>
      <trkpt lat="51.48031" lon="6.68844">
        <ele>75.161116</ele>
        <time>2026-05-06T08:47:12.110Z</time>
      </trkpt>
      <trkpt lat="51.48042" lon="6.68845">
        <ele>75.055095</ele>
        <time>2026-05-06T08:47:15.108Z</time>
      </trkpt>
      <trkpt lat="51.48053" lon="6.68849">
        <ele>74.947204</ele>
        <time>2026-05-06T08:47:18.094Z</time>
      </trkpt>
      <trkpt lat="51.48061" lon="6.68853">
        <ele>74.856671</ele>
        <time>2026-05-06T08:47:21.108Z</time>
      </trkpt>
      <trkpt lat="51.48072" lon="6.68859">
        <ele>74.749163</ele>
        <time>2026-05-06T08:47:27.114Z</time>
      </trkpt>
      <trkpt lat="51.48085" lon="6.68866">
        <ele>74.613872</ele>
        <time>2026-05-06T08:47:30.102Z</time>
      </trkpt>
      <trkpt lat="51.48094" lon="6.68873">
        <ele>74.586664</ele>
        <time>2026-05-06T08:47:32.108Z</time>
      </trkpt>
      <trkpt lat="51.48105" lon="6.6888">
        <ele>74.676215</ele>
        <time>2026-05-06T08:47:35.100Z</time>
      </trkpt>
      <trkpt lat="51.48115" lon="6.68882">
        <ele>74.746905</ele>
        <time>2026-05-06T08:47:37.102Z</time>
      </trkpt>
      <trkpt lat="51.48127" lon="6.68884">
        <ele>74.836243</ele>
        <time>2026-05-06T08:47:40.098Z</time>
      </trkpt>
      <trkpt lat="51.48139" lon="6.68885">
        <ele>74.923522</ele>
        <time>2026-05-06T08:47:43.109Z</time>
      </trkpt>
      <trkpt lat="51.48151" lon="6.68889">
        <ele>75.010806</ele>
        <time>2026-05-06T08:47:46.102Z</time>
      </trkpt>
      <trkpt lat="51.48162" lon="6.68894">
        <ele>75.094453</ele>
        <time>2026-05-06T08:47:49.110Z</time>
      </trkpt>
      <trkpt lat="51.48173" lon="6.689">
        <ele>75.176142</ele>
        <time>2026-05-06T08:47:52.092Z</time>
      </trkpt>
      <trkpt lat="51.48183" lon="6.68905">
        <ele>75.254927</ele>
        <time>2026-05-06T08:47:55.104Z</time>
      </trkpt>
      <trkpt lat="51.48193" lon="6.68912">
        <ele>75.335274</ele>
        <time>2026-05-06T08:47:58.099Z</time>
      </trkpt>
      <trkpt lat="51.48203" lon="6.68919">
        <ele>75.414122</ele>
        <time>2026-05-06T08:48:01.109Z</time>
      </trkpt>
      <trkpt lat="51.48213" lon="6.68927">
        <ele>75.494002</ele>
        <time>2026-05-06T08:48:04.112Z</time>
      </trkpt>
      <trkpt lat="51.48223" lon="6.68934">
        <ele>75.57331</ele>
        <time>2026-05-06T08:48:07.098Z</time>
      </trkpt>
      <trkpt lat="51.48234" lon="6.68942">
        <ele>75.656206</ele>
        <time>2026-05-06T08:48:10.105Z</time>
      </trkpt>
      <trkpt lat="51.48243" lon="6.6895">
        <ele>75.736478</ele>
        <time>2026-05-06T08:48:13.100Z</time>
      </trkpt>
      <trkpt lat="51.48253" lon="6.68958">
        <ele>75.814873</ele>
        <time>2026-05-06T08:48:16.097Z</time>
      </trkpt>
      <trkpt lat="51.48263" lon="6.68967">
        <ele>75.883719</ele>
        <time>2026-05-06T08:48:19.107Z</time>
      </trkpt>
      <trkpt lat="51.48272" lon="6.68976">
        <ele>75.934796</ele>
        <time>2026-05-06T08:48:22.102Z</time>
      </trkpt>
      <trkpt lat="51.48282" lon="6.68984">
        <ele>75.984974</ele>
        <time>2026-05-06T08:48:25.105Z</time>
      </trkpt>
      <trkpt lat="51.48291" lon="6.68993">
        <ele>76.034862</ele>
        <time>2026-05-06T08:48:28.115Z</time>
      </trkpt>
      <trkpt lat="51.48299" lon="6.69002">
        <ele>76.082572</ele>
        <time>2026-05-06T08:48:31.101Z</time>
      </trkpt>
      <trkpt lat="51.48307" lon="6.69012">
        <ele>76.12797</ele>
        <time>2026-05-06T08:48:34.107Z</time>
      </trkpt>
      <trkpt lat="51.48314" lon="6.69022">
        <ele>76.173572</ele>
        <time>2026-05-06T08:48:37.102Z</time>
      </trkpt>
      <trkpt lat="51.48321" lon="6.69033">
        <ele>76.217758</ele>
        <time>2026-05-06T08:48:40.111Z</time>
      </trkpt>
      <trkpt lat="51.48327" lon="6.69045">
        <ele>76.264209</ele>
        <time>2026-05-06T08:48:43.090Z</time>
      </trkpt>
      <trkpt lat="51.48333" lon="6.69059">
        <ele>76.311223</ele>
        <time>2026-05-06T08:48:46.116Z</time>
      </trkpt>
      <trkpt lat="51.48339" lon="6.6907">
        <ele>76.355657</ele>
        <time>2026-05-06T08:48:49.102Z</time>
      </trkpt>
      <trkpt lat="51.48345" lon="6.69082">
        <ele>76.399646</ele>
        <time>2026-05-06T08:48:52.095Z</time>
      </trkpt>
      <trkpt lat="51.48352" lon="6.69095">
        <ele>76.448114</ele>
        <time>2026-05-06T08:48:55.106Z</time>
      </trkpt>
      <trkpt lat="51.48358" lon="6.69107">
        <ele>76.494818</ele>
        <time>2026-05-06T08:48:58.093Z</time>
      </trkpt>
      <trkpt lat="51.48365" lon="6.69119">
        <ele>76.54323</ele>
        <time>2026-05-06T08:49:01.094Z</time>
      </trkpt>
      <trkpt lat="51.48372" lon="6.69133">
        <ele>76.595073</ele>
        <time>2026-05-06T08:49:04.111Z</time>
      </trkpt>
      <trkpt lat="51.4838" lon="6.69147">
        <ele>76.649817</ele>
        <time>2026-05-06T08:49:07.108Z</time>
      </trkpt>
      <trkpt lat="51.48388" lon="6.6916">
        <ele>76.699538</ele>
        <time>2026-05-06T08:49:10.106Z</time>
      </trkpt>
      <trkpt lat="51.48396" lon="6.69174">
        <ele>76.679081</ele>
        <time>2026-05-06T08:49:13.099Z</time>
      </trkpt>
      <trkpt lat="51.48404" lon="6.69187">
        <ele>76.659136</ele>
        <time>2026-05-06T08:49:16.103Z</time>
      </trkpt>
      <trkpt lat="51.48412" lon="6.692">
        <ele>76.638339</ele>
        <time>2026-05-06T08:49:19.092Z</time>
      </trkpt>
      <trkpt lat="51.48421" lon="6.69213">
        <ele>76.617641</ele>
        <time>2026-05-06T08:49:22.098Z</time>
      </trkpt>
      <trkpt lat="51.48429" lon="6.69227">
        <ele>76.597583</ele>
        <time>2026-05-06T08:49:25.106Z</time>
      </trkpt>
      <trkpt lat="51.48435" lon="6.6924">
        <ele>76.578875</ele>
        <time>2026-05-06T08:49:28.114Z</time>
      </trkpt>
      <trkpt lat="51.48442" lon="6.69255">
        <ele>76.559466</ele>
        <time>2026-05-06T08:49:31.107Z</time>
      </trkpt>
      <trkpt lat="51.48448" lon="6.69269">
        <ele>76.539983</ele>
        <time>2026-05-06T08:49:34.103Z</time>
      </trkpt>
      <trkpt lat="51.48455" lon="6.69286">
        <ele>76.518676</ele>
        <time>2026-05-06T08:49:37.103Z</time>
      </trkpt>
      <trkpt lat="51.4846" lon="6.69302">
        <ele>76.497978</ele>
        <time>2026-05-06T08:49:40.113Z</time>
      </trkpt>
      <trkpt lat="51.48467" lon="6.69319">
        <ele>76.476394</ele>
        <time>2026-05-06T08:49:43.103Z</time>
      </trkpt>
      <trkpt lat="51.48473" lon="6.69335">
        <ele>76.456014</ele>
        <time>2026-05-06T08:49:46.111Z</time>
      </trkpt>
      <trkpt lat="51.48479" lon="6.69351">
        <ele>76.436175</ele>
        <time>2026-05-06T08:49:49.102Z</time>
      </trkpt>
      <trkpt lat="51.48485" lon="6.69367">
        <ele>76.415329</ele>
        <time>2026-05-06T08:49:52.102Z</time>
      </trkpt>
      <trkpt lat="51.48491" lon="6.69384">
        <ele>76.393554</ele>
        <time>2026-05-06T08:49:55.098Z</time>
      </trkpt>
      <trkpt lat="51.48498" lon="6.69401">
        <ele>76.385322</ele>
        <time>2026-05-06T08:49:58.110Z</time>
      </trkpt>
      <trkpt lat="51.48503" lon="6.69418">
        <ele>76.385406</ele>
        <time>2026-05-06T08:50:01.106Z</time>
      </trkpt>
      <trkpt lat="51.48509" lon="6.69435">
        <ele>76.38549</ele>
        <time>2026-05-06T08:50:04.113Z</time>
      </trkpt>
      <trkpt lat="51.48515" lon="6.69453">
        <ele>76.385581</ele>
        <time>2026-05-06T08:50:07.110Z</time>
      </trkpt>
      <trkpt lat="51.48521" lon="6.69471">
        <ele>76.385667</ele>
        <time>2026-05-06T08:50:10.102Z</time>
      </trkpt>
      <trkpt lat="51.48527" lon="6.69488">
        <ele>76.385753</ele>
        <time>2026-05-06T08:50:13.102Z</time>
      </trkpt>
      <trkpt lat="51.48532" lon="6.69504">
        <ele>76.385835</ele>
        <time>2026-05-06T08:50:16.104Z</time>
      </trkpt>
      <trkpt lat="51.48537" lon="6.69521">
        <ele>76.385917</ele>
        <time>2026-05-06T08:50:19.110Z</time>
      </trkpt>
      <trkpt lat="51.48542" lon="6.6954">
        <ele>76.386006</ele>
        <time>2026-05-06T08:50:22.105Z</time>
      </trkpt>
      <trkpt lat="51.48548" lon="6.69557">
        <ele>76.386093</ele>
        <time>2026-05-06T08:50:25.108Z</time>
      </trkpt>
      <trkpt lat="51.48554" lon="6.69573">
        <ele>76.386173</ele>
        <time>2026-05-06T08:50:28.109Z</time>
      </trkpt>
      <trkpt lat="51.4856" lon="6.69589">
        <ele>76.386255</ele>
        <time>2026-05-06T08:50:31.109Z</time>
      </trkpt>
      <trkpt lat="51.48565" lon="6.69605">
        <ele>76.386334</ele>
        <time>2026-05-06T08:50:34.093Z</time>
      </trkpt>
      <trkpt lat="51.4857" lon="6.69621">
        <ele>76.386413</ele>
        <time>2026-05-06T08:50:37.094Z</time>
      </trkpt>
      <trkpt lat="51.48575" lon="6.69637">
        <ele>76.386493</ele>
        <time>2026-05-06T08:50:40.109Z</time>
      </trkpt>
      <trkpt lat="51.48581" lon="6.69653">
        <ele>76.591002</ele>
        <time>2026-05-06T08:50:43.097Z</time>
      </trkpt>
      <trkpt lat="51.48586" lon="6.69668">
        <ele>76.992342</ele>
        <time>2026-05-06T08:50:46.101Z</time>
      </trkpt>
      <trkpt lat="51.48591" lon="6.69683">
        <ele>77.405005</ele>
        <time>2026-05-06T08:50:49.112Z</time>
      </trkpt>
      <trkpt lat="51.48596" lon="6.69698">
        <ele>77.804688</ele>
        <time>2026-05-06T08:50:52.103Z</time>
      </trkpt>
      <trkpt lat="51.48602" lon="6.69713">
        <ele>78.206421</ele>
        <time>2026-05-06T08:50:55.108Z</time>
      </trkpt>
      <trkpt lat="51.48607" lon="6.69728">
        <ele>78.598584</ele>
        <time>2026-05-06T08:50:58.100Z</time>
      </trkpt>
      <trkpt lat="51.48611" lon="6.69743">
        <ele>78.993956</ele>
        <time>2026-05-06T08:51:01.107Z</time>
      </trkpt>
      <trkpt lat="51.48615" lon="6.69758">
        <ele>79.377744</ele>
        <time>2026-05-06T08:51:04.107Z</time>
      </trkpt>
      <trkpt lat="51.4862" lon="6.69772">
        <ele>79.758052</ele>
        <time>2026-05-06T08:51:07.102Z</time>
      </trkpt>
      <trkpt lat="51.48626" lon="6.69787">
        <ele>80.181354</ele>
        <time>2026-05-06T08:51:10.105Z</time>
      </trkpt>
      <trkpt lat="51.48632" lon="6.69803">
        <ele>80.626593</ele>
        <time>2026-05-06T08:51:13.094Z</time>
      </trkpt>
      <trkpt lat="51.48638" lon="6.69819">
        <ele>81.052002</ele>
        <time>2026-05-06T08:51:16.107Z</time>
      </trkpt>
      <trkpt lat="51.48643" lon="6.69834">
        <ele>81.457842</ele>
        <time>2026-05-06T08:51:19.103Z</time>
      </trkpt>
      <trkpt lat="51.48648" lon="6.69851">
        <ele>81.892789</ele>
        <time>2026-05-06T08:51:22.103Z</time>
      </trkpt>
      <trkpt lat="51.48652" lon="6.69868">
        <ele>82.325955</ele>
        <time>2026-05-06T08:51:25.101Z</time>
      </trkpt>
      <trkpt lat="51.48656" lon="6.69883">
        <ele>82.725688</ele>
        <time>2026-05-06T08:51:28.108Z</time>
      </trkpt>
      <trkpt lat="51.48661" lon="6.69897">
        <ele>83.09284</ele>
        <time>2026-05-06T08:51:31.106Z</time>
      </trkpt>
      <trkpt lat="51.48665" lon="6.69911">
        <ele>82.925066</ele>
        <time>2026-05-06T08:51:34.101Z</time>
      </trkpt>
      <trkpt lat="51.4867" lon="6.69927">
        <ele>82.519662</ele>
        <time>2026-05-06T08:51:37.103Z</time>
      </trkpt>
      <trkpt lat="51.48676" lon="6.69943">
        <ele>82.11772</ele>
        <time>2026-05-06T08:51:40.109Z</time>
      </trkpt>
      <trkpt lat="51.48679" lon="6.69958">
        <ele>81.756756</ele>
        <time>2026-05-06T08:51:43.104Z</time>
      </trkpt>
      <trkpt lat="51.48683" lon="6.69974">
        <ele>81.361322</ele>
        <time>2026-05-06T08:51:46.112Z</time>
      </trkpt>
      <trkpt lat="51.48689" lon="6.69988">
        <ele>80.993503</ele>
        <time>2026-05-06T08:51:49.088Z</time>
      </trkpt>
      <trkpt lat="51.48694" lon="6.70003">
        <ele>80.61916</ele>
        <time>2026-05-06T08:51:52.107Z</time>
      </trkpt>
      <trkpt lat="51.48699" lon="6.70019">
        <ele>80.22171</ele>
        <time>2026-05-06T08:51:55.102Z</time>
      </trkpt>
      <trkpt lat="51.48704" lon="6.70035">
        <ele>79.823507</ele>
        <time>2026-05-06T08:51:58.100Z</time>
      </trkpt>
      <trkpt lat="51.48709" lon="6.7005">
        <ele>79.427028</ele>
        <time>2026-05-06T08:52:01.105Z</time>
      </trkpt>
      <trkpt lat="51.48714" lon="6.70067">
        <ele>79.025869</ele>
        <time>2026-05-06T08:52:04.102Z</time>
      </trkpt>
      <trkpt lat="51.48717" lon="6.70084">
        <ele>78.615241</ele>
        <time>2026-05-06T08:52:07.114Z</time>
      </trkpt>
      <trkpt lat="51.48723" lon="6.70099">
        <ele>78.216879</ele>
        <time>2026-05-06T08:52:10.106Z</time>
      </trkpt>
      <trkpt lat="51.48729" lon="6.70114">
        <ele>77.83764</ele>
        <time>2026-05-06T08:52:13.098Z</time>
      </trkpt>
      <trkpt lat="51.48735" lon="6.70129">
        <ele>77.420129</ele>
        <time>2026-05-06T08:52:16.104Z</time>
      </trkpt>
      <trkpt lat="51.4874" lon="6.70147">
        <ele>76.993163</ele>
        <time>2026-05-06T08:52:19.103Z</time>
      </trkpt>
      <trkpt lat="51.48743" lon="6.70164">
        <ele>76.846063</ele>
        <time>2026-05-06T08:52:22.103Z</time>
      </trkpt>
      <trkpt lat="51.48747" lon="6.70179">
        <ele>77.162213</ele>
        <time>2026-05-06T08:52:25.098Z</time>
      </trkpt>
      <trkpt lat="51.48751" lon="6.70193">
        <ele>77.449913</ele>
        <time>2026-05-06T08:52:28.101Z</time>
      </trkpt>
      <trkpt lat="51.48756" lon="6.70209">
        <ele>77.795011</ele>
        <time>2026-05-06T08:52:32.116Z</time>
      </trkpt>
      <trkpt lat="51.48761" lon="6.70223">
        <ele>78.09608</ele>
        <time>2026-05-06T08:52:35.111Z</time>
      </trkpt>
      <trkpt lat="51.48767" lon="6.70238">
        <ele>78.436824</ele>
        <time>2026-05-06T08:52:38.104Z</time>
      </trkpt>
      <trkpt lat="51.48774" lon="6.70252">
        <ele>78.790669</ele>
        <time>2026-05-06T08:52:41.104Z</time>
      </trkpt>
      <trkpt lat="51.48782" lon="6.70267">
        <ele>79.160406</ele>
        <time>2026-05-06T08:52:44.110Z</time>
      </trkpt>
      <trkpt lat="51.48788" lon="6.70284">
        <ele>79.534986</ele>
        <time>2026-05-06T08:52:47.102Z</time>
      </trkpt>
      <trkpt lat="51.48794" lon="6.70301">
        <ele>79.896261</ele>
        <time>2026-05-06T08:52:50.113Z</time>
      </trkpt>
      <trkpt lat="51.48799" lon="6.70317">
        <ele>80.240724</ele>
        <time>2026-05-06T08:52:53.099Z</time>
      </trkpt>
      <trkpt lat="51.48806" lon="6.70332">
        <ele>80.601343</ele>
        <time>2026-05-06T08:52:56.114Z</time>
      </trkpt>
      <trkpt lat="51.48811" lon="6.70348">
        <ele>80.94915</ele>
        <time>2026-05-06T08:52:59.097Z</time>
      </trkpt>
      <trkpt lat="51.48817" lon="6.70363">
        <ele>81.278686</ele>
        <time>2026-05-06T08:53:02.106Z</time>
      </trkpt>
      <trkpt lat="51.48823" lon="6.70378">
        <ele>81.604866</ele>
        <time>2026-05-06T08:53:05.093Z</time>
      </trkpt>
      <trkpt lat="51.48827" lon="6.70393">
        <ele>81.919405</ele>
        <time>2026-05-06T08:53:08.099Z</time>
      </trkpt>
      <trkpt lat="51.48832" lon="6.7041">
        <ele>82.31249</ele>
        <time>2026-05-06T08:53:11.104Z</time>
      </trkpt>
      <trkpt lat="51.48837" lon="6.70427">
        <ele>82.737216</ele>
        <time>2026-05-06T08:53:14.103Z</time>
      </trkpt>
      <trkpt lat="51.48841" lon="6.70442">
        <ele>83.132881</ele>
        <time>2026-05-06T08:53:17.106Z</time>
      </trkpt>
      <trkpt lat="51.48845" lon="6.70457">
        <ele>83.540375</ele>
        <time>2026-05-06T08:53:20.106Z</time>
      </trkpt>
      <trkpt lat="51.4885" lon="6.70471">
        <ele>83.917938</ele>
        <time>2026-05-06T08:53:23.110Z</time>
      </trkpt>
      <trkpt lat="51.48855" lon="6.70486">
        <ele>84.315177</ele>
        <time>2026-05-06T08:53:26.103Z</time>
      </trkpt>
      <trkpt lat="51.48858" lon="6.70502">
        <ele>84.728279</ele>
        <time>2026-05-06T08:53:29.106Z</time>
      </trkpt>
      <trkpt lat="51.48863" lon="6.70519">
        <ele>85.162294</ele>
        <time>2026-05-06T08:53:32.108Z</time>
      </trkpt>
      <trkpt lat="51.48869" lon="6.70537">
        <ele>85.642204</ele>
        <time>2026-05-06T08:53:35.102Z</time>
      </trkpt>
      <trkpt lat="51.48875" lon="6.70554">
        <ele>86.12074</ele>
        <time>2026-05-06T08:53:38.106Z</time>
      </trkpt>
      <trkpt lat="51.48881" lon="6.70571">
        <ele>86.571692</ele>
        <time>2026-05-06T08:53:41.102Z</time>
      </trkpt>
      <trkpt lat="51.48886" lon="6.70587">
        <ele>87.001426</ele>
        <time>2026-05-06T08:53:44.106Z</time>
      </trkpt>
      <trkpt lat="51.4889" lon="6.70602">
        <ele>87.408073</ele>
        <time>2026-05-06T08:53:47.107Z</time>
      </trkpt>
      <trkpt lat="51.48893" lon="6.70617">
        <ele>87.773031</ele>
        <time>2026-05-06T08:53:50.100Z</time>
      </trkpt>
      <trkpt lat="51.48895" lon="6.70633">
        <ele>88.17725</ele>
        <time>2026-05-06T08:53:53.107Z</time>
      </trkpt>
      <trkpt lat="51.489" lon="6.70649">
        <ele>88.586462</ele>
        <time>2026-05-06T08:53:56.108Z</time>
      </trkpt>
      <trkpt lat="51.48907" lon="6.70662">
        <ele>88.997862</ele>
        <time>2026-05-06T08:53:59.115Z</time>
      </trkpt>
      <trkpt lat="51.48911" lon="6.70678">
        <ele>89.288274</ele>
        <time>2026-05-06T08:54:02.106Z</time>
      </trkpt>
      <trkpt lat="51.48916" lon="6.70694">
        <ele>89.529033</ele>
        <time>2026-05-06T08:54:05.101Z</time>
      </trkpt>
      <trkpt lat="51.4892" lon="6.7071">
        <ele>89.768195</ele>
        <time>2026-05-06T08:54:08.106Z</time>
      </trkpt>
      <trkpt lat="51.48924" lon="6.70726">
        <ele>90.000089</ele>
        <time>2026-05-06T08:54:11.103Z</time>
      </trkpt>
      <trkpt lat="51.48929" lon="6.70742">
        <ele>90.244785</ele>
        <time>2026-05-06T08:54:14.112Z</time>
      </trkpt>
      <trkpt lat="51.48934" lon="6.70758">
        <ele>90.476312</ele>
        <time>2026-05-06T08:54:17.108Z</time>
      </trkpt>
      <trkpt lat="51.48938" lon="6.70773">
        <ele>90.706593</ele>
        <time>2026-05-06T08:54:20.105Z</time>
      </trkpt>
      <trkpt lat="51.48943" lon="6.70788">
        <ele>90.925243</ele>
        <time>2026-05-06T08:54:23.093Z</time>
      </trkpt>
      <trkpt lat="51.48947" lon="6.70803">
        <ele>91.149342</ele>
        <time>2026-05-06T08:54:26.097Z</time>
      </trkpt>
      <trkpt lat="51.48951" lon="6.70818">
        <ele>91.370364</ele>
        <time>2026-05-06T08:54:29.104Z</time>
      </trkpt>
      <trkpt lat="51.48954" lon="6.70832">
        <ele>91.575751</ele>
        <time>2026-05-06T08:54:32.104Z</time>
      </trkpt>
      <trkpt lat="51.48957" lon="6.70847">
        <ele>91.790923</ele>
        <time>2026-05-06T08:54:35.106Z</time>
      </trkpt>
      <trkpt lat="51.48962" lon="6.7086">
        <ele>91.993959</ele>
        <time>2026-05-06T08:54:38.095Z</time>
      </trkpt>
      <trkpt lat="51.48968" lon="6.70876">
        <ele>92.250997</ele>
        <time>2026-05-06T08:54:42.100Z</time>
      </trkpt>
      <trkpt lat="51.48974" lon="6.70891">
        <ele>92.497664</ele>
        <time>2026-05-06T08:54:45.114Z</time>
      </trkpt>
      <trkpt lat="51.48979" lon="6.70907">
        <ele>92.733022</ele>
        <time>2026-05-06T08:54:48.101Z</time>
      </trkpt>
      <trkpt lat="51.48984" lon="6.70922">
        <ele>92.96115</ele>
        <time>2026-05-06T08:54:51.106Z</time>
      </trkpt>
      <trkpt lat="51.48988" lon="6.70936">
        <ele>92.769056</ele>
        <time>2026-05-06T08:54:54.101Z</time>
      </trkpt>
      <trkpt lat="51.48992" lon="6.7095">
        <ele>92.363144</ele>
        <time>2026-05-06T08:54:57.097Z</time>
      </trkpt>
      <trkpt lat="51.48997" lon="6.70964">
        <ele>91.942704</ele>
        <time>2026-05-06T08:55:00.110Z</time>
      </trkpt>
      <trkpt lat="51.49003" lon="6.70979">
        <ele>91.484386</ele>
        <time>2026-05-06T08:55:03.100Z</time>
      </trkpt>
      <trkpt lat="51.49008" lon="6.70995">
        <ele>91.011028</ele>
        <time>2026-05-06T08:55:06.105Z</time>
      </trkpt>
      <trkpt lat="51.49011" lon="6.71012">
        <ele>90.523238</ele>
        <time>2026-05-06T08:55:09.098Z</time>
      </trkpt>
      <trkpt lat="51.49016" lon="6.71028">
        <ele>90.061627</ele>
        <time>2026-05-06T08:55:12.103Z</time>
      </trkpt>
      <trkpt lat="51.49021" lon="6.71043">
        <ele>89.618005</ele>
        <time>2026-05-06T08:55:15.102Z</time>
      </trkpt>
      <trkpt lat="51.49027" lon="6.71059">
        <ele>89.130472</ele>
        <time>2026-05-06T08:55:18.093Z</time>
      </trkpt>
      <trkpt lat="51.49032" lon="6.71075">
        <ele>88.63801</ele>
        <time>2026-05-06T08:55:21.108Z</time>
      </trkpt>
      <trkpt lat="51.49037" lon="6.71091">
        <ele>88.159485</ele>
        <time>2026-05-06T08:55:24.088Z</time>
      </trkpt>
      <trkpt lat="51.49041" lon="6.71106">
        <ele>87.725936</ele>
        <time>2026-05-06T08:55:27.091Z</time>
      </trkpt>
      <trkpt lat="51.49046" lon="6.71122">
        <ele>87.276131</ele>
        <time>2026-05-06T08:55:30.108Z</time>
      </trkpt>
      <trkpt lat="51.4905" lon="6.71138">
        <ele>86.792841</ele>
        <time>2026-05-06T08:55:33.106Z</time>
      </trkpt>
      <trkpt lat="51.49055" lon="6.71155">
        <ele>86.316108</ele>
        <time>2026-05-06T08:55:36.091Z</time>
      </trkpt>
      <trkpt lat="51.49059" lon="6.71172">
        <ele>85.838556</ele>
        <time>2026-05-06T08:55:39.107Z</time>
      </trkpt>
      <trkpt lat="51.49063" lon="6.71187">
        <ele>85.396802</ele>
        <time>2026-05-06T08:55:42.093Z</time>
      </trkpt>
      <trkpt lat="51.49067" lon="6.71203">
        <ele>85.227105</ele>
        <time>2026-05-06T08:55:45.107Z</time>
      </trkpt>
      <trkpt lat="51.49071" lon="6.7122">
        <ele>85.04422</ele>
        <time>2026-05-06T08:55:48.105Z</time>
      </trkpt>
      <trkpt lat="51.49075" lon="6.71237">
        <ele>84.865372</ele>
        <time>2026-05-06T08:55:51.106Z</time>
      </trkpt>
      <trkpt lat="51.49078" lon="6.71254">
        <ele>84.69328</ele>
        <time>2026-05-06T08:55:54.106Z</time>
      </trkpt>
      <trkpt lat="51.49081" lon="6.71269">
        <ele>84.530819</ele>
        <time>2026-05-06T08:55:57.100Z</time>
      </trkpt>
      <trkpt lat="51.49084" lon="6.71286">
        <ele>84.363437</ele>
        <time>2026-05-06T08:56:00.105Z</time>
      </trkpt>
      <trkpt lat="51.49086" lon="6.71301">
        <ele>84.202116</ele>
        <time>2026-05-06T08:56:03.112Z</time>
      </trkpt>
      <trkpt lat="51.49089" lon="6.71317">
        <ele>84.040795</ele>
        <time>2026-05-06T08:56:06.090Z</time>
      </trkpt>
      <trkpt lat="51.49091" lon="6.71332">
        <ele>83.883722</ele>
        <time>2026-05-06T08:56:09.109Z</time>
      </trkpt>
      <trkpt lat="51.49095" lon="6.71349">
        <ele>83.710631</ele>
        <time>2026-05-06T08:56:12.098Z</time>
      </trkpt>
      <trkpt lat="51.49099" lon="6.71365">
        <ele>83.537233</ele>
        <time>2026-05-06T08:56:15.107Z</time>
      </trkpt>
      <trkpt lat="51.49102" lon="6.71382">
        <ele>83.364676</ele>
        <time>2026-05-06T08:56:18.100Z</time>
      </trkpt>
      <trkpt lat="51.49105" lon="6.71398">
        <ele>83.191633</ele>
        <time>2026-05-06T08:56:21.101Z</time>
      </trkpt>
      <trkpt lat="51.49109" lon="6.71415">
        <ele>83.016146</ele>
        <time>2026-05-06T08:56:24.100Z</time>
      </trkpt>
      <trkpt lat="51.49112" lon="6.71432">
        <ele>82.836788</ele>
        <time>2026-05-06T08:56:27.096Z</time>
      </trkpt>
      <trkpt lat="51.49115" lon="6.71449">
        <ele>82.662794</ele>
        <time>2026-05-06T08:56:30.103Z</time>
      </trkpt>
      <trkpt lat="51.49118" lon="6.71465">
        <ele>82.479824</ele>
        <time>2026-05-06T08:56:33.095Z</time>
      </trkpt>
      <trkpt lat="51.4912" lon="6.71481">
        <ele>82.216377</ele>
        <time>2026-05-06T08:56:36.106Z</time>
      </trkpt>
      <trkpt lat="51.49123" lon="6.71498">
        <ele>81.939972</ele>
        <time>2026-05-06T08:56:39.102Z</time>
      </trkpt>
      <trkpt lat="51.49127" lon="6.71516">
        <ele>81.652368</ele>
        <time>2026-05-06T08:56:42.101Z</time>
      </trkpt>
      <trkpt lat="51.4913" lon="6.71533">
        <ele>81.37073</ele>
        <time>2026-05-06T08:56:45.097Z</time>
      </trkpt>
      <trkpt lat="51.49133" lon="6.7155">
        <ele>81.092898</ele>
        <time>2026-05-06T08:56:48.098Z</time>
      </trkpt>
      <trkpt lat="51.49136" lon="6.71567">
        <ele>80.810548</ele>
        <time>2026-05-06T08:56:51.100Z</time>
      </trkpt>
      <trkpt lat="51.4914" lon="6.71585">
        <ele>80.515861</ele>
        <time>2026-05-06T08:56:54.096Z</time>
      </trkpt>
      <trkpt lat="51.49144" lon="6.71602">
        <ele>80.220704</ele>
        <time>2026-05-06T08:56:57.106Z</time>
      </trkpt>
      <trkpt lat="51.49148" lon="6.7162">
        <ele>79.923668</ele>
        <time>2026-05-06T08:57:00.106Z</time>
      </trkpt>
      <trkpt lat="51.49152" lon="6.71636">
        <ele>79.649912</ele>
        <time>2026-05-06T08:57:03.098Z</time>
      </trkpt>
      <trkpt lat="51.49156" lon="6.71653">
        <ele>79.372451</ele>
        <time>2026-05-06T08:57:06.106Z</time>
      </trkpt>
      <trkpt lat="51.4916" lon="6.7167">
        <ele>79.085302</ele>
        <time>2026-05-06T08:57:09.103Z</time>
      </trkpt>
      <trkpt lat="51.49165" lon="6.71686">
        <ele>78.802027</ele>
        <time>2026-05-06T08:57:12.119Z</time>
      </trkpt>
      <trkpt lat="51.49169" lon="6.71701">
        <ele>78.53425</ele>
        <time>2026-05-06T08:57:15.092Z</time>
      </trkpt>
      <trkpt lat="51.49173" lon="6.71716">
        <ele>78.287678</ele>
        <time>2026-05-06T08:57:18.101Z</time>
      </trkpt>
      <trkpt lat="51.49178" lon="6.7173">
        <ele>78.038701</ele>
        <time>2026-05-06T08:57:21.100Z</time>
      </trkpt>
      <trkpt lat="51.49183" lon="6.71744">
        <ele>77.976969</ele>
        <time>2026-05-06T08:57:24.100Z</time>
      </trkpt>
      <trkpt lat="51.49187" lon="6.71758">
        <ele>77.965833</ele>
        <time>2026-05-06T08:57:27.102Z</time>
      </trkpt>
      <trkpt lat="51.49192" lon="6.71772">
        <ele>77.95455</ele>
        <time>2026-05-06T08:57:30.106Z</time>
      </trkpt>
      <trkpt lat="51.49196" lon="6.71785">
        <ele>77.943925</ele>
        <time>2026-05-06T08:57:33.104Z</time>
      </trkpt>
      <trkpt lat="51.49201" lon="6.71798">
        <ele>77.933376</ele>
        <time>2026-05-06T08:57:36.106Z</time>
      </trkpt>
      <trkpt lat="51.49206" lon="6.71811">
        <ele>77.922522</ele>
        <time>2026-05-06T08:57:40.099Z</time>
      </trkpt>
      <trkpt lat="51.4921" lon="6.71824">
        <ele>77.911931</ele>
        <time>2026-05-06T08:57:49.100Z</time>
      </trkpt>
      <trkpt lat="51.49227" lon="6.71869">
        <ele>77.875248</ele>
        <time>2026-05-06T08:59:36.103Z</time>
      </trkpt>
      <trkpt lat="51.49232" lon="6.71882">
        <ele>77.863965</ele>
        <time>2026-05-06T08:59:38.110Z</time>
      </trkpt>
      <trkpt lat="51.49238" lon="6.71894">
        <ele>77.853083</ele>
        <time>2026-05-06T08:59:40.104Z</time>
      </trkpt>
      <trkpt lat="51.49244" lon="6.71906">
        <ele>77.842495</ele>
        <time>2026-05-06T08:59:42.092Z</time>
      </trkpt>
      <trkpt lat="51.49252" lon="6.71923">
        <ele>77.82748</ele>
        <time>2026-05-06T08:59:45.098Z</time>
      </trkpt>
      <trkpt lat="51.4926" lon="6.71939">
        <ele>77.812849</ele>
        <time>2026-05-06T08:59:48.107Z</time>
      </trkpt>
      <trkpt lat="51.49268" lon="6.71955">
        <ele>77.798415</ele>
        <time>2026-05-06T08:59:51.094Z</time>
      </trkpt>
      <trkpt lat="51.49276" lon="6.7197">
        <ele>77.784545</ele>
        <time>2026-05-06T08:59:54.124Z</time>
      </trkpt>
      <trkpt lat="51.49284" lon="6.71984">
        <ele>77.781358</ele>
        <time>2026-05-06T08:59:57.100Z</time>
      </trkpt>
      <trkpt lat="51.49292" lon="6.71998">
        <ele>77.781003</ele>
        <time>2026-05-06T09:00:00.103Z</time>
      </trkpt>
      <trkpt lat="51.493" lon="6.72012">
        <ele>77.780657</ele>
        <time>2026-05-06T09:00:03.100Z</time>
      </trkpt>
      <trkpt lat="51.49308" lon="6.72026">
        <ele>77.780307</ele>
        <time>2026-05-06T09:00:06.101Z</time>
      </trkpt>
      <trkpt lat="51.49316" lon="6.72039">
        <ele>77.779972</ele>
        <time>2026-05-06T09:00:09.104Z</time>
      </trkpt>
      <trkpt lat="51.49324" lon="6.72052">
        <ele>77.779635</ele>
        <time>2026-05-06T09:00:12.105Z</time>
      </trkpt>
      <trkpt lat="51.49332" lon="6.72064">
        <ele>77.779314</ele>
        <time>2026-05-06T09:00:15.087Z</time>
      </trkpt>
      <trkpt lat="51.4934" lon="6.72076">
        <ele>77.778983</ele>
        <time>2026-05-06T09:00:18.097Z</time>
      </trkpt>
      <trkpt lat="51.49348" lon="6.72089">
        <ele>77.77865</ele>
        <time>2026-05-06T09:00:21.093Z</time>
      </trkpt>
      <trkpt lat="51.49356" lon="6.72101">
        <ele>77.778326</ele>
        <time>2026-05-06T09:00:24.104Z</time>
      </trkpt>
      <trkpt lat="51.49365" lon="6.72113">
        <ele>77.777994</ele>
        <time>2026-05-06T09:00:27.102Z</time>
      </trkpt>
      <trkpt lat="51.49373" lon="6.72124">
        <ele>77.777666</ele>
        <time>2026-05-06T09:00:30.102Z</time>
      </trkpt>
      <trkpt lat="51.49382" lon="6.72135">
        <ele>77.777347</ele>
        <time>2026-05-06T09:00:33.113Z</time>
      </trkpt>
      <trkpt lat="51.4939" lon="6.72145">
        <ele>77.777042</ele>
        <time>2026-05-06T09:00:36.104Z</time>
      </trkpt>
      <trkpt lat="51.49398" lon="6.72155">
        <ele>77.776755</ele>
        <time>2026-05-06T09:00:39.104Z</time>
      </trkpt>
      <trkpt lat="51.49405" lon="6.72164">
        <ele>77.776477</ele>
        <time>2026-05-06T09:00:42.130Z</time>
      </trkpt>
      <trkpt lat="51.49413" lon="6.72171">
        <ele>77.91121</ele>
        <time>2026-05-06T09:00:45.102Z</time>
      </trkpt>
      <trkpt lat="51.49422" lon="6.72178">
        <ele>78.208876</ele>
        <time>2026-05-06T09:00:48.091Z</time>
      </trkpt>
      <trkpt lat="51.4943" lon="6.72185">
        <ele>78.515235</ele>
        <time>2026-05-06T09:00:51.107Z</time>
      </trkpt>
      <trkpt lat="51.49441" lon="6.72193">
        <ele>78.898772</ele>
        <time>2026-05-06T09:00:55.101Z</time>
      </trkpt>
      <trkpt lat="51.49449" lon="6.72199">
        <ele>79.200349</ele>
        <time>2026-05-06T09:00:59.110Z</time>
      </trkpt>
      <trkpt lat="51.49458" lon="6.72205">
        <ele>79.501428</ele>
        <time>2026-05-06T09:01:04.111Z</time>
      </trkpt>
      <trkpt lat="51.4949" lon="6.72225">
        <ele>80.624212</ele>
        <time>2026-05-06T09:02:53.104Z</time>
      </trkpt>
      <trkpt lat="51.49498" lon="6.72233">
        <ele>80.943892</ele>
        <time>2026-05-06T09:02:57.101Z</time>
      </trkpt>
      <trkpt lat="51.49507" lon="6.72239">
        <ele>81.258249</ele>
        <time>2026-05-06T09:03:01.101Z</time>
      </trkpt>
      <trkpt lat="51.49517" lon="6.72243">
        <ele>81.590722</ele>
        <time>2026-05-06T09:03:04.095Z</time>
      </trkpt>
      <trkpt lat="51.49526" lon="6.72248">
        <ele>81.913861</ele>
        <time>2026-05-06T09:03:07.102Z</time>
      </trkpt>
      <trkpt lat="51.49536" lon="6.72254">
        <ele>82.241029</ele>
        <time>2026-05-06T09:03:10.112Z</time>
      </trkpt>
      <trkpt lat="51.49546" lon="6.72265">
        <ele>82.651531</ele>
        <time>2026-05-06T09:03:13.105Z</time>
      </trkpt>
      <trkpt lat="51.49555" lon="6.72271">
        <ele>82.951385</ele>
        <time>2026-05-06T09:03:15.110Z</time>
      </trkpt>
      <trkpt lat="51.49567" lon="6.72277">
        <ele>83.359519</ele>
        <time>2026-05-06T09:03:18.099Z</time>
      </trkpt>
      <trkpt lat="51.49579" lon="6.72282">
        <ele>83.566934</ele>
        <time>2026-05-06T09:03:21.097Z</time>
      </trkpt>
      <trkpt lat="51.4959" lon="6.72289">
        <ele>83.360615</ele>
        <time>2026-05-06T09:03:24.099Z</time>
      </trkpt>
      <trkpt lat="51.496" lon="6.72294">
        <ele>83.175558</ele>
        <time>2026-05-06T09:03:27.098Z</time>
      </trkpt>
      <trkpt lat="51.4961" lon="6.72298">
        <ele>83.001646</ele>
        <time>2026-05-06T09:03:30.100Z</time>
      </trkpt>
      <trkpt lat="51.49621" lon="6.72305">
        <ele>82.796823</ele>
        <time>2026-05-06T09:03:33.102Z</time>
      </trkpt>
      <trkpt lat="51.49632" lon="6.72311">
        <ele>82.592124</ele>
        <time>2026-05-06T09:03:36.104Z</time>
      </trkpt>
      <trkpt lat="51.49643" lon="6.72318">
        <ele>82.387022</ele>
        <time>2026-05-06T09:03:39.099Z</time>
      </trkpt>
      <trkpt lat="51.49654" lon="6.72322">
        <ele>82.19877</ele>
        <time>2026-05-06T09:03:42.098Z</time>
      </trkpt>
      <trkpt lat="51.49663" lon="6.72327">
        <ele>82.033694</ele>
        <time>2026-05-06T09:03:45.104Z</time>
      </trkpt>
      <trkpt lat="51.49673" lon="6.72335">
        <ele>81.84768</ele>
        <time>2026-05-06T09:03:48.110Z</time>
      </trkpt>
      <trkpt lat="51.49683" lon="6.72343">
        <ele>81.648512</ele>
        <time>2026-05-06T09:03:51.110Z</time>
      </trkpt>
      <trkpt lat="51.49694" lon="6.72351">
        <ele>81.43747</ele>
        <time>2026-05-06T09:03:54.114Z</time>
      </trkpt>
      <trkpt lat="51.49702" lon="6.72358">
        <ele>81.282681</ele>
        <time>2026-05-06T09:03:56.111Z</time>
      </trkpt>
      <trkpt lat="51.49714" lon="6.72365">
        <ele>81.065955</ele>
        <time>2026-05-06T09:03:59.101Z</time>
      </trkpt>
      <trkpt lat="51.49726" lon="6.7237">
        <ele>80.857442</ele>
        <time>2026-05-06T09:04:02.106Z</time>
      </trkpt>
      <trkpt lat="51.49736" lon="6.72377">
        <ele>80.669901</ele>
        <time>2026-05-06T09:04:05.092Z</time>
      </trkpt>
      <trkpt lat="51.49745" lon="6.72383">
        <ele>80.564633</ele>
        <time>2026-05-06T09:04:08.116Z</time>
      </trkpt>
      <trkpt lat="51.49754" lon="6.7239">
        <ele>80.68956</ele>
        <time>2026-05-06T09:04:11.105Z</time>
      </trkpt>
      <trkpt lat="51.49762" lon="6.724">
        <ele>80.813971</ele>
        <time>2026-05-06T09:04:14.100Z</time>
      </trkpt>
      <trkpt lat="51.4977" lon="6.7241">
        <ele>80.942973</ele>
        <time>2026-05-06T09:04:17.091Z</time>
      </trkpt>
      <trkpt lat="51.49779" lon="6.72423">
        <ele>81.089585</ele>
        <time>2026-05-06T09:04:20.110Z</time>
      </trkpt>
      <trkpt lat="51.49784" lon="6.72437">
        <ele>81.21281</ele>
        <time>2026-05-06T09:04:23.097Z</time>
      </trkpt>
      <trkpt lat="51.4979" lon="6.72452">
        <ele>81.34703</ele>
        <time>2026-05-06T09:04:27.111Z</time>
      </trkpt>
      <trkpt lat="51.498" lon="6.72464">
        <ele>81.495056</ele>
        <time>2026-05-06T09:04:31.104Z</time>
      </trkpt>
      <trkpt lat="51.49808" lon="6.72474">
        <ele>81.62164</ele>
        <time>2026-05-06T09:04:34.109Z</time>
      </trkpt>
      <trkpt lat="51.49818" lon="6.72486">
        <ele>81.769641</ele>
        <time>2026-05-06T09:04:37.103Z</time>
      </trkpt>
      <trkpt lat="51.49824" lon="6.72499">
        <ele>81.8966</ele>
        <time>2026-05-06T09:04:40.108Z</time>
      </trkpt>
      <trkpt lat="51.49832" lon="6.72513">
        <ele>82.033433</ele>
        <time>2026-05-06T09:04:43.096Z</time>
      </trkpt>
      <trkpt lat="51.49837" lon="6.72525">
        <ele>82.144729</ele>
        <time>2026-05-06T09:04:45.100Z</time>
      </trkpt>
      <trkpt lat="51.49842" lon="6.72537">
        <ele>82.257252</ele>
        <time>2026-05-06T09:04:47.104Z</time>
      </trkpt>
      <trkpt lat="51.49848" lon="6.72553">
        <ele>82.398573</ele>
        <time>2026-05-06T09:04:50.105Z</time>
      </trkpt>
      <trkpt lat="51.49851" lon="6.7257">
        <ele>82.536502</ele>
        <time>2026-05-06T09:04:53.106Z</time>
      </trkpt>
      <trkpt lat="51.49854" lon="6.72588">
        <ele>82.673078</ele>
        <time>2026-05-06T09:04:56.115Z</time>
      </trkpt>
      <trkpt lat="51.49857" lon="6.72606">
        <ele>82.657943</ele>
        <time>2026-05-06T09:04:59.101Z</time>
      </trkpt>
      <trkpt lat="51.49859" lon="6.72622">
        <ele>82.543834</ele>
        <time>2026-05-06T09:05:01.112Z</time>
      </trkpt>
      <trkpt lat="51.49862" lon="6.72641">
        <ele>82.413405</ele>
        <time>2026-05-06T09:05:04.103Z</time>
      </trkpt>
      <trkpt lat="51.49864" lon="6.72655">
        <ele>82.308397</ele>
        <time>2026-05-06T09:05:06.101Z</time>
      </trkpt>
      <trkpt lat="51.49866" lon="6.72674">
        <ele>82.175892</ele>
        <time>2026-05-06T09:05:09.106Z</time>
      </trkpt>
      <trkpt lat="51.49867" lon="6.7269">
        <ele>82.063224</ele>
        <time>2026-05-06T09:05:12.101Z</time>
      </trkpt>
      <trkpt lat="51.49869" lon="6.72708">
        <ele>81.93507</ele>
        <time>2026-05-06T09:05:15.114Z</time>
      </trkpt>
      <trkpt lat="51.49874" lon="6.72723">
        <ele>81.819257</ele>
        <time>2026-05-06T09:05:17.118Z</time>
      </trkpt>
      <trkpt lat="51.49879" lon="6.72741">
        <ele>81.678379</ele>
        <time>2026-05-06T09:05:20.106Z</time>
      </trkpt>
      <trkpt lat="51.49882" lon="6.72756">
        <ele>81.573652</ele>
        <time>2026-05-06T09:05:23.110Z</time>
      </trkpt>
      <trkpt lat="51.49884" lon="6.72771">
        <ele>81.464742</ele>
        <time>2026-05-06T09:05:34.121Z</time>
      </trkpt>
      <trkpt lat="51.49878" lon="6.72784">
        <ele>81.351937</ele>
        <time>2026-05-06T09:05:39.106Z</time>
      </trkpt>
      <trkpt lat="51.49869" lon="6.72793">
        <ele>81.237026</ele>
        <time>2026-05-06T09:05:43.106Z</time>
      </trkpt>
      <trkpt lat="51.49861" lon="6.72801">
        <ele>81.126554</ele>
        <time>2026-05-06T09:05:47.099Z</time>
      </trkpt>
      <trkpt lat="51.49853" lon="6.72811">
        <ele>81.017898</ele>
        <time>2026-05-06T09:05:50.098Z</time>
      </trkpt>
      <trkpt lat="51.49844" lon="6.7282">
        <ele>80.90115</ele>
        <time>2026-05-06T09:05:53.101Z</time>
      </trkpt>
      <trkpt lat="51.49835" lon="6.7283">
        <ele>80.778213</ele>
        <time>2026-05-06T09:05:56.111Z</time>
      </trkpt>
      <trkpt lat="51.49827" lon="6.72839">
        <ele>80.80565</ele>
        <time>2026-05-06T09:05:59.106Z</time>
      </trkpt>
      <trkpt lat="51.49819" lon="6.72847">
        <ele>80.965753</ele>
        <time>2026-05-06T09:06:02.098Z</time>
      </trkpt>
      <trkpt lat="51.49811" lon="6.72857">
        <ele>81.121673</ele>
        <time>2026-05-06T09:06:05.102Z</time>
      </trkpt>
      <trkpt lat="51.49802" lon="6.72867">
        <ele>81.296679</ele>
        <time>2026-05-06T09:06:08.094Z</time>
      </trkpt>
      <trkpt lat="51.49794" lon="6.72877">
        <ele>81.462209</ele>
        <time>2026-05-06T09:06:11.102Z</time>
      </trkpt>
      <trkpt lat="51.49786" lon="6.72887">
        <ele>81.618752</ele>
        <time>2026-05-06T09:06:14.100Z</time>
      </trkpt>
      <trkpt lat="51.49779" lon="6.72896">
        <ele>81.774672</ele>
        <time>2026-05-06T09:06:17.100Z</time>
      </trkpt>
      <trkpt lat="51.4977" lon="6.72906">
        <ele>81.94269</ele>
        <time>2026-05-06T09:06:21.093Z</time>
      </trkpt>
      <trkpt lat="51.49763" lon="6.72914">
        <ele>82.090863</ele>
        <time>2026-05-06T09:06:25.099Z</time>
      </trkpt>
      <trkpt lat="51.49755" lon="6.72922">
        <ele>82.237952</ele>
        <time>2026-05-06T09:06:30.103Z</time>
      </trkpt>
      <trkpt lat="51.49746" lon="6.72922">
        <ele>82.383125</ele>
        <time>2026-05-06T09:06:44.106Z</time>
      </trkpt>
      <trkpt lat="51.49742" lon="6.72937">
        <ele>82.543013</ele>
        <time>2026-05-06T09:06:49.109Z</time>
      </trkpt>
      <trkpt lat="51.49745" lon="6.72951">
        <ele>82.692579</ele>
        <time>2026-05-06T09:06:52.097Z</time>
      </trkpt>
      <trkpt lat="51.4975" lon="6.72964">
        <ele>82.84431</ele>
        <time>2026-05-06T09:06:55.116Z</time>
      </trkpt>
      <trkpt lat="51.49756" lon="6.72977">
        <ele>83.012096</ele>
        <time>2026-05-06T09:06:58.103Z</time>
      </trkpt>
      <trkpt lat="51.49762" lon="6.72988">
        <ele>83.159627</ele>
        <time>2026-05-06T09:07:01.108Z</time>
      </trkpt>
      <trkpt lat="51.49769" lon="6.73001">
        <ele>83.330868</ele>
        <time>2026-05-06T09:07:05.105Z</time>
      </trkpt>
      <trkpt lat="51.49776" lon="6.73015">
        <ele>83.511355</ele>
        <time>2026-05-06T09:07:09.107Z</time>
      </trkpt>
      <trkpt lat="51.49782" lon="6.73027">
        <ele>83.626887</ele>
        <time>2026-05-06T09:07:12.104Z</time>
      </trkpt>
      <trkpt lat="51.4979" lon="6.73042">
        <ele>83.634483</ele>
        <time>2026-05-06T09:07:16.098Z</time>
      </trkpt>
      <trkpt lat="51.49796" lon="6.73054">
        <ele>83.641135</ele>
        <time>2026-05-06T09:07:20.091Z</time>
      </trkpt>
      <trkpt lat="51.49803" lon="6.73066">
        <ele>83.647961</ele>
        <time>2026-05-06T09:07:24.098Z</time>
      </trkpt>
      <trkpt lat="51.49811" lon="6.73078">
        <ele>83.654804</ele>
        <time>2026-05-06T09:07:28.105Z</time>
      </trkpt>
      <trkpt lat="51.49818" lon="6.73091">
        <ele>83.66208</ele>
        <time>2026-05-06T09:07:32.101Z</time>
      </trkpt>
      <trkpt lat="51.49825" lon="6.73101">
        <ele>83.668146</ele>
        <time>2026-05-06T09:07:35.104Z</time>
      </trkpt>
      <trkpt lat="51.49833" lon="6.73113">
        <ele>83.675618</ele>
        <time>2026-05-06T09:07:39.108Z</time>
      </trkpt>
      <trkpt lat="51.49843" lon="6.73124">
        <ele>83.683213</ele>
        <time>2026-05-06T09:07:43.106Z</time>
      </trkpt>
      <trkpt lat="51.49851" lon="6.73134">
        <ele>83.690336</ele>
        <time>2026-05-06T09:07:47.101Z</time>
      </trkpt>
      <trkpt lat="51.4986" lon="6.73144">
        <ele>83.697292</ele>
        <time>2026-05-06T09:07:51.101Z</time>
      </trkpt>
      <trkpt lat="51.4987" lon="6.73154">
        <ele>83.704788</ele>
        <time>2026-05-06T09:07:55.087Z</time>
      </trkpt>
      <trkpt lat="51.49878" lon="6.73161">
        <ele>83.7109</ele>
        <time>2026-05-06T09:07:58.093Z</time>
      </trkpt>
      <trkpt lat="51.49887" lon="6.73167">
        <ele>83.717299</ele>
        <time>2026-05-06T09:08:01.097Z</time>
      </trkpt>
      <trkpt lat="51.49896" lon="6.73173">
        <ele>83.723879</ele>
        <time>2026-05-06T09:08:04.103Z</time>
      </trkpt>
      <trkpt lat="51.49905" lon="6.73179">
        <ele>83.730321</ele>
        <time>2026-05-06T09:08:07.110Z</time>
      </trkpt>
      <trkpt lat="51.49915" lon="6.73184">
        <ele>83.736999</ele>
        <time>2026-05-06T09:08:10.106Z</time>
      </trkpt>
      <trkpt lat="51.49925" lon="6.73188">
        <ele>83.728044</ele>
        <time>2026-05-06T09:08:13.094Z</time>
      </trkpt>
      <trkpt lat="51.49936" lon="6.73193">
        <ele>83.577271</ele>
        <time>2026-05-06T09:08:16.105Z</time>
      </trkpt>
      <trkpt lat="51.49948" lon="6.73199">
        <ele>83.416849</ele>
        <time>2026-05-06T09:08:19.104Z</time>
      </trkpt>
      <trkpt lat="51.49959" lon="6.73204">
        <ele>83.25707</ele>
        <time>2026-05-06T09:08:22.099Z</time>
      </trkpt>
      <trkpt lat="51.49972" lon="6.73208">
        <ele>83.080888</ele>
        <time>2026-05-06T09:08:25.106Z</time>
      </trkpt>
      <trkpt lat="51.49981" lon="6.73212">
        <ele>82.956232</ele>
        <time>2026-05-06T09:08:27.103Z</time>
      </trkpt>
      <trkpt lat="51.4999" lon="6.73218">
        <ele>82.827757</ele>
        <time>2026-05-06T09:08:29.101Z</time>
      </trkpt>
      <trkpt lat="51.5" lon="6.73224">
        <ele>82.687209</ele>
        <time>2026-05-06T09:08:31.105Z</time>
      </trkpt>
      <trkpt lat="51.50009" lon="6.73232">
        <ele>82.542967</ele>
        <time>2026-05-06T09:08:33.124Z</time>
      </trkpt>
      <trkpt lat="51.50019" lon="6.73241">
        <ele>82.394403</ele>
        <time>2026-05-06T09:08:35.104Z</time>
      </trkpt>
      <trkpt lat="51.50028" lon="6.7325">
        <ele>82.25421</ele>
        <time>2026-05-06T09:08:37.102Z</time>
      </trkpt>
      <trkpt lat="51.50037" lon="6.73259">
        <ele>82.111106</ele>
        <time>2026-05-06T09:08:39.109Z</time>
      </trkpt>
      <trkpt lat="51.50047" lon="6.73268">
        <ele>81.951165</ele>
        <time>2026-05-06T09:08:41.103Z</time>
      </trkpt>
      <trkpt lat="51.50058" lon="6.7328">
        <ele>81.779039</ele>
        <time>2026-05-06T09:08:43.099Z</time>
      </trkpt>
      <trkpt lat="51.5007" lon="6.73294">
        <ele>81.585653</ele>
        <time>2026-05-06T09:08:45.106Z</time>
      </trkpt>
      <trkpt lat="51.50081" lon="6.73306">
        <ele>81.403119</ele>
        <time>2026-05-06T09:08:47.100Z</time>
      </trkpt>
      <trkpt lat="51.50091" lon="6.7332">
        <ele>80.93488</ele>
        <time>2026-05-06T09:08:49.103Z</time>
      </trkpt>
      <trkpt lat="51.501" lon="6.73334">
        <ele>80.281856</ele>
        <time>2026-05-06T09:08:51.099Z</time>
      </trkpt>
      <trkpt lat="51.5011" lon="6.73348">
        <ele>79.630455</ele>
        <time>2026-05-06T09:08:53.110Z</time>
      </trkpt>
      <trkpt lat="51.50119" lon="6.73362">
        <ele>78.952326</ele>
        <time>2026-05-06T09:08:55.103Z</time>
      </trkpt>
      <trkpt lat="51.50128" lon="6.73377">
        <ele>78.32442</ele>
        <time>2026-05-06T09:08:57.110Z</time>
      </trkpt>
      <trkpt lat="51.50135" lon="6.73393">
        <ele>77.694323</ele>
        <time>2026-05-06T09:08:59.105Z</time>
      </trkpt>
      <trkpt lat="51.50142" lon="6.73407">
        <ele>77.12275</ele>
        <time>2026-05-06T09:09:01.102Z</time>
      </trkpt>
      <trkpt lat="51.50149" lon="6.7342">
        <ele>76.59673</ele>
        <time>2026-05-06T09:09:03.102Z</time>
      </trkpt>
      <trkpt lat="51.50156" lon="6.73432">
        <ele>76.085962</ele>
        <time>2026-05-06T09:09:05.114Z</time>
      </trkpt>
      <trkpt lat="51.50162" lon="6.73445">
        <ele>75.572017</ele>
        <time>2026-05-06T09:09:07.109Z</time>
      </trkpt>
      <trkpt lat="51.50167" lon="6.73459">
        <ele>75.069934</ele>
        <time>2026-05-06T09:09:09.108Z</time>
      </trkpt>
      <trkpt lat="51.50173" lon="6.73472">
        <ele>74.558383</ele>
        <time>2026-05-06T09:09:11.107Z</time>
      </trkpt>
      <trkpt lat="51.50179" lon="6.73485">
        <ele>74.06172</ele>
        <time>2026-05-06T09:09:13.101Z</time>
      </trkpt>
      <trkpt lat="51.50184" lon="6.73499">
        <ele>73.559496</ele>
        <time>2026-05-06T09:09:15.103Z</time>
      </trkpt>
      <trkpt lat="51.50188" lon="6.73513">
        <ele>73.066706</ele>
        <time>2026-05-06T09:09:17.102Z</time>
      </trkpt>
      <trkpt lat="51.50192" lon="6.73526">
        <ele>72.584123</ele>
        <time>2026-05-06T09:09:19.091Z</time>
      </trkpt>
      <trkpt lat="51.50197" lon="6.73541">
        <ele>72.2419</ele>
        <time>2026-05-06T09:09:21.106Z</time>
      </trkpt>
      <trkpt lat="51.50201" lon="6.73556">
        <ele>72.216997</ele>
        <time>2026-05-06T09:09:23.101Z</time>
      </trkpt>
      <trkpt lat="51.50205" lon="6.7357">
        <ele>72.192635</ele>
        <time>2026-05-06T09:09:25.108Z</time>
      </trkpt>
      <trkpt lat="51.50209" lon="6.73585">
        <ele>72.168197</ele>
        <time>2026-05-06T09:09:27.101Z</time>
      </trkpt>
      <trkpt lat="51.50213" lon="6.73599">
        <ele>72.14484</ele>
        <time>2026-05-06T09:09:29.094Z</time>
      </trkpt>
      <trkpt lat="51.50217" lon="6.73613">
        <ele>72.12086</ele>
        <time>2026-05-06T09:09:31.104Z</time>
      </trkpt>
      <trkpt lat="51.50221" lon="6.73628">
        <ele>72.095662</ele>
        <time>2026-05-06T09:09:33.102Z</time>
      </trkpt>
      <trkpt lat="51.50225" lon="6.73644">
        <ele>72.069766</ele>
        <time>2026-05-06T09:09:35.104Z</time>
      </trkpt>
      <trkpt lat="51.50229" lon="6.73659">
        <ele>72.044289</ele>
        <time>2026-05-06T09:09:37.110Z</time>
      </trkpt>
      <trkpt lat="51.50233" lon="6.73673">
        <ele>72.020132</ele>
        <time>2026-05-06T09:09:39.110Z</time>
      </trkpt>
      <trkpt lat="51.50237" lon="6.73687">
        <ele>71.997633</ele>
        <time>2026-05-06T09:09:41.102Z</time>
      </trkpt>
      <trkpt lat="51.5024" lon="6.73701">
        <ele>71.974182</ele>
        <time>2026-05-06T09:09:43.105Z</time>
      </trkpt>
      <trkpt lat="51.50244" lon="6.73715">
        <ele>71.951243</ele>
        <time>2026-05-06T09:09:45.105Z</time>
      </trkpt>
      <trkpt lat="51.50248" lon="6.73728">
        <ele>71.928925</ele>
        <time>2026-05-06T09:09:47.137Z</time>
      </trkpt>
      <trkpt lat="51.50252" lon="6.73742">
        <ele>71.904266</ele>
        <time>2026-05-06T09:09:49.095Z</time>
      </trkpt>
      <trkpt lat="51.50257" lon="6.73757">
        <ele>71.879348</ele>
        <time>2026-05-06T09:09:51.098Z</time>
      </trkpt>
      <trkpt lat="51.50261" lon="6.73772">
        <ele>71.854251</ele>
        <time>2026-05-06T09:09:53.104Z</time>
      </trkpt>
      <trkpt lat="51.50264" lon="6.73787">
        <ele>71.829725</ele>
        <time>2026-05-06T09:09:55.102Z</time>
      </trkpt>
      <trkpt lat="51.50268" lon="6.738">
        <ele>71.807506</ele>
        <time>2026-05-06T09:09:57.104Z</time>
      </trkpt>
      <trkpt lat="51.50272" lon="6.73815">
        <ele>71.813071</ele>
        <time>2026-05-06T09:09:59.103Z</time>
      </trkpt>
      <trkpt lat="51.50276" lon="6.7383">
        <ele>71.819095</ele>
        <time>2026-05-06T09:10:01.102Z</time>
      </trkpt>
      <trkpt lat="51.50279" lon="6.73845">
        <ele>71.825017</ele>
        <time>2026-05-06T09:10:03.103Z</time>
      </trkpt>
      <trkpt lat="51.50283" lon="6.73859">
        <ele>71.83077</ele>
        <time>2026-05-06T09:10:05.109Z</time>
      </trkpt>
      <trkpt lat="51.50287" lon="6.73874">
        <ele>71.836647</ele>
        <time>2026-05-06T09:10:07.103Z</time>
      </trkpt>
      <trkpt lat="51.50291" lon="6.73888">
        <ele>71.842388</ele>
        <time>2026-05-06T09:10:09.107Z</time>
      </trkpt>
      <trkpt lat="51.50294" lon="6.73902">
        <ele>71.848016</ele>
        <time>2026-05-06T09:10:11.100Z</time>
      </trkpt>
      <trkpt lat="51.50298" lon="6.73917">
        <ele>71.853723</ele>
        <time>2026-05-06T09:10:13.102Z</time>
      </trkpt>
      <trkpt lat="51.50301" lon="6.73931">
        <ele>71.859312</ele>
        <time>2026-05-06T09:10:15.102Z</time>
      </trkpt>
      <trkpt lat="51.50304" lon="6.73947">
        <ele>71.865405</ele>
        <time>2026-05-06T09:10:17.109Z</time>
      </trkpt>
      <trkpt lat="51.50306" lon="6.73963">
        <ele>71.871447</ele>
        <time>2026-05-06T09:10:19.105Z</time>
      </trkpt>
      <trkpt lat="51.50307" lon="6.73979">
        <ele>71.877258</ele>
        <time>2026-05-06T09:10:21.109Z</time>
      </trkpt>
      <trkpt lat="51.50307" lon="6.73995">
        <ele>71.883254</ele>
        <time>2026-05-06T09:10:23.101Z</time>
      </trkpt>
      <trkpt lat="51.50307" lon="6.74012">
        <ele>71.88947</ele>
        <time>2026-05-06T09:10:25.100Z</time>
      </trkpt>
      <trkpt lat="51.50308" lon="6.74029">
        <ele>71.89569</ele>
        <time>2026-05-06T09:10:27.107Z</time>
      </trkpt>
      <trkpt lat="51.50307" lon="6.74046">
        <ele>71.901892</ele>
        <time>2026-05-06T09:10:29.101Z</time>
      </trkpt>
      <trkpt lat="51.50305" lon="6.74062">
        <ele>71.907898</ele>
        <time>2026-05-06T09:10:31.108Z</time>
      </trkpt>
      <trkpt lat="51.50304" lon="6.74078">
        <ele>71.914563</ele>
        <time>2026-05-06T09:10:33.106Z</time>
      </trkpt>
      <trkpt lat="51.50301" lon="6.74093">
        <ele>71.941356</ele>
        <time>2026-05-06T09:10:35.106Z</time>
      </trkpt>
      <trkpt lat="51.50299" lon="6.74109">
        <ele>71.96973</ele>
        <time>2026-05-06T09:10:37.116Z</time>
      </trkpt>
      <trkpt lat="51.50298" lon="6.74126">
        <ele>71.997472</ele>
        <time>2026-05-06T09:10:39.104Z</time>
      </trkpt>
      <trkpt lat="51.50297" lon="6.74141">
        <ele>72.023193</ele>
        <time>2026-05-06T09:10:41.105Z</time>
      </trkpt>
      <trkpt lat="51.50295" lon="6.74161">
        <ele>72.058476</ele>
        <time>2026-05-06T09:10:44.100Z</time>
      </trkpt>
      <trkpt lat="51.50292" lon="6.7418">
        <ele>72.090662</ele>
        <time>2026-05-06T09:10:47.101Z</time>
      </trkpt>
      <trkpt lat="51.5029" lon="6.74198">
        <ele>72.122417</ele>
        <time>2026-05-06T09:10:51.104Z</time>
      </trkpt>
      <trkpt lat="51.50284" lon="6.74225">
        <ele>72.170592</ele>
        <time>2026-05-06T09:11:41.117Z</time>
      </trkpt>
      <trkpt lat="51.50285" lon="6.7424">
        <ele>72.196208</ele>
        <time>2026-05-06T09:11:44.111Z</time>
      </trkpt>
      <trkpt lat="51.50296" lon="6.74245">
        <ele>72.228858</ele>
        <time>2026-05-06T09:11:48.110Z</time>
      </trkpt>
      <trkpt lat="51.50307" lon="6.74251">
        <ele>72.25834</ele>
        <time>2026-05-06T09:11:51.105Z</time>
      </trkpt>
      <trkpt lat="51.50317" lon="6.74257">
        <ele>72.288979</ele>
        <time>2026-05-06T09:11:54.102Z</time>
      </trkpt>
      <trkpt lat="51.50328" lon="6.74265">
        <ele>72.321238</ele>
        <time>2026-05-06T09:11:57.098Z</time>
      </trkpt>
      <trkpt lat="51.50339" lon="6.74275">
        <ele>72.355541</ele>
        <time>2026-05-06T09:12:00.095Z</time>
      </trkpt>
      <trkpt lat="51.5035" lon="6.74284">
        <ele>72.388565</ele>
        <time>2026-05-06T09:12:03.104Z</time>
      </trkpt>
      <trkpt lat="51.5036" lon="6.74291">
        <ele>72.350749</ele>
        <time>2026-05-06T09:12:06.099Z</time>
      </trkpt>
      <trkpt lat="51.50371" lon="6.74298">
        <ele>72.237036</ele>
        <time>2026-05-06T09:12:09.104Z</time>
      </trkpt>
      <trkpt lat="51.50383" lon="6.74304">
        <ele>72.116268</ele>
        <time>2026-05-06T09:12:12.107Z</time>
      </trkpt>
      <trkpt lat="51.50395" lon="6.7431">
        <ele>71.995667</ele>
        <time>2026-05-06T09:12:15.106Z</time>
      </trkpt>
      <trkpt lat="51.50408" lon="6.74317">
        <ele>71.868267</ele>
        <time>2026-05-06T09:12:18.103Z</time>
      </trkpt>
      <trkpt lat="51.50419" lon="6.74325">
        <ele>71.760886</ele>
        <time>2026-05-06T09:12:21.093Z</time>
      </trkpt>
      <trkpt lat="51.50428" lon="6.74327">
        <ele>71.675149</ele>
        <time>2026-05-06T09:12:23.102Z</time>
      </trkpt>
      <trkpt lat="51.50441" lon="6.7433">
        <ele>71.543799</ele>
        <time>2026-05-06T09:12:26.113Z</time>
      </trkpt>
      <trkpt lat="51.50453" lon="6.74335">
        <ele>71.427867</ele>
        <time>2026-05-06T09:12:29.093Z</time>
      </trkpt>
      <trkpt lat="51.50463" lon="6.74336">
        <ele>71.338368</ele>
        <time>2026-05-06T09:12:32.098Z</time>
      </trkpt>
      <trkpt lat="51.50474" lon="6.74338">
        <ele>71.228607</ele>
        <time>2026-05-06T09:12:35.107Z</time>
      </trkpt>
      <trkpt lat="51.50484" lon="6.74337">
        <ele>71.142943</ele>
        <time>2026-05-06T09:12:37.115Z</time>
      </trkpt>
      <trkpt lat="51.50497" lon="6.74338">
        <ele>71.020524</ele>
        <time>2026-05-06T09:12:40.102Z</time>
      </trkpt>
      <trkpt lat="51.50506" lon="6.74338">
        <ele>70.928295</ele>
        <time>2026-05-06T09:12:42.102Z</time>
      </trkpt>
      <trkpt lat="51.50516" lon="6.74337">
        <ele>70.837947</ele>
        <time>2026-05-06T09:12:44.101Z</time>
      </trkpt>
      <trkpt lat="51.50529" lon="6.74337">
        <ele>70.713738</ele>
        <time>2026-05-06T09:12:47.110Z</time>
      </trkpt>
      <trkpt lat="51.5054" lon="6.74336">
        <ele>70.822813</ele>
        <time>2026-05-06T09:12:49.105Z</time>
      </trkpt>
      <trkpt lat="51.50551" lon="6.74333">
        <ele>70.942295</ele>
        <time>2026-05-06T09:12:51.095Z</time>
      </trkpt>
      <trkpt lat="51.5056" lon="6.74331">
        <ele>71.047101</ele>
        <time>2026-05-06T09:12:53.107Z</time>
      </trkpt>
      <trkpt lat="51.5057" lon="6.7433">
        <ele>71.153809</ele>
        <time>2026-05-06T09:12:55.100Z</time>
      </trkpt>
      <trkpt lat="51.50581" lon="6.74328">
        <ele>71.277034</ele>
        <time>2026-05-06T09:12:57.105Z</time>
      </trkpt>
      <trkpt lat="51.50592" lon="6.74327">
        <ele>71.396831</ele>
        <time>2026-05-06T09:12:59.102Z</time>
      </trkpt>
      <trkpt lat="51.50602" lon="6.74326">
        <ele>71.506565</ele>
        <time>2026-05-06T09:13:01.103Z</time>
      </trkpt>
      <trkpt lat="51.50613" lon="6.74324">
        <ele>71.618795</ele>
        <time>2026-05-06T09:13:03.103Z</time>
      </trkpt>
      <trkpt lat="51.50623" lon="6.74323">
        <ele>71.733314</ele>
        <time>2026-05-06T09:13:05.101Z</time>
      </trkpt>
      <trkpt lat="51.50634" lon="6.74321">
        <ele>71.850061</ele>
        <time>2026-05-06T09:13:07.093Z</time>
      </trkpt>
      <trkpt lat="51.50644" lon="6.7432">
        <ele>71.959914</ele>
        <time>2026-05-06T09:13:09.110Z</time>
      </trkpt>
      <trkpt lat="51.50657" lon="6.7432">
        <ele>72.102077</ele>
        <time>2026-05-06T09:13:12.103Z</time>
      </trkpt>
      <trkpt lat="51.50669" lon="6.7432">
        <ele>72.228001</ele>
        <time>2026-05-06T09:13:15.101Z</time>
      </trkpt>
      <trkpt lat="51.50681" lon="6.7432">
        <ele>72.358222</ele>
        <time>2026-05-06T09:13:18.102Z</time>
      </trkpt>
      <trkpt lat="51.50694" lon="6.74319">
        <ele>72.50711</ele>
        <time>2026-05-06T09:13:21.101Z</time>
      </trkpt>
      <trkpt lat="51.50705" lon="6.74318">
        <ele>72.617963</ele>
        <time>2026-05-06T09:13:23.097Z</time>
      </trkpt>
      <trkpt lat="51.50715" lon="6.74316">
        <ele>72.731686</ele>
        <time>2026-05-06T09:13:25.109Z</time>
      </trkpt>
      <trkpt lat="51.50726" lon="6.74315">
        <ele>72.841899</ele>
        <time>2026-05-06T09:13:27.104Z</time>
      </trkpt>
      <trkpt lat="51.50736" lon="6.74315">
        <ele>72.94452</ele>
        <time>2026-05-06T09:13:29.106Z</time>
      </trkpt>
      <trkpt lat="51.50746" lon="6.74315">
        <ele>73.044057</ele>
        <time>2026-05-06T09:13:31.099Z</time>
      </trkpt>
      <trkpt lat="51.50755" lon="6.74315">
        <ele>73.142698</ele>
        <time>2026-05-06T09:13:33.103Z</time>
      </trkpt>
      <trkpt lat="51.50765" lon="6.74316">
        <ele>73.239163</ele>
        <time>2026-05-06T09:13:35.109Z</time>
      </trkpt>
      <trkpt lat="51.50779" lon="6.74318">
        <ele>73.380576</ele>
        <time>2026-05-06T09:13:38.111Z</time>
      </trkpt>
      <trkpt lat="51.50789" lon="6.74317">
        <ele>73.492572</ele>
        <time>2026-05-06T09:13:40.107Z</time>
      </trkpt>
      <trkpt lat="51.50799" lon="6.74315">
        <ele>73.592768</ele>
        <time>2026-05-06T09:13:42.095Z</time>
      </trkpt>
      <trkpt lat="51.50809" lon="6.74315">
        <ele>73.689244</ele>
        <time>2026-05-06T09:13:44.122Z</time>
      </trkpt>
      <trkpt lat="51.50822" lon="6.74317">
        <ele>73.827173</ele>
        <time>2026-05-06T09:13:47.101Z</time>
      </trkpt>
      <trkpt lat="51.50832" lon="6.74317">
        <ele>73.925783</ele>
        <time>2026-05-06T09:13:49.100Z</time>
      </trkpt>
      <trkpt lat="51.50841" lon="6.74318">
        <ele>74.025418</ele>
        <time>2026-05-06T09:13:51.101Z</time>
      </trkpt>
      <trkpt lat="51.50851" lon="6.74318">
        <ele>74.128063</ele>
        <time>2026-05-06T09:13:53.106Z</time>
      </trkpt>
      <trkpt lat="51.5086" lon="6.74319">
        <ele>74.222521</ele>
        <time>2026-05-06T09:13:55.105Z</time>
      </trkpt>
      <trkpt lat="51.5087" lon="6.7432">
        <ele>74.317186</ele>
        <time>2026-05-06T09:13:57.101Z</time>
      </trkpt>
      <trkpt lat="51.50879" lon="6.74321">
        <ele>74.411668</ele>
        <time>2026-05-06T09:13:59.109Z</time>
      </trkpt>
      <trkpt lat="51.50888" lon="6.74321">
        <ele>74.507787</ele>
        <time>2026-05-06T09:14:01.109Z</time>
      </trkpt>
      <trkpt lat="51.509" lon="6.74324">
        <ele>74.476912</ele>
        <time>2026-05-06T09:14:04.110Z</time>
      </trkpt>
      <trkpt lat="51.50913" lon="6.74329">
        <ele>74.443163</ele>
        <time>2026-05-06T09:14:07.109Z</time>
      </trkpt>
      <trkpt lat="51.50923" lon="6.74329">
        <ele>74.418758</ele>
        <time>2026-05-06T09:14:09.103Z</time>
      </trkpt>
      <trkpt lat="51.50934" lon="6.74328">
        <ele>74.389746</ele>
        <time>2026-05-06T09:14:11.108Z</time>
      </trkpt>
      <trkpt lat="51.50945" lon="6.74329">
        <ele>74.362811</ele>
        <time>2026-05-06T09:14:13.105Z</time>
      </trkpt>
      <trkpt lat="51.50958" lon="6.7433">
        <ele>74.330991</ele>
        <time>2026-05-06T09:14:16.098Z</time>
      </trkpt>
      <trkpt lat="51.50968" lon="6.74329">
        <ele>74.30531</ele>
        <time>2026-05-06T09:14:18.105Z</time>
      </trkpt>
      <trkpt lat="51.50978" lon="6.7433">
        <ele>74.278887</ele>
        <time>2026-05-06T09:14:20.102Z</time>
      </trkpt>
      <trkpt lat="51.50988" lon="6.7433">
        <ele>74.254735</ele>
        <time>2026-05-06T09:14:22.104Z</time>
      </trkpt>
      <trkpt lat="51.50997" lon="6.74331">
        <ele>74.23034</ele>
        <time>2026-05-06T09:14:24.101Z</time>
      </trkpt>
      <trkpt lat="51.51007" lon="6.74332">
        <ele>74.20631</ele>
        <time>2026-05-06T09:14:26.100Z</time>
      </trkpt>
      <trkpt lat="51.51019" lon="6.74333">
        <ele>74.174778</ele>
        <time>2026-05-06T09:14:29.093Z</time>
      </trkpt>
      <trkpt lat="51.51031" lon="6.74334">
        <ele>74.145296</ele>
        <time>2026-05-06T09:14:32.140Z</time>
      </trkpt>
      <trkpt lat="51.51042" lon="6.74336">
        <ele>74.115605</ele>
        <time>2026-05-06T09:14:35.099Z</time>
      </trkpt>
      <trkpt lat="51.51054" lon="6.7434">
        <ele>74.084868</ele>
        <time>2026-05-06T09:14:38.101Z</time>
      </trkpt>
      <trkpt lat="51.51064" lon="6.7434">
        <ele>74.059972</ele>
        <time>2026-05-06T09:14:40.106Z</time>
      </trkpt>
      <trkpt lat="51.51073" lon="6.7434">
        <ele>73.841446</ele>
        <time>2026-05-06T09:14:42.101Z</time>
      </trkpt>
      <trkpt lat="51.51082" lon="6.7434">
        <ele>73.529029</ele>
        <time>2026-05-06T09:14:44.103Z</time>
      </trkpt>
      <trkpt lat="51.51094" lon="6.74341">
        <ele>73.140575</ele>
        <time>2026-05-06T09:14:47.103Z</time>
      </trkpt>
      <trkpt lat="51.51105" lon="6.74343">
        <ele>72.751389</ele>
        <time>2026-05-06T09:14:50.109Z</time>
      </trkpt>
      <trkpt lat="51.51116" lon="6.74344">
        <ele>72.379303</ele>
        <time>2026-05-06T09:14:53.099Z</time>
      </trkpt>
      <trkpt lat="51.51126" lon="6.74346">
        <ele>72.024499</ele>
        <time>2026-05-06T09:14:56.107Z</time>
      </trkpt>
      <trkpt lat="51.51138" lon="6.74346">
        <ele>71.629746</ele>
        <time>2026-05-06T09:15:00.099Z</time>
      </trkpt>
      <trkpt lat="51.51147" lon="6.74344">
        <ele>71.297996</ele>
        <time>2026-05-06T09:15:04.104Z</time>
      </trkpt>
      <trkpt lat="51.51157" lon="6.74344">
        <ele>70.954725</ele>
        <time>2026-05-06T09:15:08.104Z</time>
      </trkpt>
      <trkpt lat="51.51168" lon="6.74344">
        <ele>70.57706</ele>
        <time>2026-05-06T09:15:12.102Z</time>
      </trkpt>
      <trkpt lat="51.51178" lon="6.74344">
        <ele>70.226633</ele>
        <time>2026-05-06T09:15:16.113Z</time>
      </trkpt>
      <trkpt lat="51.51185" lon="6.74354">
        <ele>69.91086</ele>
        <time>2026-05-06T09:15:20.099Z</time>
      </trkpt>
      <trkpt lat="51.51203" lon="6.74354">
        <ele>69.320477</ele>
        <time>2026-05-06T09:15:45.105Z</time>
      </trkpt>
      <trkpt lat="51.51212" lon="6.74349">
        <ele>68.974737</ele>
        <time>2026-05-06T09:15:49.094Z</time>
      </trkpt>
      <trkpt lat="51.51218" lon="6.74337">
        <ele>68.660404</ele>
        <time>2026-05-06T09:15:52.099Z</time>
      </trkpt>
      <trkpt lat="51.51225" lon="6.74324">
        <ele>68.288764</ele>
        <time>2026-05-06T09:15:56.106Z</time>
      </trkpt>
      <trkpt lat="51.51238" lon="6.74315">
        <ele>67.872076</ele>
        <time>2026-05-06T09:16:49.093Z</time>
      </trkpt>
      <trkpt lat="51.51244" lon="6.74304">
        <ele>67.8495</ele>
        <time>2026-05-06T09:16:52.099Z</time>
      </trkpt>
      <trkpt lat="51.51252" lon="6.74291">
        <ele>67.820258</ele>
        <time>2026-05-06T09:16:55.104Z</time>
      </trkpt>
      <trkpt lat="51.51264" lon="6.74283">
        <ele>67.78815</ele>
        <time>2026-05-06T09:16:58.100Z</time>
      </trkpt>
      <trkpt lat="51.51273" lon="6.74279">
        <ele>67.764272</ele>
        <time>2026-05-06T09:17:00.117Z</time>
      </trkpt>
      <trkpt lat="51.51282" lon="6.74274">
        <ele>67.741864</ele>
        <time>2026-05-06T09:17:02.107Z</time>
      </trkpt>
      <trkpt lat="51.51294" lon="6.74269">
        <ele>67.710932</ele>
        <time>2026-05-06T09:17:05.099Z</time>
      </trkpt>
      <trkpt lat="51.51306" lon="6.74263">
        <ele>67.67911</ele>
        <time>2026-05-06T09:17:08.118Z</time>
      </trkpt>
      <trkpt lat="51.51318" lon="6.74257">
        <ele>67.648569</ele>
        <time>2026-05-06T09:17:11.093Z</time>
      </trkpt>
      <trkpt lat="51.51328" lon="6.7425">
        <ele>67.619649</ele>
        <time>2026-05-06T09:17:14.112Z</time>
      </trkpt>
      <trkpt lat="51.51338" lon="6.74245">
        <ele>67.593667</ele>
        <time>2026-05-06T09:17:17.108Z</time>
      </trkpt>
      <trkpt lat="51.51348" lon="6.74242">
        <ele>67.569959</ele>
        <time>2026-05-06T09:17:21.105Z</time>
      </trkpt>
      <trkpt lat="51.51349" lon="6.74227">
        <ele>67.545645</ele>
        <time>2026-05-06T09:17:42.096Z</time>
      </trkpt>
      <trkpt lat="51.51345" lon="6.74213">
        <ele>67.521623</ele>
        <time>2026-05-06T09:17:45.104Z</time>
      </trkpt>
      <trkpt lat="51.51339" lon="6.74202">
        <ele>67.499065</ele>
        <time>2026-05-06T09:17:48.108Z</time>
      </trkpt>
      <trkpt lat="51.51338" lon="6.74187">
        <ele>67.475525</ele>
        <time>2026-05-06T09:17:51.103Z</time>
      </trkpt>
      <trkpt lat="51.51345" lon="6.74174">
        <ele>67.449317</ele>
        <time>2026-05-06T09:17:54.149Z</time>
      </trkpt>
      <trkpt lat="51.51353" lon="6.74162">
        <ele>67.373452</ele>
        <time>2026-05-06T09:17:57.107Z</time>
      </trkpt>
      <trkpt lat="51.51362" lon="6.74153">
        <ele>67.142551</ele>
        <time>2026-05-06T09:18:01.110Z</time>
      </trkpt>
      <trkpt lat="51.51369" lon="6.74143">
        <ele>66.950069</ele>
        <time>2026-05-06T09:18:05.107Z</time>
      </trkpt>
      <trkpt lat="51.51376" lon="6.74133">
        <ele>66.762656</ele>
        <time>2026-05-06T09:18:08.097Z</time>
      </trkpt>
      <trkpt lat="51.51384" lon="6.74121">
        <ele>66.52477</ele>
        <time>2026-05-06T09:18:11.099Z</time>
      </trkpt>
      <trkpt lat="51.51394" lon="6.74108">
        <ele>66.258133</ele>
        <time>2026-05-06T09:18:14.119Z</time>
      </trkpt>
      <trkpt lat="51.51404" lon="6.74095">
        <ele>65.998007</ele>
        <time>2026-05-06T09:18:17.102Z</time>
      </trkpt>
      <trkpt lat="51.51414" lon="6.74083">
        <ele>65.727152</ele>
        <time>2026-05-06T09:18:20.106Z</time>
      </trkpt>
      <trkpt lat="51.51424" lon="6.74069">
        <ele>65.451583</ele>
        <time>2026-05-06T09:18:23.104Z</time>
      </trkpt>
      <trkpt lat="51.51435" lon="6.74056">
        <ele>65.174274</ele>
        <time>2026-05-06T09:18:26.119Z</time>
      </trkpt>
      <trkpt lat="51.51446" lon="6.74043">
        <ele>64.892853</ele>
        <time>2026-05-06T09:18:29.104Z</time>
      </trkpt>
      <trkpt lat="51.51453" lon="6.74034">
        <ele>64.700199</ele>
        <time>2026-05-06T09:18:31.098Z</time>
      </trkpt>
      <trkpt lat="51.5146" lon="6.74025">
        <ele>64.512403</ele>
        <time>2026-05-06T09:18:33.107Z</time>
      </trkpt>
      <trkpt lat="51.51467" lon="6.74015">
        <ele>64.317796</ele>
        <time>2026-05-06T09:18:35.100Z</time>
      </trkpt>
      <trkpt lat="51.51473" lon="6.74004">
        <ele>64.122802</ele>
        <time>2026-05-06T09:18:37.110Z</time>
      </trkpt>
      <trkpt lat="51.51481" lon="6.73994">
        <ele>63.921203</ele>
        <time>2026-05-06T09:18:39.107Z</time>
      </trkpt>
      <trkpt lat="51.51488" lon="6.73984">
        <ele>63.723446</ele>
        <time>2026-05-06T09:18:41.102Z</time>
      </trkpt>
      <trkpt lat="51.51497" lon="6.73972">
        <ele>64.078268</ele>
        <time>2026-05-06T09:18:44.103Z</time>
      </trkpt>
      <trkpt lat="51.51507" lon="6.73959">
        <ele>64.607906</ele>
        <time>2026-05-06T09:18:47.103Z</time>
      </trkpt>
      <trkpt lat="51.51518" lon="6.73947">
        <ele>65.121125</ele>
        <time>2026-05-06T09:18:50.114Z</time>
      </trkpt>
      <trkpt lat="51.51528" lon="6.73935">
        <ele>65.625408</ele>
        <time>2026-05-06T09:18:53.104Z</time>
      </trkpt>
      <trkpt lat="51.51537" lon="6.73923">
        <ele>66.099366</ele>
        <time>2026-05-06T09:18:56.108Z</time>
      </trkpt>
      <trkpt lat="51.51546" lon="6.73913">
        <ele>66.560239</ele>
        <time>2026-05-06T09:18:59.108Z</time>
      </trkpt>
      <trkpt lat="51.51554" lon="6.73905">
        <ele>66.943986</ele>
        <time>2026-05-06T09:19:02.112Z</time>
      </trkpt>
      <trkpt lat="51.51563" lon="6.73895">
        <ele>67.404858</ele>
        <time>2026-05-06T09:19:05.104Z</time>
      </trkpt>
      <trkpt lat="51.51573" lon="6.73884">
        <ele>67.895698</ele>
        <time>2026-05-06T09:19:08.111Z</time>
      </trkpt>
      <trkpt lat="51.51584" lon="6.73874">
        <ele>68.399303</ele>
        <time>2026-05-06T09:19:11.096Z</time>
      </trkpt>
      <trkpt lat="51.51594" lon="6.73866">
        <ele>68.844183</ele>
        <time>2026-05-06T09:19:14.112Z</time>
      </trkpt>
      <trkpt lat="51.51604" lon="6.73857">
        <ele>69.322993</ele>
        <time>2026-05-06T09:19:17.106Z</time>
      </trkpt>
      <trkpt lat="51.51612" lon="6.73845">
        <ele>69.773015</ele>
        <time>2026-05-06T09:19:20.102Z</time>
      </trkpt>
      <trkpt lat="51.5162" lon="6.73834">
        <ele>70.219927</ele>
        <time>2026-05-06T09:19:23.106Z</time>
      </trkpt>
      <trkpt lat="51.51628" lon="6.73824">
        <ele>70.620727</ele>
        <time>2026-05-06T09:19:26.101Z</time>
      </trkpt>
      <trkpt lat="51.51636" lon="6.73814">
        <ele>71.01899</ele>
        <time>2026-05-06T09:19:29.103Z</time>
      </trkpt>
      <trkpt lat="51.51644" lon="6.73805">
        <ele>71.139022</ele>
        <time>2026-05-06T09:19:32.105Z</time>
      </trkpt>
      <trkpt lat="51.51652" lon="6.73797">
        <ele>71.259053</ele>
        <time>2026-05-06T09:19:35.104Z</time>
      </trkpt>
      <trkpt lat="51.51661" lon="6.73789">
        <ele>71.380413</ele>
        <time>2026-05-06T09:19:38.099Z</time>
      </trkpt>
      <trkpt lat="51.51668" lon="6.73779">
        <ele>71.502437</ele>
        <time>2026-05-06T09:19:41.097Z</time>
      </trkpt>
      <trkpt lat="51.51677" lon="6.73771">
        <ele>71.627</ele>
        <time>2026-05-06T09:19:44.101Z</time>
      </trkpt>
      <trkpt lat="51.51686" lon="6.73765">
        <ele>71.742323</ele>
        <time>2026-05-06T09:19:47.103Z</time>
      </trkpt>
      <trkpt lat="51.51695" lon="6.73757">
        <ele>71.871235</ele>
        <time>2026-05-06T09:19:50.095Z</time>
      </trkpt>
      <trkpt lat="51.51705" lon="6.73746">
        <ele>72.020292</ele>
        <time>2026-05-06T09:19:53.128Z</time>
      </trkpt>
      <trkpt lat="51.51713" lon="6.73736">
        <ele>72.14516</ele>
        <time>2026-05-06T09:19:56.099Z</time>
      </trkpt>
      <trkpt lat="51.51722" lon="6.73727">
        <ele>72.272019</ele>
        <time>2026-05-06T09:19:59.105Z</time>
      </trkpt>
      <trkpt lat="51.5173" lon="6.73718">
        <ele>72.40053</ele>
        <time>2026-05-06T09:20:02.096Z</time>
      </trkpt>
      <trkpt lat="51.51739" lon="6.73711">
        <ele>72.517819</ele>
        <time>2026-05-06T09:20:05.105Z</time>
      </trkpt>
      <trkpt lat="51.51748" lon="6.73701">
        <ele>72.658766</ele>
        <time>2026-05-06T09:20:09.103Z</time>
      </trkpt>
      <trkpt lat="51.51756" lon="6.73694">
        <ele>72.770654</ele>
        <time>2026-05-06T09:20:12.102Z</time>
      </trkpt>
      <trkpt lat="51.51765" lon="6.73683">
        <ele>72.903208</ele>
        <time>2026-05-06T09:20:15.101Z</time>
      </trkpt>
      <trkpt lat="51.51773" lon="6.73674">
        <ele>73.029646</ele>
        <time>2026-05-06T09:20:18.100Z</time>
      </trkpt>
      <trkpt lat="51.51781" lon="6.73664">
        <ele>73.151208</ele>
        <time>2026-05-06T09:20:21.100Z</time>
      </trkpt>
      <trkpt lat="51.5179" lon="6.73654">
        <ele>73.153086</ele>
        <time>2026-05-06T09:20:24.110Z</time>
      </trkpt>
      <trkpt lat="51.51798" lon="6.73643">
        <ele>72.917309</ele>
        <time>2026-05-06T09:20:27.113Z</time>
      </trkpt>
      <trkpt lat="51.51805" lon="6.73632">
        <ele>72.71546</ele>
        <time>2026-05-06T09:20:30.105Z</time>
      </trkpt>
      <trkpt lat="51.51814" lon="6.73621">
        <ele>72.48865</ele>
        <time>2026-05-06T09:20:33.111Z</time>
      </trkpt>
      <trkpt lat="51.51822" lon="6.73609">
        <ele>72.259152</ele>
        <time>2026-05-06T09:20:36.109Z</time>
      </trkpt>
      <trkpt lat="51.51831" lon="6.73598">
        <ele>72.026702</ele>
        <time>2026-05-06T09:20:39.098Z</time>
      </trkpt>
      <trkpt lat="51.51838" lon="6.73587">
        <ele>71.80753</ele>
        <time>2026-05-06T09:20:42.106Z</time>
      </trkpt>
      <trkpt lat="51.51847" lon="6.73574">
        <ele>71.574538</ele>
        <time>2026-05-06T09:20:45.101Z</time>
      </trkpt>
      <trkpt lat="51.51854" lon="6.73563">
        <ele>71.355366</ele>
        <time>2026-05-06T09:20:48.110Z</time>
      </trkpt>
      <trkpt lat="51.51863" lon="6.73551">
        <ele>71.120322</ele>
        <time>2026-05-06T09:20:51.096Z</time>
      </trkpt>
      <trkpt lat="51.51871" lon="6.73538">
        <ele>70.884947</ele>
        <time>2026-05-06T09:20:54.107Z</time>
      </trkpt>
      <trkpt lat="51.51879" lon="6.73526">
        <ele>70.659808</ele>
        <time>2026-05-06T09:20:57.092Z</time>
      </trkpt>
      <trkpt lat="51.51886" lon="6.73513">
        <ele>70.434795</ele>
        <time>2026-05-06T09:21:00.103Z</time>
      </trkpt>
      <trkpt lat="51.51894" lon="6.735">
        <ele>70.189839</ele>
        <time>2026-05-06T09:21:03.107Z</time>
      </trkpt>
      <trkpt lat="51.51902" lon="6.73487">
        <ele>69.951781</ele>
        <time>2026-05-06T09:21:06.097Z</time>
      </trkpt>
      <trkpt lat="51.51911" lon="6.73472">
        <ele>69.690479</ele>
        <time>2026-05-06T09:21:09.109Z</time>
      </trkpt>
      <trkpt lat="51.51917" lon="6.73458">
        <ele>69.492845</ele>
        <time>2026-05-06T09:21:12.109Z</time>
      </trkpt>
      <trkpt lat="51.51924" lon="6.73444">
        <ele>69.601439</ele>
        <time>2026-05-06T09:21:15.107Z</time>
      </trkpt>
      <trkpt lat="51.51931" lon="6.73431">
        <ele>69.715605</ele>
        <time>2026-05-06T09:21:18.095Z</time>
      </trkpt>
      <trkpt lat="51.51938" lon="6.73415">
        <ele>69.837364</ele>
        <time>2026-05-06T09:21:21.105Z</time>
      </trkpt>
      <trkpt lat="51.51945" lon="6.73399">
        <ele>69.961274</ele>
        <time>2026-05-06T09:21:24.103Z</time>
      </trkpt>
      <trkpt lat="51.51952" lon="6.73383">
        <ele>70.091573</ele>
        <time>2026-05-06T09:21:27.100Z</time>
      </trkpt>
      <trkpt lat="51.51959" lon="6.73365">
        <ele>70.226613</ele>
        <time>2026-05-06T09:21:30.105Z</time>
      </trkpt>
      <trkpt lat="51.51966" lon="6.73348">
        <ele>70.358961</ele>
        <time>2026-05-06T09:21:33.110Z</time>
      </trkpt>
      <trkpt lat="51.51972" lon="6.73335">
        <ele>70.458272</ele>
        <time>2026-05-06T09:21:36.094Z</time>
      </trkpt>
      <trkpt lat="51.51972" lon="6.73319">
        <ele>70.563021</ele>
        <time>2026-05-06T09:27:44.083Z</time>
      </trkpt>
      <trkpt lat="51.51982" lon="6.73312">
        <ele>70.671798</ele>
        <time>2026-05-06T09:34:22.106Z</time>
      </trkpt>
      <trkpt lat="51.51985" lon="6.73297">
        <ele>70.774577</ele>
        <time>2026-05-06T09:34:25.101Z</time>
      </trkpt>
      <trkpt lat="51.51992" lon="6.73284">
        <ele>70.878271</ele>
        <time>2026-05-06T09:34:28.103Z</time>
      </trkpt>
      <trkpt lat="51.51999" lon="6.73272">
        <ele>70.98591</ele>
        <time>2026-05-06T09:34:32.114Z</time>
      </trkpt>
      <trkpt lat="51.52004" lon="6.73256">
        <ele>71.099079</ele>
        <time>2026-05-06T09:34:36.105Z</time>
      </trkpt>
      <trkpt lat="51.5201" lon="6.73242">
        <ele>71.209474</ele>
        <time>2026-05-06T09:34:39.113Z</time>
      </trkpt>
      <trkpt lat="51.52014" lon="6.73227">
        <ele>71.311585</ele>
        <time>2026-05-06T09:34:42.104Z</time>
      </trkpt>
      <trkpt lat="51.52019" lon="6.73212">
        <ele>71.258601</ele>
        <time>2026-05-06T09:34:45.103Z</time>
      </trkpt>
      <trkpt lat="51.52024" lon="6.73197">
        <ele>71.177577</ele>
        <time>2026-05-06T09:34:48.114Z</time>
      </trkpt>
      <trkpt lat="51.52029" lon="6.73185">
        <ele>71.107824</ele>
        <time>2026-05-06T09:34:51.110Z</time>
      </trkpt>
      <trkpt lat="51.52034" lon="6.7317">
        <ele>71.029833</ele>
        <time>2026-05-06T09:34:54.097Z</time>
      </trkpt>
      <trkpt lat="51.52039" lon="6.73154">
        <ele>70.946323</ele>
        <time>2026-05-06T09:34:57.105Z</time>
      </trkpt>
      <trkpt lat="51.52045" lon="6.73139">
        <ele>70.861846</ele>
        <time>2026-05-06T09:35:00.104Z</time>
      </trkpt>
      <trkpt lat="51.5205" lon="6.73123">
        <ele>70.778998</ele>
        <time>2026-05-06T09:35:03.110Z</time>
      </trkpt>
      <trkpt lat="51.52056" lon="6.73108">
        <ele>70.69229</ele>
        <time>2026-05-06T09:35:06.111Z</time>
      </trkpt>
      <trkpt lat="51.52062" lon="6.7309">
        <ele>70.602381</ele>
        <time>2026-05-06T09:35:09.109Z</time>
      </trkpt>
      <trkpt lat="51.52068" lon="6.73074">
        <ele>70.511265</ele>
        <time>2026-05-06T09:35:12.106Z</time>
      </trkpt>
      <trkpt lat="51.52072" lon="6.73058">
        <ele>70.433358</ele>
        <time>2026-05-06T09:35:15.107Z</time>
      </trkpt>
      <trkpt lat="51.52078" lon="6.73042">
        <ele>70.345046</ele>
        <time>2026-05-06T09:35:18.108Z</time>
      </trkpt>
      <trkpt lat="51.52084" lon="6.73027">
        <ele>70.261908</ele>
        <time>2026-05-06T09:35:21.104Z</time>
      </trkpt>
      <trkpt lat="51.5209" lon="6.73013">
        <ele>70.183927</ele>
        <time>2026-05-06T09:35:24.096Z</time>
      </trkpt>
      <trkpt lat="51.52096" lon="6.73">
        <ele>70.10773</ele>
        <time>2026-05-06T09:35:28.103Z</time>
      </trkpt>
      <trkpt lat="51.52101" lon="6.72985">
        <ele>70.025387</ele>
        <time>2026-05-06T09:35:33.112Z</time>
      </trkpt>
      <trkpt lat="51.52106" lon="6.72971">
        <ele>70.02476</ele>
        <time>2026-05-06T09:35:36.127Z</time>
      </trkpt>
      <trkpt lat="51.52112" lon="6.72958">
        <ele>70.204409</ele>
        <time>2026-05-06T09:35:39.105Z</time>
      </trkpt>
      <trkpt lat="51.52117" lon="6.72942">
        <ele>70.401108</ele>
        <time>2026-05-06T09:35:42.098Z</time>
      </trkpt>
      <trkpt lat="51.52123" lon="6.72926">
        <ele>70.610882</ele>
        <time>2026-05-06T09:35:45.114Z</time>
      </trkpt>
      <trkpt lat="51.52128" lon="6.72911">
        <ele>70.797082</ele>
        <time>2026-05-06T09:35:48.106Z</time>
      </trkpt>
      <trkpt lat="51.52133" lon="6.72896">
        <ele>70.984283</ele>
        <time>2026-05-06T09:35:51.097Z</time>
      </trkpt>
      <trkpt lat="51.5214" lon="6.72879">
        <ele>71.2089</ele>
        <time>2026-05-06T09:35:54.112Z</time>
      </trkpt>
      <trkpt lat="51.52148" lon="6.72865">
        <ele>71.415536</ele>
        <time>2026-05-06T09:35:57.109Z</time>
      </trkpt>
      <trkpt lat="51.52155" lon="6.72851">
        <ele>71.613691</ele>
        <time>2026-05-06T09:36:00.107Z</time>
      </trkpt>
      <trkpt lat="51.52163" lon="6.72841">
        <ele>71.791089</ele>
        <time>2026-05-06T09:36:03.111Z</time>
      </trkpt>
      <trkpt lat="51.52171" lon="6.72833">
        <ele>71.965373</ele>
        <time>2026-05-06T09:36:06.117Z</time>
      </trkpt>
      <trkpt lat="51.5218" lon="6.72821">
        <ele>72.166222</ele>
        <time>2026-05-06T09:36:09.098Z</time>
      </trkpt>
      <trkpt lat="51.52188" lon="6.72809">
        <ele>72.363188</ele>
        <time>2026-05-06T09:36:12.105Z</time>
      </trkpt>
      <trkpt lat="51.52197" lon="6.72798">
        <ele>72.554371</ele>
        <time>2026-05-06T09:36:15.110Z</time>
      </trkpt>
      <trkpt lat="51.52206" lon="6.72788">
        <ele>72.754604</ele>
        <time>2026-05-06T09:36:18.119Z</time>
      </trkpt>
      <trkpt lat="51.52215" lon="6.72779">
        <ele>72.942313</ele>
        <time>2026-05-06T09:36:21.098Z</time>
      </trkpt>
      <trkpt lat="51.52224" lon="6.72769">
        <ele>73.138376</ele>
        <time>2026-05-06T09:36:24.106Z</time>
      </trkpt>
      <trkpt lat="51.52233" lon="6.7276">
        <ele>73.23683</ele>
        <time>2026-05-06T09:36:27.101Z</time>
      </trkpt>
      <trkpt lat="51.52241" lon="6.72751">
        <ele>73.327461</ele>
        <time>2026-05-06T09:36:30.100Z</time>
      </trkpt>
      <trkpt lat="51.5225" lon="6.72741">
        <ele>73.418302</ele>
        <time>2026-05-06T09:36:33.104Z</time>
      </trkpt>
      <trkpt lat="51.52258" lon="6.72733">
        <ele>73.500087</ele>
        <time>2026-05-06T09:36:36.103Z</time>
      </trkpt>
      <trkpt lat="51.52268" lon="6.72725">
        <ele>73.593156</ele>
        <time>2026-05-06T09:36:39.102Z</time>
      </trkpt>
      <trkpt lat="51.52276" lon="6.72716">
        <ele>73.683053</ele>
        <time>2026-05-06T09:36:42.105Z</time>
      </trkpt>
      <trkpt lat="51.52285" lon="6.72706">
        <ele>73.776238</ele>
        <time>2026-05-06T09:36:45.110Z</time>
      </trkpt>
      <trkpt lat="51.52295" lon="6.72698">
        <ele>73.869758</ele>
        <time>2026-05-06T09:36:48.108Z</time>
      </trkpt>
      <trkpt lat="51.52303" lon="6.72688">
        <ele>73.960525</ele>
        <time>2026-05-06T09:36:51.111Z</time>
      </trkpt>
      <trkpt lat="51.52313" lon="6.72678">
        <ele>74.060325</ele>
        <time>2026-05-06T09:36:54.101Z</time>
      </trkpt>
      <trkpt lat="51.52322" lon="6.72669">
        <ele>74.155601</ele>
        <time>2026-05-06T09:36:57.100Z</time>
      </trkpt>
      <trkpt lat="51.52332" lon="6.72657">
        <ele>74.262312</ele>
        <time>2026-05-06T09:37:00.128Z</time>
      </trkpt>
      <trkpt lat="51.52342" lon="6.72648">
        <ele>74.363767</ele>
        <time>2026-05-06T09:37:03.104Z</time>
      </trkpt>
      <trkpt lat="51.52351" lon="6.72639">
        <ele>74.453952</ele>
        <time>2026-05-06T09:37:06.106Z</time>
      </trkpt>
      <trkpt lat="51.52361" lon="6.72629">
        <ele>74.555081</ele>
        <time>2026-05-06T09:37:09.106Z</time>
      </trkpt>
      <trkpt lat="51.52371" lon="6.72618">
        <ele>74.65556</ele>
        <time>2026-05-06T09:37:12.115Z</time>
      </trkpt>
      <trkpt lat="51.5238" lon="6.72605">
        <ele>74.649238</ele>
        <time>2026-05-06T09:37:15.098Z</time>
      </trkpt>
      <trkpt lat="51.5239" lon="6.72592">
        <ele>74.498885</ele>
        <time>2026-05-06T09:37:18.106Z</time>
      </trkpt>
      <trkpt lat="51.52401" lon="6.72579">
        <ele>74.34429</ele>
        <time>2026-05-06T09:37:21.104Z</time>
      </trkpt>
      <trkpt lat="51.52411" lon="6.72566">
        <ele>74.194799</ele>
        <time>2026-05-06T09:37:24.095Z</time>
      </trkpt>
      <trkpt lat="51.52421" lon="6.72554">
        <ele>74.05299</ele>
        <time>2026-05-06T09:37:27.108Z</time>
      </trkpt>
      <trkpt lat="51.52429" lon="6.72542">
        <ele>73.920109</ele>
        <time>2026-05-06T09:37:30.109Z</time>
      </trkpt>
      <trkpt lat="51.52439" lon="6.72531">
        <ele>73.790601</ele>
        <time>2026-05-06T09:37:33.097Z</time>
      </trkpt>
      <trkpt lat="51.52448" lon="6.72521">
        <ele>73.657848</ele>
        <time>2026-05-06T09:37:36.101Z</time>
      </trkpt>
      <trkpt lat="51.52456" lon="6.72511">
        <ele>73.541348</ele>
        <time>2026-05-06T09:37:39.110Z</time>
      </trkpt>
      <trkpt lat="51.52464" lon="6.72502">
        <ele>73.431839</ele>
        <time>2026-05-06T09:37:42.103Z</time>
      </trkpt>
      <trkpt lat="51.52471" lon="6.72493">
        <ele>73.327111</ele>
        <time>2026-05-06T09:37:45.109Z</time>
      </trkpt>
      <trkpt lat="51.5248" lon="6.72486">
        <ele>73.209377</ele>
        <time>2026-05-06T09:37:49.111Z</time>
      </trkpt>
      <trkpt lat="51.52491" lon="6.72481">
        <ele>73.082955</ele>
        <time>2026-05-06T09:38:03.102Z</time>
      </trkpt>
      <trkpt lat="51.525" lon="6.72478">
        <ele>72.974866</ele>
        <time>2026-05-06T09:38:07.108Z</time>
      </trkpt>
      <trkpt lat="51.5251" lon="6.72479">
        <ele>72.860794</ele>
        <time>2026-05-06T09:38:12.103Z</time>
      </trkpt>
      <trkpt lat="51.52516" lon="6.72466">
        <ele>72.746776</ele>
        <time>2026-05-06T09:38:16.110Z</time>
      </trkpt>
      <trkpt lat="51.52523" lon="6.72455">
        <ele>72.639341</ele>
        <time>2026-05-06T09:38:20.096Z</time>
      </trkpt>
      <trkpt lat="51.52534" lon="6.72448">
        <ele>72.594767</ele>
        <time>2026-05-06T09:38:24.098Z</time>
      </trkpt>
      <trkpt lat="51.52543" lon="6.7244">
        <ele>72.553519</ele>
        <time>2026-05-06T09:38:28.110Z</time>
      </trkpt>
      <trkpt lat="51.52546" lon="6.72414">
        <ele>72.488908</ele>
        <time>2026-05-06T09:38:52.110Z</time>
      </trkpt>
      <trkpt lat="51.52545" lon="6.72397">
        <ele>72.447084</ele>
        <time>2026-05-06T09:38:56.104Z</time>
      </trkpt>
      <trkpt lat="51.52551" lon="6.72383">
        <ele>72.406561</ele>
        <time>2026-05-06T09:39:00.101Z</time>
      </trkpt>
      <trkpt lat="51.52556" lon="6.72368">
        <ele>72.364945</ele>
        <time>2026-05-06T09:39:04.115Z</time>
      </trkpt>
      <trkpt lat="51.52553" lon="6.72353">
        <ele>72.32522</ele>
        <time>2026-05-06T09:39:07.105Z</time>
      </trkpt>
      <trkpt lat="51.52548" lon="6.72337">
        <ele>72.280934</ele>
        <time>2026-05-06T09:39:10.101Z</time>
      </trkpt>
      <trkpt lat="51.52546" lon="6.72319">
        <ele>72.237235</ele>
        <time>2026-05-06T09:39:13.103Z</time>
      </trkpt>
      <trkpt lat="51.52546" lon="6.723">
        <ele>72.190443</ele>
        <time>2026-05-06T09:39:16.107Z</time>
      </trkpt>
      <trkpt lat="51.52548" lon="6.7228">
        <ele>72.142832</ele>
        <time>2026-05-06T09:39:19.108Z</time>
      </trkpt>
      <trkpt lat="51.5255" lon="6.72261">
        <ele>72.093965</ele>
        <time>2026-05-06T09:39:22.114Z</time>
      </trkpt>
      <trkpt lat="51.52552" lon="6.72242">
        <ele>72.047688</ele>
        <time>2026-05-06T09:39:25.098Z</time>
      </trkpt>
      <trkpt lat="51.52553" lon="6.72222">
        <ele>72.000257</ele>
        <time>2026-05-06T09:39:28.120Z</time>
      </trkpt>
      <trkpt lat="51.52554" lon="6.72203">
        <ele>71.953018</ele>
        <time>2026-05-06T09:39:31.099Z</time>
      </trkpt>
      <trkpt lat="51.52555" lon="6.72184">
        <ele>71.882053</ele>
        <time>2026-05-06T09:39:34.102Z</time>
      </trkpt>
      <trkpt lat="51.52558" lon="6.72167">
        <ele>71.806093</ele>
        <time>2026-05-06T09:39:37.102Z</time>
      </trkpt>
      <trkpt lat="51.52559" lon="6.72149">
        <ele>71.729083</ele>
        <time>2026-05-06T09:39:40.124Z</time>
      </trkpt>
      <trkpt lat="51.52559" lon="6.72132">
        <ele>71.653305</ele>
        <time>2026-05-06T09:39:43.106Z</time>
      </trkpt>
      <trkpt lat="51.5256" lon="6.72112">
        <ele>71.565857</ele>
        <time>2026-05-06T09:39:46.110Z</time>
      </trkpt>
      <trkpt lat="51.52561" lon="6.72092">
        <ele>71.482783</ele>
        <time>2026-05-06T09:39:49.104Z</time>
      </trkpt>
      <trkpt lat="51.52563" lon="6.72074">
        <ele>71.400561</ele>
        <time>2026-05-06T09:39:52.105Z</time>
      </trkpt>
      <trkpt lat="51.52565" lon="6.72055">
        <ele>71.321411</ele>
        <time>2026-05-06T09:39:55.091Z</time>
      </trkpt>
      <trkpt lat="51.52566" lon="6.72038">
        <ele>71.247577</ele>
        <time>2026-05-06T09:39:58.114Z</time>
      </trkpt>
      <trkpt lat="51.52567" lon="6.72021">
        <ele>71.173834</ele>
        <time>2026-05-06T09:40:01.099Z</time>
      </trkpt>
      <trkpt lat="51.52567" lon="6.72004">
        <ele>71.100157</ele>
        <time>2026-05-06T09:40:04.102Z</time>
      </trkpt>
      <trkpt lat="51.52568" lon="6.71988">
        <ele>71.030986</ele>
        <time>2026-05-06T09:40:07.104Z</time>
      </trkpt>
      <trkpt lat="51.52568" lon="6.7197">
        <ele>70.954297</ele>
        <time>2026-05-06T09:40:10.103Z</time>
      </trkpt>
      <trkpt lat="51.52569" lon="6.71952">
        <ele>70.876255</ele>
        <time>2026-05-06T09:40:13.106Z</time>
      </trkpt>
      <trkpt lat="51.52568" lon="6.71934">
        <ele>70.796599</ele>
        <time>2026-05-06T09:40:16.106Z</time>
      </trkpt>
      <trkpt lat="51.52566" lon="6.71916">
        <ele>70.718295</ele>
        <time>2026-05-06T09:40:19.105Z</time>
      </trkpt>
      <trkpt lat="51.52565" lon="6.71897">
        <ele>70.760968</ele>
        <time>2026-05-06T09:40:22.118Z</time>
      </trkpt>
      <trkpt lat="51.52564" lon="6.71878">
        <ele>70.85656</ele>
        <time>2026-05-06T09:40:25.117Z</time>
      </trkpt>
      <trkpt lat="51.52564" lon="6.7186">
        <ele>70.947657</ele>
        <time>2026-05-06T09:40:28.104Z</time>
      </trkpt>
      <trkpt lat="51.52563" lon="6.71842">
        <ele>71.035075</ele>
        <time>2026-05-06T09:40:31.101Z</time>
      </trkpt>
      <trkpt lat="51.52563" lon="6.71825">
        <ele>71.120894</ele>
        <time>2026-05-06T09:40:34.108Z</time>
      </trkpt>
      <trkpt lat="51.52561" lon="6.71808">
        <ele>71.205095</ele>
        <time>2026-05-06T09:40:37.103Z</time>
      </trkpt>
      <trkpt lat="51.52561" lon="6.71791">
        <ele>71.28733</ele>
        <time>2026-05-06T09:40:40.102Z</time>
      </trkpt>
      <trkpt lat="51.52561" lon="6.71773">
        <ele>71.376523</ele>
        <time>2026-05-06T09:40:43.107Z</time>
      </trkpt>
      <trkpt lat="51.52561" lon="6.71757">
        <ele>71.45834</ele>
        <time>2026-05-06T09:40:46.100Z</time>
      </trkpt>
      <trkpt lat="51.5256" lon="6.71741">
        <ele>71.537739</ele>
        <time>2026-05-06T09:40:49.107Z</time>
      </trkpt>
      <trkpt lat="51.52557" lon="6.71725">
        <ele>71.618367</ele>
        <time>2026-05-06T09:40:52.107Z</time>
      </trkpt>
      <trkpt lat="51.52555" lon="6.71708">
        <ele>71.705625</ele>
        <time>2026-05-06T09:40:55.098Z</time>
      </trkpt>
      <trkpt lat="51.52554" lon="6.71689">
        <ele>71.798812</ele>
        <time>2026-05-06T09:40:58.105Z</time>
      </trkpt>
      <trkpt lat="51.52553" lon="6.71672">
        <ele>71.884902</ele>
        <time>2026-05-06T09:41:01.110Z</time>
      </trkpt>
      <trkpt lat="51.52551" lon="6.71656">
        <ele>71.963603</ele>
        <time>2026-05-06T09:41:04.114Z</time>
      </trkpt>
      <trkpt lat="51.52551" lon="6.71641">
        <ele>72.036974</ele>
        <time>2026-05-06T09:41:07.114Z</time>
      </trkpt>
      <trkpt lat="51.5255" lon="6.71626">
        <ele>72.114606</ele>
        <time>2026-05-06T09:41:10.091Z</time>
      </trkpt>
      <trkpt lat="51.52549" lon="6.71609">
        <ele>72.185852</ele>
        <time>2026-05-06T09:41:13.102Z</time>
      </trkpt>
      <trkpt lat="51.5255" lon="6.71591">
        <ele>72.263989</ele>
        <time>2026-05-06T09:41:16.103Z</time>
      </trkpt>
      <trkpt lat="51.52551" lon="6.71574">
        <ele>72.337531</ele>
        <time>2026-05-06T09:41:19.104Z</time>
      </trkpt>
      <trkpt lat="51.52552" lon="6.71559">
        <ele>72.402356</ele>
        <time>2026-05-06T09:41:22.104Z</time>
      </trkpt>
      <trkpt lat="51.52552" lon="6.71542">
        <ele>72.473102</ele>
        <time>2026-05-06T09:41:25.109Z</time>
      </trkpt>
      <trkpt lat="51.52553" lon="6.71525">
        <ele>72.545198</ele>
        <time>2026-05-06T09:41:28.107Z</time>
      </trkpt>
      <trkpt lat="51.52554" lon="6.71509">
        <ele>72.612707</ele>
        <time>2026-05-06T09:41:31.110Z</time>
      </trkpt>
      <trkpt lat="51.52556" lon="6.71492">
        <ele>72.688379</ele>
        <time>2026-05-06T09:41:34.102Z</time>
      </trkpt>
      <trkpt lat="51.52558" lon="6.71475">
        <ele>72.760714</ele>
        <time>2026-05-06T09:41:37.099Z</time>
      </trkpt>
      <trkpt lat="51.52561" lon="6.71457">
        <ele>72.83644</ele>
        <time>2026-05-06T09:41:40.102Z</time>
      </trkpt>
      <trkpt lat="51.52565" lon="6.71441">
        <ele>72.911178</ele>
        <time>2026-05-06T09:41:43.112Z</time>
      </trkpt>
      <trkpt lat="51.5257" lon="6.71426">
        <ele>72.982401</ele>
        <time>2026-05-06T09:41:46.112Z</time>
      </trkpt>
      <trkpt lat="51.52575" lon="6.71414">
        <ele>73.046867</ele>
        <time>2026-05-06T09:41:49.112Z</time>
      </trkpt>
      <trkpt lat="51.5258" lon="6.71398">
        <ele>73.120141</ele>
        <time>2026-05-06T09:41:52.103Z</time>
      </trkpt>
      <trkpt lat="51.52584" lon="6.71382">
        <ele>73.193726</ele>
        <time>2026-05-06T09:41:55.108Z</time>
      </trkpt>
      <trkpt lat="51.52587" lon="6.71364">
        <ele>73.271751</ele>
        <time>2026-05-06T09:41:58.114Z</time>
      </trkpt>
      <trkpt lat="51.52588" lon="6.71345">
        <ele>73.349029</ele>
        <time>2026-05-06T09:42:01.104Z</time>
      </trkpt>
      <trkpt lat="51.52588" lon="6.71325">
        <ele>73.310669</ele>
        <time>2026-05-06T09:42:04.090Z</time>
      </trkpt>
      <trkpt lat="51.52588" lon="6.71306">
        <ele>73.272473</ele>
        <time>2026-05-06T09:42:07.106Z</time>
      </trkpt>
      <trkpt lat="51.52588" lon="6.71287">
        <ele>73.235085</ele>
        <time>2026-05-06T09:42:10.112Z</time>
      </trkpt>
      <trkpt lat="51.52588" lon="6.71268">
        <ele>73.197106</ele>
        <time>2026-05-06T09:42:13.113Z</time>
      </trkpt>
      <trkpt lat="51.52587" lon="6.71249">
        <ele>73.159818</ele>
        <time>2026-05-06T09:42:16.093Z</time>
      </trkpt>
      <trkpt lat="51.52585" lon="6.7123">
        <ele>73.12225</ele>
        <time>2026-05-06T09:42:19.116Z</time>
      </trkpt>
      <trkpt lat="51.52585" lon="6.71211">
        <ele>73.084447</ele>
        <time>2026-05-06T09:42:22.103Z</time>
      </trkpt>
      <trkpt lat="51.52583" lon="6.7119">
        <ele>73.043373</ele>
        <time>2026-05-06T09:42:25.107Z</time>
      </trkpt>
      <trkpt lat="51.52583" lon="6.71169">
        <ele>73.003034</ele>
        <time>2026-05-06T09:42:28.117Z</time>
      </trkpt>
      <trkpt lat="51.52582" lon="6.71155">
        <ele>72.974259</ele>
        <time>2026-05-06T09:42:30.097Z</time>
      </trkpt>
      <trkpt lat="51.5258" lon="6.7114">
        <ele>72.943933</ele>
        <time>2026-05-06T09:42:32.114Z</time>
      </trkpt>
      <trkpt lat="51.52579" lon="6.71124">
        <ele>72.913729</ele>
        <time>2026-05-06T09:42:34.098Z</time>
      </trkpt>
      <trkpt lat="51.52579" lon="6.71108">
        <ele>72.88198</ele>
        <time>2026-05-06T09:42:36.093Z</time>
      </trkpt>
      <trkpt lat="51.52578" lon="6.71093">
        <ele>72.851286</ele>
        <time>2026-05-06T09:42:38.102Z</time>
      </trkpt>
      <trkpt lat="51.52577" lon="6.71077">
        <ele>72.819583</ele>
        <time>2026-05-06T09:42:40.109Z</time>
      </trkpt>
      <trkpt lat="51.52576" lon="6.71061">
        <ele>72.788763</ele>
        <time>2026-05-06T09:42:42.103Z</time>
      </trkpt>
      <trkpt lat="51.52576" lon="6.71046">
        <ele>72.630468</ele>
        <time>2026-05-06T09:42:44.106Z</time>
      </trkpt>
      <trkpt lat="51.52574" lon="6.71032">
        <ele>72.440463</ele>
        <time>2026-05-06T09:42:46.099Z</time>
      </trkpt>
      <trkpt lat="51.52572" lon="6.71017">
        <ele>72.245759</ele>
        <time>2026-05-06T09:42:48.106Z</time>
      </trkpt>
      <trkpt lat="51.5257" lon="6.71002">
        <ele>72.03952</ele>
        <time>2026-05-06T09:42:50.106Z</time>
      </trkpt>
      <trkpt lat="51.52567" lon="6.70986">
        <ele>71.82461</ele>
        <time>2026-05-06T09:42:52.109Z</time>
      </trkpt>
      <trkpt lat="51.52565" lon="6.7097">
        <ele>71.615143</ele>
        <time>2026-05-06T09:42:54.101Z</time>
      </trkpt>
      <trkpt lat="51.52561" lon="6.70949">
        <ele>71.327109</ele>
        <time>2026-05-06T09:42:57.102Z</time>
      </trkpt>
      <trkpt lat="51.52558" lon="6.70936">
        <ele>71.138582</ele>
        <time>2026-05-06T09:42:59.118Z</time>
      </trkpt>
      <trkpt lat="51.52554" lon="6.70923">
        <ele>70.947424</ele>
        <time>2026-05-06T09:43:01.108Z</time>
      </trkpt>
      <trkpt lat="51.52549" lon="6.7091">
        <ele>70.755241</ele>
        <time>2026-05-06T09:43:03.103Z</time>
      </trkpt>
      <trkpt lat="51.52541" lon="6.70893">
        <ele>70.482457</ele>
        <time>2026-05-06T09:43:06.102Z</time>
      </trkpt>
      <trkpt lat="51.52533" lon="6.70875">
        <ele>70.19251</ele>
        <time>2026-05-06T09:43:09.100Z</time>
      </trkpt>
      <trkpt lat="51.52528" lon="6.70863">
        <ele>69.99558</ele>
        <time>2026-05-06T09:43:11.092Z</time>
      </trkpt>
      <trkpt lat="51.52523" lon="6.7085">
        <ele>69.79753</ele>
        <time>2026-05-06T09:43:13.106Z</time>
      </trkpt>
      <trkpt lat="51.52518" lon="6.70838">
        <ele>69.608702</ele>
        <time>2026-05-06T09:43:15.103Z</time>
      </trkpt>
      <trkpt lat="51.52515" lon="6.70819">
        <ele>69.346972</ele>
        <time>2026-05-06T09:43:18.093Z</time>
      </trkpt>
      <trkpt lat="51.52512" lon="6.70799">
        <ele>69.087718</ele>
        <time>2026-05-06T09:43:21.104Z</time>
      </trkpt>
      <trkpt lat="51.52511" lon="6.70779">
        <ele>69.077571</ele>
        <time>2026-05-06T09:43:24.105Z</time>
      </trkpt>
      <trkpt lat="51.52512" lon="6.70759">
        <ele>69.1948</ele>
        <time>2026-05-06T09:43:27.107Z</time>
      </trkpt>
      <trkpt lat="51.52515" lon="6.7074">
        <ele>69.313156</ele>
        <time>2026-05-06T09:43:30.103Z</time>
      </trkpt>
      <trkpt lat="51.52519" lon="6.7072">
        <ele>69.436433</ele>
        <time>2026-05-06T09:43:33.109Z</time>
      </trkpt>
      <trkpt lat="51.52523" lon="6.70707">
        <ele>69.523254</ele>
        <time>2026-05-06T09:43:35.106Z</time>
      </trkpt>
      <trkpt lat="51.5253" lon="6.70689">
        <ele>69.646591</ele>
        <time>2026-05-06T09:43:38.108Z</time>
      </trkpt>
      <trkpt lat="51.52535" lon="6.70677">
        <ele>69.733181</ele>
        <time>2026-05-06T09:43:40.102Z</time>
      </trkpt>
      <trkpt lat="51.52541" lon="6.70666">
        <ele>69.819878</ele>
        <time>2026-05-06T09:43:42.107Z</time>
      </trkpt>
      <trkpt lat="51.5255" lon="6.70651">
        <ele>69.945593</ele>
        <time>2026-05-06T09:43:45.106Z</time>
      </trkpt>
      <trkpt lat="51.52558" lon="6.70642">
        <ele>70.037836</ele>
        <time>2026-05-06T09:43:47.104Z</time>
      </trkpt>
      <trkpt lat="51.52565" lon="6.70633">
        <ele>70.124403</ele>
        <time>2026-05-06T09:43:49.102Z</time>
      </trkpt>
      <trkpt lat="51.52573" lon="6.70623">
        <ele>70.215417</ele>
        <time>2026-05-06T09:43:51.107Z</time>
      </trkpt>
      <trkpt lat="51.5258" lon="6.70614">
        <ele>70.304206</ele>
        <time>2026-05-06T09:43:53.093Z</time>
      </trkpt>
      <trkpt lat="51.52591" lon="6.70601">
        <ele>70.434055</ele>
        <time>2026-05-06T09:43:56.099Z</time>
      </trkpt>
      <trkpt lat="51.52599" lon="6.70591">
        <ele>70.523957</ele>
        <time>2026-05-06T09:43:58.113Z</time>
      </trkpt>
      <trkpt lat="51.52606" lon="6.70581">
        <ele>70.614268</ele>
        <time>2026-05-06T09:44:00.107Z</time>
      </trkpt>
      <trkpt lat="51.52616" lon="6.70567">
        <ele>70.832096</ele>
        <time>2026-05-06T09:44:03.101Z</time>
      </trkpt>
      <trkpt lat="51.52626" lon="6.70554">
        <ele>71.297352</ele>
        <time>2026-05-06T09:44:06.103Z</time>
      </trkpt>
      <trkpt lat="51.52633" lon="6.70544">
        <ele>71.630675</ele>
        <time>2026-05-06T09:44:08.115Z</time>
      </trkpt>
      <trkpt lat="51.52642" lon="6.70531">
        <ele>72.0905</ele>
        <time>2026-05-06T09:44:11.100Z</time>
      </trkpt>
      <trkpt lat="51.52652" lon="6.70521">
        <ele>72.493363</ele>
        <time>2026-05-06T09:44:14.101Z</time>
      </trkpt>
      <trkpt lat="51.52661" lon="6.70512">
        <ele>72.876208</ele>
        <time>2026-05-06T09:44:17.106Z</time>
      </trkpt>
      <trkpt lat="51.52669" lon="6.70503">
        <ele>73.228378</ele>
        <time>2026-05-06T09:44:20.108Z</time>
      </trkpt>
      <trkpt lat="51.52677" lon="6.70491">
        <ele>73.632884</ele>
        <time>2026-05-06T09:44:23.103Z</time>
      </trkpt>
      <trkpt lat="51.52685" lon="6.70477">
        <ele>74.049569</ele>
        <time>2026-05-06T09:44:26.110Z</time>
      </trkpt>
      <trkpt lat="51.52693" lon="6.70465">
        <ele>74.451445</ele>
        <time>2026-05-06T09:44:29.115Z</time>
      </trkpt>
      <trkpt lat="51.52701" lon="6.70454">
        <ele>74.832434</ele>
        <time>2026-05-06T09:44:32.104Z</time>
      </trkpt>
      <trkpt lat="51.52708" lon="6.70444">
        <ele>75.183829</ele>
        <time>2026-05-06T09:44:35.092Z</time>
      </trkpt>
      <trkpt lat="51.52718" lon="6.70438">
        <ele>75.552772</ele>
        <time>2026-05-06T09:44:38.104Z</time>
      </trkpt>
      <trkpt lat="51.52728" lon="6.70433">
        <ele>75.939539</ele>
        <time>2026-05-06T09:44:41.109Z</time>
      </trkpt>
      <trkpt lat="51.52739" lon="6.70429">
        <ele>76.34597</ele>
        <time>2026-05-06T09:44:44.109Z</time>
      </trkpt>
      <trkpt lat="51.52751" lon="6.70427">
        <ele>76.758144</ele>
        <time>2026-05-06T09:44:47.109Z</time>
      </trkpt>
      <trkpt lat="51.52764" lon="6.70428">
        <ele>77.193269</ele>
        <time>2026-05-06T09:44:50.117Z</time>
      </trkpt>
      <trkpt lat="51.52775" lon="6.70432">
        <ele>77.187018</ele>
        <time>2026-05-06T09:44:53.098Z</time>
      </trkpt>
      <trkpt lat="51.52786" lon="6.70437">
        <ele>77.181459</ele>
        <time>2026-05-06T09:44:56.109Z</time>
      </trkpt>
      <trkpt lat="51.52794" lon="6.70445">
        <ele>77.176243</ele>
        <time>2026-05-06T09:44:59.107Z</time>
      </trkpt>
      <trkpt lat="51.52803" lon="6.70458">
        <ele>77.16988</ele>
        <time>2026-05-06T09:45:02.097Z</time>
      </trkpt>
      <trkpt lat="51.52813" lon="6.70469">
        <ele>77.163585</ele>
        <time>2026-05-06T09:45:05.097Z</time>
      </trkpt>
      <trkpt lat="51.52823" lon="6.7048">
        <ele>77.157339</ele>
        <time>2026-05-06T09:45:08.114Z</time>
      </trkpt>
      <trkpt lat="51.52832" lon="6.70492">
        <ele>77.151336</ele>
        <time>2026-05-06T09:45:11.108Z</time>
      </trkpt>
      <trkpt lat="51.5284" lon="6.70503">
        <ele>77.145675</ele>
        <time>2026-05-06T09:45:14.112Z</time>
      </trkpt>
      <trkpt lat="51.52849" lon="6.70512">
        <ele>77.140385</ele>
        <time>2026-05-06T09:45:17.108Z</time>
      </trkpt>
      <trkpt lat="51.52858" lon="6.70517">
        <ele>77.13538</ele>
        <time>2026-05-06T09:45:20.106Z</time>
      </trkpt>
      <trkpt lat="51.5287" lon="6.70519">
        <ele>77.128963</ele>
        <time>2026-05-06T09:45:24.113Z</time>
      </trkpt>
      <trkpt lat="51.5288" lon="6.70515">
        <ele>77.123592</ele>
        <time>2026-05-06T09:45:27.109Z</time>
      </trkpt>
      <trkpt lat="51.5289" lon="6.7051">
        <ele>77.118011</ele>
        <time>2026-05-06T09:45:30.112Z</time>
      </trkpt>
      <trkpt lat="51.52901" lon="6.70506">
        <ele>77.112547</ele>
        <time>2026-05-06T09:45:33.097Z</time>
      </trkpt>
      <trkpt lat="51.52909" lon="6.70503">
        <ele>77.107846</ele>
        <time>2026-05-06T09:45:36.096Z</time>
      </trkpt>
      <trkpt lat="51.52919" lon="6.70498">
        <ele>77.102642</ele>
        <time>2026-05-06T09:45:39.106Z</time>
      </trkpt>
      <trkpt lat="51.52929" lon="6.70493">
        <ele>76.920556</ele>
        <time>2026-05-06T09:45:42.120Z</time>
      </trkpt>
      <trkpt lat="51.52939" lon="6.70488">
        <ele>76.614884</ele>
        <time>2026-05-06T09:45:45.098Z</time>
      </trkpt>
      <trkpt lat="51.52949" lon="6.70483">
        <ele>76.311422</ele>
        <time>2026-05-06T09:45:48.098Z</time>
      </trkpt>
      <trkpt lat="51.52962" lon="6.70477">
        <ele>75.920617</ele>
        <time>2026-05-06T09:45:51.106Z</time>
      </trkpt>
      <trkpt lat="51.52973" lon="6.7047">
        <ele>75.56838</ele>
        <time>2026-05-06T09:45:54.103Z</time>
      </trkpt>
      <trkpt lat="51.52984" lon="6.70464">
        <ele>75.23267</ele>
        <time>2026-05-06T09:45:57.105Z</time>
      </trkpt>
      <trkpt lat="51.52994" lon="6.70462">
        <ele>74.926216</ele>
        <time>2026-05-06T09:46:00.104Z</time>
      </trkpt>
      <trkpt lat="51.53005" lon="6.7046">
        <ele>74.614691</ele>
        <time>2026-05-06T09:46:03.101Z</time>
      </trkpt>
      <trkpt lat="51.53" lon="6.70448">
        <ele>74.348017</ele>
        <time>2026-05-06T09:46:12.108Z</time>
      </trkpt>
      <trkpt lat="51.53005" lon="6.70432">
        <ele>74.025988</ele>
        <time>2026-05-06T09:46:16.115Z</time>
      </trkpt>
      <trkpt lat="51.53011" lon="6.70419">
        <ele>73.726554</ele>
        <time>2026-05-06T09:46:19.088Z</time>
      </trkpt>
      <trkpt lat="51.53018" lon="6.70406">
        <ele>73.428554</ele>
        <time>2026-05-06T09:46:22.100Z</time>
      </trkpt>
      <trkpt lat="51.53024" lon="6.70393">
        <ele>73.12071</ele>
        <time>2026-05-06T09:46:25.102Z</time>
      </trkpt>
      <trkpt lat="51.5303" lon="6.70378">
        <ele>72.800557</ele>
        <time>2026-05-06T09:46:28.115Z</time>
      </trkpt>
      <trkpt lat="51.53037" lon="6.70364">
        <ele>72.474461</ele>
        <time>2026-05-06T09:46:31.100Z</time>
      </trkpt>
      <trkpt lat="51.53044" lon="6.70348">
        <ele>72.108365</ele>
        <time>2026-05-06T09:46:34.107Z</time>
      </trkpt>
      <trkpt lat="51.53052" lon="6.70332">
        <ele>71.851311</ele>
        <time>2026-05-06T09:46:37.103Z</time>
      </trkpt>
      <trkpt lat="51.53059" lon="6.70316">
        <ele>71.985601</ele>
        <time>2026-05-06T09:46:40.104Z</time>
      </trkpt>
      <trkpt lat="51.53064" lon="6.70299">
        <ele>72.119647</ele>
        <time>2026-05-06T09:46:43.107Z</time>
      </trkpt>
      <trkpt lat="51.53069" lon="6.70281">
        <ele>72.254423</ele>
        <time>2026-05-06T09:46:46.110Z</time>
      </trkpt>
      <trkpt lat="51.53071" lon="6.70264">
        <ele>72.380371</ele>
        <time>2026-05-06T09:46:49.103Z</time>
      </trkpt>
      <trkpt lat="51.53071" lon="6.70248">
        <ele>72.489212</ele>
        <time>2026-05-06T09:46:52.104Z</time>
      </trkpt>
      <trkpt lat="51.5307" lon="6.70231">
        <ele>72.607066</ele>
        <time>2026-05-06T09:46:55.094Z</time>
      </trkpt>
      <trkpt lat="51.53067" lon="6.70216">
        <ele>72.722107</ele>
        <time>2026-05-06T09:46:58.103Z</time>
      </trkpt>
      <trkpt lat="51.53062" lon="6.702">
        <ele>72.846403</ele>
        <time>2026-05-06T09:47:01.109Z</time>
      </trkpt>
      <trkpt lat="51.53057" lon="6.70184">
        <ele>72.973695</ele>
        <time>2026-05-06T09:47:04.120Z</time>
      </trkpt>
      <trkpt lat="51.53051" lon="6.70167">
        <ele>73.10449</ele>
        <time>2026-05-06T09:47:07.106Z</time>
      </trkpt>
      <trkpt lat="51.53046" lon="6.70149">
        <ele>73.244898</ele>
        <time>2026-05-06T09:47:10.104Z</time>
      </trkpt>
      <trkpt lat="51.5304" lon="6.70132">
        <ele>73.382094</ele>
        <time>2026-05-06T09:47:13.096Z</time>
      </trkpt>
      <trkpt lat="51.53034" lon="6.70114">
        <ele>73.5215</ele>
        <time>2026-05-06T09:47:16.110Z</time>
      </trkpt>
      <trkpt lat="51.53029" lon="6.70096">
        <ele>73.662035</ele>
        <time>2026-05-06T09:47:19.110Z</time>
      </trkpt>
      <trkpt lat="51.53023" lon="6.70078">
        <ele>73.800373</ele>
        <time>2026-05-06T09:47:22.108Z</time>
      </trkpt>
      <trkpt lat="51.53017" lon="6.70062">
        <ele>73.805646</ele>
        <time>2026-05-06T09:47:25.109Z</time>
      </trkpt>
      <trkpt lat="51.53011" lon="6.70046">
        <ele>73.762019</ele>
        <time>2026-05-06T09:47:28.104Z</time>
      </trkpt>
      <trkpt lat="51.53005" lon="6.70031">
        <ele>73.721171</ele>
        <time>2026-05-06T09:47:31.102Z</time>
      </trkpt>
      <trkpt lat="51.53002" lon="6.70017">
        <ele>73.68722</ele>
        <time>2026-05-06T09:47:34.107Z</time>
      </trkpt>
      <trkpt lat="51.53" lon="6.69999">
        <ele>73.644098</ele>
        <time>2026-05-06T09:47:38.128Z</time>
      </trkpt>
      <trkpt lat="51.53001" lon="6.69985">
        <ele>73.60921</ele>
        <time>2026-05-06T09:47:41.103Z</time>
      </trkpt>
      <trkpt lat="51.53006" lon="6.6997">
        <ele>73.571572</ele>
        <time>2026-05-06T09:47:44.129Z</time>
      </trkpt>
      <trkpt lat="51.53013" lon="6.69958">
        <ele>73.532808</ele>
        <time>2026-05-06T09:47:47.107Z</time>
      </trkpt>
      <trkpt lat="51.53021" lon="6.69947">
        <ele>73.49333</ele>
        <time>2026-05-06T09:47:50.107Z</time>
      </trkpt>
      <trkpt lat="51.53029" lon="6.69936">
        <ele>73.453188</ele>
        <time>2026-05-06T09:47:53.106Z</time>
      </trkpt>
      <trkpt lat="51.53037" lon="6.69925">
        <ele>73.411964</ele>
        <time>2026-05-06T09:47:56.122Z</time>
      </trkpt>
      <trkpt lat="51.53046" lon="6.69913">
        <ele>73.368456</ele>
        <time>2026-05-06T09:47:59.104Z</time>
      </trkpt>
      <trkpt lat="51.53055" lon="6.69902">
        <ele>73.325541</ele>
        <time>2026-05-06T09:48:02.115Z</time>
      </trkpt>
      <trkpt lat="51.53064" lon="6.6989">
        <ele>73.282748</ele>
        <time>2026-05-06T09:48:05.102Z</time>
      </trkpt>
      <trkpt lat="51.53073" lon="6.69878">
        <ele>73.237187</ele>
        <time>2026-05-06T09:48:08.116Z</time>
      </trkpt>
      <trkpt lat="51.53082" lon="6.69865">
        <ele>73.193364</ele>
        <time>2026-05-06T09:48:11.102Z</time>
      </trkpt>
      <trkpt lat="51.53091" lon="6.69854">
        <ele>73.150108</ele>
        <time>2026-05-06T09:48:14.103Z</time>
      </trkpt>
      <trkpt lat="51.53102" lon="6.69841">
        <ele>73.107453</ele>
        <time>2026-05-06T09:48:17.100Z</time>
      </trkpt>
      <trkpt lat="51.53111" lon="6.6983">
        <ele>73.067778</ele>
        <time>2026-05-06T09:48:20.100Z</time>
      </trkpt>
      <trkpt lat="51.53121" lon="6.69818">
        <ele>73.028253</ele>
        <time>2026-05-06T09:48:23.102Z</time>
      </trkpt>
      <trkpt lat="51.5313" lon="6.69806">
        <ele>72.989885</ele>
        <time>2026-05-06T09:48:26.101Z</time>
      </trkpt>
      <trkpt lat="51.53139" lon="6.69794">
        <ele>72.949585</ele>
        <time>2026-05-06T09:48:29.105Z</time>
      </trkpt>
      <trkpt lat="51.53149" lon="6.69781">
        <ele>72.909287</ele>
        <time>2026-05-06T09:48:32.115Z</time>
      </trkpt>
      <trkpt lat="51.53158" lon="6.6977">
        <ele>72.869239</ele>
        <time>2026-05-06T09:48:35.100Z</time>
      </trkpt>
      <trkpt lat="51.53168" lon="6.69757">
        <ele>72.826617</ele>
        <time>2026-05-06T09:48:38.097Z</time>
      </trkpt>
      <trkpt lat="51.53178" lon="6.69744">
        <ele>72.785017</ele>
        <time>2026-05-06T09:48:41.104Z</time>
      </trkpt>
      <trkpt lat="51.53188" lon="6.69731">
        <ele>72.744202</ele>
        <time>2026-05-06T09:48:44.108Z</time>
      </trkpt>
      <trkpt lat="51.53198" lon="6.69719">
        <ele>72.703128</ele>
        <time>2026-05-06T09:48:47.109Z</time>
      </trkpt>
      <trkpt lat="51.53207" lon="6.69707">
        <ele>72.663087</ele>
        <time>2026-05-06T09:48:50.094Z</time>
      </trkpt>
      <trkpt lat="51.53217" lon="6.69694">
        <ele>72.620079</ele>
        <time>2026-05-06T09:48:53.105Z</time>
      </trkpt>
      <trkpt lat="51.53226" lon="6.69683">
        <ele>72.58403</ele>
        <time>2026-05-06T09:48:56.107Z</time>
      </trkpt>
      <trkpt lat="51.53237" lon="6.69668">
        <ele>72.64222</ele>
        <time>2026-05-06T09:50:13.109Z</time>
      </trkpt>
      <trkpt lat="51.53245" lon="6.69657">
        <ele>72.737996</ele>
        <time>2026-05-06T09:50:17.114Z</time>
      </trkpt>
      <trkpt lat="51.53253" lon="6.69648">
        <ele>72.818391</ele>
        <time>2026-05-06T09:50:20.111Z</time>
      </trkpt>
      <trkpt lat="51.53261" lon="6.69638">
        <ele>72.902774</ele>
        <time>2026-05-06T09:50:23.099Z</time>
      </trkpt>
      <trkpt lat="51.53268" lon="6.69627">
        <ele>72.992202</ele>
        <time>2026-05-06T09:50:26.111Z</time>
      </trkpt>
      <trkpt lat="51.53277" lon="6.69616">
        <ele>73.088635</ele>
        <time>2026-05-06T09:50:29.113Z</time>
      </trkpt>
      <trkpt lat="51.53286" lon="6.69605">
        <ele>73.185069</ele>
        <time>2026-05-06T09:50:32.098Z</time>
      </trkpt>
      <trkpt lat="51.53295" lon="6.69593">
        <ele>73.283493</ele>
        <time>2026-05-06T09:50:35.108Z</time>
      </trkpt>
      <trkpt lat="51.53304" lon="6.69583">
        <ele>73.377631</ele>
        <time>2026-05-06T09:50:38.106Z</time>
      </trkpt>
      <trkpt lat="51.53312" lon="6.69572">
        <ele>73.468713</ele>
        <time>2026-05-06T09:50:41.100Z</time>
      </trkpt>
      <trkpt lat="51.5332" lon="6.69562">
        <ele>73.55865</ele>
        <time>2026-05-06T09:50:44.095Z</time>
      </trkpt>
      <trkpt lat="51.53329" lon="6.69551">
        <ele>73.651125</ele>
        <time>2026-05-06T09:50:47.109Z</time>
      </trkpt>
      <trkpt lat="51.53338" lon="6.6954">
        <ele>73.749296</ele>
        <time>2026-05-06T09:50:50.108Z</time>
      </trkpt>
      <trkpt lat="51.53346" lon="6.69528">
        <ele>73.846469</ele>
        <time>2026-05-06T09:50:53.106Z</time>
      </trkpt>
      <trkpt lat="51.53355" lon="6.69515">
        <ele>73.94606</ele>
        <time>2026-05-06T09:50:56.090Z</time>
      </trkpt>
      <trkpt lat="51.53364" lon="6.69502">
        <ele>74.049813</ele>
        <time>2026-05-06T09:50:59.101Z</time>
      </trkpt>
      <trkpt lat="51.53373" lon="6.69492">
        <ele>74.075164</ele>
        <time>2026-05-06T09:51:02.104Z</time>
      </trkpt>
      <trkpt lat="51.53382" lon="6.69481">
        <ele>73.979055</ele>
        <time>2026-05-06T09:51:05.106Z</time>
      </trkpt>
      <trkpt lat="51.53392" lon="6.6947">
        <ele>73.879351</ele>
        <time>2026-05-06T09:51:08.113Z</time>
      </trkpt>
      <trkpt lat="51.53401" lon="6.69457">
        <ele>73.773142</ele>
        <time>2026-05-06T09:51:11.093Z</time>
      </trkpt>
      <trkpt lat="51.53411" lon="6.69445">
        <ele>73.668265</ele>
        <time>2026-05-06T09:51:14.111Z</time>
      </trkpt>
      <trkpt lat="51.5342" lon="6.69434">
        <ele>73.566164</ele>
        <time>2026-05-06T09:51:17.100Z</time>
      </trkpt>
      <trkpt lat="51.53429" lon="6.69422">
        <ele>73.467061</ele>
        <time>2026-05-06T09:51:20.102Z</time>
      </trkpt>
      <trkpt lat="51.53437" lon="6.6941">
        <ele>73.371851</ele>
        <time>2026-05-06T09:51:23.111Z</time>
      </trkpt>
      <trkpt lat="51.53446" lon="6.69398">
        <ele>73.272065</ele>
        <time>2026-05-06T09:51:26.096Z</time>
      </trkpt>
      <trkpt lat="51.53456" lon="6.69387">
        <ele>73.171523</ele>
        <time>2026-05-06T09:51:29.112Z</time>
      </trkpt>
      <trkpt lat="51.53465" lon="6.69375">
        <ele>73.070423</ele>
        <time>2026-05-06T09:51:32.107Z</time>
      </trkpt>
      <trkpt lat="51.53474" lon="6.69362">
        <ele>72.964662</ele>
        <time>2026-05-06T09:51:35.108Z</time>
      </trkpt>
      <trkpt lat="51.53484" lon="6.69349">
        <ele>72.860197</ele>
        <time>2026-05-06T09:51:38.109Z</time>
      </trkpt>
      <trkpt lat="51.53493" lon="6.69338">
        <ele>72.758068</ele>
        <time>2026-05-06T09:51:41.104Z</time>
      </trkpt>
      <trkpt lat="51.53503" lon="6.69326">
        <ele>72.652632</ele>
        <time>2026-05-06T09:51:44.107Z</time>
      </trkpt>
      <trkpt lat="51.53512" lon="6.69313">
        <ele>72.576033</ele>
        <time>2026-05-06T09:51:47.126Z</time>
      </trkpt>
      <trkpt lat="51.53522" lon="6.69301">
        <ele>72.597512</ele>
        <time>2026-05-06T09:51:50.096Z</time>
      </trkpt>
      <trkpt lat="51.53531" lon="6.69288">
        <ele>72.62033</ele>
        <time>2026-05-06T09:51:53.107Z</time>
      </trkpt>
      <trkpt lat="51.53541" lon="6.69277">
        <ele>72.641751</ele>
        <time>2026-05-06T09:51:56.102Z</time>
      </trkpt>
      <trkpt lat="51.5355" lon="6.69266">
        <ele>72.66267</ele>
        <time>2026-05-06T09:51:59.108Z</time>
      </trkpt>
      <trkpt lat="51.5356" lon="6.69254">
        <ele>72.684432</ele>
        <time>2026-05-06T09:52:02.105Z</time>
      </trkpt>
      <trkpt lat="51.53569" lon="6.69241">
        <ele>72.706424</ele>
        <time>2026-05-06T09:52:05.107Z</time>
      </trkpt>
      <trkpt lat="51.53578" lon="6.69229">
        <ele>72.727764</ele>
        <time>2026-05-06T09:52:08.108Z</time>
      </trkpt>
      <trkpt lat="51.53587" lon="6.69217">
        <ele>72.748959</ele>
        <time>2026-05-06T09:52:11.114Z</time>
      </trkpt>
      <trkpt lat="51.53596" lon="6.69207">
        <ele>72.769517</ele>
        <time>2026-05-06T09:52:14.099Z</time>
      </trkpt>
      <trkpt lat="51.53605" lon="6.69195">
        <ele>72.790639</ele>
        <time>2026-05-06T09:52:17.103Z</time>
      </trkpt>
      <trkpt lat="51.53614" lon="6.69182">
        <ele>72.812978</ele>
        <time>2026-05-06T09:52:20.102Z</time>
      </trkpt>
      <trkpt lat="51.53624" lon="6.6917">
        <ele>72.835303</ele>
        <time>2026-05-06T09:52:23.092Z</time>
      </trkpt>
      <trkpt lat="51.53633" lon="6.69157">
        <ele>72.856926</ele>
        <time>2026-05-06T09:52:26.103Z</time>
      </trkpt>
      <trkpt lat="51.53642" lon="6.69146">
        <ele>72.87791</ele>
        <time>2026-05-06T09:52:29.104Z</time>
      </trkpt>
      <trkpt lat="51.53651" lon="6.69135">
        <ele>72.89793</ele>
        <time>2026-05-06T09:52:32.116Z</time>
      </trkpt>
      <trkpt lat="51.5366" lon="6.69123">
        <ele>72.912595</ele>
        <time>2026-05-06T09:52:35.096Z</time>
      </trkpt>
      <trkpt lat="51.5367" lon="6.69111">
        <ele>72.92707</ele>
        <time>2026-05-06T09:52:38.104Z</time>
      </trkpt>
      <trkpt lat="51.53679" lon="6.69099">
        <ele>72.941929</ele>
        <time>2026-05-06T09:52:41.090Z</time>
      </trkpt>
      <trkpt lat="51.53688" lon="6.69087">
        <ele>72.956741</ele>
        <time>2026-05-06T09:52:44.096Z</time>
      </trkpt>
      <trkpt lat="51.53697" lon="6.69075">
        <ele>72.97083</ele>
        <time>2026-05-06T09:52:47.099Z</time>
      </trkpt>
      <trkpt lat="51.53706" lon="6.69064">
        <ele>72.984726</ele>
        <time>2026-05-06T09:52:50.101Z</time>
      </trkpt>
      <trkpt lat="51.53715" lon="6.69053">
        <ele>72.998479</ele>
        <time>2026-05-06T09:52:53.109Z</time>
      </trkpt>
      <trkpt lat="51.53724" lon="6.69043">
        <ele>73.011964</ele>
        <time>2026-05-06T09:52:56.099Z</time>
      </trkpt>
      <trkpt lat="51.53732" lon="6.69031">
        <ele>73.026053</ele>
        <time>2026-05-06T09:52:59.104Z</time>
      </trkpt>
      <trkpt lat="51.53742" lon="6.69019">
        <ele>73.040381</ele>
        <time>2026-05-06T09:53:02.098Z</time>
      </trkpt>
      <trkpt lat="51.53751" lon="6.69007">
        <ele>73.055094</ele>
        <time>2026-05-06T09:53:05.099Z</time>
      </trkpt>
      <trkpt lat="51.53761" lon="6.68996">
        <ele>73.069942</ele>
        <time>2026-05-06T09:53:08.115Z</time>
      </trkpt>
      <trkpt lat="51.5377" lon="6.68985">
        <ele>73.084707</ele>
        <time>2026-05-06T09:53:11.107Z</time>
      </trkpt>
      <trkpt lat="51.53779" lon="6.68973">
        <ele>73.099276</ele>
        <time>2026-05-06T09:53:14.103Z</time>
      </trkpt>
      <trkpt lat="51.53789" lon="6.68961">
        <ele>73.113654</ele>
        <time>2026-05-06T09:53:17.108Z</time>
      </trkpt>
      <trkpt lat="51.53798" lon="6.6895">
        <ele>73.070583</ele>
        <time>2026-05-06T09:53:20.092Z</time>
      </trkpt>
      <trkpt lat="51.53808" lon="6.68939">
        <ele>72.992944</ele>
        <time>2026-05-06T09:53:23.100Z</time>
      </trkpt>
      <trkpt lat="51.53818" lon="6.68929">
        <ele>72.916644</ele>
        <time>2026-05-06T09:53:26.105Z</time>
      </trkpt>
      <trkpt lat="51.53829" lon="6.68918">
        <ele>72.837861</ele>
        <time>2026-05-06T09:53:29.114Z</time>
      </trkpt>
      <trkpt lat="51.53839" lon="6.68908">
        <ele>72.761789</ele>
        <time>2026-05-06T09:53:32.105Z</time>
      </trkpt>
      <trkpt lat="51.53849" lon="6.68899">
        <ele>72.687477</ele>
        <time>2026-05-06T09:53:35.106Z</time>
      </trkpt>
      <trkpt lat="51.53859" lon="6.68889">
        <ele>72.613563</ele>
        <time>2026-05-06T09:53:38.110Z</time>
      </trkpt>
      <trkpt lat="51.5387" lon="6.68882">
        <ele>72.536389</ele>
        <time>2026-05-06T09:53:41.108Z</time>
      </trkpt>
      <trkpt lat="51.53881" lon="6.68874">
        <ele>72.458892</ele>
        <time>2026-05-06T09:53:44.099Z</time>
      </trkpt>
      <trkpt lat="51.53891" lon="6.68867">
        <ele>72.387073</ele>
        <time>2026-05-06T09:53:47.106Z</time>
      </trkpt>
      <trkpt lat="51.53901" lon="6.6886">
        <ele>72.315142</ele>
        <time>2026-05-06T09:53:50.098Z</time>
      </trkpt>
      <trkpt lat="51.53911" lon="6.68853">
        <ele>72.243792</ele>
        <time>2026-05-06T09:53:53.104Z</time>
      </trkpt>
      <trkpt lat="51.53921" lon="6.68847">
        <ele>72.175751</ele>
        <time>2026-05-06T09:53:56.106Z</time>
      </trkpt>
      <trkpt lat="51.53931" lon="6.68841">
        <ele>72.10786</ele>
        <time>2026-05-06T09:53:59.088Z</time>
      </trkpt>
      <trkpt lat="51.53941" lon="6.68834">
        <ele>72.039514</ele>
        <time>2026-05-06T09:54:02.099Z</time>
      </trkpt>
      <trkpt lat="51.53951" lon="6.68828">
        <ele>71.968767</ele>
        <time>2026-05-06T09:54:05.101Z</time>
      </trkpt>
      <trkpt lat="51.53961" lon="6.68824">
        <ele>71.979863</ele>
        <time>2026-05-06T09:54:08.091Z</time>
      </trkpt>
      <trkpt lat="51.53971" lon="6.68821">
        <ele>71.998714</ele>
        <time>2026-05-06T09:54:11.102Z</time>
      </trkpt>
      <trkpt lat="51.53982" lon="6.68818">
        <ele>72.018154</ele>
        <time>2026-05-06T09:54:14.114Z</time>
      </trkpt>
      <trkpt lat="51.53992" lon="6.68815">
        <ele>72.037511</ele>
        <time>2026-05-06T09:54:17.111Z</time>
      </trkpt>
      <trkpt lat="51.54002" lon="6.6881">
        <ele>72.057174</ele>
        <time>2026-05-06T09:54:20.114Z</time>
      </trkpt>
      <trkpt lat="51.54012" lon="6.68806">
        <ele>72.076092</ele>
        <time>2026-05-06T09:54:23.107Z</time>
      </trkpt>
      <trkpt lat="51.54022" lon="6.68802">
        <ele>72.094413</ele>
        <time>2026-05-06T09:54:26.093Z</time>
      </trkpt>
      <trkpt lat="51.54031" lon="6.68798">
        <ele>72.11268</ele>
        <time>2026-05-06T09:54:29.109Z</time>
      </trkpt>
      <trkpt lat="51.5404" lon="6.68795">
        <ele>72.130046</ele>
        <time>2026-05-06T09:54:32.109Z</time>
      </trkpt>
      <trkpt lat="51.54049" lon="6.68791">
        <ele>72.147232</ele>
        <time>2026-05-06T09:54:35.092Z</time>
      </trkpt>
      <trkpt lat="51.54059" lon="6.68788">
        <ele>72.164583</ele>
        <time>2026-05-06T09:54:38.104Z</time>
      </trkpt>
      <trkpt lat="51.54068" lon="6.68786">
        <ele>72.181744</ele>
        <time>2026-05-06T09:54:41.105Z</time>
      </trkpt>
      <trkpt lat="51.54077" lon="6.68783">
        <ele>72.199138</ele>
        <time>2026-05-06T09:54:44.102Z</time>
      </trkpt>
      <trkpt lat="51.54086" lon="6.68781">
        <ele>72.217107</ele>
        <time>2026-05-06T09:54:47.097Z</time>
      </trkpt>
      <trkpt lat="51.54096" lon="6.68779">
        <ele>72.235329</ele>
        <time>2026-05-06T09:54:50.114Z</time>
      </trkpt>
      <trkpt lat="51.54106" lon="6.68778">
        <ele>72.253767</ele>
        <time>2026-05-06T09:54:53.099Z</time>
      </trkpt>
      <trkpt lat="51.54116" lon="6.68777">
        <ele>72.27267</ele>
        <time>2026-05-06T09:54:56.098Z</time>
      </trkpt>
      <trkpt lat="51.54127" lon="6.68777">
        <ele>72.291785</ele>
        <time>2026-05-06T09:54:59.102Z</time>
      </trkpt>
      <trkpt lat="51.54137" lon="6.68777">
        <ele>72.309169</ele>
        <time>2026-05-06T09:55:02.108Z</time>
      </trkpt>
      <trkpt lat="51.54147" lon="6.68777">
        <ele>72.325714</ele>
        <time>2026-05-06T09:55:05.112Z</time>
      </trkpt>
      <trkpt lat="51.54157" lon="6.68778">
        <ele>72.342643</ele>
        <time>2026-05-06T09:55:08.106Z</time>
      </trkpt>
      <trkpt lat="51.54167" lon="6.6878">
        <ele>72.359908</ele>
        <time>2026-05-06T09:55:11.114Z</time>
      </trkpt>
      <trkpt lat="51.54177" lon="6.68782">
        <ele>72.377645</ele>
        <time>2026-05-06T09:55:14.125Z</time>
      </trkpt>
      <trkpt lat="51.54187" lon="6.68784">
        <ele>72.394768</ele>
        <time>2026-05-06T09:55:17.099Z</time>
      </trkpt>
      <trkpt lat="51.54197" lon="6.68785">
        <ele>72.41208</ele>
        <time>2026-05-06T09:55:20.118Z</time>
      </trkpt>
      <trkpt lat="51.54208" lon="6.68787">
        <ele>72.42975</ele>
        <time>2026-05-06T09:55:23.109Z</time>
      </trkpt>
      <trkpt lat="51.54218" lon="6.6879">
        <ele>72.447701</ele>
        <time>2026-05-06T09:55:26.109Z</time>
      </trkpt>
      <trkpt lat="51.54228" lon="6.68791">
        <ele>72.464783</ele>
        <time>2026-05-06T09:55:29.110Z</time>
      </trkpt>
      <trkpt lat="51.54238" lon="6.68792">
        <ele>72.481686</ele>
        <time>2026-05-06T09:55:32.125Z</time>
      </trkpt>
      <trkpt lat="51.54249" lon="6.68794">
        <ele>72.499046</ele>
        <time>2026-05-06T09:55:35.106Z</time>
      </trkpt>
      <trkpt lat="51.54259" lon="6.68796">
        <ele>72.516033</ele>
        <time>2026-05-06T09:55:38.108Z</time>
      </trkpt>
      <trkpt lat="51.54269" lon="6.68798">
        <ele>72.533547</ele>
        <time>2026-05-06T09:55:41.104Z</time>
      </trkpt>
      <trkpt lat="51.54279" lon="6.68799">
        <ele>72.550512</ele>
        <time>2026-05-06T09:55:44.096Z</time>
      </trkpt>
      <trkpt lat="51.54289" lon="6.68801">
        <ele>72.567458</ele>
        <time>2026-05-06T09:55:47.104Z</time>
      </trkpt>
      <trkpt lat="51.54299" lon="6.68803">
        <ele>72.584135</ele>
        <time>2026-05-06T09:55:50.098Z</time>
      </trkpt>
      <trkpt lat="51.54309" lon="6.68806">
        <ele>72.59928</ele>
        <time>2026-05-06T09:55:53.099Z</time>
      </trkpt>
      <trkpt lat="51.54319" lon="6.6881">
        <ele>72.600739</ele>
        <time>2026-05-06T09:55:56.109Z</time>
      </trkpt>
      <trkpt lat="51.54329" lon="6.68814">
        <ele>72.602191</ele>
        <time>2026-05-06T09:55:59.107Z</time>
      </trkpt>
      <trkpt lat="51.54338" lon="6.68818">
        <ele>72.603611</ele>
        <time>2026-05-06T09:56:02.104Z</time>
      </trkpt>
      <trkpt lat="51.54348" lon="6.6882">
        <ele>72.605051</ele>
        <time>2026-05-06T09:56:05.102Z</time>
      </trkpt>
      <trkpt lat="51.54358" lon="6.68822">
        <ele>72.60646</ele>
        <time>2026-05-06T09:56:08.101Z</time>
      </trkpt>
      <trkpt lat="51.54368" lon="6.68825">
        <ele>72.607866</ele>
        <time>2026-05-06T09:56:11.104Z</time>
      </trkpt>
      <trkpt lat="51.54378" lon="6.68829">
        <ele>72.609296</ele>
        <time>2026-05-06T09:56:14.105Z</time>
      </trkpt>
      <trkpt lat="51.54387" lon="6.68832">
        <ele>72.610722</ele>
        <time>2026-05-06T09:56:17.113Z</time>
      </trkpt>
      <trkpt lat="51.54398" lon="6.68835">
        <ele>72.612183</ele>
        <time>2026-05-06T09:56:20.100Z</time>
      </trkpt>
      <trkpt lat="51.54408" lon="6.68837">
        <ele>72.613625</ele>
        <time>2026-05-06T09:56:23.096Z</time>
      </trkpt>
      <trkpt lat="51.54418" lon="6.6884">
        <ele>72.615069</ele>
        <time>2026-05-06T09:56:26.106Z</time>
      </trkpt>
      <trkpt lat="51.54427" lon="6.68843">
        <ele>72.616494</ele>
        <time>2026-05-06T09:56:29.103Z</time>
      </trkpt>
      <trkpt lat="51.54438" lon="6.68846">
        <ele>72.617958</ele>
        <time>2026-05-06T09:56:32.110Z</time>
      </trkpt>
      <trkpt lat="51.54448" lon="6.68849">
        <ele>72.619438</ele>
        <time>2026-05-06T09:56:35.101Z</time>
      </trkpt>
      <trkpt lat="51.54458" lon="6.68853">
        <ele>72.620935</ele>
        <time>2026-05-06T09:56:38.106Z</time>
      </trkpt>
      <trkpt lat="51.54468" lon="6.68856">
        <ele>72.622431</ele>
        <time>2026-05-06T09:56:41.112Z</time>
      </trkpt>
      <trkpt lat="51.54478" lon="6.68861">
        <ele>72.62387</ele>
        <time>2026-05-06T09:56:44.105Z</time>
      </trkpt>
      <trkpt lat="51.54487" lon="6.68866">
        <ele>72.628786</ele>
        <time>2026-05-06T09:56:47.110Z</time>
      </trkpt>
      <trkpt lat="51.54497" lon="6.68871">
        <ele>72.638227</ele>
        <time>2026-05-06T09:56:50.110Z</time>
      </trkpt>
      <trkpt lat="51.54506" lon="6.68875">
        <ele>72.647297</ele>
        <time>2026-05-06T09:56:53.112Z</time>
      </trkpt>
      <trkpt lat="51.54514" lon="6.6888">
        <ele>72.656181</ele>
        <time>2026-05-06T09:56:56.106Z</time>
      </trkpt>
      <trkpt lat="51.54525" lon="6.68886">
        <ele>72.667585</ele>
        <time>2026-05-06T09:57:00.109Z</time>
      </trkpt>
      <trkpt lat="51.54536" lon="6.68892">
        <ele>72.678432</ele>
        <time>2026-05-06T09:57:04.111Z</time>
      </trkpt>
      <trkpt lat="51.54546" lon="6.68898">
        <ele>72.689082</ele>
        <time>2026-05-06T09:57:08.111Z</time>
      </trkpt>
      <trkpt lat="51.54556" lon="6.68903">
        <ele>72.699448</ele>
        <time>2026-05-06T09:57:12.107Z</time>
      </trkpt>
      <trkpt lat="51.54567" lon="6.68908">
        <ele>72.710388</ele>
        <time>2026-05-06T09:57:16.105Z</time>
      </trkpt>
      <trkpt lat="51.54578" lon="6.68912">
        <ele>72.721517</ele>
        <time>2026-05-06T09:57:20.122Z</time>
      </trkpt>
      <trkpt lat="51.54589" lon="6.68916">
        <ele>72.732399</ele>
        <time>2026-05-06T09:57:24.101Z</time>
      </trkpt>
      <trkpt lat="51.54601" lon="6.68921">
        <ele>72.743958</ele>
        <time>2026-05-06T09:57:28.098Z</time>
      </trkpt>
      <trkpt lat="51.5461" lon="6.68924">
        <ele>72.752824</ele>
        <time>2026-05-06T09:57:31.111Z</time>
      </trkpt>
      <trkpt lat="51.54619" lon="6.68926">
        <ele>72.761745</ele>
        <time>2026-05-06T09:57:34.120Z</time>
      </trkpt>
      <trkpt lat="51.5463" lon="6.68928">
        <ele>72.773235</ele>
        <time>2026-05-06T09:57:38.102Z</time>
      </trkpt>
      <trkpt lat="51.54639" lon="6.68931">
        <ele>72.78204</ele>
        <time>2026-05-06T09:57:41.105Z</time>
      </trkpt>
      <trkpt lat="51.54649" lon="6.68934">
        <ele>72.79111</ele>
        <time>2026-05-06T09:57:44.111Z</time>
      </trkpt>
      <trkpt lat="51.54658" lon="6.68936">
        <ele>72.798053</ele>
        <time>2026-05-06T09:57:47.098Z</time>
      </trkpt>
      <trkpt lat="51.54667" lon="6.68939">
        <ele>72.774468</ele>
        <time>2026-05-06T09:57:50.099Z</time>
      </trkpt>
      <trkpt lat="51.54678" lon="6.68942">
        <ele>72.743948</ele>
        <time>2026-05-06T09:57:54.098Z</time>
      </trkpt>
      <trkpt lat="51.5469" lon="6.68945">
        <ele>72.713095</ele>
        <time>2026-05-06T09:57:58.101Z</time>
      </trkpt>
      <trkpt lat="51.54699" lon="6.68947">
        <ele>72.689988</ele>
        <time>2026-05-06T09:58:01.109Z</time>
      </trkpt>
      <trkpt lat="51.54708" lon="6.68949">
        <ele>72.66615</ele>
        <time>2026-05-06T09:58:04.117Z</time>
      </trkpt>
      <trkpt lat="51.54717" lon="6.68952">
        <ele>72.642221</ele>
        <time>2026-05-06T09:58:07.099Z</time>
      </trkpt>
      <trkpt lat="51.54729" lon="6.68955">
        <ele>72.612072</ele>
        <time>2026-05-06T09:58:11.107Z</time>
      </trkpt>
      <trkpt lat="51.54738" lon="6.68957">
        <ele>72.587722</ele>
        <time>2026-05-06T09:58:14.098Z</time>
      </trkpt>
      <trkpt lat="51.54748" lon="6.68959">
        <ele>72.563066</ele>
        <time>2026-05-06T09:58:17.101Z</time>
      </trkpt>
      <trkpt lat="51.54757" lon="6.6896">
        <ele>72.538331</ele>
        <time>2026-05-06T09:58:20.110Z</time>
      </trkpt>
      <trkpt lat="51.54767" lon="6.68961">
        <ele>72.513196</ele>
        <time>2026-05-06T09:58:23.102Z</time>
      </trkpt>
      <trkpt lat="51.54777" lon="6.68963">
        <ele>72.486726</ele>
        <time>2026-05-06T09:58:26.113Z</time>
      </trkpt>
      <trkpt lat="51.54787" lon="6.68966">
        <ele>72.460449</ele>
        <time>2026-05-06T09:58:29.101Z</time>
      </trkpt>
      <trkpt lat="51.54798" lon="6.68968">
        <ele>72.43336</ele>
        <time>2026-05-06T09:58:32.106Z</time>
      </trkpt>
      <trkpt lat="51.54808" lon="6.6897">
        <ele>72.406159</ele>
        <time>2026-05-06T09:58:35.104Z</time>
      </trkpt>
      <trkpt lat="51.54819" lon="6.68972">
        <ele>72.379004</ele>
        <time>2026-05-06T09:58:38.111Z</time>
      </trkpt>
      <trkpt lat="51.54829" lon="6.68974">
        <ele>72.351916</ele>
        <time>2026-05-06T09:58:41.097Z</time>
      </trkpt>
      <trkpt lat="51.54839" lon="6.68976">
        <ele>72.314732</ele>
        <time>2026-05-06T09:58:44.100Z</time>
      </trkpt>
      <trkpt lat="51.54849" lon="6.68978">
        <ele>72.259666</ele>
        <time>2026-05-06T09:58:47.103Z</time>
      </trkpt>
      <trkpt lat="51.54859" lon="6.6898">
        <ele>72.204303</ele>
        <time>2026-05-06T09:58:50.105Z</time>
      </trkpt>
      <trkpt lat="51.5487" lon="6.68982">
        <ele>72.147044</ele>
        <time>2026-05-06T09:58:53.107Z</time>
      </trkpt>
      <trkpt lat="51.5488" lon="6.68983">
        <ele>72.09363</ele>
        <time>2026-05-06T09:58:56.094Z</time>
      </trkpt>
      <trkpt lat="51.54889" lon="6.68986">
        <ele>72.041048</ele>
        <time>2026-05-06T09:58:59.107Z</time>
      </trkpt>
      <trkpt lat="51.54899" lon="6.68988">
        <ele>71.987391</ele>
        <time>2026-05-06T09:59:02.100Z</time>
      </trkpt>
      <trkpt lat="51.54909" lon="6.6899">
        <ele>71.933638</ele>
        <time>2026-05-06T09:59:05.112Z</time>
      </trkpt>
      <trkpt lat="51.54918" lon="6.68993">
        <ele>71.880475</ele>
        <time>2026-05-06T09:59:08.116Z</time>
      </trkpt>
      <trkpt lat="51.54928" lon="6.68996">
        <ele>71.826771</ele>
        <time>2026-05-06T09:59:11.095Z</time>
      </trkpt>
      <trkpt lat="51.54938" lon="6.68998">
        <ele>71.773067</ele>
        <time>2026-05-06T09:59:14.107Z</time>
      </trkpt>
      <trkpt lat="51.54948" lon="6.69">
        <ele>71.718424</ele>
        <time>2026-05-06T09:59:17.113Z</time>
      </trkpt>
      <trkpt lat="51.54958" lon="6.69003">
        <ele>71.66344</ele>
        <time>2026-05-06T09:59:20.127Z</time>
      </trkpt>
      <trkpt lat="51.54968" lon="6.69006">
        <ele>71.606204</ele>
        <time>2026-05-06T09:59:23.100Z</time>
      </trkpt>
      <trkpt lat="51.54978" lon="6.69008">
        <ele>71.551754</ele>
        <time>2026-05-06T09:59:26.098Z</time>
      </trkpt>
      <trkpt lat="51.54988" lon="6.69011">
        <ele>71.496654</ele>
        <time>2026-05-06T09:59:29.091Z</time>
      </trkpt>
      <trkpt lat="51.54998" lon="6.69014">
        <ele>71.443154</ele>
        <time>2026-05-06T09:59:32.111Z</time>
      </trkpt>
      <trkpt lat="51.55008" lon="6.69016">
        <ele>71.389451</ele>
        <time>2026-05-06T09:59:35.110Z</time>
      </trkpt>
      <trkpt lat="51.55018" lon="6.69019">
        <ele>71.36696</ele>
        <time>2026-05-06T09:59:38.118Z</time>
      </trkpt>
      <trkpt lat="51.55028" lon="6.69021">
        <ele>71.380237</ele>
        <time>2026-05-06T09:59:41.104Z</time>
      </trkpt>
      <trkpt lat="51.55038" lon="6.69022">
        <ele>71.394097</ele>
        <time>2026-05-06T09:59:44.120Z</time>
      </trkpt>
      <trkpt lat="51.55048" lon="6.69024">
        <ele>71.407433</ele>
        <time>2026-05-06T09:59:47.105Z</time>
      </trkpt>
      <trkpt lat="51.55058" lon="6.69025">
        <ele>71.420792</ele>
        <time>2026-05-06T09:59:50.141Z</time>
      </trkpt>
      <trkpt lat="51.55068" lon="6.69026">
        <ele>71.434098</ele>
        <time>2026-05-06T09:59:53.111Z</time>
      </trkpt>
      <trkpt lat="51.55078" lon="6.69028">
        <ele>71.446795</ele>
        <time>2026-05-06T09:59:56.098Z</time>
      </trkpt>
      <trkpt lat="51.55088" lon="6.6903">
        <ele>71.45978</ele>
        <time>2026-05-06T09:59:59.111Z</time>
      </trkpt>
      <trkpt lat="51.55098" lon="6.69031">
        <ele>71.473261</ele>
        <time>2026-05-06T10:00:02.107Z</time>
      </trkpt>
      <trkpt lat="51.55108" lon="6.69032">
        <ele>71.486699</ele>
        <time>2026-05-06T10:00:05.107Z</time>
      </trkpt>
      <trkpt lat="51.55118" lon="6.69033">
        <ele>71.499349</ele>
        <time>2026-05-06T10:00:08.112Z</time>
      </trkpt>
      <trkpt lat="51.55127" lon="6.69034">
        <ele>71.512147</ele>
        <time>2026-05-06T10:00:11.110Z</time>
      </trkpt>
      <trkpt lat="51.55138" lon="6.69035">
        <ele>71.525727</ele>
        <time>2026-05-06T10:00:14.109Z</time>
      </trkpt>
      <trkpt lat="51.55148" lon="6.69037">
        <ele>71.539487</ele>
        <time>2026-05-06T10:00:17.110Z</time>
      </trkpt>
      <trkpt lat="51.55158" lon="6.69039">
        <ele>71.553025</ele>
        <time>2026-05-06T10:00:20.114Z</time>
      </trkpt>
      <trkpt lat="51.55168" lon="6.69041">
        <ele>71.566106</ele>
        <time>2026-05-06T10:00:23.091Z</time>
      </trkpt>
      <trkpt lat="51.55178" lon="6.69042">
        <ele>71.579281</ele>
        <time>2026-05-06T10:00:26.108Z</time>
      </trkpt>
      <trkpt lat="51.55188" lon="6.69043">
        <ele>71.592341</ele>
        <time>2026-05-06T10:00:29.105Z</time>
      </trkpt>
      <trkpt lat="51.55198" lon="6.69044">
        <ele>71.599609</ele>
        <time>2026-05-06T10:00:32.106Z</time>
      </trkpt>
      <trkpt lat="51.55208" lon="6.69044">
        <ele>71.602999</ele>
        <time>2026-05-06T10:00:35.111Z</time>
      </trkpt>
      <trkpt lat="51.55218" lon="6.69043">
        <ele>71.606443</ele>
        <time>2026-05-06T10:00:38.113Z</time>
      </trkpt>
      <trkpt lat="51.55228" lon="6.69042">
        <ele>71.609906</ele>
        <time>2026-05-06T10:00:41.104Z</time>
      </trkpt>
      <trkpt lat="51.55237" lon="6.69044">
        <ele>71.613269</ele>
        <time>2026-05-06T10:00:44.107Z</time>
      </trkpt>
      <trkpt lat="51.55247" lon="6.69046">
        <ele>71.616811</ele>
        <time>2026-05-06T10:00:47.113Z</time>
      </trkpt>
      <trkpt lat="51.55257" lon="6.69048">
        <ele>71.620121</ele>
        <time>2026-05-06T10:00:50.117Z</time>
      </trkpt>
      <trkpt lat="51.55267" lon="6.69047">
        <ele>71.623615</ele>
        <time>2026-05-06T10:00:53.104Z</time>
      </trkpt>
      <trkpt lat="51.55277" lon="6.69048">
        <ele>71.62715</ele>
        <time>2026-05-06T10:00:56.102Z</time>
      </trkpt>
      <trkpt lat="51.55286" lon="6.6905">
        <ele>71.630594</ele>
        <time>2026-05-06T10:00:59.098Z</time>
      </trkpt>
      <trkpt lat="51.55296" lon="6.69052">
        <ele>71.634019</ele>
        <time>2026-05-06T10:01:02.106Z</time>
      </trkpt>
      <trkpt lat="51.55306" lon="6.69054">
        <ele>71.637436</ele>
        <time>2026-05-06T10:01:05.100Z</time>
      </trkpt>
      <trkpt lat="51.55315" lon="6.69057">
        <ele>71.640857</ele>
        <time>2026-05-06T10:01:08.119Z</time>
      </trkpt>
      <trkpt lat="51.55325" lon="6.6906">
        <ele>71.644345</ele>
        <time>2026-05-06T10:01:11.095Z</time>
      </trkpt>
      <trkpt lat="51.55335" lon="6.69062">
        <ele>71.647621</ele>
        <time>2026-05-06T10:01:14.103Z</time>
      </trkpt>
      <trkpt lat="51.55344" lon="6.69065">
        <ele>71.650819</ele>
        <time>2026-05-06T10:01:17.108Z</time>
      </trkpt>
      <trkpt lat="51.55353" lon="6.69067">
        <ele>71.654156</ele>
        <time>2026-05-06T10:01:20.107Z</time>
      </trkpt>
      <trkpt lat="51.55362" lon="6.69069">
        <ele>71.657447</ele>
        <time>2026-05-06T10:01:23.099Z</time>
      </trkpt>
      <trkpt lat="51.55372" lon="6.69072">
        <ele>71.656902</ele>
        <time>2026-05-06T10:01:26.107Z</time>
      </trkpt>
      <trkpt lat="51.55382" lon="6.69076">
        <ele>71.63464</ele>
        <time>2026-05-06T10:01:29.112Z</time>
      </trkpt>
      <trkpt lat="51.55392" lon="6.69078">
        <ele>71.61249</ele>
        <time>2026-05-06T10:01:32.108Z</time>
      </trkpt>
      <trkpt lat="51.55401" lon="6.6908">
        <ele>71.590891</ele>
        <time>2026-05-06T10:01:35.111Z</time>
      </trkpt>
      <trkpt lat="51.55411" lon="6.69081">
        <ele>71.569461</ele>
        <time>2026-05-06T10:01:38.109Z</time>
      </trkpt>
      <trkpt lat="51.55421" lon="6.69084">
        <ele>71.546983</ele>
        <time>2026-05-06T10:01:41.105Z</time>
      </trkpt>
      <trkpt lat="51.5543" lon="6.69086">
        <ele>71.525885</ele>
        <time>2026-05-06T10:01:44.109Z</time>
      </trkpt>
      <trkpt lat="51.5544" lon="6.69088">
        <ele>71.503464</ele>
        <time>2026-05-06T10:01:47.106Z</time>
      </trkpt>
      <trkpt lat="51.5545" lon="6.69091">
        <ele>71.482259</ele>
        <time>2026-05-06T10:01:50.105Z</time>
      </trkpt>
      <trkpt lat="51.55459" lon="6.69093">
        <ele>71.460681</ele>
        <time>2026-05-06T10:01:53.108Z</time>
      </trkpt>
      <trkpt lat="51.55469" lon="6.69095">
        <ele>71.438622</ele>
        <time>2026-05-06T10:01:56.104Z</time>
      </trkpt>
      <trkpt lat="51.55479" lon="6.69098">
        <ele>71.415223</ele>
        <time>2026-05-06T10:01:59.096Z</time>
      </trkpt>
      <trkpt lat="51.5549" lon="6.691">
        <ele>71.39219</ele>
        <time>2026-05-06T10:02:02.097Z</time>
      </trkpt>
      <trkpt lat="51.555" lon="6.69102">
        <ele>71.369328</ele>
        <time>2026-05-06T10:02:05.104Z</time>
      </trkpt>
      <trkpt lat="51.5551" lon="6.69104">
        <ele>71.34641</ele>
        <time>2026-05-06T10:02:08.105Z</time>
      </trkpt>
      <trkpt lat="51.5552" lon="6.69107">
        <ele>71.323512</ele>
        <time>2026-05-06T10:02:11.103Z</time>
      </trkpt>
      <trkpt lat="51.5553" lon="6.69108">
        <ele>71.300905</ele>
        <time>2026-05-06T10:02:14.102Z</time>
      </trkpt>
      <trkpt lat="51.5554" lon="6.6911">
        <ele>71.278519</ele>
        <time>2026-05-06T10:02:17.107Z</time>
      </trkpt>
      <trkpt lat="51.55551" lon="6.69113">
        <ele>71.24706</ele>
        <time>2026-05-06T10:02:20.118Z</time>
      </trkpt>
      <trkpt lat="51.55562" lon="6.69116">
        <ele>71.193659</ele>
        <time>2026-05-06T10:02:23.111Z</time>
      </trkpt>
      <trkpt lat="51.55572" lon="6.69118">
        <ele>71.140266</ele>
        <time>2026-05-06T10:02:26.102Z</time>
      </trkpt>
      <trkpt lat="51.55583" lon="6.69119">
        <ele>71.088585</ele>
        <time>2026-05-06T10:02:29.106Z</time>
      </trkpt>
      <trkpt lat="51.55593" lon="6.69121">
        <ele>71.03677</ele>
        <time>2026-05-06T10:02:32.103Z</time>
      </trkpt>
      <trkpt lat="51.55604" lon="6.69123">
        <ele>70.984986</ele>
        <time>2026-05-06T10:02:35.105Z</time>
      </trkpt>
      <trkpt lat="51.55614" lon="6.69125">
        <ele>70.933891</ele>
        <time>2026-05-06T10:02:38.102Z</time>
      </trkpt>
      <trkpt lat="51.55623" lon="6.69127">
        <ele>70.887298</ele>
        <time>2026-05-06T10:02:41.111Z</time>
      </trkpt>
      <trkpt lat="51.55635" lon="6.69129">
        <ele>70.830028</ele>
        <time>2026-05-06T10:02:45.111Z</time>
      </trkpt>
      <trkpt lat="51.55644" lon="6.69131">
        <ele>70.781919</ele>
        <time>2026-05-06T10:02:48.101Z</time>
      </trkpt>
      <trkpt lat="51.55654" lon="6.69134">
        <ele>70.732199</ele>
        <time>2026-05-06T10:02:51.109Z</time>
      </trkpt>
      <trkpt lat="51.55664" lon="6.69135">
        <ele>70.683405</ele>
        <time>2026-05-06T10:02:54.104Z</time>
      </trkpt>
      <trkpt lat="51.55674" lon="6.69137">
        <ele>70.633529</ele>
        <time>2026-05-06T10:02:57.108Z</time>
      </trkpt>
      <trkpt lat="51.55685" lon="6.69139">
        <ele>70.580204</ele>
        <time>2026-05-06T10:03:00.114Z</time>
      </trkpt>
      <trkpt lat="51.55695" lon="6.69142">
        <ele>70.527938</ele>
        <time>2026-05-06T10:03:03.108Z</time>
      </trkpt>
      <trkpt lat="51.55705" lon="6.69144">
        <ele>70.475945</ele>
        <time>2026-05-06T10:03:06.107Z</time>
      </trkpt>
      <trkpt lat="51.55715" lon="6.69145">
        <ele>70.426264</ele>
        <time>2026-05-06T10:03:09.106Z</time>
      </trkpt>
      <trkpt lat="51.55726" lon="6.69147">
        <ele>70.374383</ele>
        <time>2026-05-06T10:03:12.111Z</time>
      </trkpt>
      <trkpt lat="51.55736" lon="6.6915">
        <ele>70.407721</ele>
        <time>2026-05-06T10:03:15.116Z</time>
      </trkpt>
      <trkpt lat="51.55746" lon="6.69152">
        <ele>70.451295</ele>
        <time>2026-05-06T10:03:18.098Z</time>
      </trkpt>
      <trkpt lat="51.55756" lon="6.69154">
        <ele>70.492534</ele>
        <time>2026-05-06T10:03:21.103Z</time>
      </trkpt>
      <trkpt lat="51.55766" lon="6.69155">
        <ele>70.534486</ele>
        <time>2026-05-06T10:03:24.109Z</time>
      </trkpt>
      <trkpt lat="51.55776" lon="6.69155">
        <ele>70.574754</ele>
        <time>2026-05-06T10:03:27.107Z</time>
      </trkpt>
      <trkpt lat="51.55786" lon="6.69157">
        <ele>70.616737</ele>
        <time>2026-05-06T10:03:30.107Z</time>
      </trkpt>
      <trkpt lat="51.55797" lon="6.69157">
        <ele>70.660321</ele>
        <time>2026-05-06T10:03:33.110Z</time>
      </trkpt>
      <trkpt lat="51.55807" lon="6.69157">
        <ele>70.701797</ele>
        <time>2026-05-06T10:03:36.090Z</time>
      </trkpt>
      <trkpt lat="51.55816" lon="6.69156">
        <ele>70.741711</ele>
        <time>2026-05-06T10:03:39.096Z</time>
      </trkpt>
      <trkpt lat="51.55826" lon="6.69156">
        <ele>70.780709</ele>
        <time>2026-05-06T10:03:42.104Z</time>
      </trkpt>
      <trkpt lat="51.55835" lon="6.69155">
        <ele>70.819714</ele>
        <time>2026-05-06T10:03:45.104Z</time>
      </trkpt>
      <trkpt lat="51.55845" lon="6.69156">
        <ele>70.860361</ele>
        <time>2026-05-06T10:03:48.102Z</time>
      </trkpt>
      <trkpt lat="51.55855" lon="6.69156">
        <ele>70.901044</ele>
        <time>2026-05-06T10:03:51.101Z</time>
      </trkpt>
      <trkpt lat="51.55864" lon="6.69157">
        <ele>70.940878</ele>
        <time>2026-05-06T10:03:54.101Z</time>
      </trkpt>
      <trkpt lat="51.55874" lon="6.69158">
        <ele>70.982804</ele>
        <time>2026-05-06T10:03:57.111Z</time>
      </trkpt>
      <trkpt lat="51.55884" lon="6.6916">
        <ele>71.023916</ele>
        <time>2026-05-06T10:04:00.102Z</time>
      </trkpt>
      <trkpt lat="51.55894" lon="6.69162">
        <ele>71.064657</ele>
        <time>2026-05-06T10:04:03.107Z</time>
      </trkpt>
      <trkpt lat="51.55903" lon="6.69164">
        <ele>71.104328</ele>
        <time>2026-05-06T10:04:06.107Z</time>
      </trkpt>
      <trkpt lat="51.55913" lon="6.69167">
        <ele>71.147783</ele>
        <time>2026-05-06T10:04:09.106Z</time>
      </trkpt>
      <trkpt lat="51.55923" lon="6.69169">
        <ele>71.190968</ele>
        <time>2026-05-06T10:04:12.121Z</time>
      </trkpt>
      <trkpt lat="51.55933" lon="6.69171">
        <ele>71.235108</ele>
        <time>2026-05-06T10:04:15.108Z</time>
      </trkpt>
      <trkpt lat="51.55944" lon="6.69172">
        <ele>71.279511</ele>
        <time>2026-05-06T10:04:18.103Z</time>
      </trkpt>
      <trkpt lat="51.55954" lon="6.69172">
        <ele>71.323767</ele>
        <time>2026-05-06T10:04:21.100Z</time>
      </trkpt>
      <trkpt lat="51.55964" lon="6.69173">
        <ele>71.366763</ele>
        <time>2026-05-06T10:04:24.098Z</time>
      </trkpt>
      <trkpt lat="51.55974" lon="6.69173">
        <ele>71.409705</ele>
        <time>2026-05-06T10:04:27.103Z</time>
      </trkpt>
      <trkpt lat="51.55984" lon="6.69173">
        <ele>71.453554</ele>
        <time>2026-05-06T10:04:30.095Z</time>
      </trkpt>
      <trkpt lat="51.55994" lon="6.69172">
        <ele>71.496997</ele>
        <time>2026-05-06T10:04:33.111Z</time>
      </trkpt>
      <trkpt lat="51.56003" lon="6.6917">
        <ele>71.53945</ele>
        <time>2026-05-06T10:04:36.105Z</time>
      </trkpt>
      <trkpt lat="51.56013" lon="6.69167">
        <ele>71.582448</ele>
        <time>2026-05-06T10:04:39.098Z</time>
      </trkpt>
      <trkpt lat="51.56023" lon="6.69164">
        <ele>71.625344</ele>
        <time>2026-05-06T10:04:42.106Z</time>
      </trkpt>
      <trkpt lat="51.56033" lon="6.69161">
        <ele>71.669091</ele>
        <time>2026-05-06T10:04:45.110Z</time>
      </trkpt>
      <trkpt lat="51.56042" lon="6.69157">
        <ele>71.711426</ele>
        <time>2026-05-06T10:04:48.110Z</time>
      </trkpt>
      <trkpt lat="51.56052" lon="6.69154">
        <ele>71.753897</ele>
        <time>2026-05-06T10:04:51.108Z</time>
      </trkpt>
      <trkpt lat="51.56062" lon="6.69151">
        <ele>71.797696</ele>
        <time>2026-05-06T10:04:54.098Z</time>
      </trkpt>
      <trkpt lat="51.56071" lon="6.69147">
        <ele>71.839803</ele>
        <time>2026-05-06T10:04:57.095Z</time>
      </trkpt>
      <trkpt lat="51.5608" lon="6.69143">
        <ele>71.881592</ele>
        <time>2026-05-06T10:05:00.102Z</time>
      </trkpt>
      <trkpt lat="51.5609" lon="6.69139">
        <ele>71.72403</ele>
        <time>2026-05-06T10:05:03.109Z</time>
      </trkpt>
      <trkpt lat="51.56099" lon="6.69137">
        <ele>71.478434</ele>
        <time>2026-05-06T10:05:06.127Z</time>
      </trkpt>
      <trkpt lat="51.56108" lon="6.69135">
        <ele>71.234817</ele>
        <time>2026-05-06T10:05:09.096Z</time>
      </trkpt>
      <trkpt lat="51.56118" lon="6.69133">
        <ele>70.968794</ele>
        <time>2026-05-06T10:05:12.108Z</time>
      </trkpt>
      <trkpt lat="51.56127" lon="6.69133">
        <ele>70.723276</ele>
        <time>2026-05-06T10:05:15.109Z</time>
      </trkpt>
      <trkpt lat="51.56137" lon="6.69134">
        <ele>70.478998</ele>
        <time>2026-05-06T10:05:18.101Z</time>
      </trkpt>
      <trkpt lat="51.56146" lon="6.69135">
        <ele>70.219741</ele>
        <time>2026-05-06T10:05:21.099Z</time>
      </trkpt>
      <trkpt lat="51.56156" lon="6.69137">
        <ele>69.968096</ele>
        <time>2026-05-06T10:05:24.103Z</time>
      </trkpt>
      <trkpt lat="51.56165" lon="6.69139">
        <ele>69.715363</ele>
        <time>2026-05-06T10:05:27.103Z</time>
      </trkpt>
      <trkpt lat="51.56175" lon="6.69141">
        <ele>69.471085</ele>
        <time>2026-05-06T10:05:30.108Z</time>
      </trkpt>
      <trkpt lat="51.56186" lon="6.69145">
        <ele>69.168451</ele>
        <time>2026-05-06T10:05:34.112Z</time>
      </trkpt>
      <trkpt lat="51.56197" lon="6.69149">
        <ele>68.872405</ele>
        <time>2026-05-06T10:05:38.116Z</time>
      </trkpt>
      <trkpt lat="51.56206" lon="6.69156">
        <ele>68.600337</ele>
        <time>2026-05-06T10:05:42.111Z</time>
      </trkpt>
      <trkpt lat="51.56207" lon="6.69178">
        <ele>68.245553</ele>
        <time>2026-05-06T10:07:02.108Z</time>
      </trkpt>
      <trkpt lat="51.56197" lon="6.69182">
        <ele>67.960918</ele>
        <time>2026-05-06T10:07:06.122Z</time>
      </trkpt>
      <trkpt lat="51.56188" lon="6.69177">
        <ele>67.71305</ele>
        <time>2026-05-06T10:07:09.108Z</time>
      </trkpt>
      <trkpt lat="51.5618" lon="6.69171">
        <ele>67.468923</ele>
        <time>2026-05-06T10:07:12.105Z</time>
      </trkpt>
      <trkpt lat="51.56174" lon="6.69182">
        <ele>67.230659</ele>
        <time>2026-05-06T10:07:16.099Z</time>
      </trkpt>
      <trkpt lat="51.5618" lon="6.69198">
        <ele>67.263079</ele>
        <time>2026-05-06T10:07:20.122Z</time>
      </trkpt>
      <trkpt lat="51.56184" lon="6.69215">
        <ele>67.410909</ele>
        <time>2026-05-06T10:07:24.109Z</time>
      </trkpt>
      <trkpt lat="51.56188" lon="6.69229">
        <ele>67.53878</ele>
        <time>2026-05-06T10:07:27.096Z</time>
      </trkpt>
      <trkpt lat="51.56193" lon="6.69243">
        <ele>67.669439</ele>
        <time>2026-05-06T10:07:30.106Z</time>
      </trkpt>
      <trkpt lat="51.56196" lon="6.69258">
        <ele>67.804814</ele>
        <time>2026-05-06T10:07:33.105Z</time>
      </trkpt>
      <trkpt lat="51.56193" lon="6.69274">
        <ele>67.940188</ele>
        <time>2026-05-06T10:07:36.104Z</time>
      </trkpt>
      <trkpt lat="51.56185" lon="6.69288">
        <ele>68.100635</ele>
        <time>2026-05-06T10:07:39.111Z</time>
      </trkpt>
      <trkpt lat="51.56179" lon="6.69299">
        <ele>68.223669</ele>
        <time>2026-05-06T10:07:41.110Z</time>
      </trkpt>
      <trkpt lat="51.56171" lon="6.69314">
        <ele>68.379602</ele>
        <time>2026-05-06T10:07:44.104Z</time>
      </trkpt>
      <trkpt lat="51.56164" lon="6.69329">
        <ele>68.535536</ele>
        <time>2026-05-06T10:07:47.117Z</time>
      </trkpt>
      <trkpt lat="51.56158" lon="6.69343">
        <ele>68.680714</ele>
        <time>2026-05-06T10:07:50.117Z</time>
      </trkpt>
      <trkpt lat="51.56149" lon="6.69355">
        <ele>68.833935</ele>
        <time>2026-05-06T10:07:53.105Z</time>
      </trkpt>
      <trkpt lat="51.56143" lon="6.69366">
        <ele>68.955732</ele>
        <time>2026-05-06T10:07:55.102Z</time>
      </trkpt>
      <trkpt lat="51.56135" lon="6.69383">
        <ele>69.124888</ele>
        <time>2026-05-06T10:07:58.106Z</time>
      </trkpt>
      <trkpt lat="51.56129" lon="6.69399">
        <ele>69.282818</ele>
        <time>2026-05-06T10:08:01.112Z</time>
      </trkpt>
      <trkpt lat="51.56123" lon="6.69414">
        <ele>69.430281</ele>
        <time>2026-05-06T10:08:04.119Z</time>
      </trkpt>
      <trkpt lat="51.56131" lon="6.69403">
        <ele>69.535215</ele>
        <time>2026-05-06T10:08:14.106Z</time>
      </trkpt>
      <trkpt lat="51.56139" lon="6.6939">
        <ele>69.508613</ele>
        <time>2026-05-06T10:08:18.108Z</time>
      </trkpt>
      <trkpt lat="51.56146" lon="6.69376">
        <ele>69.481766</ele>
        <time>2026-05-06T10:08:22.110Z</time>
      </trkpt>
      <trkpt lat="51.56151" lon="6.69364">
        <ele>69.459844</ele>
        <time>2026-05-06T10:08:25.095Z</time>
      </trkpt>
      <trkpt lat="51.56159" lon="6.69349">
        <ele>69.430883</ele>
        <time>2026-05-06T10:08:29.100Z</time>
      </trkpt>
      <trkpt lat="51.56167" lon="6.69335">
        <ele>69.402761</ele>
        <time>2026-05-06T10:08:33.109Z</time>
      </trkpt>
      <trkpt lat="51.56173" lon="6.69323">
        <ele>69.380365</ele>
        <time>2026-05-06T10:08:36.100Z</time>
      </trkpt>
      <trkpt lat="51.56179" lon="6.69311">
        <ele>69.357826</ele>
        <time>2026-05-06T10:08:39.098Z</time>
      </trkpt>
      <trkpt lat="51.56185" lon="6.693">
        <ele>69.335343</ele>
        <time>2026-05-06T10:08:42.095Z</time>
      </trkpt>
      <trkpt lat="51.56191" lon="6.69289">
        <ele>69.313623</ele>
        <time>2026-05-06T10:08:45.106Z</time>
      </trkpt>
      <trkpt lat="51.56182" lon="6.69295">
        <ele>69.289627</ele>
        <time>2026-05-06T10:10:00.112Z</time>
      </trkpt>
      <trkpt lat="51.56175" lon="6.69308">
        <ele>69.264586</ele>
        <time>2026-05-06T10:10:03.111Z</time>
      </trkpt>
      <trkpt lat="51.56168" lon="6.69321">
        <ele>69.239734</ele>
        <time>2026-05-06T10:10:06.102Z</time>
      </trkpt>
      <trkpt lat="51.56162" lon="6.69334">
        <ele>69.215553</ele>
        <time>2026-05-06T10:10:09.108Z</time>
      </trkpt>
      <trkpt lat="51.56155" lon="6.69349">
        <ele>69.187652</ele>
        <time>2026-05-06T10:10:13.107Z</time>
      </trkpt>
      <trkpt lat="51.56148" lon="6.6936">
        <ele>69.16521</ele>
        <time>2026-05-06T10:10:15.096Z</time>
      </trkpt>
      <trkpt lat="51.56142" lon="6.69372">
        <ele>69.141469</ele>
        <time>2026-05-06T10:10:17.107Z</time>
      </trkpt>
      <trkpt lat="51.56137" lon="6.69384">
        <ele>69.119976</ele>
        <time>2026-05-06T10:10:19.102Z</time>
      </trkpt>
      <trkpt lat="51.56129" lon="6.694">
        <ele>69.173702</ele>
        <time>2026-05-06T10:10:22.107Z</time>
      </trkpt>
      <trkpt lat="51.56122" lon="6.69417">
        <ele>69.258426</ele>
        <time>2026-05-06T10:10:25.122Z</time>
      </trkpt>
      <trkpt lat="51.56114" lon="6.69433">
        <ele>69.343938</ele>
        <time>2026-05-06T10:10:28.109Z</time>
      </trkpt>
      <trkpt lat="51.56107" lon="6.6945">
        <ele>69.427506</ele>
        <time>2026-05-06T10:10:31.113Z</time>
      </trkpt>
      <trkpt lat="51.56098" lon="6.69466">
        <ele>69.51386</ele>
        <time>2026-05-06T10:10:34.117Z</time>
      </trkpt>
      <trkpt lat="51.56091" lon="6.69484">
        <ele>69.603099</ele>
        <time>2026-05-06T10:10:37.114Z</time>
      </trkpt>
      <trkpt lat="51.56085" lon="6.69496">
        <ele>69.663491</ele>
        <time>2026-05-06T10:10:39.107Z</time>
      </trkpt>
      <trkpt lat="51.56077" lon="6.69513">
        <ele>69.753981</ele>
        <time>2026-05-06T10:10:42.105Z</time>
      </trkpt>
      <trkpt lat="51.5607" lon="6.69524">
        <ele>69.818904</ele>
        <time>2026-05-06T10:10:44.104Z</time>
      </trkpt>
      <trkpt lat="51.56064" lon="6.69536">
        <ele>69.881584</ele>
        <time>2026-05-06T10:10:46.103Z</time>
      </trkpt>
      <trkpt lat="51.56059" lon="6.69549">
        <ele>69.944738</ele>
        <time>2026-05-06T10:10:48.116Z</time>
      </trkpt>
      <trkpt lat="51.56054" lon="6.69562">
        <ele>70.007502</ele>
        <time>2026-05-06T10:10:50.126Z</time>
      </trkpt>
      <trkpt lat="51.56048" lon="6.69572">
        <ele>70.067454</ele>
        <time>2026-05-06T10:10:52.122Z</time>
      </trkpt>
      <trkpt lat="51.56042" lon="6.69583">
        <ele>70.128902</ele>
        <time>2026-05-06T10:10:54.098Z</time>
      </trkpt>
      <trkpt lat="51.56035" lon="6.69594">
        <ele>70.190081</ele>
        <time>2026-05-06T10:10:56.099Z</time>
      </trkpt>
      <trkpt lat="51.56027" lon="6.69611">
        <ele>70.279327</ele>
        <time>2026-05-06T10:10:59.106Z</time>
      </trkpt>
      <trkpt lat="51.56017" lon="6.69627">
        <ele>70.327027</ele>
        <time>2026-05-06T10:11:02.114Z</time>
      </trkpt>
      <trkpt lat="51.56011" lon="6.69639">
        <ele>70.347892</ele>
        <time>2026-05-06T10:11:04.107Z</time>
      </trkpt>
      <trkpt lat="51.56005" lon="6.6965">
        <ele>70.368651</ele>
        <time>2026-05-06T10:11:06.104Z</time>
      </trkpt>
      <trkpt lat="51.56" lon="6.69663">
        <ele>70.389005</ele>
        <time>2026-05-06T10:11:08.106Z</time>
      </trkpt>
      <trkpt lat="51.56003" lon="6.69683">
        <ele>70.41742</ele>
        <time>2026-05-06T10:11:11.109Z</time>
      </trkpt>
      <trkpt lat="51.56012" lon="6.69698">
        <ele>70.444476</ele>
        <time>2026-05-06T10:11:14.123Z</time>
      </trkpt>
      <trkpt lat="51.5602" lon="6.69711">
        <ele>70.47074</ele>
        <time>2026-05-06T10:11:17.101Z</time>
      </trkpt>
      <trkpt lat="51.56029" lon="6.69725">
        <ele>70.496152</ele>
        <time>2026-05-06T10:11:20.103Z</time>
      </trkpt>
      <trkpt lat="51.56037" lon="6.69737">
        <ele>70.521943</ele>
        <time>2026-05-06T10:11:23.108Z</time>
      </trkpt>
      <trkpt lat="51.56046" lon="6.69749">
        <ele>70.546502</ele>
        <time>2026-05-06T10:11:26.099Z</time>
      </trkpt>
      <trkpt lat="51.56054" lon="6.6976">
        <ele>70.569375</ele>
        <time>2026-05-06T10:11:29.099Z</time>
      </trkpt>
      <trkpt lat="51.56062" lon="6.69769">
        <ele>70.59027</ele>
        <time>2026-05-06T10:11:32.112Z</time>
      </trkpt>
      <trkpt lat="51.56072" lon="6.69777">
        <ele>70.616267</ele>
        <time>2026-05-06T10:11:36.107Z</time>
      </trkpt>
      <trkpt lat="51.56082" lon="6.69785">
        <ele>70.641321</ele>
        <time>2026-05-06T10:11:40.098Z</time>
      </trkpt>
      <trkpt lat="51.56093" lon="6.69793">
        <ele>70.666087</ele>
        <time>2026-05-06T10:11:44.138Z</time>
      </trkpt>
      <trkpt lat="51.56102" lon="6.698">
        <ele>70.688875</ele>
        <time>2026-05-06T10:11:48.101Z</time>
      </trkpt>
      <trkpt lat="51.56113" lon="6.69809">
        <ele>70.62407</ele>
        <time>2026-05-06T10:11:52.106Z</time>
      </trkpt>
      <trkpt lat="51.56121" lon="6.69816">
        <ele>70.517523</ele>
        <time>2026-05-06T10:11:55.093Z</time>
      </trkpt>
      <trkpt lat="51.5613" lon="6.69823">
        <ele>70.399153</ele>
        <time>2026-05-06T10:11:58.102Z</time>
      </trkpt>
      <trkpt lat="51.5614" lon="6.6983">
        <ele>70.27599</ele>
        <time>2026-05-06T10:12:01.104Z</time>
      </trkpt>
      <trkpt lat="51.56151" lon="6.69837">
        <ele>70.14033</ele>
        <time>2026-05-06T10:12:04.112Z</time>
      </trkpt>
      <trkpt lat="51.56161" lon="6.69848">
        <ele>69.992324</ele>
        <time>2026-05-06T10:12:07.112Z</time>
      </trkpt>
      <trkpt lat="51.56171" lon="6.69863">
        <ele>69.841325</ele>
        <time>2026-05-06T10:12:10.105Z</time>
      </trkpt>
      <trkpt lat="51.56179" lon="6.69878">
        <ele>69.697315</ele>
        <time>2026-05-06T10:12:13.106Z</time>
      </trkpt>
      <trkpt lat="51.56187" lon="6.69895">
        <ele>69.54755</ele>
        <time>2026-05-06T10:12:16.112Z</time>
      </trkpt>
      <trkpt lat="51.56192" lon="6.69908">
        <ele>69.43441</ele>
        <time>2026-05-06T10:12:18.105Z</time>
      </trkpt>
      <trkpt lat="51.56198" lon="6.69921">
        <ele>69.320362</ele>
        <time>2026-05-06T10:12:20.103Z</time>
      </trkpt>
      <trkpt lat="51.56205" lon="6.69931">
        <ele>69.21114</ele>
        <time>2026-05-06T10:12:22.102Z</time>
      </trkpt>
      <trkpt lat="51.56213" lon="6.6994">
        <ele>69.104333</ele>
        <time>2026-05-06T10:12:24.104Z</time>
      </trkpt>
      <trkpt lat="51.5622" lon="6.69948">
        <ele>68.9988</ele>
        <time>2026-05-06T10:12:26.099Z</time>
      </trkpt>
      <trkpt lat="51.56231" lon="6.69959">
        <ele>68.852158</ele>
        <time>2026-05-06T10:12:29.109Z</time>
      </trkpt>
      <trkpt lat="51.56243" lon="6.69969">
        <ele>68.701819</ele>
        <time>2026-05-06T10:12:32.110Z</time>
      </trkpt>
      <trkpt lat="51.56253" lon="6.69979">
        <ele>68.730082</ele>
        <time>2026-05-06T10:12:35.106Z</time>
      </trkpt>
      <trkpt lat="51.56262" lon="6.69989">
        <ele>68.90232</ele>
        <time>2026-05-06T10:12:38.120Z</time>
      </trkpt>
      <trkpt lat="51.56271" lon="6.69997">
        <ele>69.082323</ele>
        <time>2026-05-06T10:12:41.099Z</time>
      </trkpt>
      <trkpt lat="51.56283" lon="6.70008">
        <ele>69.305209</ele>
        <time>2026-05-06T10:12:44.119Z</time>
      </trkpt>
      <trkpt lat="51.56291" lon="6.70015">
        <ele>69.460274</ele>
        <time>2026-05-06T10:12:46.124Z</time>
      </trkpt>
      <trkpt lat="51.56302" lon="6.70024">
        <ele>69.662696</ele>
        <time>2026-05-06T10:12:49.111Z</time>
      </trkpt>
      <trkpt lat="51.56312" lon="6.70034">
        <ele>69.858851</ele>
        <time>2026-05-06T10:12:52.113Z</time>
      </trkpt>
      <trkpt lat="51.56323" lon="6.70045">
        <ele>70.070497</ele>
        <time>2026-05-06T10:12:55.107Z</time>
      </trkpt>
      <trkpt lat="51.56332" lon="6.70058">
        <ele>70.271723</ele>
        <time>2026-05-06T10:12:58.103Z</time>
      </trkpt>
      <trkpt lat="51.56339" lon="6.70074">
        <ele>70.474613</ele>
        <time>2026-05-06T10:13:01.101Z</time>
      </trkpt>
      <trkpt lat="51.56346" lon="6.70089">
        <ele>70.664237</ele>
        <time>2026-05-06T10:13:04.110Z</time>
      </trkpt>
      <trkpt lat="51.56352" lon="6.70104">
        <ele>70.851885</ele>
        <time>2026-05-06T10:13:07.110Z</time>
      </trkpt>
      <trkpt lat="51.56359" lon="6.70119">
        <ele>71.042972</ele>
        <time>2026-05-06T10:13:10.106Z</time>
      </trkpt>
      <trkpt lat="51.56365" lon="6.70135">
        <ele>71.235767</ele>
        <time>2026-05-06T10:13:13.111Z</time>
      </trkpt>
      <trkpt lat="51.56372" lon="6.70149">
        <ele>71.420928</ele>
        <time>2026-05-06T10:13:16.112Z</time>
      </trkpt>
      <trkpt lat="51.56377" lon="6.70164">
        <ele>71.594551</ele>
        <time>2026-05-06T10:13:19.102Z</time>
      </trkpt>
      <trkpt lat="51.56383" lon="6.70179">
        <ele>71.615715</ele>
        <time>2026-05-06T10:13:22.107Z</time>
      </trkpt>
      <trkpt lat="51.56388" lon="6.70194">
        <ele>71.616759</ele>
        <time>2026-05-06T10:13:25.102Z</time>
      </trkpt>
      <trkpt lat="51.56394" lon="6.70209">
        <ele>71.617832</ele>
        <time>2026-05-06T10:13:29.100Z</time>
      </trkpt>
      <trkpt lat="51.56403" lon="6.70209">
        <ele>71.618734</ele>
        <time>2026-05-06T10:13:33.096Z</time>
      </trkpt>
      <trkpt lat="51.56413" lon="6.70208">
        <ele>71.619618</ele>
        <time>2026-05-06T10:13:41.103Z</time>
      </trkpt>
      <trkpt lat="51.56422" lon="6.70213">
        <ele>71.620566</ele>
        <time>2026-05-06T10:13:46.106Z</time>
      </trkpt>
      <trkpt lat="51.56429" lon="6.70203">
        <ele>71.621505</ele>
        <time>2026-05-06T10:13:49.101Z</time>
      </trkpt>
      <trkpt lat="51.56437" lon="6.70189">
        <ele>71.622576</ele>
        <time>2026-05-06T10:13:52.093Z</time>
      </trkpt>
      <trkpt lat="51.56444" lon="6.70176">
        <ele>71.623644</ele>
        <time>2026-05-06T10:13:55.106Z</time>
      </trkpt>
      <trkpt lat="51.56452" lon="6.70163">
        <ele>71.624708</ele>
        <time>2026-05-06T10:13:58.106Z</time>
      </trkpt>
      <trkpt lat="51.5646" lon="6.7015">
        <ele>71.625847</ele>
        <time>2026-05-06T10:14:01.111Z</time>
      </trkpt>
      <trkpt lat="51.56468" lon="6.70136">
        <ele>71.626978</ele>
        <time>2026-05-06T10:14:04.104Z</time>
      </trkpt>
      <trkpt lat="51.56476" lon="6.7012">
        <ele>71.628176</ele>
        <time>2026-05-06T10:14:07.111Z</time>
      </trkpt>
      <trkpt lat="51.56485" lon="6.70104">
        <ele>71.629472</ele>
        <time>2026-05-06T10:14:10.099Z</time>
      </trkpt>
      <trkpt lat="51.56491" lon="6.70093">
        <ele>71.63037</ele>
        <time>2026-05-06T10:14:12.105Z</time>
      </trkpt>
      <trkpt lat="51.56497" lon="6.70081">
        <ele>71.631271</ele>
        <time>2026-05-06T10:14:14.100Z</time>
      </trkpt>
      <trkpt lat="51.56504" lon="6.70068">
        <ele>71.622535</ele>
        <time>2026-05-06T10:14:16.103Z</time>
      </trkpt>
      <trkpt lat="51.5651" lon="6.70056">
        <ele>71.581694</ele>
        <time>2026-05-06T10:14:18.110Z</time>
      </trkpt>
      <trkpt lat="51.56516" lon="6.70044">
        <ele>71.542659</ele>
        <time>2026-05-06T10:14:20.110Z</time>
      </trkpt>
      <trkpt lat="51.56522" lon="6.70033">
        <ele>71.505522</ele>
        <time>2026-05-06T10:14:22.104Z</time>
      </trkpt>
      <trkpt lat="51.56528" lon="6.70022">
        <ele>71.467397</ele>
        <time>2026-05-06T10:14:24.100Z</time>
      </trkpt>
      <trkpt lat="51.56534" lon="6.7001">
        <ele>71.428873</ele>
        <time>2026-05-06T10:14:26.107Z</time>
      </trkpt>
      <trkpt lat="51.5654" lon="6.69998">
        <ele>71.388663</ele>
        <time>2026-05-06T10:14:28.112Z</time>
      </trkpt>
      <trkpt lat="51.56546" lon="6.69986">
        <ele>71.349613</ele>
        <time>2026-05-06T10:14:30.119Z</time>
      </trkpt>
      <trkpt lat="51.56556" lon="6.6997">
        <ele>71.293527</ele>
        <time>2026-05-06T10:14:33.103Z</time>
      </trkpt>
      <trkpt lat="51.56562" lon="6.69958">
        <ele>71.25482</ele>
        <time>2026-05-06T10:14:35.106Z</time>
      </trkpt>
      <trkpt lat="51.56568" lon="6.69946">
        <ele>71.215068</ele>
        <time>2026-05-06T10:14:37.115Z</time>
      </trkpt>
      <trkpt lat="51.56574" lon="6.69935">
        <ele>71.175745</ele>
        <time>2026-05-06T10:14:39.102Z</time>
      </trkpt>
      <trkpt lat="51.56581" lon="6.69924">
        <ele>71.137081</ele>
        <time>2026-05-06T10:14:41.100Z</time>
      </trkpt>
      <trkpt lat="51.56588" lon="6.69915">
        <ele>71.100189</ele>
        <time>2026-05-06T10:14:43.113Z</time>
      </trkpt>
      <trkpt lat="51.56598" lon="6.699">
        <ele>71.043954</ele>
        <time>2026-05-06T10:14:46.098Z</time>
      </trkpt>
      <trkpt lat="51.56609" lon="6.69888">
        <ele>70.988946</ele>
        <time>2026-05-06T10:14:49.105Z</time>
      </trkpt>
      <trkpt lat="51.5662" lon="6.69874">
        <ele>70.931894</ele>
        <time>2026-05-06T10:14:52.108Z</time>
      </trkpt>
      <trkpt lat="51.56628" lon="6.69865">
        <ele>70.896192</ele>
        <time>2026-05-06T10:14:54.098Z</time>
      </trkpt>
      <trkpt lat="51.56636" lon="6.69856">
        <ele>70.920925</ele>
        <time>2026-05-06T10:14:56.112Z</time>
      </trkpt>
      <trkpt lat="51.56644" lon="6.69847">
        <ele>70.945269</ele>
        <time>2026-05-06T10:14:58.107Z</time>
      </trkpt>
      <trkpt lat="51.56651" lon="6.69838">
        <ele>70.968838</ele>
        <time>2026-05-06T10:15:00.103Z</time>
      </trkpt>
      <trkpt lat="51.56659" lon="6.69828">
        <ele>70.99316</ele>
        <time>2026-05-06T10:15:02.101Z</time>
      </trkpt>
      <trkpt lat="51.56666" lon="6.69819">
        <ele>71.017194</ele>
        <time>2026-05-06T10:15:04.100Z</time>
      </trkpt>
      <trkpt lat="51.56673" lon="6.69809">
        <ele>71.040862</ele>
        <time>2026-05-06T10:15:06.109Z</time>
      </trkpt>
      <trkpt lat="51.56681" lon="6.698">
        <ele>71.064005</ele>
        <time>2026-05-06T10:15:08.107Z</time>
      </trkpt>
      <trkpt lat="51.56688" lon="6.6979">
        <ele>71.087444</ele>
        <time>2026-05-06T10:15:10.110Z</time>
      </trkpt>
      <trkpt lat="51.56695" lon="6.69781">
        <ele>71.110293</ele>
        <time>2026-05-06T10:15:12.103Z</time>
      </trkpt>
      <trkpt lat="51.56702" lon="6.69772">
        <ele>71.132864</ele>
        <time>2026-05-06T10:15:14.114Z</time>
      </trkpt>
      <trkpt lat="51.56709" lon="6.69763">
        <ele>71.156302</ele>
        <time>2026-05-06T10:15:16.112Z</time>
      </trkpt>
      <trkpt lat="51.56717" lon="6.69754">
        <ele>71.179054</ele>
        <time>2026-05-06T10:15:18.110Z</time>
      </trkpt>
      <trkpt lat="51.56724" lon="6.69745">
        <ele>71.201908</ele>
        <time>2026-05-06T10:15:20.108Z</time>
      </trkpt>
      <trkpt lat="51.56734" lon="6.69732">
        <ele>71.234079</ele>
        <time>2026-05-06T10:15:23.104Z</time>
      </trkpt>
      <trkpt lat="51.56743" lon="6.6972">
        <ele>71.263895</ele>
        <time>2026-05-06T10:15:26.118Z</time>
      </trkpt>
      <trkpt lat="51.56752" lon="6.69707">
        <ele>71.295277</ele>
        <time>2026-05-06T10:15:29.110Z</time>
      </trkpt>
      <trkpt lat="51.56763" lon="6.69694">
        <ele>71.327932</ele>
        <time>2026-05-06T10:15:32.112Z</time>
      </trkpt>
      <trkpt lat="51.56773" lon="6.69681">
        <ele>71.305176</ele>
        <time>2026-05-06T10:15:35.118Z</time>
      </trkpt>
      <trkpt lat="51.56783" lon="6.69668">
        <ele>71.201459</ele>
        <time>2026-05-06T10:15:38.103Z</time>
      </trkpt>
      <trkpt lat="51.56793" lon="6.69655">
        <ele>71.099898</ele>
        <time>2026-05-06T10:15:41.111Z</time>
      </trkpt>
      <trkpt lat="51.56803" lon="6.69641">
        <ele>70.997391</ele>
        <time>2026-05-06T10:15:44.112Z</time>
      </trkpt>
      <trkpt lat="51.56813" lon="6.69629">
        <ele>70.896449</ele>
        <time>2026-05-06T10:15:47.102Z</time>
      </trkpt>
      <trkpt lat="51.56823" lon="6.69616">
        <ele>70.794227</ele>
        <time>2026-05-06T10:15:50.110Z</time>
      </trkpt>
      <trkpt lat="51.56832" lon="6.69604">
        <ele>70.698526</ele>
        <time>2026-05-06T10:15:53.099Z</time>
      </trkpt>
      <trkpt lat="51.56842" lon="6.69591">
        <ele>70.596044</ele>
        <time>2026-05-06T10:15:56.107Z</time>
      </trkpt>
      <trkpt lat="51.56852" lon="6.69578">
        <ele>70.501268</ele>
        <time>2026-05-06T10:15:59.103Z</time>
      </trkpt>
      <trkpt lat="51.56861" lon="6.69566">
        <ele>70.404342</ele>
        <time>2026-05-06T10:16:02.107Z</time>
      </trkpt>
      <trkpt lat="51.56871" lon="6.69553">
        <ele>70.303093</ele>
        <time>2026-05-06T10:16:05.110Z</time>
      </trkpt>
      <trkpt lat="51.56878" lon="6.69544">
        <ele>70.231749</ele>
        <time>2026-05-06T10:16:07.098Z</time>
      </trkpt>
      <trkpt lat="51.56888" lon="6.69531">
        <ele>70.128342</ele>
        <time>2026-05-06T10:16:10.107Z</time>
      </trkpt>
      <trkpt lat="51.56898" lon="6.69519">
        <ele>70.03234</ele>
        <time>2026-05-06T10:16:13.111Z</time>
      </trkpt>
      <trkpt lat="51.56907" lon="6.69504">
        <ele>69.930752</ele>
        <time>2026-05-06T10:16:16.107Z</time>
      </trkpt>
      <trkpt lat="51.56911" lon="6.69491">
        <ele>69.927384</ele>
        <time>2026-05-06T10:16:18.106Z</time>
      </trkpt>
      <trkpt lat="51.56915" lon="6.69477">
        <ele>69.932898</ele>
        <time>2026-05-06T10:16:20.102Z</time>
      </trkpt>
      <trkpt lat="51.56919" lon="6.69463">
        <ele>69.93819</ele>
        <time>2026-05-06T10:16:22.108Z</time>
      </trkpt>
      <trkpt lat="51.56926" lon="6.69445">
        <ele>69.945952</ele>
        <time>2026-05-06T10:16:25.107Z</time>
      </trkpt>
      <trkpt lat="51.56934" lon="6.69429">
        <ele>69.953391</ele>
        <time>2026-05-06T10:16:28.114Z</time>
      </trkpt>
      <trkpt lat="51.56941" lon="6.69419">
        <ele>69.958772</ele>
        <time>2026-05-06T10:16:30.111Z</time>
      </trkpt>
      <trkpt lat="51.56951" lon="6.69407">
        <ele>69.966299</ele>
        <time>2026-05-06T10:16:33.103Z</time>
      </trkpt>
      <trkpt lat="51.56963" lon="6.69395">
        <ele>69.974229</ele>
        <time>2026-05-06T10:16:36.106Z</time>
      </trkpt>
      <trkpt lat="51.56971" lon="6.69386">
        <ele>69.979925</ele>
        <time>2026-05-06T10:16:38.086Z</time>
      </trkpt>
      <trkpt lat="51.56979" lon="6.69379">
        <ele>69.985179</ele>
        <time>2026-05-06T10:16:40.102Z</time>
      </trkpt>
      <trkpt lat="51.56987" lon="6.69372">
        <ele>69.990592</ele>
        <time>2026-05-06T10:16:42.114Z</time>
      </trkpt>
      <trkpt lat="51.56999" lon="6.69362">
        <ele>69.998475</ele>
        <time>2026-05-06T10:16:45.102Z</time>
      </trkpt>
      <trkpt lat="51.57007" lon="6.69354">
        <ele>70.003964</ele>
        <time>2026-05-06T10:16:47.099Z</time>
      </trkpt>
      <trkpt lat="51.57015" lon="6.69346">
        <ele>70.009611</ele>
        <time>2026-05-06T10:16:49.104Z</time>
      </trkpt>
      <trkpt lat="51.57023" lon="6.69337">
        <ele>70.015238</ele>
        <time>2026-05-06T10:16:51.106Z</time>
      </trkpt>
      <trkpt lat="51.57031" lon="6.69327">
        <ele>70.020894</ele>
        <time>2026-05-06T10:16:53.100Z</time>
      </trkpt>
      <trkpt lat="51.57037" lon="6.69315">
        <ele>70.026558</ele>
        <time>2026-05-06T10:16:55.111Z</time>
      </trkpt>
      <trkpt lat="51.57045" lon="6.69297">
        <ele>69.946575</ele>
        <time>2026-05-06T10:16:58.103Z</time>
      </trkpt>
      <trkpt lat="51.5705" lon="6.69284">
        <ele>69.888446</ele>
        <time>2026-05-06T10:17:00.105Z</time>
      </trkpt>
      <trkpt lat="51.57053" lon="6.69271">
        <ele>69.831301</ele>
        <time>2026-05-06T10:17:02.119Z</time>
      </trkpt>
      <trkpt lat="51.57058" lon="6.69257">
        <ele>69.771031</ele>
        <time>2026-05-06T10:17:04.105Z</time>
      </trkpt>
      <trkpt lat="51.57063" lon="6.69243">
        <ele>69.709883</ele>
        <time>2026-05-06T10:17:06.108Z</time>
      </trkpt>
      <trkpt lat="51.57067" lon="6.6923">
        <ele>69.650137</ele>
        <time>2026-05-06T10:17:08.113Z</time>
      </trkpt>
      <trkpt lat="51.57073" lon="6.69217">
        <ele>69.587068</ele>
        <time>2026-05-06T10:17:10.102Z</time>
      </trkpt>
      <trkpt lat="51.57079" lon="6.69203">
        <ele>69.523933</ele>
        <time>2026-05-06T10:17:12.112Z</time>
      </trkpt>
      <trkpt lat="51.57084" lon="6.6919">
        <ele>69.462198</ele>
        <time>2026-05-06T10:17:14.109Z</time>
      </trkpt>
      <trkpt lat="51.57089" lon="6.69177">
        <ele>69.402452</ele>
        <time>2026-05-06T10:17:16.108Z</time>
      </trkpt>
      <trkpt lat="51.57094" lon="6.69164">
        <ele>69.344696</ele>
        <time>2026-05-06T10:17:18.102Z</time>
      </trkpt>
      <trkpt lat="51.57099" lon="6.69152">
        <ele>69.285389</ele>
        <time>2026-05-06T10:17:20.094Z</time>
      </trkpt>
      <trkpt lat="51.57105" lon="6.6914">
        <ele>69.226625</ele>
        <time>2026-05-06T10:17:22.110Z</time>
      </trkpt>
      <trkpt lat="51.57112" lon="6.69128">
        <ele>69.165658</ele>
        <time>2026-05-06T10:17:24.101Z</time>
      </trkpt>
      <trkpt lat="51.57118" lon="6.69118">
        <ele>69.108103</ele>
        <time>2026-05-06T10:17:26.102Z</time>
      </trkpt>
      <trkpt lat="51.57125" lon="6.69107">
        <ele>69.048457</ele>
        <time>2026-05-06T10:17:28.114Z</time>
      </trkpt>
      <trkpt lat="51.57132" lon="6.69097">
        <ele>68.992107</ele>
        <time>2026-05-06T10:17:30.104Z</time>
      </trkpt>
      <trkpt lat="51.57139" lon="6.69087">
        <ele>68.93096</ele>
        <time>2026-05-06T10:17:32.105Z</time>
      </trkpt>
      <trkpt lat="51.57146" lon="6.69077">
        <ele>68.942142</ele>
        <time>2026-05-06T10:17:34.102Z</time>
      </trkpt>
      <trkpt lat="51.57153" lon="6.69066">
        <ele>69.020707</ele>
        <time>2026-05-06T10:17:36.111Z</time>
      </trkpt>
      <trkpt lat="51.5716" lon="6.69055">
        <ele>69.097549</ele>
        <time>2026-05-06T10:17:38.119Z</time>
      </trkpt>
      <trkpt lat="51.57167" lon="6.69046">
        <ele>69.170517</ele>
        <time>2026-05-06T10:17:40.103Z</time>
      </trkpt>
      <trkpt lat="51.57174" lon="6.69036">
        <ele>69.244088</ele>
        <time>2026-05-06T10:17:42.107Z</time>
      </trkpt>
      <trkpt lat="51.57181" lon="6.69026">
        <ele>69.322327</ele>
        <time>2026-05-06T10:17:44.117Z</time>
      </trkpt>
      <trkpt lat="51.57189" lon="6.69015">
        <ele>69.399959</ele>
        <time>2026-05-06T10:17:46.111Z</time>
      </trkpt>
      <trkpt lat="51.57195" lon="6.69005">
        <ele>69.474523</ele>
        <time>2026-05-06T10:17:48.117Z</time>
      </trkpt>
      <trkpt lat="51.57202" lon="6.68995">
        <ele>69.550018</ele>
        <time>2026-05-06T10:17:50.101Z</time>
      </trkpt>
      <trkpt lat="51.57209" lon="6.68984">
        <ele>69.626681</ele>
        <time>2026-05-06T10:17:52.097Z</time>
      </trkpt>
      <trkpt lat="51.57217" lon="6.68966">
        <ele>69.73597</ele>
        <time>2026-05-06T10:17:55.103Z</time>
      </trkpt>
      <trkpt lat="51.57221" lon="6.68953">
        <ele>69.80953</ele>
        <time>2026-05-06T10:17:57.102Z</time>
      </trkpt>
      <trkpt lat="51.57226" lon="6.68938">
        <ele>69.89265</ele>
        <time>2026-05-06T10:17:59.099Z</time>
      </trkpt>
      <trkpt lat="51.5723" lon="6.68922">
        <ele>69.979641</ele>
        <time>2026-05-06T10:18:01.110Z</time>
      </trkpt>
      <trkpt lat="51.57235" lon="6.68907">
        <ele>70.064207</ele>
        <time>2026-05-06T10:18:03.115Z</time>
      </trkpt>
      <trkpt lat="51.57241" lon="6.68894">
        <ele>70.147843</ele>
        <time>2026-05-06T10:18:05.110Z</time>
      </trkpt>
      <trkpt lat="51.57248" lon="6.6888">
        <ele>70.234057</ele>
        <time>2026-05-06T10:18:07.106Z</time>
      </trkpt>
      <trkpt lat="51.57255" lon="6.68869">
        <ele>70.318632</ele>
        <time>2026-05-06T10:18:09.100Z</time>
      </trkpt>
      <trkpt lat="51.57263" lon="6.68858">
        <ele>70.412289</ele>
        <time>2026-05-06T10:18:11.102Z</time>
      </trkpt>
      <trkpt lat="51.57272" lon="6.68847">
        <ele>70.519474</ele>
        <time>2026-05-06T10:18:13.106Z</time>
      </trkpt>
      <trkpt lat="51.57281" lon="6.68838">
        <ele>70.62819</ele>
        <time>2026-05-06T10:18:15.104Z</time>
      </trkpt>
      <trkpt lat="51.57291" lon="6.68832">
        <ele>70.731748</ele>
        <time>2026-05-06T10:18:17.113Z</time>
      </trkpt>
      <trkpt lat="51.573" lon="6.68828">
        <ele>70.827608</ele>
        <time>2026-05-06T10:18:19.106Z</time>
      </trkpt>
      <trkpt lat="51.57313" lon="6.68821">
        <ele>70.955184</ele>
        <time>2026-05-06T10:18:22.107Z</time>
      </trkpt>
      <trkpt lat="51.57322" lon="6.68816">
        <ele>71.045945</ele>
        <time>2026-05-06T10:18:24.101Z</time>
      </trkpt>
      <trkpt lat="51.57334" lon="6.68811">
        <ele>71.167538</ele>
        <time>2026-05-06T10:18:27.103Z</time>
      </trkpt>
      <trkpt lat="51.57346" lon="6.68806">
        <ele>71.29008</ele>
        <time>2026-05-06T10:18:30.099Z</time>
      </trkpt>
      <trkpt lat="51.57359" lon="6.68803">
        <ele>71.420241</ele>
        <time>2026-05-06T10:18:33.102Z</time>
      </trkpt>
      <trkpt lat="51.57368" lon="6.68801">
        <ele>71.513417</ele>
        <time>2026-05-06T10:18:35.109Z</time>
      </trkpt>
      <trkpt lat="51.57381" lon="6.68797">
        <ele>71.637671</ele>
        <time>2026-05-06T10:18:38.097Z</time>
      </trkpt>
      <trkpt lat="51.57392" lon="6.68796">
        <ele>71.74889</ele>
        <time>2026-05-06T10:18:41.106Z</time>
      </trkpt>
      <trkpt lat="51.57402" lon="6.68796">
        <ele>71.846984</ele>
        <time>2026-05-06T10:18:45.103Z</time>
      </trkpt>
      <trkpt lat="51.57411" lon="6.68791">
        <ele>71.941734</ele>
        <time>2026-05-06T10:18:52.107Z</time>
      </trkpt>
      <trkpt lat="51.57423" lon="6.68793">
        <ele>72.054817</ele>
        <time>2026-05-06T10:18:57.110Z</time>
      </trkpt>
      <trkpt lat="51.57434" lon="6.68796">
        <ele>72.113482</ele>
        <time>2026-05-06T10:19:00.096Z</time>
      </trkpt>
      <trkpt lat="51.57446" lon="6.688">
        <ele>72.119302</ele>
        <time>2026-05-06T10:19:03.107Z</time>
      </trkpt>
      <trkpt lat="51.57458" lon="6.68805">
        <ele>72.124817</ele>
        <time>2026-05-06T10:19:06.128Z</time>
      </trkpt>
      <trkpt lat="51.57469" lon="6.6881">
        <ele>72.130024</ele>
        <time>2026-05-06T10:19:09.093Z</time>
      </trkpt>
      <trkpt lat="51.5748" lon="6.68815">
        <ele>72.135391</ele>
        <time>2026-05-06T10:19:12.103Z</time>
      </trkpt>
      <trkpt lat="51.57491" lon="6.68819">
        <ele>72.140553</ele>
        <time>2026-05-06T10:19:15.103Z</time>
      </trkpt>
      <trkpt lat="51.57503" lon="6.68821">
        <ele>72.14608</ele>
        <time>2026-05-06T10:19:18.118Z</time>
      </trkpt>
      <trkpt lat="51.57516" lon="6.68819">
        <ele>72.151947</ele>
        <time>2026-05-06T10:19:21.106Z</time>
      </trkpt>
      <trkpt lat="51.57526" lon="6.68814">
        <ele>72.156981</ele>
        <time>2026-05-06T10:19:24.118Z</time>
      </trkpt>
      <trkpt lat="51.57537" lon="6.68807">
        <ele>72.162311</ele>
        <time>2026-05-06T10:19:27.103Z</time>
      </trkpt>
      <trkpt lat="51.57546" lon="6.68796">
        <ele>72.16755</ele>
        <time>2026-05-06T10:19:30.100Z</time>
      </trkpt>
      <trkpt lat="51.57553" lon="6.68785">
        <ele>72.171834</ele>
        <time>2026-05-06T10:19:35.108Z</time>
      </trkpt>
      <trkpt lat="51.57552" lon="6.68807">
        <ele>72.17824</ele>
        <time>2026-05-06T10:21:33.113Z</time>
      </trkpt>
      <trkpt lat="51.57554" lon="6.68823">
        <ele>72.18286</ele>
        <time>2026-05-06T10:21:36.105Z</time>
      </trkpt>
      <trkpt lat="51.5756" lon="6.68841">
        <ele>72.188547</ele>
        <time>2026-05-06T10:21:39.105Z</time>
      </trkpt>
      <trkpt lat="51.57566" lon="6.68857">
        <ele>72.182964</ele>
        <time>2026-05-06T10:21:42.110Z</time>
      </trkpt>
      <trkpt lat="51.57571" lon="6.68871">
        <ele>72.094098</ele>
        <time>2026-05-06T10:21:45.104Z</time>
      </trkpt>
      <trkpt lat="51.57577" lon="6.6889">
        <ele>71.985406</ele>
        <time>2026-05-06T10:21:48.107Z</time>
      </trkpt>
      <trkpt lat="51.5758" lon="6.68903">
        <ele>71.907797</ele>
        <time>2026-05-06T10:21:50.106Z</time>
      </trkpt>
      <trkpt lat="51.57585" lon="6.68916">
        <ele>71.825672</ele>
        <time>2026-05-06T10:21:52.100Z</time>
      </trkpt>
      <trkpt lat="51.57592" lon="6.68935">
        <ele>71.712022</ele>
        <time>2026-05-06T10:21:55.102Z</time>
      </trkpt>
      <trkpt lat="51.57597" lon="6.68953">
        <ele>71.605152</ele>
        <time>2026-05-06T10:21:58.115Z</time>
      </trkpt>
      <trkpt lat="51.576" lon="6.68967">
        <ele>71.526736</ele>
        <time>2026-05-06T10:22:00.116Z</time>
      </trkpt>
      <trkpt lat="51.57603" lon="6.68981">
        <ele>71.44922</ele>
        <time>2026-05-06T10:22:02.104Z</time>
      </trkpt>
      <trkpt lat="51.57606" lon="6.68995">
        <ele>71.370852</ele>
        <time>2026-05-06T10:22:04.105Z</time>
      </trkpt>
      <trkpt lat="51.57608" lon="6.69009">
        <ele>71.291598</ele>
        <time>2026-05-06T10:22:06.103Z</time>
      </trkpt>
      <trkpt lat="51.5761" lon="6.69024">
        <ele>71.212392</ele>
        <time>2026-05-06T10:22:08.111Z</time>
      </trkpt>
      <trkpt lat="51.57612" lon="6.69039">
        <ele>71.129863</ele>
        <time>2026-05-06T10:22:10.108Z</time>
      </trkpt>
      <trkpt lat="51.57613" lon="6.69059">
        <ele>71.02571</ele>
        <time>2026-05-06T10:22:13.107Z</time>
      </trkpt>
      <trkpt lat="51.57615" lon="6.69077">
        <ele>70.929277</ele>
        <time>2026-05-06T10:22:16.116Z</time>
      </trkpt>
      <trkpt lat="51.57616" lon="6.69096">
        <ele>70.82492</ele>
        <time>2026-05-06T10:22:19.103Z</time>
      </trkpt>
      <trkpt lat="51.57616" lon="6.69113">
        <ele>70.735118</ele>
        <time>2026-05-06T10:22:22.103Z</time>
      </trkpt>
      <trkpt lat="51.57616" lon="6.69129">
        <ele>70.665434</ele>
        <time>2026-05-06T10:22:26.118Z</time>
      </trkpt>
      <trkpt lat="51.57618" lon="6.69146">
        <ele>70.791259</ele>
        <time>2026-05-06T10:22:30.101Z</time>
      </trkpt>
      <trkpt lat="51.57616" lon="6.69162">
        <ele>70.911454</ele>
        <time>2026-05-06T10:22:34.112Z</time>
      </trkpt>
      <trkpt lat="51.57625" lon="6.69169">
        <ele>71.026113</ele>
        <time>2026-05-06T10:22:39.110Z</time>
      </trkpt>
      <trkpt lat="51.57649" lon="6.69163">
        <ele>71.316881</ele>
        <time>2026-05-06T10:22:57.098Z</time>
      </trkpt>
      <trkpt lat="51.57659" lon="6.69158">
        <ele>71.443017</ele>
        <time>2026-05-06T10:23:00.103Z</time>
      </trkpt>
      <trkpt lat="51.57669" lon="6.69149">
        <ele>71.584665</ele>
        <time>2026-05-06T10:23:03.093Z</time>
      </trkpt>
      <trkpt lat="51.57678" lon="6.69142">
        <ele>71.699642</ele>
        <time>2026-05-06T10:23:06.125Z</time>
      </trkpt>
      <trkpt lat="51.57689" lon="6.69137">
        <ele>71.841188</ele>
        <time>2026-05-06T10:23:09.108Z</time>
      </trkpt>
      <trkpt lat="51.57699" lon="6.69131">
        <ele>71.97583</ele>
        <time>2026-05-06T10:23:12.117Z</time>
      </trkpt>
      <trkpt lat="51.57711" lon="6.69121">
        <ele>72.131175</ele>
        <time>2026-05-06T10:23:15.112Z</time>
      </trkpt>
      <trkpt lat="51.57723" lon="6.69112">
        <ele>72.296718</ele>
        <time>2026-05-06T10:23:18.105Z</time>
      </trkpt>
      <trkpt lat="51.57732" lon="6.69105">
        <ele>72.415375</ele>
        <time>2026-05-06T10:23:20.115Z</time>
      </trkpt>
      <trkpt lat="51.57741" lon="6.69099">
        <ele>72.532622</ele>
        <time>2026-05-06T10:23:22.110Z</time>
      </trkpt>
      <trkpt lat="51.5775" lon="6.69091">
        <ele>72.652553</ele>
        <time>2026-05-06T10:23:24.109Z</time>
      </trkpt>
      <trkpt lat="51.57759" lon="6.69085">
        <ele>72.770263</ele>
        <time>2026-05-06T10:23:26.103Z</time>
      </trkpt>
      <trkpt lat="51.57768" lon="6.69076">
        <ele>72.721521</ele>
        <time>2026-05-06T10:23:28.107Z</time>
      </trkpt>
      <trkpt lat="51.57776" lon="6.69069">
        <ele>72.5507</ele>
        <time>2026-05-06T10:23:30.114Z</time>
      </trkpt>
      <trkpt lat="51.57784" lon="6.6906">
        <ele>72.384682</ele>
        <time>2026-05-06T10:23:32.114Z</time>
      </trkpt>
      <trkpt lat="51.57792" lon="6.69052">
        <ele>72.223319</ele>
        <time>2026-05-06T10:23:34.106Z</time>
      </trkpt>
      <trkpt lat="51.57799" lon="6.69041">
        <ele>72.057789</ele>
        <time>2026-05-06T10:23:36.112Z</time>
      </trkpt>
      <trkpt lat="51.57807" lon="6.69033">
        <ele>71.898873</ele>
        <time>2026-05-06T10:23:38.115Z</time>
      </trkpt>
      <trkpt lat="51.57817" lon="6.69019">
        <ele>71.674158</ele>
        <time>2026-05-06T10:23:41.106Z</time>
      </trkpt>
      <trkpt lat="51.57826" lon="6.69011">
        <ele>71.493708</ele>
        <time>2026-05-06T10:23:43.102Z</time>
      </trkpt>
      <trkpt lat="51.57834" lon="6.69003">
        <ele>71.334883</ele>
        <time>2026-05-06T10:23:45.106Z</time>
      </trkpt>
      <trkpt lat="51.57842" lon="6.68996">
        <ele>71.160999</ele>
        <time>2026-05-06T10:23:47.108Z</time>
      </trkpt>
      <trkpt lat="51.57852" lon="6.68987">
        <ele>70.977491</ele>
        <time>2026-05-06T10:23:49.101Z</time>
      </trkpt>
      <trkpt lat="51.57861" lon="6.68978">
        <ele>70.785376</ele>
        <time>2026-05-06T10:23:51.110Z</time>
      </trkpt>
      <trkpt lat="51.5787" lon="6.68968">
        <ele>70.609433</ele>
        <time>2026-05-06T10:23:53.100Z</time>
      </trkpt>
      <trkpt lat="51.57879" lon="6.6896">
        <ele>70.416815</ele>
        <time>2026-05-06T10:23:55.100Z</time>
      </trkpt>
      <trkpt lat="51.57889" lon="6.68949">
        <ele>70.214833</ele>
        <time>2026-05-06T10:23:57.103Z</time>
      </trkpt>
      <trkpt lat="51.57898" lon="6.68939">
        <ele>70.021226</ele>
        <time>2026-05-06T10:23:59.116Z</time>
      </trkpt>
      <trkpt lat="51.57908" lon="6.6893">
        <ele>69.825621</ele>
        <time>2026-05-06T10:24:01.106Z</time>
      </trkpt>
      <trkpt lat="51.57918" lon="6.68919">
        <ele>69.748318</ele>
        <time>2026-05-06T10:24:03.109Z</time>
      </trkpt>
      <trkpt lat="51.57926" lon="6.68911">
        <ele>69.806321</ele>
        <time>2026-05-06T10:24:05.115Z</time>
      </trkpt>
      <trkpt lat="51.57935" lon="6.68902">
        <ele>69.862062</ele>
        <time>2026-05-06T10:24:07.110Z</time>
      </trkpt>
      <trkpt lat="51.57942" lon="6.68894">
        <ele>69.912762</ele>
        <time>2026-05-06T10:24:09.102Z</time>
      </trkpt>
      <trkpt lat="51.57954" lon="6.68883">
        <ele>69.988768</ele>
        <time>2026-05-06T10:24:12.107Z</time>
      </trkpt>
      <trkpt lat="51.57963" lon="6.68874">
        <ele>70.044409</ele>
        <time>2026-05-06T10:24:14.095Z</time>
      </trkpt>
      <trkpt lat="51.5797" lon="6.68866">
        <ele>70.095019</ele>
        <time>2026-05-06T10:24:16.107Z</time>
      </trkpt>
      <trkpt lat="51.57979" lon="6.68859">
        <ele>70.14803</ele>
        <time>2026-05-06T10:24:18.106Z</time>
      </trkpt>
      <trkpt lat="51.57988" lon="6.68848">
        <ele>70.212163</ele>
        <time>2026-05-06T10:24:21.111Z</time>
      </trkpt>
      <trkpt lat="51.57997" lon="6.68838">
        <ele>70.274251</ele>
        <time>2026-05-06T10:24:24.102Z</time>
      </trkpt>
      <trkpt lat="51.58008" lon="6.68826">
        <ele>70.345984</ele>
        <time>2026-05-06T10:24:27.102Z</time>
      </trkpt>
      <trkpt lat="51.58016" lon="6.68819">
        <ele>70.397366</ele>
        <time>2026-05-06T10:24:29.108Z</time>
      </trkpt>
      <trkpt lat="51.58024" lon="6.68811">
        <ele>70.451212</ele>
        <time>2026-05-06T10:24:31.114Z</time>
      </trkpt>
      <trkpt lat="51.58033" lon="6.68803">
        <ele>70.506298</ele>
        <time>2026-05-06T10:24:33.107Z</time>
      </trkpt>
      <trkpt lat="51.58041" lon="6.68793">
        <ele>70.565515</ele>
        <time>2026-05-06T10:24:35.109Z</time>
      </trkpt>
      <trkpt lat="51.5805" lon="6.68785">
        <ele>70.619763</ele>
        <time>2026-05-06T10:24:37.104Z</time>
      </trkpt>
      <trkpt lat="51.58058" lon="6.68774">
        <ele>70.679246</ele>
        <time>2026-05-06T10:24:39.105Z</time>
      </trkpt>
      <trkpt lat="51.58066" lon="6.68764">
        <ele>70.743898</ele>
        <time>2026-05-06T10:24:41.110Z</time>
      </trkpt>
      <trkpt lat="51.58075" lon="6.68757">
        <ele>70.829728</ele>
        <time>2026-05-06T10:24:43.105Z</time>
      </trkpt>
      <trkpt lat="51.58083" lon="6.6875">
        <ele>70.909936</ele>
        <time>2026-05-06T10:24:45.107Z</time>
      </trkpt>
      <trkpt lat="51.58094" lon="6.6874">
        <ele>71.020436</ele>
        <time>2026-05-06T10:24:48.108Z</time>
      </trkpt>
      <trkpt lat="51.58105" lon="6.68729">
        <ele>71.125703</ele>
        <time>2026-05-06T10:24:51.107Z</time>
      </trkpt>
      <trkpt lat="51.58115" lon="6.68719">
        <ele>71.230969</ele>
        <time>2026-05-06T10:24:54.102Z</time>
      </trkpt>
      <trkpt lat="51.58125" lon="6.68708">
        <ele>71.333563</ele>
        <time>2026-05-06T10:24:57.099Z</time>
      </trkpt>
      <trkpt lat="51.58136" lon="6.68698">
        <ele>71.441296</ele>
        <time>2026-05-06T10:25:00.104Z</time>
      </trkpt>
      <trkpt lat="51.58146" lon="6.68685">
        <ele>71.549673</ele>
        <time>2026-05-06T10:25:03.107Z</time>
      </trkpt>
      <trkpt lat="51.58156" lon="6.68674">
        <ele>71.65742</ele>
        <time>2026-05-06T10:25:06.110Z</time>
      </trkpt>
      <trkpt lat="51.58166" lon="6.6866">
        <ele>71.767812</ele>
        <time>2026-05-06T10:25:09.122Z</time>
      </trkpt>
      <trkpt lat="51.58176" lon="6.68646">
        <ele>71.883836</ele>
        <time>2026-05-06T10:25:12.117Z</time>
      </trkpt>
      <trkpt lat="51.58183" lon="6.68636">
        <ele>71.960808</ele>
        <time>2026-05-06T10:25:14.108Z</time>
      </trkpt>
      <trkpt lat="51.58193" lon="6.68625">
        <ele>72.069458</ele>
        <time>2026-05-06T10:25:17.096Z</time>
      </trkpt>
      <trkpt lat="51.58202" lon="6.68613">
        <ele>72.165846</ele>
        <time>2026-05-06T10:25:20.115Z</time>
      </trkpt>
      <trkpt lat="51.5821" lon="6.68603">
        <ele>72.259664</ele>
        <time>2026-05-06T10:25:23.105Z</time>
      </trkpt>
      <trkpt lat="51.5822" lon="6.68592">
        <ele>72.114865</ele>
        <time>2026-05-06T10:25:26.094Z</time>
      </trkpt>
      <trkpt lat="51.58229" lon="6.68582">
        <ele>71.967557</ele>
        <time>2026-05-06T10:25:29.117Z</time>
      </trkpt>
      <trkpt lat="51.58238" lon="6.6857">
        <ele>71.79726</ele>
        <time>2026-05-06T10:25:32.109Z</time>
      </trkpt>
      <trkpt lat="51.58246" lon="6.6856">
        <ele>71.662705</ele>
        <time>2026-05-06T10:25:37.103Z</time>
      </trkpt>
      <trkpt lat="51.58243" lon="6.68546">
        <ele>71.534685</ele>
        <time>2026-05-06T10:25:42.118Z</time>
      </trkpt>
      <trkpt lat="51.58235" lon="6.68536">
        <ele>71.400129</ele>
        <time>2026-05-06T10:25:46.108Z</time>
      </trkpt>
      <trkpt lat="51.58226" lon="6.68529">
        <ele>71.253818</ele>
        <time>2026-05-06T10:25:51.107Z</time>
      </trkpt>
      <trkpt lat="51.58216" lon="6.68519">
        <ele>71.094673</ele>
        <time>2026-05-06T10:25:56.106Z</time>
      </trkpt>
      <trkpt lat="51.58208" lon="6.68512">
        <ele>70.967877</ele>
        <time>2026-05-06T10:25:59.114Z</time>
      </trkpt>
      <trkpt lat="51.58199" lon="6.68505">
        <ele>70.828841</ele>
        <time>2026-05-06T10:26:02.116Z</time>
      </trkpt>
      <trkpt lat="51.5819" lon="6.68496">
        <ele>70.67429</ele>
        <time>2026-05-06T10:26:05.106Z</time>
      </trkpt>
      <trkpt lat="51.58179" lon="6.68488">
        <ele>70.51332</ele>
        <time>2026-05-06T10:26:08.104Z</time>
      </trkpt>
      <trkpt lat="51.5817" lon="6.68479">
        <ele>70.36333</ele>
        <time>2026-05-06T10:26:11.109Z</time>
      </trkpt>
      <trkpt lat="51.5816" lon="6.68472">
        <ele>70.20918</ele>
        <time>2026-05-06T10:26:14.119Z</time>
      </trkpt>
      <trkpt lat="51.5815" lon="6.68461">
        <ele>70.052396</ele>
        <time>2026-05-06T10:26:17.106Z</time>
      </trkpt>
      <trkpt lat="51.58139" lon="6.68451">
        <ele>69.875089</ele>
        <time>2026-05-06T10:26:20.110Z</time>
      </trkpt>
      <trkpt lat="51.58131" lon="6.68445">
        <ele>69.774777</ele>
        <time>2026-05-06T10:26:22.116Z</time>
      </trkpt>
      <trkpt lat="51.5812" lon="6.68435">
        <ele>69.806143</ele>
        <time>2026-05-06T10:26:25.112Z</time>
      </trkpt>
      <trkpt lat="51.58109" lon="6.68427">
        <ele>69.836636</ele>
        <time>2026-05-06T10:26:28.112Z</time>
      </trkpt>
      <trkpt lat="51.58099" lon="6.68421">
        <ele>69.864868</ele>
        <time>2026-05-06T10:26:31.100Z</time>
      </trkpt>
      <trkpt lat="51.58088" lon="6.68412">
        <ele>69.894653</ele>
        <time>2026-05-06T10:26:34.106Z</time>
      </trkpt>
      <trkpt lat="51.58079" lon="6.684">
        <ele>69.925026</ele>
        <time>2026-05-06T10:26:37.111Z</time>
      </trkpt>
      <trkpt lat="51.58072" lon="6.68384">
        <ele>69.95752</ele>
        <time>2026-05-06T10:26:40.117Z</time>
      </trkpt>
      <trkpt lat="51.58065" lon="6.68365">
        <ele>69.991336</ele>
        <time>2026-05-06T10:26:43.111Z</time>
      </trkpt>
      <trkpt lat="51.58061" lon="6.68352">
        <ele>70.014218</ele>
        <time>2026-05-06T10:26:45.113Z</time>
      </trkpt>
      <trkpt lat="51.58058" lon="6.68339">
        <ele>70.037274</ele>
        <time>2026-05-06T10:26:47.111Z</time>
      </trkpt>
      <trkpt lat="51.58054" lon="6.68318">
        <ele>70.070839</ele>
        <time>2026-05-06T10:26:50.125Z</time>
      </trkpt>
      <trkpt lat="51.58049" lon="6.683">
        <ele>70.102985</ele>
        <time>2026-05-06T10:26:53.106Z</time>
      </trkpt>
      <trkpt lat="51.58045" lon="6.68281">
        <ele>70.134529</ele>
        <time>2026-05-06T10:26:56.113Z</time>
      </trkpt>
      <trkpt lat="51.5804" lon="6.68262">
        <ele>70.166561</ele>
        <time>2026-05-06T10:26:59.113Z</time>
      </trkpt>
      <trkpt lat="51.58035" lon="6.68244">
        <ele>70.19855</ele>
        <time>2026-05-06T10:27:02.100Z</time>
      </trkpt>
      <trkpt lat="51.58031" lon="6.68225">
        <ele>70.229848</ele>
        <time>2026-05-06T10:27:05.101Z</time>
      </trkpt>
      <trkpt lat="51.58028" lon="6.68208">
        <ele>70.288305</ele>
        <time>2026-05-06T10:27:08.111Z</time>
      </trkpt>
      <trkpt lat="51.58023" lon="6.68191">
        <ele>70.34864</ele>
        <time>2026-05-06T10:27:11.099Z</time>
      </trkpt>
      <trkpt lat="51.58019" lon="6.68174">
        <ele>70.40558</ele>
        <time>2026-05-06T10:27:14.108Z</time>
      </trkpt>
      <trkpt lat="51.58015" lon="6.68159">
        <ele>70.460397</ele>
        <time>2026-05-06T10:27:17.109Z</time>
      </trkpt>
      <trkpt lat="51.58011" lon="6.68145">
        <ele>70.508057</ele>
        <time>2026-05-06T10:27:20.117Z</time>
      </trkpt>
      <trkpt lat="51.58008" lon="6.68129">
        <ele>70.562238</ele>
        <time>2026-05-06T10:27:24.105Z</time>
      </trkpt>
      <trkpt lat="51.58005" lon="6.68114">
        <ele>70.614105</ele>
        <time>2026-05-06T10:27:29.106Z</time>
      </trkpt>
      <trkpt lat="51.58008" lon="6.681">
        <ele>70.662851</ele>
        <time>2026-05-06T10:27:48.098Z</time>
      </trkpt>
      <trkpt lat="51.58012" lon="6.68083">
        <ele>70.719004</ele>
        <time>2026-05-06T10:27:54.111Z</time>
      </trkpt>
      <trkpt lat="51.5802" lon="6.68072">
        <ele>70.770134</ele>
        <time>2026-05-06T10:27:57.107Z</time>
      </trkpt>
      <trkpt lat="51.58028" lon="6.68062">
        <ele>70.826579</ele>
        <time>2026-05-06T10:28:00.096Z</time>
      </trkpt>
      <trkpt lat="51.58039" lon="6.68051">
        <ele>70.892047</ele>
        <time>2026-05-06T10:28:03.106Z</time>
      </trkpt>
      <trkpt lat="51.58048" lon="6.6804">
        <ele>70.95137</ele>
        <time>2026-05-06T10:28:06.112Z</time>
      </trkpt>
      <trkpt lat="51.58059" lon="6.68029">
        <ele>71.018418</ele>
        <time>2026-05-06T10:28:09.107Z</time>
      </trkpt>
      <trkpt lat="51.58067" lon="6.68021">
        <ele>71.065069</ele>
        <time>2026-05-06T10:28:11.102Z</time>
      </trkpt>
      <trkpt lat="51.58075" lon="6.68012">
        <ele>71.114499</ele>
        <time>2026-05-06T10:28:13.092Z</time>
      </trkpt>
      <trkpt lat="51.58086" lon="6.68">
        <ele>71.211268</ele>
        <time>2026-05-06T10:28:16.101Z</time>
      </trkpt>
      <trkpt lat="51.58097" lon="6.67989">
        <ele>71.339972</ele>
        <time>2026-05-06T10:28:19.102Z</time>
      </trkpt>
      <trkpt lat="51.58105" lon="6.6798">
        <ele>71.431578</ele>
        <time>2026-05-06T10:28:21.103Z</time>
      </trkpt>
      <trkpt lat="51.58115" lon="6.67967">
        <ele>71.564238</ele>
        <time>2026-05-06T10:28:24.107Z</time>
      </trkpt>
      <trkpt lat="51.58124" lon="6.67957">
        <ele>71.666495</ele>
        <time>2026-05-06T10:28:26.107Z</time>
      </trkpt>
      <trkpt lat="51.58132" lon="6.67947">
        <ele>71.769861</ele>
        <time>2026-05-06T10:28:28.094Z</time>
      </trkpt>
      <trkpt lat="51.5814" lon="6.67937">
        <ele>71.864713</ele>
        <time>2026-05-06T10:28:30.102Z</time>
      </trkpt>
      <trkpt lat="51.58148" lon="6.67929">
        <ele>71.961926</ele>
        <time>2026-05-06T10:28:32.105Z</time>
      </trkpt>
      <trkpt lat="51.58157" lon="6.67922">
        <ele>72.058919</ele>
        <time>2026-05-06T10:28:34.105Z</time>
      </trkpt>
      <trkpt lat="51.58168" lon="6.67917">
        <ele>72.174594</ele>
        <time>2026-05-06T10:28:37.109Z</time>
      </trkpt>
      <trkpt lat="51.58181" lon="6.67921">
        <ele>72.307541</ele>
        <time>2026-05-06T10:28:40.111Z</time>
      </trkpt>
      <trkpt lat="51.58192" lon="6.67924">
        <ele>72.418393</ele>
        <time>2026-05-06T10:28:42.103Z</time>
      </trkpt>
      <trkpt lat="51.58205" lon="6.67928">
        <ele>72.545752</ele>
        <time>2026-05-06T10:28:45.103Z</time>
      </trkpt>
      <trkpt lat="51.58215" lon="6.6793">
        <ele>72.651617</ele>
        <time>2026-05-06T10:28:48.111Z</time>
      </trkpt>
      <trkpt lat="51.58228" lon="6.67926">
        <ele>72.779231</ele>
        <time>2026-05-06T10:28:51.109Z</time>
      </trkpt>
      <trkpt lat="51.58237" lon="6.67924">
        <ele>72.869333</ele>
        <time>2026-05-06T10:28:53.114Z</time>
      </trkpt>
      <trkpt lat="51.58246" lon="6.67921">
        <ele>72.906438</ele>
        <time>2026-05-06T10:28:55.104Z</time>
      </trkpt>
      <trkpt lat="51.58259" lon="6.67918">
        <ele>72.758374</ele>
        <time>2026-05-06T10:28:58.122Z</time>
      </trkpt>
      <trkpt lat="51.58271" lon="6.67918">
        <ele>72.613165</ele>
        <time>2026-05-06T10:29:01.106Z</time>
      </trkpt>
      <trkpt lat="51.58284" lon="6.67917">
        <ele>72.466715</ele>
        <time>2026-05-06T10:29:04.114Z</time>
      </trkpt>
      <trkpt lat="51.58297" lon="6.67915">
        <ele>72.31733</ele>
        <time>2026-05-06T10:29:07.106Z</time>
      </trkpt>
      <trkpt lat="51.58309" lon="6.67912">
        <ele>72.171214</ele>
        <time>2026-05-06T10:29:10.112Z</time>
      </trkpt>
      <trkpt lat="51.58322" lon="6.67909">
        <ele>72.018556</ele>
        <time>2026-05-06T10:29:13.104Z</time>
      </trkpt>
      <trkpt lat="51.58331" lon="6.67906">
        <ele>71.913351</ele>
        <time>2026-05-06T10:29:15.112Z</time>
      </trkpt>
      <trkpt lat="51.58343" lon="6.67898">
        <ele>71.761126</ele>
        <time>2026-05-06T10:29:18.095Z</time>
      </trkpt>
      <trkpt lat="51.58355" lon="6.67891">
        <ele>71.609931</ele>
        <time>2026-05-06T10:29:21.100Z</time>
      </trkpt>
      <trkpt lat="51.58367" lon="6.67883">
        <ele>71.462466</ele>
        <time>2026-05-06T10:29:24.109Z</time>
      </trkpt>
      <trkpt lat="51.58378" lon="6.67873">
        <ele>71.319496</ele>
        <time>2026-05-06T10:29:27.106Z</time>
      </trkpt>
      <trkpt lat="51.58389" lon="6.67863">
        <ele>71.171063</ele>
        <time>2026-05-06T10:29:30.114Z</time>
      </trkpt>
      <trkpt lat="51.584" lon="6.67853">
        <ele>71.020017</ele>
        <time>2026-05-06T10:29:33.113Z</time>
      </trkpt>
      <trkpt lat="51.5841" lon="6.67841">
        <ele>70.87535</ele>
        <time>2026-05-06T10:29:36.103Z</time>
      </trkpt>
      <trkpt lat="51.5842" lon="6.67828">
        <ele>70.766659</ele>
        <time>2026-05-06T10:29:39.109Z</time>
      </trkpt>
      <trkpt lat="51.5843" lon="6.67815">
        <ele>70.660402</ele>
        <time>2026-05-06T10:29:42.101Z</time>
      </trkpt>
      <trkpt lat="51.5844" lon="6.67803">
        <ele>70.559436</ele>
        <time>2026-05-06T10:29:45.102Z</time>
      </trkpt>
      <trkpt lat="51.5845" lon="6.6779">
        <ele>70.455362</ele>
        <time>2026-05-06T10:29:48.101Z</time>
      </trkpt>
      <trkpt lat="51.5846" lon="6.67778">
        <ele>70.356336</ele>
        <time>2026-05-06T10:29:51.090Z</time>
      </trkpt>
      <trkpt lat="51.5847" lon="6.67766">
        <ele>70.252872</ele>
        <time>2026-05-06T10:29:54.113Z</time>
      </trkpt>
      <trkpt lat="51.58481" lon="6.67753">
        <ele>70.149014</ele>
        <time>2026-05-06T10:29:57.105Z</time>
      </trkpt>
      <trkpt lat="51.58491" lon="6.67741">
        <ele>70.046455</ele>
        <time>2026-05-06T10:30:00.119Z</time>
      </trkpt>
      <trkpt lat="51.58501" lon="6.67729">
        <ele>69.945524</ele>
        <time>2026-05-06T10:30:03.098Z</time>
      </trkpt>
      <trkpt lat="51.58511" lon="6.67717">
        <ele>69.844508</ele>
        <time>2026-05-06T10:30:06.118Z</time>
      </trkpt>
      <trkpt lat="51.58521" lon="6.67704">
        <ele>69.742639</ele>
        <time>2026-05-06T10:30:09.112Z</time>
      </trkpt>
      <trkpt lat="51.5853" lon="6.67692">
        <ele>69.64421</ele>
        <time>2026-05-06T10:30:12.112Z</time>
      </trkpt>
      <trkpt lat="51.5854" lon="6.6768">
        <ele>69.543607</ele>
        <time>2026-05-06T10:30:15.109Z</time>
      </trkpt>
      <trkpt lat="51.5855" lon="6.67668">
        <ele>69.444258</ele>
        <time>2026-05-06T10:30:18.113Z</time>
      </trkpt>
      <trkpt lat="51.5856" lon="6.67655">
        <ele>69.391738</ele>
        <time>2026-05-06T10:30:21.107Z</time>
      </trkpt>
      <trkpt lat="51.58569" lon="6.67642">
        <ele>69.384748</ele>
        <time>2026-05-06T10:30:24.099Z</time>
      </trkpt>
      <trkpt lat="51.58578" lon="6.67628">
        <ele>69.377997</ele>
        <time>2026-05-06T10:30:27.105Z</time>
      </trkpt>
      <trkpt lat="51.58585" lon="6.67612">
        <ele>69.371285</ele>
        <time>2026-05-06T10:30:30.105Z</time>
      </trkpt>
      <trkpt lat="51.58593" lon="6.67597">
        <ele>69.364593</ele>
        <time>2026-05-06T10:30:33.110Z</time>
      </trkpt>
      <trkpt lat="51.58599" lon="6.67581">
        <ele>69.358139</ele>
        <time>2026-05-06T10:30:36.107Z</time>
      </trkpt>
      <trkpt lat="51.58605" lon="6.67564">
        <ele>69.351446</ele>
        <time>2026-05-06T10:30:39.113Z</time>
      </trkpt>
      <trkpt lat="51.58611" lon="6.67547">
        <ele>69.34471</ele>
        <time>2026-05-06T10:30:42.106Z</time>
      </trkpt>
      <trkpt lat="51.58617" lon="6.67531">
        <ele>69.338438</ele>
        <time>2026-05-06T10:30:45.109Z</time>
      </trkpt>
      <trkpt lat="51.58623" lon="6.67516">
        <ele>69.332282</ele>
        <time>2026-05-06T10:30:48.102Z</time>
      </trkpt>
      <trkpt lat="51.58629" lon="6.67501">
        <ele>69.326093</ele>
        <time>2026-05-06T10:30:51.107Z</time>
      </trkpt>
      <trkpt lat="51.58636" lon="6.67486">
        <ele>69.319769</ele>
        <time>2026-05-06T10:30:54.109Z</time>
      </trkpt>
      <trkpt lat="51.58643" lon="6.67474">
        <ele>69.314224</ele>
        <time>2026-05-06T10:30:57.111Z</time>
      </trkpt>
      <trkpt lat="51.58649" lon="6.67463">
        <ele>69.309099</ele>
        <time>2026-05-06T10:31:00.103Z</time>
      </trkpt>
      <trkpt lat="51.58657" lon="6.67453">
        <ele>69.303761</ele>
        <time>2026-05-06T10:31:03.108Z</time>
      </trkpt>
      <trkpt lat="51.58668" lon="6.67439">
        <ele>69.292695</ele>
        <time>2026-05-06T10:31:37.107Z</time>
      </trkpt>
      <trkpt lat="51.58677" lon="6.67429">
        <ele>69.217278</ele>
        <time>2026-05-06T10:31:41.101Z</time>
      </trkpt>
      <trkpt lat="51.58686" lon="6.67421">
        <ele>69.14475</ele>
        <time>2026-05-06T10:31:44.111Z</time>
      </trkpt>
      <trkpt lat="51.58696" lon="6.67413">
        <ele>69.068991</ele>
        <time>2026-05-06T10:31:47.103Z</time>
      </trkpt>
      <trkpt lat="51.58708" lon="6.67406">
        <ele>68.986182</ele>
        <time>2026-05-06T10:31:50.112Z</time>
      </trkpt>
      <trkpt lat="51.58719" lon="6.67398">
        <ele>68.899894</ele>
        <time>2026-05-06T10:31:53.094Z</time>
      </trkpt>
      <trkpt lat="51.58731" lon="6.67392">
        <ele>68.816901</ele>
        <time>2026-05-06T10:31:56.108Z</time>
      </trkpt>
      <trkpt lat="51.58743" lon="6.67385">
        <ele>68.731078</ele>
        <time>2026-05-06T10:31:59.101Z</time>
      </trkpt>
      <trkpt lat="51.58755" lon="6.67376">
        <ele>68.641001</ele>
        <time>2026-05-06T10:32:02.114Z</time>
      </trkpt>
      <trkpt lat="51.58763" lon="6.67371">
        <ele>68.579463</ele>
        <time>2026-05-06T10:32:04.102Z</time>
      </trkpt>
      <trkpt lat="51.58772" lon="6.67364">
        <ele>68.51741</ele>
        <time>2026-05-06T10:32:06.107Z</time>
      </trkpt>
      <trkpt lat="51.5878" lon="6.67357">
        <ele>68.453081</ele>
        <time>2026-05-06T10:32:08.126Z</time>
      </trkpt>
      <trkpt lat="51.58789" lon="6.6735">
        <ele>68.387757</ele>
        <time>2026-05-06T10:32:10.103Z</time>
      </trkpt>
      <trkpt lat="51.58797" lon="6.67343">
        <ele>68.322835</ele>
        <time>2026-05-06T10:32:12.106Z</time>
      </trkpt>
      <trkpt lat="51.58805" lon="6.67334">
        <ele>68.253973</ele>
        <time>2026-05-06T10:32:14.119Z</time>
      </trkpt>
      <trkpt lat="51.58814" lon="6.67325">
        <ele>68.184893</ele>
        <time>2026-05-06T10:32:16.114Z</time>
      </trkpt>
      <trkpt lat="51.58822" lon="6.67317">
        <ele>68.119099</ele>
        <time>2026-05-06T10:32:18.110Z</time>
      </trkpt>
      <trkpt lat="51.58831" lon="6.67309">
        <ele>68.030866</ele>
        <time>2026-05-06T10:32:20.128Z</time>
      </trkpt>
      <trkpt lat="51.5884" lon="6.67301">
        <ele>67.896311</ele>
        <time>2026-05-06T10:32:22.102Z</time>
      </trkpt>
      <trkpt lat="51.58849" lon="6.67293">
        <ele>67.764406</ele>
        <time>2026-05-06T10:32:24.113Z</time>
      </trkpt>
      <trkpt lat="51.58857" lon="6.67284">
        <ele>67.632641</ele>
        <time>2026-05-06T10:32:26.113Z</time>
      </trkpt>
      <trkpt lat="51.58866" lon="6.67275">
        <ele>67.500011</ele>
        <time>2026-05-06T10:32:28.105Z</time>
      </trkpt>
      <trkpt lat="51.58875" lon="6.67267">
        <ele>67.368406</ele>
        <time>2026-05-06T10:32:30.100Z</time>
      </trkpt>
      <trkpt lat="51.58883" lon="6.67258">
        <ele>67.238327</ele>
        <time>2026-05-06T10:32:32.107Z</time>
      </trkpt>
      <trkpt lat="51.58892" lon="6.67249">
        <ele>67.105698</ele>
        <time>2026-05-06T10:32:34.112Z</time>
      </trkpt>
      <trkpt lat="51.58901" lon="6.67241">
        <ele>66.972565</ele>
        <time>2026-05-06T10:32:36.105Z</time>
      </trkpt>
      <trkpt lat="51.58909" lon="6.67232">
        <ele>66.840766</ele>
        <time>2026-05-06T10:32:38.116Z</time>
      </trkpt>
      <trkpt lat="51.58917" lon="6.67223">
        <ele>66.715971</ele>
        <time>2026-05-06T10:32:40.113Z</time>
      </trkpt>
      <trkpt lat="51.58925" lon="6.67215">
        <ele>66.590474</ele>
        <time>2026-05-06T10:32:42.117Z</time>
      </trkpt>
      <trkpt lat="51.58934" lon="6.67209">
        <ele>66.471435</ele>
        <time>2026-05-06T10:32:44.104Z</time>
      </trkpt>
      <trkpt lat="51.58942" lon="6.67202">
        <ele>66.352506</ele>
        <time>2026-05-06T10:32:46.101Z</time>
      </trkpt>
      <trkpt lat="51.58951" lon="6.67193">
        <ele>66.218349</ele>
        <time>2026-05-06T10:32:48.105Z</time>
      </trkpt>
      <trkpt lat="51.58959" lon="6.67185">
        <ele>66.091326</ele>
        <time>2026-05-06T10:32:50.100Z</time>
      </trkpt>
      <trkpt lat="51.58967" lon="6.67176">
        <ele>65.968223</ele>
        <time>2026-05-06T10:32:52.106Z</time>
      </trkpt>
      <trkpt lat="51.58978" lon="6.67166">
        <ele>65.794059</ele>
        <time>2026-05-06T10:32:55.105Z</time>
      </trkpt>
      <trkpt lat="51.58986" lon="6.67158">
        <ele>65.727727</ele>
        <time>2026-05-06T10:32:57.115Z</time>
      </trkpt>
      <trkpt lat="51.58998" lon="6.67146">
        <ele>65.694653</ele>
        <time>2026-05-06T10:33:00.117Z</time>
      </trkpt>
      <trkpt lat="51.59009" lon="6.67136">
        <ele>65.663038</ele>
        <time>2026-05-06T10:33:03.103Z</time>
      </trkpt>
      <trkpt lat="51.59017" lon="6.67128">
        <ele>65.640487</ele>
        <time>2026-05-06T10:33:05.106Z</time>
      </trkpt>
      <trkpt lat="51.59026" lon="6.67121">
        <ele>65.617577</ele>
        <time>2026-05-06T10:33:07.114Z</time>
      </trkpt>
      <trkpt lat="51.59034" lon="6.67114">
        <ele>65.595033</ele>
        <time>2026-05-06T10:33:09.107Z</time>
      </trkpt>
      <trkpt lat="51.59046" lon="6.67106">
        <ele>65.563465</ele>
        <time>2026-05-06T10:33:12.116Z</time>
      </trkpt>
      <trkpt lat="51.59057" lon="6.67098">
        <ele>65.535522</ele>
        <time>2026-05-06T10:33:15.094Z</time>
      </trkpt>
      <trkpt lat="51.59067" lon="6.67089">
        <ele>65.507378</ele>
        <time>2026-05-06T10:33:18.100Z</time>
      </trkpt>
      <trkpt lat="51.59077" lon="6.67083">
        <ele>65.481296</ele>
        <time>2026-05-06T10:33:21.116Z</time>
      </trkpt>
      <trkpt lat="51.59086" lon="6.67074">
        <ele>65.454925</ele>
        <time>2026-05-06T10:33:24.122Z</time>
      </trkpt>
      <trkpt lat="51.59097" lon="6.67066">
        <ele>65.426494</ele>
        <time>2026-05-06T10:33:27.107Z</time>
      </trkpt>
      <trkpt lat="51.59107" lon="6.67056">
        <ele>65.398055</ele>
        <time>2026-05-06T10:33:30.109Z</time>
      </trkpt>
      <trkpt lat="51.59117" lon="6.67046">
        <ele>65.369727</ele>
        <time>2026-05-06T10:33:33.110Z</time>
      </trkpt>
      <trkpt lat="51.59126" lon="6.67034">
        <ele>65.341524</ele>
        <time>2026-05-06T10:33:36.106Z</time>
      </trkpt>
      <trkpt lat="51.59136" lon="6.67023">
        <ele>65.312606</ele>
        <time>2026-05-06T10:33:39.107Z</time>
      </trkpt>
      <trkpt lat="51.59146" lon="6.6701">
        <ele>65.487675</ele>
        <time>2026-05-06T10:33:42.099Z</time>
      </trkpt>
      <trkpt lat="51.59156" lon="6.66998">
        <ele>65.718572</ele>
        <time>2026-05-06T10:33:45.107Z</time>
      </trkpt>
      <trkpt lat="51.59167" lon="6.66986">
        <ele>65.947823</ele>
        <time>2026-05-06T10:33:48.094Z</time>
      </trkpt>
      <trkpt lat="51.59178" lon="6.66975">
        <ele>66.18268</ele>
        <time>2026-05-06T10:33:51.113Z</time>
      </trkpt>
      <trkpt lat="51.59189" lon="6.66964">
        <ele>66.410716</ele>
        <time>2026-05-06T10:33:54.105Z</time>
      </trkpt>
      <trkpt lat="51.59199" lon="6.66953">
        <ele>66.633</ele>
        <time>2026-05-06T10:33:57.111Z</time>
      </trkpt>
      <trkpt lat="51.5921" lon="6.66941">
        <ele>66.86795</ele>
        <time>2026-05-06T10:34:00.114Z</time>
      </trkpt>
      <trkpt lat="51.59218" lon="6.66933">
        <ele>67.041481</ele>
        <time>2026-05-06T10:34:02.106Z</time>
      </trkpt>
      <trkpt lat="51.59226" lon="6.66927">
        <ele>67.204592</ele>
        <time>2026-05-06T10:34:04.113Z</time>
      </trkpt>
      <trkpt lat="51.59235" lon="6.66921">
        <ele>67.367807</ele>
        <time>2026-05-06T10:34:06.108Z</time>
      </trkpt>
      <trkpt lat="51.59243" lon="6.66915">
        <ele>67.532387</ele>
        <time>2026-05-06T10:34:08.104Z</time>
      </trkpt>
      <trkpt lat="51.59251" lon="6.66908">
        <ele>67.697599</ele>
        <time>2026-05-06T10:34:10.104Z</time>
      </trkpt>
      <trkpt lat="51.5926" lon="6.66903">
        <ele>67.870814</ele>
        <time>2026-05-06T10:34:12.107Z</time>
      </trkpt>
      <trkpt lat="51.59273" lon="6.66895">
        <ele>68.114375</ele>
        <time>2026-05-06T10:34:15.112Z</time>
      </trkpt>
      <trkpt lat="51.59281" lon="6.66888">
        <ele>68.282071</ele>
        <time>2026-05-06T10:34:17.102Z</time>
      </trkpt>
      <trkpt lat="51.5929" lon="6.66883">
        <ele>68.449598</ele>
        <time>2026-05-06T10:34:19.107Z</time>
      </trkpt>
      <trkpt lat="51.59302" lon="6.66877">
        <ele>68.459708</ele>
        <time>2026-05-06T10:34:22.108Z</time>
      </trkpt>
      <trkpt lat="51.59316" lon="6.66875">
        <ele>68.33844</ele>
        <time>2026-05-06T10:34:25.123Z</time>
      </trkpt>
      <trkpt lat="51.59325" lon="6.66878">
        <ele>68.255001</ele>
        <time>2026-05-06T10:34:27.108Z</time>
      </trkpt>
      <trkpt lat="51.59338" lon="6.66882">
        <ele>68.138381</ele>
        <time>2026-05-06T10:34:30.115Z</time>
      </trkpt>
      <trkpt lat="51.5935" lon="6.66884">
        <ele>68.030475</ele>
        <time>2026-05-06T10:34:33.106Z</time>
      </trkpt>
      <trkpt lat="51.59361" lon="6.66888">
        <ele>67.926902</ele>
        <time>2026-05-06T10:34:36.103Z</time>
      </trkpt>
      <trkpt lat="51.59372" lon="6.66892">
        <ele>67.817758</ele>
        <time>2026-05-06T10:34:39.104Z</time>
      </trkpt>
      <trkpt lat="51.59383" lon="6.66895">
        <ele>67.718651</ele>
        <time>2026-05-06T10:34:42.112Z</time>
      </trkpt>
      <trkpt lat="51.59393" lon="6.66897">
        <ele>67.626125</ele>
        <time>2026-05-06T10:34:45.109Z</time>
      </trkpt>
      <trkpt lat="51.59405" lon="6.66898">
        <ele>67.519523</ele>
        <time>2026-05-06T10:34:48.120Z</time>
      </trkpt>
      <trkpt lat="51.59417" lon="6.66897">
        <ele>67.413603</ele>
        <time>2026-05-06T10:34:51.124Z</time>
      </trkpt>
      <trkpt lat="51.59428" lon="6.66893">
        <ele>67.310602</ele>
        <time>2026-05-06T10:34:54.104Z</time>
      </trkpt>
      <trkpt lat="51.59439" lon="6.66886">
        <ele>67.202336</ele>
        <time>2026-05-06T10:34:57.106Z</time>
      </trkpt>
      <trkpt lat="51.5945" lon="6.66875">
        <ele>67.089235</ele>
        <time>2026-05-06T10:35:00.116Z</time>
      </trkpt>
      <trkpt lat="51.59459" lon="6.66864">
        <ele>66.986534</ele>
        <time>2026-05-06T10:35:03.107Z</time>
      </trkpt>
      <trkpt lat="51.59466" lon="6.66852">
        <ele>66.940333</ele>
        <time>2026-05-06T10:35:06.104Z</time>
      </trkpt>
      <trkpt lat="51.59473" lon="6.6684">
        <ele>67.073633</ele>
        <time>2026-05-06T10:35:09.102Z</time>
      </trkpt>
      <trkpt lat="51.59482" lon="6.66828">
        <ele>67.220367</ele>
        <time>2026-05-06T10:35:12.106Z</time>
      </trkpt>
      <trkpt lat="51.59488" lon="6.66815">
        <ele>67.357507</ele>
        <time>2026-05-06T10:35:15.101Z</time>
      </trkpt>
      <trkpt lat="51.59496" lon="6.66802">
        <ele>67.5103</ele>
        <time>2026-05-06T10:35:18.103Z</time>
      </trkpt>
      <trkpt lat="51.59506" lon="6.6679">
        <ele>67.668865</ele>
        <time>2026-05-06T10:35:21.094Z</time>
      </trkpt>
      <trkpt lat="51.59515" lon="6.6678">
        <ele>67.818921</ele>
        <time>2026-05-06T10:35:24.108Z</time>
      </trkpt>
      <trkpt lat="51.59526" lon="6.6677">
        <ele>67.979552</ele>
        <time>2026-05-06T10:35:27.112Z</time>
      </trkpt>
      <trkpt lat="51.59536" lon="6.66763">
        <ele>68.127008</ele>
        <time>2026-05-06T10:35:30.106Z</time>
      </trkpt>
      <trkpt lat="51.59546" lon="6.66753">
        <ele>68.278726</ele>
        <time>2026-05-06T10:35:33.099Z</time>
      </trkpt>
      <trkpt lat="51.59555" lon="6.66746">
        <ele>68.423613</ele>
        <time>2026-05-06T10:35:36.106Z</time>
      </trkpt>
      <trkpt lat="51.59566" lon="6.66738">
        <ele>68.581185</ele>
        <time>2026-05-06T10:35:39.102Z</time>
      </trkpt>
      <trkpt lat="51.59577" lon="6.66729">
        <ele>68.736895</ele>
        <time>2026-05-06T10:35:42.095Z</time>
      </trkpt>
      <trkpt lat="51.59587" lon="6.66719">
        <ele>68.890608</ele>
        <time>2026-05-06T10:35:45.103Z</time>
      </trkpt>
      <trkpt lat="51.59598" lon="6.6671">
        <ele>69.059806</ele>
        <time>2026-05-06T10:35:48.121Z</time>
      </trkpt>
      <trkpt lat="51.5961" lon="6.66699">
        <ele>69.236006</ele>
        <time>2026-05-06T10:35:51.097Z</time>
      </trkpt>
      <trkpt lat="51.59618" lon="6.66691">
        <ele>69.256331</ele>
        <time>2026-05-06T10:35:53.101Z</time>
      </trkpt>
      <trkpt lat="51.59628" lon="6.66681">
        <ele>69.186803</ele>
        <time>2026-05-06T10:35:56.108Z</time>
      </trkpt>
      <trkpt lat="51.59638" lon="6.66672">
        <ele>69.124318</ele>
        <time>2026-05-06T10:35:59.098Z</time>
      </trkpt>
      <trkpt lat="51.59648" lon="6.66662">
        <ele>69.05961</ele>
        <time>2026-05-06T10:36:02.098Z</time>
      </trkpt>
      <trkpt lat="51.59658" lon="6.66652">
        <ele>68.993093</ele>
        <time>2026-05-06T10:36:05.106Z</time>
      </trkpt>
      <trkpt lat="51.59669" lon="6.66641">
        <ele>68.92237</ele>
        <time>2026-05-06T10:36:08.106Z</time>
      </trkpt>
      <trkpt lat="51.59679" lon="6.66631">
        <ele>68.854747</ele>
        <time>2026-05-06T10:36:11.111Z</time>
      </trkpt>
      <trkpt lat="51.59689" lon="6.66618">
        <ele>68.784953</ele>
        <time>2026-05-06T10:36:14.115Z</time>
      </trkpt>
      <trkpt lat="51.59699" lon="6.66608">
        <ele>68.717611</ele>
        <time>2026-05-06T10:36:17.099Z</time>
      </trkpt>
      <trkpt lat="51.5971" lon="6.66599">
        <ele>68.647994</ele>
        <time>2026-05-06T10:36:20.113Z</time>
      </trkpt>
      <trkpt lat="51.5972" lon="6.66588">
        <ele>68.582256</ele>
        <time>2026-05-06T10:36:23.112Z</time>
      </trkpt>
      <trkpt lat="51.5973" lon="6.66578">
        <ele>68.515106</ele>
        <time>2026-05-06T10:36:26.098Z</time>
      </trkpt>
      <trkpt lat="51.59741" lon="6.66567">
        <ele>68.444204</ele>
        <time>2026-05-06T10:36:29.108Z</time>
      </trkpt>
      <trkpt lat="51.59751" lon="6.66556">
        <ele>68.37584</ele>
        <time>2026-05-06T10:36:32.110Z</time>
      </trkpt>
      <trkpt lat="51.59761" lon="6.66549">
        <ele>68.313078</ele>
        <time>2026-05-06T10:36:35.111Z</time>
      </trkpt>
      <trkpt lat="51.59772" lon="6.66538">
        <ele>68.241264</ele>
        <time>2026-05-06T10:36:38.102Z</time>
      </trkpt>
      <trkpt lat="51.59782" lon="6.66528">
        <ele>68.170643</ele>
        <time>2026-05-06T10:36:41.110Z</time>
      </trkpt>
      <trkpt lat="51.59791" lon="6.66518">
        <ele>68.103445</ele>
        <time>2026-05-06T10:36:44.099Z</time>
      </trkpt>
      <trkpt lat="51.59801" lon="6.66508">
        <ele>68.032824</ele>
        <time>2026-05-06T10:36:47.099Z</time>
      </trkpt>
      <trkpt lat="51.59812" lon="6.66498">
        <ele>67.960869</ele>
        <time>2026-05-06T10:36:50.108Z</time>
      </trkpt>
      <trkpt lat="51.59821" lon="6.66489">
        <ele>67.893216</ele>
        <time>2026-05-06T10:36:53.126Z</time>
      </trkpt>
      <trkpt lat="51.59832" lon="6.66482">
        <ele>67.822853</ele>
        <time>2026-05-06T10:36:56.108Z</time>
      </trkpt>
      <trkpt lat="51.59842" lon="6.66471">
        <ele>67.751727</ele>
        <time>2026-05-06T10:36:59.107Z</time>
      </trkpt>
      <trkpt lat="51.59852" lon="6.66459">
        <ele>67.673887</ele>
        <time>2026-05-06T10:37:02.107Z</time>
      </trkpt>
      <trkpt lat="51.59862" lon="6.66447">
        <ele>67.599934</ele>
        <time>2026-05-06T10:37:05.106Z</time>
      </trkpt>
      <trkpt lat="51.59872" lon="6.66436">
        <ele>67.530999</ele>
        <time>2026-05-06T10:37:08.101Z</time>
      </trkpt>
      <trkpt lat="51.59882" lon="6.66426">
        <ele>67.458669</ele>
        <time>2026-05-06T10:37:11.110Z</time>
      </trkpt>
      <trkpt lat="51.59892" lon="6.66415">
        <ele>67.388819</ele>
        <time>2026-05-06T10:37:14.103Z</time>
      </trkpt>
      <trkpt lat="51.59902" lon="6.66404">
        <ele>67.317486</ele>
        <time>2026-05-06T10:37:17.099Z</time>
      </trkpt>
      <trkpt lat="51.59911" lon="6.66393">
        <ele>67.248048</ele>
        <time>2026-05-06T10:37:20.112Z</time>
      </trkpt>
      <trkpt lat="51.5992" lon="6.6638">
        <ele>67.161179</ele>
        <time>2026-05-06T10:37:23.117Z</time>
      </trkpt>
      <trkpt lat="51.5993" lon="6.66371">
        <ele>67.060984</ele>
        <time>2026-05-06T10:37:26.094Z</time>
      </trkpt>
      <trkpt lat="51.59939" lon="6.6636">
        <ele>66.96262</ele>
        <time>2026-05-06T10:37:29.110Z</time>
      </trkpt>
      <trkpt lat="51.59948" lon="6.66352">
        <ele>66.86774</ele>
        <time>2026-05-06T10:37:32.109Z</time>
      </trkpt>
      <trkpt lat="51.59957" lon="6.66342">
        <ele>66.767111</ele>
        <time>2026-05-06T10:37:35.103Z</time>
      </trkpt>
      <trkpt lat="51.59967" lon="6.66331">
        <ele>66.661541</ele>
        <time>2026-05-06T10:37:38.118Z</time>
      </trkpt>
      <trkpt lat="51.59977" lon="6.66318">
        <ele>66.553652</ele>
        <time>2026-05-06T10:37:41.098Z</time>
      </trkpt>
      <trkpt lat="51.59986" lon="6.66306">
        <ele>66.44334</ele>
        <time>2026-05-06T10:37:44.104Z</time>
      </trkpt>
      <trkpt lat="51.59995" lon="6.66292">
        <ele>66.33141</ele>
        <time>2026-05-06T10:37:47.098Z</time>
      </trkpt>
      <trkpt lat="51.60005" lon="6.66279">
        <ele>66.219368</ele>
        <time>2026-05-06T10:37:50.100Z</time>
      </trkpt>
      <trkpt lat="51.60016" lon="6.66267">
        <ele>66.106202</ele>
        <time>2026-05-06T10:37:53.112Z</time>
      </trkpt>
      <trkpt lat="51.60025" lon="6.66253">
        <ele>65.994682</ele>
        <time>2026-05-06T10:37:56.108Z</time>
      </trkpt>
      <trkpt lat="51.60034" lon="6.66238">
        <ele>65.877913</ele>
        <time>2026-05-06T10:37:59.106Z</time>
      </trkpt>
      <trkpt lat="51.60045" lon="6.66225">
        <ele>65.759324</ele>
        <time>2026-05-06T10:38:02.100Z</time>
      </trkpt>
      <trkpt lat="51.60055" lon="6.66211">
        <ele>65.642045</ele>
        <time>2026-05-06T10:38:05.102Z</time>
      </trkpt>
      <trkpt lat="51.60065" lon="6.66198">
        <ele>65.724214</ele>
        <time>2026-05-06T10:38:08.137Z</time>
      </trkpt>
      <trkpt lat="51.60075" lon="6.66184">
        <ele>65.861775</ele>
        <time>2026-05-06T10:38:11.103Z</time>
      </trkpt>
      <trkpt lat="51.60084" lon="6.66169">
        <ele>65.997839</ele>
        <time>2026-05-06T10:38:14.108Z</time>
      </trkpt>
      <trkpt lat="51.60093" lon="6.66156">
        <ele>66.130678</ele>
        <time>2026-05-06T10:38:17.108Z</time>
      </trkpt>
      <trkpt lat="51.60103" lon="6.66144">
        <ele>66.261817</ele>
        <time>2026-05-06T10:38:20.107Z</time>
      </trkpt>
      <trkpt lat="51.60112" lon="6.66133">
        <ele>66.382609</ele>
        <time>2026-05-06T10:38:23.113Z</time>
      </trkpt>
      <trkpt lat="51.60119" lon="6.66122">
        <ele>66.489024</ele>
        <time>2026-05-06T10:38:26.139Z</time>
      </trkpt>
      <trkpt lat="51.60127" lon="6.66112">
        <ele>66.596916</ele>
        <time>2026-05-06T10:38:30.073Z</time>
      </trkpt>
      <trkpt lat="51.60136" lon="6.66106">
        <ele>66.701437</ele>
        <time>2026-05-06T10:38:35.096Z</time>
      </trkpt>
      <trkpt lat="51.60143" lon="6.66094">
        <ele>66.805541</ele>
        <time>2026-05-06T10:38:42.063Z</time>
      </trkpt>
      <trkpt lat="51.6015" lon="6.66083">
        <ele>66.912569</ele>
        <time>2026-05-06T10:38:46.074Z</time>
      </trkpt>
      <trkpt lat="51.60157" lon="6.66067">
        <ele>67.040244</ele>
        <time>2026-05-06T10:38:50.112Z</time>
      </trkpt>
      <trkpt lat="51.60164" lon="6.66054">
        <ele>67.157916</ele>
        <time>2026-05-06T10:38:54.114Z</time>
      </trkpt>
      <trkpt lat="51.60171" lon="6.66043">
        <ele>67.262309</ele>
        <time>2026-05-06T10:38:58.107Z</time>
      </trkpt>
      <trkpt lat="51.60178" lon="6.66032">
        <ele>67.361167</ele>
        <time>2026-05-06T10:39:02.115Z</time>
      </trkpt>
      <trkpt lat="51.60185" lon="6.6602">
        <ele>67.474733</ele>
        <time>2026-05-06T10:39:07.111Z</time>
      </trkpt>
      <trkpt lat="51.60192" lon="6.66008">
        <ele>67.535936</ele>
        <time>2026-05-06T10:39:12.114Z</time>
      </trkpt>
      <trkpt lat="51.60198" lon="6.65997">
        <ele>67.543038</ele>
        <time>2026-05-06T10:39:16.119Z</time>
      </trkpt>
      <trkpt lat="51.60205" lon="6.65985">
        <ele>67.550741</ele>
        <time>2026-05-06T10:39:20.138Z</time>
      </trkpt>
      <trkpt lat="51.60211" lon="6.65972">
        <ele>67.558536</ele>
        <time>2026-05-06T10:39:24.105Z</time>
      </trkpt>
      <trkpt lat="51.60219" lon="6.65961">
        <ele>67.566671</ele>
        <time>2026-05-06T10:39:28.108Z</time>
      </trkpt>
      <trkpt lat="51.60227" lon="6.65949">
        <ele>67.575197</ele>
        <time>2026-05-06T10:39:32.112Z</time>
      </trkpt>
      <trkpt lat="51.60234" lon="6.65935">
        <ele>67.583721</ele>
        <time>2026-05-06T10:39:36.106Z</time>
      </trkpt>
      <trkpt lat="51.60242" lon="6.6592">
        <ele>67.593459</ele>
        <time>2026-05-06T10:39:40.094Z</time>
      </trkpt>
      <trkpt lat="51.6025" lon="6.6591">
        <ele>67.601138</ele>
        <time>2026-05-06T10:39:43.111Z</time>
      </trkpt>
      <trkpt lat="51.60257" lon="6.65897">
        <ele>67.609706</ele>
        <time>2026-05-06T10:39:46.109Z</time>
      </trkpt>
      <trkpt lat="51.60264" lon="6.65882">
        <ele>67.618642</ele>
        <time>2026-05-06T10:39:49.109Z</time>
      </trkpt>
      <trkpt lat="51.60271" lon="6.65867">
        <ele>67.62755</ele>
        <time>2026-05-06T10:39:52.104Z</time>
      </trkpt>
      <trkpt lat="51.60278" lon="6.65854">
        <ele>67.636111</ele>
        <time>2026-05-06T10:39:55.096Z</time>
      </trkpt>
      <trkpt lat="51.60286" lon="6.65839">
        <ele>67.645369</ele>
        <time>2026-05-06T10:39:58.100Z</time>
      </trkpt>
      <trkpt lat="51.60294" lon="6.65825">
        <ele>67.654942</ele>
        <time>2026-05-06T10:40:01.103Z</time>
      </trkpt>
      <trkpt lat="51.60303" lon="6.6581">
        <ele>67.66473</ele>
        <time>2026-05-06T10:40:04.103Z</time>
      </trkpt>
      <trkpt lat="51.60311" lon="6.65794">
        <ele>67.680636</ele>
        <time>2026-05-06T10:40:07.096Z</time>
      </trkpt>
      <trkpt lat="51.60318" lon="6.65779">
        <ele>67.71573</ele>
        <time>2026-05-06T10:40:10.105Z</time>
      </trkpt>
      <trkpt lat="51.60327" lon="6.65763">
        <ele>67.750874</ele>
        <time>2026-05-06T10:40:13.105Z</time>
      </trkpt>
      <trkpt lat="51.60335" lon="6.65748">
        <ele>67.78574</ele>
        <time>2026-05-06T10:40:16.114Z</time>
      </trkpt>
      <trkpt lat="51.60343" lon="6.65733">
        <ele>67.8201</ele>
        <time>2026-05-06T10:40:19.118Z</time>
      </trkpt>
      <trkpt lat="51.60351" lon="6.65719">
        <ele>67.854778</ele>
        <time>2026-05-06T10:40:22.072Z</time>
      </trkpt>
      <trkpt lat="51.60359" lon="6.65705">
        <ele>67.888883</ele>
        <time>2026-05-06T10:40:25.079Z</time>
      </trkpt>
      <trkpt lat="51.60368" lon="6.6569">
        <ele>67.923447</ele>
        <time>2026-05-06T10:40:28.071Z</time>
      </trkpt>
      <trkpt lat="51.60375" lon="6.65676">
        <ele>67.956407</ele>
        <time>2026-05-06T10:40:31.074Z</time>
      </trkpt>
      <trkpt lat="51.60384" lon="6.65662">
        <ele>67.990778</ele>
        <time>2026-05-06T10:40:34.074Z</time>
      </trkpt>
      <trkpt lat="51.60392" lon="6.65648">
        <ele>68.024457</ele>
        <time>2026-05-06T10:40:37.076Z</time>
      </trkpt>
      <trkpt lat="51.60401" lon="6.65634">
        <ele>68.058687</ele>
        <time>2026-05-06T10:40:40.090Z</time>
      </trkpt>
      <trkpt lat="51.60409" lon="6.65619">
        <ele>68.093171</ele>
        <time>2026-05-06T10:40:43.074Z</time>
      </trkpt>
      <trkpt lat="51.60418" lon="6.65607">
        <ele>68.125593</ele>
        <time>2026-05-06T10:40:46.076Z</time>
      </trkpt>
      <trkpt lat="51.60426" lon="6.65594">
        <ele>68.158018</ele>
        <time>2026-05-06T10:40:49.104Z</time>
      </trkpt>
      <trkpt lat="51.60435" lon="6.65581">
        <ele>68.185171</ele>
        <time>2026-05-06T10:40:52.115Z</time>
      </trkpt>
      <trkpt lat="51.60443" lon="6.65567">
        <ele>68.202785</ele>
        <time>2026-05-06T10:40:55.113Z</time>
      </trkpt>
      <trkpt lat="51.60452" lon="6.65553">
        <ele>68.221411</ele>
        <time>2026-05-06T10:40:58.106Z</time>
      </trkpt>
      <trkpt lat="51.60461" lon="6.65541">
        <ele>68.239021</ele>
        <time>2026-05-06T10:41:01.102Z</time>
      </trkpt>
      <trkpt lat="51.60471" lon="6.65529">
        <ele>68.256734</ele>
        <time>2026-05-06T10:41:04.109Z</time>
      </trkpt>
      <trkpt lat="51.6048" lon="6.65517">
        <ele>68.274491</ele>
        <time>2026-05-06T10:41:07.098Z</time>
      </trkpt>
      <trkpt lat="51.60489" lon="6.65504">
        <ele>68.292201</ele>
        <time>2026-05-06T10:41:10.117Z</time>
      </trkpt>
      <trkpt lat="51.60498" lon="6.65492">
        <ele>68.310023</ele>
        <time>2026-05-06T10:41:13.109Z</time>
      </trkpt>
      <trkpt lat="51.60508" lon="6.6548">
        <ele>68.32778</ele>
        <time>2026-05-06T10:41:16.102Z</time>
      </trkpt>
      <trkpt lat="51.60517" lon="6.65469">
        <ele>68.345035</ele>
        <time>2026-05-06T10:41:19.099Z</time>
      </trkpt>
      <trkpt lat="51.60527" lon="6.65457">
        <ele>68.36297</ele>
        <time>2026-05-06T10:41:22.111Z</time>
      </trkpt>
      <trkpt lat="51.60536" lon="6.65446">
        <ele>68.38052</ele>
        <time>2026-05-06T10:41:25.115Z</time>
      </trkpt>
      <trkpt lat="51.60545" lon="6.65434">
        <ele>68.397876</ele>
        <time>2026-05-06T10:41:28.118Z</time>
      </trkpt>
      <trkpt lat="51.60555" lon="6.65424">
        <ele>68.415145</ele>
        <time>2026-05-06T10:41:31.097Z</time>
      </trkpt>
      <trkpt lat="51.60565" lon="6.65413">
        <ele>68.432823</ele>
        <time>2026-05-06T10:41:34.107Z</time>
      </trkpt>
      <trkpt lat="51.60575" lon="6.65405">
        <ele>68.411939</ele>
        <time>2026-05-06T10:41:37.090Z</time>
      </trkpt>
      <trkpt lat="51.60585" lon="6.65397">
        <ele>68.310404</ele>
        <time>2026-05-06T10:41:40.115Z</time>
      </trkpt>
      <trkpt lat="51.60596" lon="6.65389">
        <ele>68.205003</ele>
        <time>2026-05-06T10:41:43.104Z</time>
      </trkpt>
      <trkpt lat="51.60607" lon="6.65381">
        <ele>68.099832</ele>
        <time>2026-05-06T10:41:46.123Z</time>
      </trkpt>
      <trkpt lat="51.60618" lon="6.65373">
        <ele>67.992105</ele>
        <time>2026-05-06T10:41:49.109Z</time>
      </trkpt>
      <trkpt lat="51.60628" lon="6.65365">
        <ele>67.886935</ele>
        <time>2026-05-06T10:41:52.110Z</time>
      </trkpt>
      <trkpt lat="51.6064" lon="6.65358">
        <ele>67.774899</ele>
        <time>2026-05-06T10:41:55.091Z</time>
      </trkpt>
      <trkpt lat="51.60652" lon="6.65352">
        <ele>67.663243</ele>
        <time>2026-05-06T10:41:58.108Z</time>
      </trkpt>
      <trkpt lat="51.60664" lon="6.65347">
        <ele>67.549178</ele>
        <time>2026-05-06T10:42:01.110Z</time>
      </trkpt>
      <trkpt lat="51.60677" lon="6.65342">
        <ele>67.435022</ele>
        <time>2026-05-06T10:42:04.102Z</time>
      </trkpt>
      <trkpt lat="51.60687" lon="6.65336">
        <ele>67.333655</ele>
        <time>2026-05-06T10:42:07.103Z</time>
      </trkpt>
      <trkpt lat="51.60698" lon="6.6533">
        <ele>67.230185</ele>
        <time>2026-05-06T10:42:10.110Z</time>
      </trkpt>
      <trkpt lat="51.60709" lon="6.65325">
        <ele>67.128232</ele>
        <time>2026-05-06T10:42:13.098Z</time>
      </trkpt>
      <trkpt lat="51.60719" lon="6.6532">
        <ele>67.032922</ele>
        <time>2026-05-06T10:42:16.103Z</time>
      </trkpt>
      <trkpt lat="51.60729" lon="6.65314">
        <ele>66.93812</ele>
        <time>2026-05-06T10:42:19.105Z</time>
      </trkpt>
      <trkpt lat="51.6074" lon="6.65309">
        <ele>66.842486</ele>
        <time>2026-05-06T10:42:22.107Z</time>
      </trkpt>
      <trkpt lat="51.6075" lon="6.65304">
        <ele>66.832319</ele>
        <time>2026-05-06T10:42:25.102Z</time>
      </trkpt>
      <trkpt lat="51.6076" lon="6.65299">
        <ele>66.830647</ele>
        <time>2026-05-06T10:42:28.102Z</time>
      </trkpt>
      <trkpt lat="51.60769" lon="6.65295">
        <ele>66.828976</ele>
        <time>2026-05-06T10:42:31.103Z</time>
      </trkpt>
      <trkpt lat="51.60779" lon="6.6529">
        <ele>66.827343</ele>
        <time>2026-05-06T10:42:34.105Z</time>
      </trkpt>
      <trkpt lat="51.60789" lon="6.65285">
        <ele>66.825681</ele>
        <time>2026-05-06T10:42:37.098Z</time>
      </trkpt>
      <trkpt lat="51.60799" lon="6.65281">
        <ele>66.823944</ele>
        <time>2026-05-06T10:42:40.118Z</time>
      </trkpt>
      <trkpt lat="51.60809" lon="6.65276">
        <ele>66.822216</ele>
        <time>2026-05-06T10:42:43.109Z</time>
      </trkpt>
      <trkpt lat="51.60819" lon="6.65271">
        <ele>66.820476</ele>
        <time>2026-05-06T10:42:46.121Z</time>
      </trkpt>
      <trkpt lat="51.6083" lon="6.65267">
        <ele>66.818662</ele>
        <time>2026-05-06T10:42:49.115Z</time>
      </trkpt>
      <trkpt lat="51.60841" lon="6.65262">
        <ele>66.816816</ele>
        <time>2026-05-06T10:42:52.114Z</time>
      </trkpt>
      <trkpt lat="51.60852" lon="6.65257">
        <ele>66.814941</ele>
        <time>2026-05-06T10:42:55.111Z</time>
      </trkpt>
      <trkpt lat="51.60862" lon="6.65253">
        <ele>66.813265</ele>
        <time>2026-05-06T10:42:58.110Z</time>
      </trkpt>
      <trkpt lat="51.60871" lon="6.65248">
        <ele>66.811557</ele>
        <time>2026-05-06T10:43:01.101Z</time>
      </trkpt>
      <trkpt lat="51.60881" lon="6.65243">
        <ele>66.809856</ele>
        <time>2026-05-06T10:43:04.111Z</time>
      </trkpt>
      <trkpt lat="51.6089" lon="6.65239">
        <ele>66.808351</ele>
        <time>2026-05-06T10:43:07.095Z</time>
      </trkpt>
      <trkpt lat="51.60901" lon="6.65234">
        <ele>66.806471</ele>
        <time>2026-05-06T10:43:11.106Z</time>
      </trkpt>
      <trkpt lat="51.60911" lon="6.6523">
        <ele>66.804826</ele>
        <time>2026-05-06T10:43:15.112Z</time>
      </trkpt>
      <trkpt lat="51.60926" lon="6.65224">
        <ele>66.801549</ele>
        <time>2026-05-06T10:43:41.099Z</time>
      </trkpt>
      <trkpt lat="51.60936" lon="6.65219">
        <ele>66.799267</ele>
        <time>2026-05-06T10:43:45.106Z</time>
      </trkpt>
      <trkpt lat="51.60945" lon="6.65214">
        <ele>66.797129</ele>
        <time>2026-05-06T10:43:48.107Z</time>
      </trkpt>
      <trkpt lat="51.60955" lon="6.65208">
        <ele>66.79477</ele>
        <time>2026-05-06T10:43:51.103Z</time>
      </trkpt>
      <trkpt lat="51.60965" lon="6.65204">
        <ele>66.792469</ele>
        <time>2026-05-06T10:43:54.110Z</time>
      </trkpt>
      <trkpt lat="51.60976" lon="6.652">
        <ele>66.789987</ele>
        <time>2026-05-06T10:43:57.112Z</time>
      </trkpt>
      <trkpt lat="51.60985" lon="6.65195">
        <ele>66.787794</ele>
        <time>2026-05-06T10:44:00.122Z</time>
      </trkpt>
      <trkpt lat="51.60995" lon="6.6519">
        <ele>66.7855</ele>
        <time>2026-05-06T10:44:03.114Z</time>
      </trkpt>
      <trkpt lat="51.61006" lon="6.65186">
        <ele>66.78312</ele>
        <time>2026-05-06T10:44:06.082Z</time>
      </trkpt>
      <trkpt lat="51.61016" lon="6.65182">
        <ele>66.780695</ele>
        <time>2026-05-06T10:44:09.102Z</time>
      </trkpt>
      <trkpt lat="51.61026" lon="6.65177">
        <ele>66.778359</ele>
        <time>2026-05-06T10:44:12.102Z</time>
      </trkpt>
      <trkpt lat="51.61037" lon="6.65172">
        <ele>66.775866</ele>
        <time>2026-05-06T10:44:15.097Z</time>
      </trkpt>
      <trkpt lat="51.61048" lon="6.65167">
        <ele>66.773406</ele>
        <time>2026-05-06T10:44:18.106Z</time>
      </trkpt>
      <trkpt lat="51.61059" lon="6.65161">
        <ele>66.770773</ele>
        <time>2026-05-06T10:44:21.098Z</time>
      </trkpt>
      <trkpt lat="51.6107" lon="6.65154">
        <ele>66.768104</ele>
        <time>2026-05-06T10:44:24.107Z</time>
      </trkpt>
      <trkpt lat="51.61081" lon="6.65149">
        <ele>66.765557</ele>
        <time>2026-05-06T10:44:27.104Z</time>
      </trkpt>
      <trkpt lat="51.61093" lon="6.65144">
        <ele>66.792581</ele>
        <time>2026-05-06T10:44:30.100Z</time>
      </trkpt>
      <trkpt lat="51.61104" lon="6.65139">
        <ele>66.841385</ele>
        <time>2026-05-06T10:44:33.105Z</time>
      </trkpt>
      <trkpt lat="51.61116" lon="6.65133">
        <ele>66.889139</ele>
        <time>2026-05-06T10:44:36.105Z</time>
      </trkpt>
      <trkpt lat="51.61127" lon="6.65128">
        <ele>66.93599</ele>
        <time>2026-05-06T10:44:39.110Z</time>
      </trkpt>
      <trkpt lat="51.61138" lon="6.65123">
        <ele>66.982772</ele>
        <time>2026-05-06T10:44:42.108Z</time>
      </trkpt>
      <trkpt lat="51.6115" lon="6.65117">
        <ele>67.030526</ele>
        <time>2026-05-06T10:44:45.114Z</time>
      </trkpt>
      <trkpt lat="51.61161" lon="6.65113">
        <ele>67.07492</ele>
        <time>2026-05-06T10:44:48.108Z</time>
      </trkpt>
      <trkpt lat="51.61171" lon="6.65109">
        <ele>67.118237</ele>
        <time>2026-05-06T10:44:51.102Z</time>
      </trkpt>
      <trkpt lat="51.61183" lon="6.65103">
        <ele>67.166661</ele>
        <time>2026-05-06T10:44:54.112Z</time>
      </trkpt>
      <trkpt lat="51.61194" lon="6.65097">
        <ele>67.213493</ele>
        <time>2026-05-06T10:44:57.107Z</time>
      </trkpt>
      <trkpt lat="51.61205" lon="6.65092">
        <ele>67.260413</ele>
        <time>2026-05-06T10:45:00.111Z</time>
      </trkpt>
      <trkpt lat="51.61216" lon="6.65087">
        <ele>67.3061</ele>
        <time>2026-05-06T10:45:03.104Z</time>
      </trkpt>
      <trkpt lat="51.61228" lon="6.65082">
        <ele>67.352236</ele>
        <time>2026-05-06T10:45:06.121Z</time>
      </trkpt>
      <trkpt lat="51.61239" lon="6.65076">
        <ele>67.399221</ele>
        <time>2026-05-06T10:45:09.106Z</time>
      </trkpt>
      <trkpt lat="51.6125" lon="6.65071">
        <ele>67.444405</ele>
        <time>2026-05-06T10:45:12.105Z</time>
      </trkpt>
      <trkpt lat="51.61261" lon="6.65065">
        <ele>67.488564</ele>
        <time>2026-05-06T10:45:15.118Z</time>
      </trkpt>
      <trkpt lat="51.61272" lon="6.6506">
        <ele>67.523845</ele>
        <time>2026-05-06T10:45:18.121Z</time>
      </trkpt>
      <trkpt lat="51.61283" lon="6.65054">
        <ele>67.55777</ele>
        <time>2026-05-06T10:45:21.104Z</time>
      </trkpt>
      <trkpt lat="51.61295" lon="6.65048">
        <ele>67.594356</ele>
        <time>2026-05-06T10:45:24.111Z</time>
      </trkpt>
      <trkpt lat="51.61307" lon="6.65044">
        <ele>67.630633</ele>
        <time>2026-05-06T10:45:27.112Z</time>
      </trkpt>
      <trkpt lat="51.61318" lon="6.65041">
        <ele>67.664205</ele>
        <time>2026-05-06T10:45:30.114Z</time>
      </trkpt>
      <trkpt lat="51.61329" lon="6.65035">
        <ele>67.699772</ele>
        <time>2026-05-06T10:45:33.106Z</time>
      </trkpt>
      <trkpt lat="51.6134" lon="6.65029">
        <ele>67.734312</ele>
        <time>2026-05-06T10:45:36.106Z</time>
      </trkpt>
      <trkpt lat="51.61351" lon="6.65025">
        <ele>67.768425</ele>
        <time>2026-05-06T10:45:39.106Z</time>
      </trkpt>
      <trkpt lat="51.61362" lon="6.6502">
        <ele>67.802533</ele>
        <time>2026-05-06T10:45:42.099Z</time>
      </trkpt>
      <trkpt lat="51.61373" lon="6.65014">
        <ele>67.83685</ele>
        <time>2026-05-06T10:45:45.103Z</time>
      </trkpt>
      <trkpt lat="51.61384" lon="6.6501">
        <ele>67.8711</ele>
        <time>2026-05-06T10:45:48.109Z</time>
      </trkpt>
      <trkpt lat="51.61396" lon="6.65004">
        <ele>67.907174</ele>
        <time>2026-05-06T10:45:51.108Z</time>
      </trkpt>
      <trkpt lat="51.61407" lon="6.64998">
        <ele>67.943026</ele>
        <time>2026-05-06T10:45:54.106Z</time>
      </trkpt>
      <trkpt lat="51.61418" lon="6.64992">
        <ele>67.977793</ele>
        <time>2026-05-06T10:45:57.106Z</time>
      </trkpt>
      <trkpt lat="51.6143" lon="6.64987">
        <ele>68.012343</ele>
        <time>2026-05-06T10:46:00.100Z</time>
      </trkpt>
      <trkpt lat="51.61441" lon="6.64982">
        <ele>68.026763</ele>
        <time>2026-05-06T10:46:03.094Z</time>
      </trkpt>
      <trkpt lat="51.61452" lon="6.64977">
        <ele>68.037996</ele>
        <time>2026-05-06T10:46:06.104Z</time>
      </trkpt>
      <trkpt lat="51.61463" lon="6.64971">
        <ele>68.048956</ele>
        <time>2026-05-06T10:46:09.110Z</time>
      </trkpt>
      <trkpt lat="51.61474" lon="6.64967">
        <ele>68.059778</ele>
        <time>2026-05-06T10:46:12.098Z</time>
      </trkpt>
      <trkpt lat="51.61485" lon="6.64961">
        <ele>68.070717</ele>
        <time>2026-05-06T10:46:15.099Z</time>
      </trkpt>
      <trkpt lat="51.61496" lon="6.64956">
        <ele>68.08126</ele>
        <time>2026-05-06T10:46:18.106Z</time>
      </trkpt>
      <trkpt lat="51.61507" lon="6.64951">
        <ele>68.092294</ele>
        <time>2026-05-06T10:46:21.107Z</time>
      </trkpt>
      <trkpt lat="51.61519" lon="6.64946">
        <ele>68.103343</ele>
        <time>2026-05-06T10:46:24.108Z</time>
      </trkpt>
      <trkpt lat="51.6153" lon="6.64941">
        <ele>68.114394</ele>
        <time>2026-05-06T10:46:27.118Z</time>
      </trkpt>
      <trkpt lat="51.61541" lon="6.64936">
        <ele>68.125429</ele>
        <time>2026-05-06T10:46:30.072Z</time>
      </trkpt>
      <trkpt lat="51.61552" lon="6.6493">
        <ele>68.136712</ele>
        <time>2026-05-06T10:46:33.084Z</time>
      </trkpt>
      <trkpt lat="51.61563" lon="6.64924">
        <ele>68.147923</ele>
        <time>2026-05-06T10:46:36.082Z</time>
      </trkpt>
      <trkpt lat="51.61575" lon="6.64919">
        <ele>68.158987</ele>
        <time>2026-05-06T10:46:39.072Z</time>
      </trkpt>
      <trkpt lat="51.61586" lon="6.64914">
        <ele>68.170311</ele>
        <time>2026-05-06T10:46:42.074Z</time>
      </trkpt>
      <trkpt lat="51.61598" lon="6.64908">
        <ele>68.18171</ele>
        <time>2026-05-06T10:46:45.073Z</time>
      </trkpt>
      <trkpt lat="51.6161" lon="6.64904">
        <ele>68.205818</ele>
        <time>2026-05-06T10:46:48.080Z</time>
      </trkpt>
      <trkpt lat="51.61621" lon="6.64898">
        <ele>68.243389</ele>
        <time>2026-05-06T10:46:51.077Z</time>
      </trkpt>
      <trkpt lat="51.61631" lon="6.64893">
        <ele>68.275655</ele>
        <time>2026-05-06T10:46:54.083Z</time>
      </trkpt>
      <trkpt lat="51.61643" lon="6.64888">
        <ele>68.312367</ele>
        <time>2026-05-06T10:46:57.069Z</time>
      </trkpt>
      <trkpt lat="51.61654" lon="6.64882">
        <ele>68.348359</ele>
        <time>2026-05-06T10:47:00.074Z</time>
      </trkpt>
      <trkpt lat="51.61665" lon="6.64877">
        <ele>68.384589</ele>
        <time>2026-05-06T10:47:03.067Z</time>
      </trkpt>
      <trkpt lat="51.61677" lon="6.64871">
        <ele>68.420177</ele>
        <time>2026-05-06T10:47:06.066Z</time>
      </trkpt>
      <trkpt lat="51.61688" lon="6.64866">
        <ele>68.457673</ele>
        <time>2026-05-06T10:47:09.073Z</time>
      </trkpt>
      <trkpt lat="51.617" lon="6.64862">
        <ele>68.494636</ele>
        <time>2026-05-06T10:47:12.082Z</time>
      </trkpt>
      <trkpt lat="51.61711" lon="6.64856">
        <ele>68.531505</ele>
        <time>2026-05-06T10:47:15.075Z</time>
      </trkpt>
      <trkpt lat="51.61722" lon="6.64852">
        <ele>68.565559</ele>
        <time>2026-05-06T10:47:18.076Z</time>
      </trkpt>
      <trkpt lat="51.61734" lon="6.64846">
        <ele>68.601735</ele>
        <time>2026-05-06T10:47:21.079Z</time>
      </trkpt>
      <trkpt lat="51.61745" lon="6.64841">
        <ele>68.639432</ele>
        <time>2026-05-06T10:47:24.070Z</time>
      </trkpt>
      <trkpt lat="51.61757" lon="6.64836">
        <ele>68.676654</ele>
        <time>2026-05-06T10:47:27.073Z</time>
      </trkpt>
      <trkpt lat="51.61768" lon="6.64831">
        <ele>68.712224</ele>
        <time>2026-05-06T10:47:30.071Z</time>
      </trkpt>
      <trkpt lat="51.6178" lon="6.64826">
        <ele>68.726943</ele>
        <time>2026-05-06T10:47:33.071Z</time>
      </trkpt>
      <trkpt lat="51.61792" lon="6.64821">
        <ele>68.682666</ele>
        <time>2026-05-06T10:47:36.078Z</time>
      </trkpt>
      <trkpt lat="51.61803" lon="6.6482">
        <ele>68.641322</ele>
        <time>2026-05-06T10:47:39.072Z</time>
      </trkpt>
      <trkpt lat="51.61814" lon="6.64818">
        <ele>68.602715</ele>
        <time>2026-05-06T10:47:42.079Z</time>
      </trkpt>
      <trkpt lat="51.61824" lon="6.64811">
        <ele>68.560299</ele>
        <time>2026-05-06T10:47:45.079Z</time>
      </trkpt>
      <trkpt lat="51.61836" lon="6.64803">
        <ele>68.514296</ele>
        <time>2026-05-06T10:47:48.075Z</time>
      </trkpt>
      <trkpt lat="51.61847" lon="6.64796">
        <ele>68.47075</ele>
        <time>2026-05-06T10:47:51.066Z</time>
      </trkpt>
      <trkpt lat="51.61859" lon="6.6479">
        <ele>68.425768</ele>
        <time>2026-05-06T10:47:54.074Z</time>
      </trkpt>
      <trkpt lat="51.6187" lon="6.64785">
        <ele>68.382667</ele>
        <time>2026-05-06T10:47:57.077Z</time>
      </trkpt>
      <trkpt lat="51.61881" lon="6.6478">
        <ele>68.343116</ele>
        <time>2026-05-06T10:48:00.084Z</time>
      </trkpt>
      <trkpt lat="51.61892" lon="6.64773">
        <ele>68.29696</ele>
        <time>2026-05-06T10:48:03.080Z</time>
      </trkpt>
      <trkpt lat="51.61903" lon="6.64767">
        <ele>68.256362</ele>
        <time>2026-05-06T10:48:06.074Z</time>
      </trkpt>
      <trkpt lat="51.61913" lon="6.64762">
        <ele>68.217428</ele>
        <time>2026-05-06T10:48:09.078Z</time>
      </trkpt>
      <trkpt lat="51.61924" lon="6.64758">
        <ele>68.176507</ele>
        <time>2026-05-06T10:48:12.078Z</time>
      </trkpt>
      <trkpt lat="51.61935" lon="6.64752">
        <ele>68.134792</ele>
        <time>2026-05-06T10:48:15.079Z</time>
      </trkpt>
      <trkpt lat="51.61946" lon="6.64747">
        <ele>68.092693</ele>
        <time>2026-05-06T10:48:18.080Z</time>
      </trkpt>
      <trkpt lat="51.61957" lon="6.64742">
        <ele>68.153292</ele>
        <time>2026-05-06T10:48:21.093Z</time>
      </trkpt>
      <trkpt lat="51.61968" lon="6.64738">
        <ele>68.245603</ele>
        <time>2026-05-06T10:48:24.083Z</time>
      </trkpt>
      <trkpt lat="51.61978" lon="6.64734">
        <ele>68.33044</ele>
        <time>2026-05-06T10:48:27.102Z</time>
      </trkpt>
      <trkpt lat="51.61987" lon="6.64729">
        <ele>68.41462</ele>
        <time>2026-05-06T10:48:30.107Z</time>
      </trkpt>
      <trkpt lat="51.61996" lon="6.64725">
        <ele>68.489912</ele>
        <time>2026-05-06T10:48:33.125Z</time>
      </trkpt>
      <trkpt lat="51.62007" lon="6.64719">
        <ele>68.584137</ele>
        <time>2026-05-06T10:48:37.101Z</time>
      </trkpt>
      <trkpt lat="51.62016" lon="6.64714">
        <ele>68.669593</ele>
        <time>2026-05-06T10:48:41.112Z</time>
      </trkpt>
      <trkpt lat="51.62025" lon="6.64711">
        <ele>68.74512</ele>
        <time>2026-05-06T10:48:45.107Z</time>
      </trkpt>
      <trkpt lat="51.62035" lon="6.64707">
        <ele>68.830192</ele>
        <time>2026-05-06T10:48:50.133Z</time>
      </trkpt>
      <trkpt lat="51.62044" lon="6.64702">
        <ele>68.911523</ele>
        <time>2026-05-06T10:48:55.098Z</time>
      </trkpt>
      <trkpt lat="51.62053" lon="6.64699">
        <ele>68.988455</ele>
        <time>2026-05-06T10:49:01.115Z</time>
      </trkpt>
      <trkpt lat="51.62062" lon="6.64703">
        <ele>69.063426</ele>
        <time>2026-05-06T10:49:08.105Z</time>
      </trkpt>
      <trkpt lat="51.62072" lon="6.64713">
        <ele>69.162928</ele>
        <time>2026-05-06T10:50:42.107Z</time>
      </trkpt>
      <trkpt lat="51.62082" lon="6.64723">
        <ele>69.262361</ele>
        <time>2026-05-06T10:50:46.111Z</time>
      </trkpt>
      <trkpt lat="51.6209" lon="6.64733">
        <ele>69.344115</ele>
        <time>2026-05-06T10:50:49.098Z</time>
      </trkpt>
      <trkpt lat="51.62099" lon="6.64742">
        <ele>69.433032</ele>
        <time>2026-05-06T10:50:52.123Z</time>
      </trkpt>
      <trkpt lat="51.62108" lon="6.64751">
        <ele>69.526408</ele>
        <time>2026-05-06T10:50:55.102Z</time>
      </trkpt>
      <trkpt lat="51.62117" lon="6.64761">
        <ele>69.568446</ele>
        <time>2026-05-06T10:50:58.103Z</time>
      </trkpt>
      <trkpt lat="51.62126" lon="6.64771">
        <ele>69.522767</ele>
        <time>2026-05-06T10:51:01.105Z</time>
      </trkpt>
      <trkpt lat="51.62134" lon="6.64781">
        <ele>69.479515</ele>
        <time>2026-05-06T10:51:04.109Z</time>
      </trkpt>
      <trkpt lat="51.62142" lon="6.64791">
        <ele>69.436229</ele>
        <time>2026-05-06T10:51:07.094Z</time>
      </trkpt>
      <trkpt lat="51.62149" lon="6.64802">
        <ele>69.393977</ele>
        <time>2026-05-06T10:51:10.118Z</time>
      </trkpt>
      <trkpt lat="51.62156" lon="6.64812">
        <ele>69.35236</ele>
        <time>2026-05-06T10:51:13.106Z</time>
      </trkpt>
      <trkpt lat="51.62164" lon="6.64822">
        <ele>69.310213</ele>
        <time>2026-05-06T10:51:16.119Z</time>
      </trkpt>
      <trkpt lat="51.62171" lon="6.64834">
        <ele>69.267163</ele>
        <time>2026-05-06T10:51:19.110Z</time>
      </trkpt>
      <trkpt lat="51.62179" lon="6.64844">
        <ele>69.224052</ele>
        <time>2026-05-06T10:51:22.119Z</time>
      </trkpt>
      <trkpt lat="51.62185" lon="6.64854">
        <ele>69.185241</ele>
        <time>2026-05-06T10:51:25.108Z</time>
      </trkpt>
      <trkpt lat="51.62194" lon="6.64865">
        <ele>69.138478</ele>
        <time>2026-05-06T10:51:29.109Z</time>
      </trkpt>
      <trkpt lat="51.62194" lon="6.64888">
        <ele>69.075876</ele>
        <time>2026-05-06T10:51:52.111Z</time>
      </trkpt>
      <trkpt lat="51.62188" lon="6.64902">
        <ele>69.030442</ele>
        <time>2026-05-06T10:51:56.106Z</time>
      </trkpt>
      <trkpt lat="51.62182" lon="6.64913">
        <ele>68.990172</ele>
        <time>2026-05-06T10:51:59.102Z</time>
      </trkpt>
      <trkpt lat="51.62175" lon="6.64924">
        <ele>68.947528</ele>
        <time>2026-05-06T10:52:02.117Z</time>
      </trkpt>
      <trkpt lat="51.62168" lon="6.64935">
        <ele>68.905776</ele>
        <time>2026-05-06T10:52:05.123Z</time>
      </trkpt>
      <trkpt lat="51.62159" lon="6.64948">
        <ele>68.85428</ele>
        <time>2026-05-06T10:52:09.104Z</time>
      </trkpt>
      <trkpt lat="51.62152" lon="6.64958">
        <ele>68.815006</ele>
        <time>2026-05-06T10:52:12.101Z</time>
      </trkpt>
      <trkpt lat="51.62143" lon="6.64964">
        <ele>68.929268</ele>
        <time>2026-05-06T10:52:16.102Z</time>
      </trkpt>
      <trkpt lat="51.62137" lon="6.64978">
        <ele>69.063053</ele>
        <time>2026-05-06T10:52:21.108Z</time>
      </trkpt>
      <trkpt lat="51.6213" lon="6.6499">
        <ele>69.190079</ele>
        <time>2026-05-06T10:52:25.110Z</time>
      </trkpt>
      <trkpt lat="51.62139" lon="6.64989">
        <ele>69.30455</ele>
        <time>2026-05-06T10:56:25.108Z</time>
      </trkpt>
      <trkpt lat="51.62145" lon="6.64978">
        <ele>69.42383</ele>
        <time>2026-05-06T10:56:34.117Z</time>
      </trkpt>
      <trkpt lat="51.62136" lon="6.64981">
        <ele>69.535569</ele>
        <time>2026-05-06T10:56:42.098Z</time>
      </trkpt>
      <trkpt lat="51.6213" lon="6.64992">
        <ele>69.652611</ele>
        <time>2026-05-06T10:56:49.104Z</time>
      </trkpt>
      <trkpt lat="51.6214" lon="6.64988">
        <ele>69.778568</ele>
        <time>2026-05-06T10:57:11.111Z</time>
      </trkpt>
      <trkpt lat="51.62148" lon="6.64977">
        <ele>69.910367</ele>
        <time>2026-05-06T10:57:16.103Z</time>
      </trkpt>
      <trkpt lat="51.62156" lon="6.64963">
        <ele>70.05725</ele>
        <time>2026-05-06T10:57:20.106Z</time>
      </trkpt>
      <trkpt lat="51.62164" lon="6.64953">
        <ele>70.186116</ele>
        <time>2026-05-06T10:57:23.093Z</time>
      </trkpt>
      <trkpt lat="51.62171" lon="6.64943">
        <ele>70.306336</ele>
        <time>2026-05-06T10:57:26.118Z</time>
      </trkpt>
      <trkpt lat="51.62178" lon="6.64932">
        <ele>70.426387</ele>
        <time>2026-05-06T10:57:29.111Z</time>
      </trkpt>
      <trkpt lat="51.62185" lon="6.64921">
        <ele>70.547376</ele>
        <time>2026-05-06T10:57:32.122Z</time>
      </trkpt>
      <trkpt lat="51.62193" lon="6.64908">
        <ele>70.68586</ele>
        <time>2026-05-06T10:57:36.099Z</time>
      </trkpt>
      <trkpt lat="51.62202" lon="6.64897">
        <ele>70.827348</ele>
        <time>2026-05-06T10:57:40.110Z</time>
      </trkpt>
      <trkpt lat="51.62209" lon="6.64886">
        <ele>70.950132</ele>
        <time>2026-05-06T10:57:44.097Z</time>
      </trkpt>
      <trkpt lat="51.62218" lon="6.64879">
        <ele>71.061934</ele>
        <time>2026-05-06T10:57:50.112Z</time>
      </trkpt>
      <trkpt lat="51.62211" lon="6.64867">
        <ele>71.124111</ele>
        <time>2026-05-06T10:58:00.106Z</time>
      </trkpt>
      <trkpt lat="51.62206" lon="6.64851">
        <ele>71.19273</ele>
        <time>2026-05-06T10:58:05.109Z</time>
      </trkpt>
      <trkpt lat="51.62197" lon="6.6484">
        <ele>71.263243</ele>
        <time>2026-05-06T10:58:09.105Z</time>
      </trkpt>
      <trkpt lat="51.6219" lon="6.64829">
        <ele>71.321181</ele>
        <time>2026-05-06T10:58:12.114Z</time>
      </trkpt>
      <trkpt lat="51.62182" lon="6.64819">
        <ele>71.382666</ele>
        <time>2026-05-06T10:58:15.112Z</time>
      </trkpt>
      <trkpt lat="51.62174" lon="6.64808">
        <ele>71.446042</ele>
        <time>2026-05-06T10:58:18.100Z</time>
      </trkpt>
      <trkpt lat="51.62166" lon="6.64796">
        <ele>71.512154</ele>
        <time>2026-05-06T10:58:21.110Z</time>
      </trkpt>
      <trkpt lat="51.62157" lon="6.64785">
        <ele>71.581693</ele>
        <time>2026-05-06T10:58:24.107Z</time>
      </trkpt>
      <trkpt lat="51.62148" lon="6.64773">
        <ele>71.652432</ele>
        <time>2026-05-06T10:58:27.105Z</time>
      </trkpt>
      <trkpt lat="51.6214" lon="6.64761">
        <ele>71.720981</ele>
        <time>2026-05-06T10:58:30.117Z</time>
      </trkpt>
      <trkpt lat="51.62132" lon="6.64749">
        <ele>71.786839</ele>
        <time>2026-05-06T10:58:33.106Z</time>
      </trkpt>
      <trkpt lat="51.62124" lon="6.64737">
        <ele>71.852442</ele>
        <time>2026-05-06T10:58:36.096Z</time>
      </trkpt>
      <trkpt lat="51.62115" lon="6.64726">
        <ele>71.921558</ele>
        <time>2026-05-06T10:58:39.095Z</time>
      </trkpt>
      <trkpt lat="51.62106" lon="6.64716">
        <ele>71.989287</ele>
        <time>2026-05-06T10:58:42.114Z</time>
      </trkpt>
      <trkpt lat="51.62098" lon="6.64706">
        <ele>72.049116</ele>
        <time>2026-05-06T10:58:45.107Z</time>
      </trkpt>
      <trkpt lat="51.62091" lon="6.64693">
        <ele>72.115774</ele>
        <time>2026-05-06T10:58:49.103Z</time>
      </trkpt>
      <trkpt lat="51.62096" lon="6.64681">
        <ele>72.08008</ele>
        <time>2026-05-06T10:58:54.107Z</time>
      </trkpt>
      <trkpt lat="51.62105" lon="6.64674">
        <ele>71.903813</ele>
        <time>2026-05-06T10:59:00.110Z</time>
      </trkpt>
      <trkpt lat="51.62114" lon="6.6467">
        <ele>71.735851</ele>
        <time>2026-05-06T10:59:03.115Z</time>
      </trkpt>
      <trkpt lat="51.62124" lon="6.64665">
        <ele>71.544048</ele>
        <time>2026-05-06T10:59:06.106Z</time>
      </trkpt>
      <trkpt lat="51.62133" lon="6.64662">
        <ele>71.375815</ele>
        <time>2026-05-06T10:59:09.102Z</time>
      </trkpt>
      <trkpt lat="51.62143" lon="6.64659">
        <ele>71.190414</ele>
        <time>2026-05-06T10:59:12.115Z</time>
      </trkpt>
      <trkpt lat="51.62153" lon="6.64655">
        <ele>71.004777</ele>
        <time>2026-05-06T10:59:15.104Z</time>
      </trkpt>
      <trkpt lat="51.62163" lon="6.6465">
        <ele>70.82145</ele>
        <time>2026-05-06T10:59:18.111Z</time>
      </trkpt>
      <trkpt lat="51.62172" lon="6.64646">
        <ele>70.656719</ele>
        <time>2026-05-06T10:59:21.114Z</time>
      </trkpt>
      <trkpt lat="51.62183" lon="6.64638">
        <ele>70.435184</ele>
        <time>2026-05-06T10:59:24.100Z</time>
      </trkpt>
      <trkpt lat="51.62193" lon="6.64633">
        <ele>70.250914</ele>
        <time>2026-05-06T10:59:27.108Z</time>
      </trkpt>
      <trkpt lat="51.62203" lon="6.64627">
        <ele>70.046106</ele>
        <time>2026-05-06T10:59:30.126Z</time>
      </trkpt>
      <trkpt lat="51.62216" lon="6.6462">
        <ele>69.800893</ele>
        <time>2026-05-06T10:59:33.101Z</time>
      </trkpt>
      <trkpt lat="51.62229" lon="6.64614">
        <ele>69.569033</ele>
        <time>2026-05-06T10:59:36.102Z</time>
      </trkpt>
      <trkpt lat="51.62241" lon="6.64608">
        <ele>69.331855</ele>
        <time>2026-05-06T10:59:39.095Z</time>
      </trkpt>
      <trkpt lat="51.6225" lon="6.64604">
        <ele>69.168139</ele>
        <time>2026-05-06T10:59:41.104Z</time>
      </trkpt>
      <trkpt lat="51.62259" lon="6.646">
        <ele>69.005064</ele>
        <time>2026-05-06T10:59:43.108Z</time>
      </trkpt>
      <trkpt lat="51.62267" lon="6.64596">
        <ele>68.912203</ele>
        <time>2026-05-06T10:59:45.112Z</time>
      </trkpt>
      <trkpt lat="51.6228" lon="6.64591">
        <ele>68.913535</ele>
        <time>2026-05-06T10:59:48.106Z</time>
      </trkpt>
      <trkpt lat="51.6229" lon="6.64587">
        <ele>68.914495</ele>
        <time>2026-05-06T10:59:50.104Z</time>
      </trkpt>
      <trkpt lat="51.62302" lon="6.64582">
        <ele>68.915785</ele>
        <time>2026-05-06T10:59:53.107Z</time>
      </trkpt>
      <trkpt lat="51.62311" lon="6.64578">
        <ele>68.916721</ele>
        <time>2026-05-06T10:59:55.109Z</time>
      </trkpt>
      <trkpt lat="51.62324" lon="6.64571">
        <ele>68.918094</ele>
        <time>2026-05-06T10:59:58.121Z</time>
      </trkpt>
      <trkpt lat="51.62336" lon="6.64564">
        <ele>68.91943</ele>
        <time>2026-05-06T11:00:01.109Z</time>
      </trkpt>
      <trkpt lat="51.62345" lon="6.6456">
        <ele>68.920344</ele>
        <time>2026-05-06T11:00:03.113Z</time>
      </trkpt>
      <trkpt lat="51.62357" lon="6.64555">
        <ele>68.921616</ele>
        <time>2026-05-06T11:00:06.112Z</time>
      </trkpt>
      <trkpt lat="51.62369" lon="6.64551">
        <ele>68.922794</ele>
        <time>2026-05-06T11:00:09.099Z</time>
      </trkpt>
      <trkpt lat="51.62381" lon="6.64545">
        <ele>68.924066</ele>
        <time>2026-05-06T11:00:12.117Z</time>
      </trkpt>
      <trkpt lat="51.62393" lon="6.64539">
        <ele>68.925325</ele>
        <time>2026-05-06T11:00:15.099Z</time>
      </trkpt>
      <trkpt lat="51.62404" lon="6.64533">
        <ele>68.926586</ele>
        <time>2026-05-06T11:00:18.104Z</time>
      </trkpt>
      <trkpt lat="51.62417" lon="6.64527">
        <ele>68.927858</ele>
        <time>2026-05-06T11:00:21.106Z</time>
      </trkpt>
      <trkpt lat="51.62428" lon="6.64521">
        <ele>68.929085</ele>
        <time>2026-05-06T11:00:24.117Z</time>
      </trkpt>
      <trkpt lat="51.62439" lon="6.64516">
        <ele>68.943544</ele>
        <time>2026-05-06T11:00:27.110Z</time>
      </trkpt>
      <trkpt lat="51.62452" lon="6.64511">
        <ele>68.999482</ele>
        <time>2026-05-06T11:00:30.110Z</time>
      </trkpt>
      <trkpt lat="51.62464" lon="6.64505">
        <ele>69.054095</ele>
        <time>2026-05-06T11:00:33.109Z</time>
      </trkpt>
      <trkpt lat="51.62475" lon="6.64498">
        <ele>69.10673</ele>
        <time>2026-05-06T11:00:36.113Z</time>
      </trkpt>
      <trkpt lat="51.62486" lon="6.64493">
        <ele>69.156235</ele>
        <time>2026-05-06T11:00:39.104Z</time>
      </trkpt>
      <trkpt lat="51.62497" lon="6.64487">
        <ele>69.207645</ele>
        <time>2026-05-06T11:00:42.110Z</time>
      </trkpt>
      <trkpt lat="51.62508" lon="6.64483">
        <ele>69.259913</ele>
        <time>2026-05-06T11:00:45.109Z</time>
      </trkpt>
      <trkpt lat="51.62521" lon="6.64477">
        <ele>69.317497</ele>
        <time>2026-05-06T11:00:48.105Z</time>
      </trkpt>
      <trkpt lat="51.62533" lon="6.64473">
        <ele>69.371807</ele>
        <time>2026-05-06T11:00:51.104Z</time>
      </trkpt>
      <trkpt lat="51.62545" lon="6.64467">
        <ele>69.427829</ele>
        <time>2026-05-06T11:00:54.110Z</time>
      </trkpt>
      <trkpt lat="51.62558" lon="6.64462">
        <ele>69.485064</ele>
        <time>2026-05-06T11:00:57.108Z</time>
      </trkpt>
      <trkpt lat="51.62569" lon="6.64457">
        <ele>69.538057</ele>
        <time>2026-05-06T11:01:00.120Z</time>
      </trkpt>
      <trkpt lat="51.62582" lon="6.6445">
        <ele>69.597435</ele>
        <time>2026-05-06T11:01:03.109Z</time>
      </trkpt>
      <trkpt lat="51.62594" lon="6.64446">
        <ele>69.651594</ele>
        <time>2026-05-06T11:01:06.113Z</time>
      </trkpt>
      <trkpt lat="51.62606" lon="6.64442">
        <ele>69.703913</ele>
        <time>2026-05-06T11:01:09.116Z</time>
      </trkpt>
      <trkpt lat="51.62618" lon="6.64436">
        <ele>69.763723</ele>
        <time>2026-05-06T11:01:12.104Z</time>
      </trkpt>
      <trkpt lat="51.62631" lon="6.6443">
        <ele>69.829472</ele>
        <time>2026-05-06T11:01:15.102Z</time>
      </trkpt>
      <trkpt lat="51.62642" lon="6.64424">
        <ele>69.888043</ele>
        <time>2026-05-06T11:01:18.094Z</time>
      </trkpt>
      <trkpt lat="51.62654" lon="6.64418">
        <ele>69.949191</ele>
        <time>2026-05-06T11:01:21.111Z</time>
      </trkpt>
      <trkpt lat="51.62665" lon="6.64411">
        <ele>70.005957</ele>
        <time>2026-05-06T11:01:24.117Z</time>
      </trkpt>
      <trkpt lat="51.62676" lon="6.64404">
        <ele>70.061647</ele>
        <time>2026-05-06T11:01:27.109Z</time>
      </trkpt>
      <trkpt lat="51.62686" lon="6.64398">
        <ele>70.114637</ele>
        <time>2026-05-06T11:01:30.098Z</time>
      </trkpt>
      <trkpt lat="51.62695" lon="6.64396">
        <ele>70.159857</ele>
        <time>2026-05-06T11:01:33.111Z</time>
      </trkpt>
      <trkpt lat="51.62704" lon="6.64402">
        <ele>70.207013</ele>
        <time>2026-05-06T11:01:38.106Z</time>
      </trkpt>
      <trkpt lat="51.62713" lon="6.64392">
        <ele>70.261142</ele>
        <time>2026-05-06T11:02:05.102Z</time>
      </trkpt>
      <trkpt lat="51.62721" lon="6.6438">
        <ele>70.312943</ele>
        <time>2026-05-06T11:02:10.108Z</time>
      </trkpt>
      <trkpt lat="51.6273" lon="6.64377">
        <ele>70.357297</ele>
        <time>2026-05-06T11:02:14.103Z</time>
      </trkpt>
      <trkpt lat="51.62737" lon="6.64362">
        <ele>70.414335</ele>
        <time>2026-05-06T11:02:18.127Z</time>
      </trkpt>
      <trkpt lat="51.62745" lon="6.64353">
        <ele>70.463291</ele>
        <time>2026-05-06T11:02:21.100Z</time>
      </trkpt>
      <trkpt lat="51.62755" lon="6.64344">
        <ele>70.518368</ele>
        <time>2026-05-06T11:02:24.104Z</time>
      </trkpt>
      <trkpt lat="51.62765" lon="6.64334">
        <ele>70.575287</ele>
        <time>2026-05-06T11:02:27.104Z</time>
      </trkpt>
      <trkpt lat="51.62775" lon="6.64325">
        <ele>70.684217</ele>
        <time>2026-05-06T11:02:30.098Z</time>
      </trkpt>
      <trkpt lat="51.62787" lon="6.64315">
        <ele>70.833518</ele>
        <time>2026-05-06T11:02:33.116Z</time>
      </trkpt>
      <trkpt lat="51.62798" lon="6.64305">
        <ele>70.984538</ele>
        <time>2026-05-06T11:02:36.105Z</time>
      </trkpt>
      <trkpt lat="51.62809" lon="6.64296">
        <ele>71.11991</ele>
        <time>2026-05-06T11:02:39.094Z</time>
      </trkpt>
      <trkpt lat="51.62818" lon="6.64287">
        <ele>71.249017</ele>
        <time>2026-05-06T11:02:42.105Z</time>
      </trkpt>
      <trkpt lat="51.62827" lon="6.6428">
        <ele>71.364026</ele>
        <time>2026-05-06T11:02:45.116Z</time>
      </trkpt>
      <trkpt lat="51.62836" lon="6.64272">
        <ele>71.478315</ele>
        <time>2026-05-06T11:02:48.103Z</time>
      </trkpt>
      <trkpt lat="51.62845" lon="6.64264">
        <ele>71.597015</ele>
        <time>2026-05-06T11:02:51.100Z</time>
      </trkpt>
      <trkpt lat="51.62853" lon="6.64257">
        <ele>71.705841</ele>
        <time>2026-05-06T11:02:54.109Z</time>
      </trkpt>
      <trkpt lat="51.62861" lon="6.6425">
        <ele>71.813028</ele>
        <time>2026-05-06T11:02:57.093Z</time>
      </trkpt>
      <trkpt lat="51.6287" lon="6.64243">
        <ele>71.929393</ele>
        <time>2026-05-06T11:03:00.129Z</time>
      </trkpt>
      <trkpt lat="51.62879" lon="6.64236">
        <ele>72.045862</ele>
        <time>2026-05-06T11:03:03.104Z</time>
      </trkpt>
      <trkpt lat="51.62888" lon="6.64229">
        <ele>72.156176</ele>
        <time>2026-05-06T11:03:06.110Z</time>
      </trkpt>
      <trkpt lat="51.62896" lon="6.64221">
        <ele>72.266187</ele>
        <time>2026-05-06T11:03:09.105Z</time>
      </trkpt>
      <trkpt lat="51.62906" lon="6.64212">
        <ele>72.402224</ele>
        <time>2026-05-06T11:03:13.109Z</time>
      </trkpt>
      <trkpt lat="51.62916" lon="6.64204">
        <ele>72.534233</ele>
        <time>2026-05-06T11:03:17.107Z</time>
      </trkpt>
      <trkpt lat="51.62925" lon="6.64196">
        <ele>72.646138</ele>
        <time>2026-05-06T11:03:20.100Z</time>
      </trkpt>
      <trkpt lat="51.62934" lon="6.64189">
        <ele>72.625068</ele>
        <time>2026-05-06T11:03:23.105Z</time>
      </trkpt>
      <trkpt lat="51.62943" lon="6.64182">
        <ele>72.540429</ele>
        <time>2026-05-06T11:03:26.111Z</time>
      </trkpt>
      <trkpt lat="51.62953" lon="6.64173">
        <ele>72.446326</ele>
        <time>2026-05-06T11:03:29.107Z</time>
      </trkpt>
      <trkpt lat="51.62964" lon="6.64163">
        <ele>72.341455</ele>
        <time>2026-05-06T11:03:32.120Z</time>
      </trkpt>
      <trkpt lat="51.62976" lon="6.64152">
        <ele>72.233034</ele>
        <time>2026-05-06T11:03:35.105Z</time>
      </trkpt>
      <trkpt lat="51.62984" lon="6.64145">
        <ele>72.157083</ele>
        <time>2026-05-06T11:03:37.097Z</time>
      </trkpt>
      <trkpt lat="51.62993" lon="6.64138">
        <ele>72.076119</ele>
        <time>2026-05-06T11:03:39.099Z</time>
      </trkpt>
      <trkpt lat="51.63002" lon="6.6413">
        <ele>71.994925</ele>
        <time>2026-05-06T11:03:41.117Z</time>
      </trkpt>
      <trkpt lat="51.63011" lon="6.64123">
        <ele>71.909625</ele>
        <time>2026-05-06T11:03:43.113Z</time>
      </trkpt>
      <trkpt lat="51.6302" lon="6.64114">
        <ele>71.82906</ele>
        <time>2026-05-06T11:03:45.108Z</time>
      </trkpt>
      <trkpt lat="51.63028" lon="6.64105">
        <ele>71.746069</ele>
        <time>2026-05-06T11:03:47.106Z</time>
      </trkpt>
      <trkpt lat="51.63037" lon="6.64096">
        <ele>71.661558</ele>
        <time>2026-05-06T11:03:49.111Z</time>
      </trkpt>
      <trkpt lat="51.63046" lon="6.64086">
        <ele>71.573402</ele>
        <time>2026-05-06T11:03:51.113Z</time>
      </trkpt>
      <trkpt lat="51.63055" lon="6.64077">
        <ele>71.488116</ele>
        <time>2026-05-06T11:03:53.103Z</time>
      </trkpt>
      <trkpt lat="51.63064" lon="6.64068">
        <ele>71.397981</ele>
        <time>2026-05-06T11:03:55.102Z</time>
      </trkpt>
      <trkpt lat="51.63074" lon="6.6406">
        <ele>71.311526</ele>
        <time>2026-05-06T11:03:57.108Z</time>
      </trkpt>
      <trkpt lat="51.63084" lon="6.64051">
        <ele>71.219347</ele>
        <time>2026-05-06T11:03:59.099Z</time>
      </trkpt>
      <trkpt lat="51.63094" lon="6.64041">
        <ele>70.820058</ele>
        <time>2026-05-06T11:04:01.094Z</time>
      </trkpt>
      <trkpt lat="51.63103" lon="6.64031">
        <ele>70.442048</ele>
        <time>2026-05-06T11:04:03.104Z</time>
      </trkpt>
      <trkpt lat="51.63112" lon="6.64021">
        <ele>70.066845</ele>
        <time>2026-05-06T11:04:05.102Z</time>
      </trkpt>
      <trkpt lat="51.63122" lon="6.64012">
        <ele>69.683384</ele>
        <time>2026-05-06T11:04:07.122Z</time>
      </trkpt>
      <trkpt lat="51.63131" lon="6.64001">
        <ele>69.294603</ele>
        <time>2026-05-06T11:04:09.114Z</time>
      </trkpt>
      <trkpt lat="51.63141" lon="6.63991">
        <ele>68.90864</ele>
        <time>2026-05-06T11:04:11.112Z</time>
      </trkpt>
      <trkpt lat="51.63151" lon="6.63982">
        <ele>68.524865</ele>
        <time>2026-05-06T11:04:13.106Z</time>
      </trkpt>
      <trkpt lat="51.6316" lon="6.63972">
        <ele>68.141711</ele>
        <time>2026-05-06T11:04:15.106Z</time>
      </trkpt>
      <trkpt lat="51.63169" lon="6.63962">
        <ele>67.772096</ele>
        <time>2026-05-06T11:04:17.106Z</time>
      </trkpt>
      <trkpt lat="51.63178" lon="6.63952">
        <ele>67.398061</ele>
        <time>2026-05-06T11:04:19.103Z</time>
      </trkpt>
      <trkpt lat="51.63187" lon="6.63942">
        <ele>67.034789</ele>
        <time>2026-05-06T11:04:21.109Z</time>
      </trkpt>
      <trkpt lat="51.63196" lon="6.63933">
        <ele>66.680194</ele>
        <time>2026-05-06T11:04:23.104Z</time>
      </trkpt>
      <trkpt lat="51.63204" lon="6.63923">
        <ele>66.332345</ele>
        <time>2026-05-06T11:04:25.110Z</time>
      </trkpt>
      <trkpt lat="51.63213" lon="6.63915">
        <ele>65.979648</ele>
        <time>2026-05-06T11:04:27.114Z</time>
      </trkpt>
      <trkpt lat="51.63222" lon="6.63907">
        <ele>65.652253</ele>
        <time>2026-05-06T11:04:29.107Z</time>
      </trkpt>
      <trkpt lat="51.6323" lon="6.63899">
        <ele>65.331548</ele>
        <time>2026-05-06T11:04:31.114Z</time>
      </trkpt>
      <trkpt lat="51.63239" lon="6.63893">
        <ele>65.180866</ele>
        <time>2026-05-06T11:04:33.107Z</time>
      </trkpt>
      <trkpt lat="51.63247" lon="6.63886">
        <ele>65.281912</ele>
        <time>2026-05-06T11:04:35.111Z</time>
      </trkpt>
      <trkpt lat="51.63256" lon="6.63879">
        <ele>65.391241</ele>
        <time>2026-05-06T11:04:37.100Z</time>
      </trkpt>
      <trkpt lat="51.63265" lon="6.63872">
        <ele>65.498699</ele>
        <time>2026-05-06T11:04:39.105Z</time>
      </trkpt>
      <trkpt lat="51.63277" lon="6.63864">
        <ele>65.639736</ele>
        <time>2026-05-06T11:04:42.116Z</time>
      </trkpt>
      <trkpt lat="51.63286" lon="6.63857">
        <ele>65.743097</ele>
        <time>2026-05-06T11:04:44.115Z</time>
      </trkpt>
      <trkpt lat="51.63294" lon="6.63849">
        <ele>65.843001</ele>
        <time>2026-05-06T11:04:46.100Z</time>
      </trkpt>
      <trkpt lat="51.63304" lon="6.6384">
        <ele>65.974549</ele>
        <time>2026-05-06T11:04:49.115Z</time>
      </trkpt>
      <trkpt lat="51.63314" lon="6.63833">
        <ele>66.088565</ele>
        <time>2026-05-06T11:04:52.095Z</time>
      </trkpt>
      <trkpt lat="51.63322" lon="6.63825">
        <ele>66.188123</ele>
        <time>2026-05-06T11:04:55.107Z</time>
      </trkpt>
      <trkpt lat="51.63331" lon="6.63819">
        <ele>66.300547</ele>
        <time>2026-05-06T11:04:59.104Z</time>
      </trkpt>
      <trkpt lat="51.63341" lon="6.6381">
        <ele>66.418179</ele>
        <time>2026-05-06T11:05:11.105Z</time>
      </trkpt>
      <trkpt lat="51.63349" lon="6.63801">
        <ele>66.53025</ele>
        <time>2026-05-06T11:05:15.101Z</time>
      </trkpt>
      <trkpt lat="51.63356" lon="6.63815">
        <ele>66.647535</ele>
        <time>2026-05-06T11:05:20.111Z</time>
      </trkpt>
      <trkpt lat="51.63361" lon="6.63831">
        <ele>66.766481</ele>
        <time>2026-05-06T11:05:23.100Z</time>
      </trkpt>
      <trkpt lat="51.63366" lon="6.63849">
        <ele>66.900618</ele>
        <time>2026-05-06T11:05:26.100Z</time>
      </trkpt>
      <trkpt lat="51.63372" lon="6.63868">
        <ele>67.042493</ele>
        <time>2026-05-06T11:05:29.103Z</time>
      </trkpt>
      <trkpt lat="51.63377" lon="6.6388">
        <ele>67.071177</ele>
        <time>2026-05-06T11:05:31.103Z</time>
      </trkpt>
      <trkpt lat="51.63382" lon="6.63893">
        <ele>67.048301</ele>
        <time>2026-05-06T11:05:33.114Z</time>
      </trkpt>
      <trkpt lat="51.63387" lon="6.63906">
        <ele>67.025056</ele>
        <time>2026-05-06T11:05:35.102Z</time>
      </trkpt>
      <trkpt lat="51.63393" lon="6.6392">
        <ele>67.00041</ele>
        <time>2026-05-06T11:05:37.103Z</time>
      </trkpt>
      <trkpt lat="51.63397" lon="6.63934">
        <ele>66.97624</ele>
        <time>2026-05-06T11:05:39.115Z</time>
      </trkpt>
      <trkpt lat="51.63402" lon="6.63949">
        <ele>66.951323</ele>
        <time>2026-05-06T11:05:41.117Z</time>
      </trkpt>
      <trkpt lat="51.63408" lon="6.63963">
        <ele>66.926291</ele>
        <time>2026-05-06T11:05:43.115Z</time>
      </trkpt>
      <trkpt lat="51.63413" lon="6.63977">
        <ele>66.901512</ele>
        <time>2026-05-06T11:05:45.109Z</time>
      </trkpt>
      <trkpt lat="51.63418" lon="6.63992">
        <ele>66.876343</ele>
        <time>2026-05-06T11:05:47.102Z</time>
      </trkpt>
      <trkpt lat="51.63424" lon="6.64007">
        <ele>66.850282</ele>
        <time>2026-05-06T11:05:49.103Z</time>
      </trkpt>
      <trkpt lat="51.63429" lon="6.64021">
        <ele>66.824231</ele>
        <time>2026-05-06T11:05:51.097Z</time>
      </trkpt>
      <trkpt lat="51.63435" lon="6.64036">
        <ele>66.79767</ele>
        <time>2026-05-06T11:05:53.114Z</time>
      </trkpt>
      <trkpt lat="51.6344" lon="6.64052">
        <ele>66.771074</ele>
        <time>2026-05-06T11:05:55.100Z</time>
      </trkpt>
      <trkpt lat="51.63445" lon="6.64067">
        <ele>66.744973</ele>
        <time>2026-05-06T11:05:57.110Z</time>
      </trkpt>
      <trkpt lat="51.63451" lon="6.64083">
        <ele>66.717896</ele>
        <time>2026-05-06T11:05:59.106Z</time>
      </trkpt>
      <trkpt lat="51.63457" lon="6.64098">
        <ele>66.691071</ele>
        <time>2026-05-06T11:06:01.102Z</time>
      </trkpt>
      <trkpt lat="51.63461" lon="6.64113">
        <ele>66.665196</ele>
        <time>2026-05-06T11:06:03.103Z</time>
      </trkpt>
      <trkpt lat="51.63466" lon="6.64128">
        <ele>66.690502</ele>
        <time>2026-05-06T11:06:05.105Z</time>
      </trkpt>
      <trkpt lat="51.63472" lon="6.64142">
        <ele>66.82671</ele>
        <time>2026-05-06T11:06:07.116Z</time>
      </trkpt>
      <trkpt lat="51.63477" lon="6.64157">
        <ele>66.964514</ele>
        <time>2026-05-06T11:06:09.087Z</time>
      </trkpt>
      <trkpt lat="51.63483" lon="6.64172">
        <ele>67.104617</ele>
        <time>2026-05-06T11:06:11.107Z</time>
      </trkpt>
      <trkpt lat="51.63489" lon="6.64187">
        <ele>67.241289</ele>
        <time>2026-05-06T11:06:13.101Z</time>
      </trkpt>
      <trkpt lat="51.63494" lon="6.64201">
        <ele>67.37258</ele>
        <time>2026-05-06T11:06:15.098Z</time>
      </trkpt>
      <trkpt lat="51.63499" lon="6.64215">
        <ele>67.502497</ele>
        <time>2026-05-06T11:06:17.110Z</time>
      </trkpt>
      <trkpt lat="51.63504" lon="6.64228">
        <ele>67.624433</ele>
        <time>2026-05-06T11:06:19.103Z</time>
      </trkpt>
      <trkpt lat="51.63509" lon="6.64241">
        <ele>67.744232</ele>
        <time>2026-05-06T11:06:21.106Z</time>
      </trkpt>
      <trkpt lat="51.63514" lon="6.6426">
        <ele>67.91334</ele>
        <time>2026-05-06T11:06:24.106Z</time>
      </trkpt>
      <trkpt lat="51.63519" lon="6.64278">
        <ele>68.06747</ele>
        <time>2026-05-06T11:06:27.108Z</time>
      </trkpt>
      <trkpt lat="51.63523" lon="6.64295">
        <ele>68.214683</ele>
        <time>2026-05-06T11:06:30.105Z</time>
      </trkpt>
      <trkpt lat="51.63526" lon="6.64313">
        <ele>68.363778</ele>
        <time>2026-05-06T11:06:33.105Z</time>
      </trkpt>
      <trkpt lat="51.6353" lon="6.64331">
        <ele>68.512161</ele>
        <time>2026-05-06T11:06:36.105Z</time>
      </trkpt>
      <trkpt lat="51.63532" lon="6.64347">
        <ele>68.644722</ele>
        <time>2026-05-06T11:06:40.119Z</time>
      </trkpt>
      <trkpt lat="51.63521" lon="6.64353">
        <ele>68.796875</ele>
        <time>2026-05-06T11:06:50.104Z</time>
      </trkpt>
      <trkpt lat="51.6351" lon="6.64359">
        <ele>68.940347</ele>
        <time>2026-05-06T11:06:53.110Z</time>
      </trkpt>
      <trkpt lat="51.63499" lon="6.64364">
        <ele>69.012139</ele>
        <time>2026-05-06T11:06:56.121Z</time>
      </trkpt>
      <trkpt lat="51.63489" lon="6.64368">
        <ele>69.068624</ele>
        <time>2026-05-06T11:06:59.106Z</time>
      </trkpt>
      <trkpt lat="51.6348" lon="6.64371">
        <ele>69.121935</ele>
        <time>2026-05-06T11:07:02.104Z</time>
      </trkpt>
      <trkpt lat="51.63468" lon="6.64373">
        <ele>69.186593</ele>
        <time>2026-05-06T11:07:06.112Z</time>
      </trkpt>
      <trkpt lat="51.63458" lon="6.6438">
        <ele>69.245965</ele>
        <time>2026-05-06T11:07:10.093Z</time>
      </trkpt>
      <trkpt lat="51.63454" lon="6.64393">
        <ele>69.295433</ele>
        <time>2026-05-06T11:07:15.109Z</time>
      </trkpt>
      <trkpt lat="51.63446" lon="6.64403">
        <ele>69.349914</ele>
        <time>2026-05-06T11:07:21.117Z</time>
      </trkpt>
      <trkpt lat="51.63475" lon="6.64386">
        <ele>69.514976</ele>
        <time>2026-05-06T12:06:30.083Z</time>
      </trkpt>
      <trkpt lat="51.63484" lon="6.64385">
        <ele>69.567243</ele>
        <time>2026-05-06T12:06:33.085Z</time>
      </trkpt>
      <trkpt lat="51.63495" lon="6.64385">
        <ele>69.627555</ele>
        <time>2026-05-06T12:06:36.086Z</time>
      </trkpt>
      <trkpt lat="51.63505" lon="6.64386">
        <ele>69.680975</ele>
        <time>2026-05-06T12:06:39.087Z</time>
      </trkpt>
      <trkpt lat="51.63515" lon="6.64387">
        <ele>69.734727</ele>
        <time>2026-05-06T12:06:45.081Z</time>
      </trkpt>
      <trkpt lat="51.63524" lon="6.64388">
        <ele>69.789239</ele>
        <time>2026-05-06T12:06:52.083Z</time>
      </trkpt>
      <trkpt lat="51.63534" lon="6.64394">
        <ele>69.847619</ele>
        <time>2026-05-06T12:06:58.095Z</time>
      </trkpt>
      <trkpt lat="51.63534" lon="6.64412">
        <ele>69.907526</ele>
        <time>2026-05-06T12:07:02.087Z</time>
      </trkpt>
      <trkpt lat="51.63534" lon="6.64427">
        <ele>69.981068</ele>
        <time>2026-05-06T12:07:05.085Z</time>
      </trkpt>
      <trkpt lat="51.63533" lon="6.64443">
        <ele>70.102104</ele>
        <time>2026-05-06T12:07:08.093Z</time>
      </trkpt>
      <trkpt lat="51.63531" lon="6.64461">
        <ele>70.235567</ele>
        <time>2026-05-06T12:07:11.091Z</time>
      </trkpt>
      <trkpt lat="51.63529" lon="6.6448">
        <ele>70.38739</ele>
        <time>2026-05-06T12:07:14.087Z</time>
      </trkpt>
      <trkpt lat="51.63526" lon="6.64501">
        <ele>70.546182</ele>
        <time>2026-05-06T12:07:17.099Z</time>
      </trkpt>
      <trkpt lat="51.63524" lon="6.64521">
        <ele>70.703955</ele>
        <time>2026-05-06T12:07:20.083Z</time>
      </trkpt>
      <trkpt lat="51.63521" lon="6.64541">
        <ele>70.861059</ele>
        <time>2026-05-06T12:07:23.085Z</time>
      </trkpt>
      <trkpt lat="51.63523" lon="6.64562">
        <ele>71.016649</ele>
        <time>2026-05-06T12:07:26.102Z</time>
      </trkpt>
      <trkpt lat="51.63531" lon="6.64579">
        <ele>71.176763</ele>
        <time>2026-05-06T12:07:29.086Z</time>
      </trkpt>
      <trkpt lat="51.63542" lon="6.64588">
        <ele>71.335087</ele>
        <time>2026-05-06T12:07:32.102Z</time>
      </trkpt>
      <trkpt lat="51.63555" lon="6.64583">
        <ele>71.4864</ele>
        <time>2026-05-06T12:07:35.084Z</time>
      </trkpt>
      <trkpt lat="51.63564" lon="6.64571">
        <ele>71.632531</ele>
        <time>2026-05-06T12:07:38.078Z</time>
      </trkpt>
      <trkpt lat="51.63573" lon="6.64557">
        <ele>71.789918</ele>
        <time>2026-05-06T12:07:41.083Z</time>
      </trkpt>
      <trkpt lat="51.6358" lon="6.64546">
        <ele>71.907519</ele>
        <time>2026-05-06T12:07:43.085Z</time>
      </trkpt>
      <trkpt lat="51.63588" lon="6.64536">
        <ele>72.028437</ele>
        <time>2026-05-06T12:07:45.080Z</time>
      </trkpt>
      <trkpt lat="51.63595" lon="6.64526">
        <ele>72.13723</ele>
        <time>2026-05-06T12:07:47.088Z</time>
      </trkpt>
      <trkpt lat="51.63602" lon="6.64514">
        <ele>72.053448</ele>
        <time>2026-05-06T12:07:49.091Z</time>
      </trkpt>
      <trkpt lat="51.63609" lon="6.64502">
        <ele>71.968269</ele>
        <time>2026-05-06T12:07:51.092Z</time>
      </trkpt>
      <trkpt lat="51.63616" lon="6.64491">
        <ele>71.885874</ele>
        <time>2026-05-06T12:07:53.076Z</time>
      </trkpt>
      <trkpt lat="51.63622" lon="6.6448">
        <ele>71.806466</ele>
        <time>2026-05-06T12:07:55.104Z</time>
      </trkpt>
      <trkpt lat="51.6363" lon="6.64469">
        <ele>71.721654</ele>
        <time>2026-05-06T12:07:57.090Z</time>
      </trkpt>
      <trkpt lat="51.63636" lon="6.64457">
        <ele>71.636148</ele>
        <time>2026-05-06T12:07:59.096Z</time>
      </trkpt>
      <trkpt lat="51.63643" lon="6.64444">
        <ele>71.549373</ele>
        <time>2026-05-06T12:08:01.088Z</time>
      </trkpt>
      <trkpt lat="51.6365" lon="6.64432">
        <ele>71.465007</ele>
        <time>2026-05-06T12:08:03.093Z</time>
      </trkpt>
      <trkpt lat="51.63657" lon="6.64421">
        <ele>71.380559</ele>
        <time>2026-05-06T12:08:05.091Z</time>
      </trkpt>
      <trkpt lat="51.63665" lon="6.6441">
        <ele>71.295968</ele>
        <time>2026-05-06T12:08:07.092Z</time>
      </trkpt>
      <trkpt lat="51.63672" lon="6.64398">
        <ele>71.207531</ele>
        <time>2026-05-06T12:08:09.088Z</time>
      </trkpt>
      <trkpt lat="51.63679" lon="6.64386">
        <ele>71.121615</ele>
        <time>2026-05-06T12:08:11.082Z</time>
      </trkpt>
      <trkpt lat="51.63686" lon="6.64375">
        <ele>71.037832</ele>
        <time>2026-05-06T12:08:13.092Z</time>
      </trkpt>
      <trkpt lat="51.63694" lon="6.64364">
        <ele>70.952347</ele>
        <time>2026-05-06T12:08:15.097Z</time>
      </trkpt>
      <trkpt lat="51.63702" lon="6.64351">
        <ele>70.855209</ele>
        <time>2026-05-06T12:08:17.081Z</time>
      </trkpt>
      <trkpt lat="51.6371" lon="6.64339">
        <ele>70.76291</ele>
        <time>2026-05-06T12:08:19.081Z</time>
      </trkpt>
      <trkpt lat="51.63717" lon="6.64327">
        <ele>70.674543</ele>
        <time>2026-05-06T12:08:21.107Z</time>
      </trkpt>
      <trkpt lat="51.63724" lon="6.64314">
        <ele>70.683178</ele>
        <time>2026-05-06T12:08:23.107Z</time>
      </trkpt>
      <trkpt lat="51.63731" lon="6.64302">
        <ele>70.782596</ele>
        <time>2026-05-06T12:08:25.106Z</time>
      </trkpt>
      <trkpt lat="51.63738" lon="6.6429">
        <ele>70.881824</ele>
        <time>2026-05-06T12:08:27.102Z</time>
      </trkpt>
      <trkpt lat="51.63747" lon="6.64279">
        <ele>70.991689</ele>
        <time>2026-05-06T12:08:29.110Z</time>
      </trkpt>
      <trkpt lat="51.63754" lon="6.64269">
        <ele>71.089517</ele>
        <time>2026-05-06T12:08:31.093Z</time>
      </trkpt>
      <trkpt lat="51.63761" lon="6.6426">
        <ele>71.179578</ele>
        <time>2026-05-06T12:08:33.099Z</time>
      </trkpt>
      <trkpt lat="51.6377" lon="6.64251">
        <ele>71.28299</ele>
        <time>2026-05-06T12:08:35.096Z</time>
      </trkpt>
      <trkpt lat="51.63778" lon="6.64239">
        <ele>71.388085</ele>
        <time>2026-05-06T12:08:37.106Z</time>
      </trkpt>
      <trkpt lat="51.63785" lon="6.64226">
        <ele>71.497288</ele>
        <time>2026-05-06T12:08:39.108Z</time>
      </trkpt>
      <trkpt lat="51.63792" lon="6.64214">
        <ele>71.600819</ele>
        <time>2026-05-06T12:08:41.103Z</time>
      </trkpt>
      <trkpt lat="51.638" lon="6.64203">
        <ele>71.700361</ele>
        <time>2026-05-06T12:08:43.096Z</time>
      </trkpt>
      <trkpt lat="51.63807" lon="6.64191">
        <ele>71.807054</ele>
        <time>2026-05-06T12:08:45.109Z</time>
      </trkpt>
      <trkpt lat="51.63815" lon="6.64179">
        <ele>71.912867</ele>
        <time>2026-05-06T12:08:47.095Z</time>
      </trkpt>
      <trkpt lat="51.63822" lon="6.64167">
        <ele>72.016665</ele>
        <time>2026-05-06T12:08:49.105Z</time>
      </trkpt>
      <trkpt lat="51.63828" lon="6.64155">
        <ele>72.111533</ele>
        <time>2026-05-06T12:08:51.099Z</time>
      </trkpt>
      <trkpt lat="51.63835" lon="6.64145">
        <ele>72.202708</ele>
        <time>2026-05-06T12:08:53.117Z</time>
      </trkpt>
      <trkpt lat="51.63841" lon="6.64135">
        <ele>72.292736</ele>
        <time>2026-05-06T12:08:55.108Z</time>
      </trkpt>
      <trkpt lat="51.6385" lon="6.64119">
        <ele>72.422507</ele>
        <time>2026-05-06T12:08:58.093Z</time>
      </trkpt>
      <trkpt lat="51.63859" lon="6.64105">
        <ele>72.66008</ele>
        <time>2026-05-06T12:09:01.105Z</time>
      </trkpt>
      <trkpt lat="51.63867" lon="6.64092">
        <ele>72.884453</ele>
        <time>2026-05-06T12:09:04.102Z</time>
      </trkpt>
      <trkpt lat="51.63876" lon="6.64078">
        <ele>73.123839</ele>
        <time>2026-05-06T12:09:07.108Z</time>
      </trkpt>
      <trkpt lat="51.63885" lon="6.64064">
        <ele>73.357392</ele>
        <time>2026-05-06T12:09:10.097Z</time>
      </trkpt>
      <trkpt lat="51.63893" lon="6.64054">
        <ele>73.55986</ele>
        <time>2026-05-06T12:09:13.102Z</time>
      </trkpt>
      <trkpt lat="51.63901" lon="6.64043">
        <ele>73.759416</ele>
        <time>2026-05-06T12:09:16.111Z</time>
      </trkpt>
      <trkpt lat="51.63908" lon="6.64031">
        <ele>73.943476</ele>
        <time>2026-05-06T12:09:19.105Z</time>
      </trkpt>
      <trkpt lat="51.63913" lon="6.64019">
        <ele>74.121091</ele>
        <time>2026-05-06T12:09:22.102Z</time>
      </trkpt>
      <trkpt lat="51.63919" lon="6.64008">
        <ele>74.295661</ele>
        <time>2026-05-06T12:09:25.103Z</time>
      </trkpt>
      <trkpt lat="51.63927" lon="6.63995">
        <ele>74.514507</ele>
        <time>2026-05-06T12:09:29.108Z</time>
      </trkpt>
      <trkpt lat="51.63934" lon="6.63981">
        <ele>74.730805</ele>
        <time>2026-05-06T12:09:33.101Z</time>
      </trkpt>
      <trkpt lat="51.63942" lon="6.63968">
        <ele>74.941942</ele>
        <time>2026-05-06T12:09:37.097Z</time>
      </trkpt>
      <trkpt lat="51.63949" lon="6.63953">
        <ele>75.159842</ele>
        <time>2026-05-06T12:09:41.105Z</time>
      </trkpt>
      <trkpt lat="51.63955" lon="6.63938">
        <ele>75.37058</ele>
        <time>2026-05-06T12:09:45.104Z</time>
      </trkpt>
      <trkpt lat="51.63961" lon="6.63922">
        <ele>75.600389</ele>
        <time>2026-05-06T12:09:49.100Z</time>
      </trkpt>
      <trkpt lat="51.63968" lon="6.63906">
        <ele>75.823607</ele>
        <time>2026-05-06T12:09:53.116Z</time>
      </trkpt>
      <trkpt lat="51.63974" lon="6.63891">
        <ele>75.98657</ele>
        <time>2026-05-06T12:09:57.106Z</time>
      </trkpt>
      <trkpt lat="51.63979" lon="6.63879">
        <ele>76.105361</ele>
        <time>2026-05-06T12:10:00.117Z</time>
      </trkpt>
      <trkpt lat="51.63986" lon="6.63863">
        <ele>76.259375</ele>
        <time>2026-05-06T12:10:04.113Z</time>
      </trkpt>
      <trkpt lat="51.63991" lon="6.63851">
        <ele>76.376779</ele>
        <time>2026-05-06T12:10:07.106Z</time>
      </trkpt>
      <trkpt lat="51.63997" lon="6.63835">
        <ele>76.524366</ele>
        <time>2026-05-06T12:10:11.102Z</time>
      </trkpt>
      <trkpt lat="51.64004" lon="6.63821">
        <ele>76.670705</ele>
        <time>2026-05-06T12:10:15.098Z</time>
      </trkpt>
      <trkpt lat="51.64011" lon="6.63806">
        <ele>76.822177</ele>
        <time>2026-05-06T12:10:19.108Z</time>
      </trkpt>
      <trkpt lat="51.64018" lon="6.63792">
        <ele>76.968517</ele>
        <time>2026-05-06T12:10:23.109Z</time>
      </trkpt>
      <trkpt lat="51.64026" lon="6.63778">
        <ele>77.120195</ele>
        <time>2026-05-06T12:10:27.111Z</time>
      </trkpt>
      <trkpt lat="51.64034" lon="6.63764">
        <ele>77.27547</ele>
        <time>2026-05-06T12:10:31.097Z</time>
      </trkpt>
      <trkpt lat="51.6404" lon="6.63753">
        <ele>77.397325</ele>
        <time>2026-05-06T12:10:34.104Z</time>
      </trkpt>
      <trkpt lat="51.64046" lon="6.63742">
        <ele>77.51829</ele>
        <time>2026-05-06T12:10:37.109Z</time>
      </trkpt>
      <trkpt lat="51.64053" lon="6.6373">
        <ele>77.648685</ele>
        <time>2026-05-06T12:10:40.120Z</time>
      </trkpt>
      <trkpt lat="51.64059" lon="6.63718">
        <ele>77.770508</ele>
        <time>2026-05-06T12:10:43.096Z</time>
      </trkpt>
      <trkpt lat="51.64065" lon="6.63706">
        <ele>77.895462</ele>
        <time>2026-05-06T12:10:46.108Z</time>
      </trkpt>
      <trkpt lat="51.64071" lon="6.63693">
        <ele>78.026594</ele>
        <time>2026-05-06T12:10:49.105Z</time>
      </trkpt>
      <trkpt lat="51.64078" lon="6.6368">
        <ele>78.169338</ele>
        <time>2026-05-06T12:10:52.101Z</time>
      </trkpt>
      <trkpt lat="51.64086" lon="6.63666">
        <ele>78.057105</ele>
        <time>2026-05-06T12:10:55.104Z</time>
      </trkpt>
      <trkpt lat="51.64094" lon="6.63652">
        <ele>77.863888</ele>
        <time>2026-05-06T12:10:58.104Z</time>
      </trkpt>
      <trkpt lat="51.64102" lon="6.63638">
        <ele>77.663097</ele>
        <time>2026-05-06T12:11:01.101Z</time>
      </trkpt>
      <trkpt lat="51.64111" lon="6.63625">
        <ele>77.459501</ele>
        <time>2026-05-06T12:11:04.112Z</time>
      </trkpt>
      <trkpt lat="51.6412" lon="6.63612">
        <ele>77.253011</ele>
        <time>2026-05-06T12:11:07.105Z</time>
      </trkpt>
      <trkpt lat="51.6413" lon="6.63599">
        <ele>77.047195</ele>
        <time>2026-05-06T12:11:10.107Z</time>
      </trkpt>
      <trkpt lat="51.64139" lon="6.63586">
        <ele>76.845354</ele>
        <time>2026-05-06T12:11:13.107Z</time>
      </trkpt>
      <trkpt lat="51.6415" lon="6.63577">
        <ele>76.643324</ele>
        <time>2026-05-06T12:11:16.110Z</time>
      </trkpt>
      <trkpt lat="51.64162" lon="6.63568">
        <ele>76.422968</ele>
        <time>2026-05-06T12:11:19.111Z</time>
      </trkpt>
      <trkpt lat="51.6417" lon="6.63561">
        <ele>76.264365</ele>
        <time>2026-05-06T12:11:21.103Z</time>
      </trkpt>
      <trkpt lat="51.64179" lon="6.63554">
        <ele>76.103341</ele>
        <time>2026-05-06T12:11:23.101Z</time>
      </trkpt>
      <trkpt lat="51.64187" lon="6.63546">
        <ele>75.952226</ele>
        <time>2026-05-06T12:11:25.100Z</time>
      </trkpt>
      <trkpt lat="51.64196" lon="6.63536">
        <ele>75.76369</ele>
        <time>2026-05-06T12:11:28.129Z</time>
      </trkpt>
      <trkpt lat="51.64201" lon="6.63522">
        <ele>75.595349</ele>
        <time>2026-05-06T12:11:31.104Z</time>
      </trkpt>
      <trkpt lat="51.64208" lon="6.6351">
        <ele>75.431116</ele>
        <time>2026-05-06T12:11:35.103Z</time>
      </trkpt>
      <trkpt lat="51.64251" lon="6.63484">
        <ele>74.799389</ele>
        <time>2026-05-06T12:12:22.115Z</time>
      </trkpt>
      <trkpt lat="51.64261" lon="6.63476">
        <ele>74.66577</ele>
        <time>2026-05-06T12:12:24.114Z</time>
      </trkpt>
      <trkpt lat="51.64271" lon="6.63468">
        <ele>74.532011</ele>
        <time>2026-05-06T12:12:26.101Z</time>
      </trkpt>
      <trkpt lat="51.64281" lon="6.6346">
        <ele>74.395285</ele>
        <time>2026-05-06T12:12:28.120Z</time>
      </trkpt>
      <trkpt lat="51.64291" lon="6.63452">
        <ele>74.256001</ele>
        <time>2026-05-06T12:12:30.101Z</time>
      </trkpt>
      <trkpt lat="51.643" lon="6.63445">
        <ele>74.123827</ele>
        <time>2026-05-06T12:12:32.122Z</time>
      </trkpt>
      <trkpt lat="51.6431" lon="6.63437">
        <ele>73.987516</ele>
        <time>2026-05-06T12:12:34.105Z</time>
      </trkpt>
      <trkpt lat="51.6432" lon="6.63429">
        <ele>73.85195</ele>
        <time>2026-05-06T12:12:36.104Z</time>
      </trkpt>
      <trkpt lat="51.64329" lon="6.63421">
        <ele>73.721024</ele>
        <time>2026-05-06T12:12:38.110Z</time>
      </trkpt>
      <trkpt lat="51.64339" lon="6.63415">
        <ele>73.593502</ele>
        <time>2026-05-06T12:12:40.104Z</time>
      </trkpt>
      <trkpt lat="51.64348" lon="6.63407">
        <ele>73.466586</ele>
        <time>2026-05-06T12:12:42.102Z</time>
      </trkpt>
      <trkpt lat="51.64357" lon="6.63402">
        <ele>73.344321</ele>
        <time>2026-05-06T12:12:44.105Z</time>
      </trkpt>
      <trkpt lat="51.64366" lon="6.63396">
        <ele>73.230605</ele>
        <time>2026-05-06T12:12:46.100Z</time>
      </trkpt>
      <trkpt lat="51.64374" lon="6.6339">
        <ele>73.118332</ele>
        <time>2026-05-06T12:12:48.119Z</time>
      </trkpt>
      <trkpt lat="51.64385" lon="6.6338">
        <ele>72.999071</ele>
        <time>2026-05-06T12:12:51.104Z</time>
      </trkpt>
      <trkpt lat="51.64396" lon="6.63373">
        <ele>73.067496</ele>
        <time>2026-05-06T12:12:54.104Z</time>
      </trkpt>
      <trkpt lat="51.64407" lon="6.63363">
        <ele>73.13983</ele>
        <time>2026-05-06T12:12:57.099Z</time>
      </trkpt>
      <trkpt lat="51.64419" lon="6.63353">
        <ele>73.212152</ele>
        <time>2026-05-06T12:13:00.094Z</time>
      </trkpt>
      <trkpt lat="51.64429" lon="6.63343">
        <ele>73.284563</ele>
        <time>2026-05-06T12:13:03.104Z</time>
      </trkpt>
      <trkpt lat="51.64441" lon="6.63333">
        <ele>73.357535</ele>
        <time>2026-05-06T12:13:06.109Z</time>
      </trkpt>
      <trkpt lat="51.64449" lon="6.63326">
        <ele>73.409953</ele>
        <time>2026-05-06T12:13:08.106Z</time>
      </trkpt>
      <trkpt lat="51.64461" lon="6.63316">
        <ele>73.486091</ele>
        <time>2026-05-06T12:13:11.102Z</time>
      </trkpt>
      <trkpt lat="51.64472" lon="6.63308">
        <ele>73.555884</ele>
        <time>2026-05-06T12:13:14.104Z</time>
      </trkpt>
      <trkpt lat="51.64481" lon="6.63302">
        <ele>73.607732</ele>
        <time>2026-05-06T12:13:16.099Z</time>
      </trkpt>
      <trkpt lat="51.64492" lon="6.63293">
        <ele>73.681592</ele>
        <time>2026-05-06T12:13:19.103Z</time>
      </trkpt>
      <trkpt lat="51.64501" lon="6.63287">
        <ele>73.73344</ele>
        <time>2026-05-06T12:13:21.098Z</time>
      </trkpt>
      <trkpt lat="51.6451" lon="6.63281">
        <ele>73.789493</ele>
        <time>2026-05-06T12:13:23.102Z</time>
      </trkpt>
      <trkpt lat="51.64519" lon="6.63275">
        <ele>73.847512</ele>
        <time>2026-05-06T12:13:25.105Z</time>
      </trkpt>
      <trkpt lat="51.64528" lon="6.6327">
        <ele>73.901876</ele>
        <time>2026-05-06T12:13:27.103Z</time>
      </trkpt>
      <trkpt lat="51.64538" lon="6.63264">
        <ele>73.958376</ele>
        <time>2026-05-06T12:13:29.097Z</time>
      </trkpt>
      <trkpt lat="51.64547" lon="6.6326">
        <ele>73.998684</ele>
        <time>2026-05-06T12:13:31.113Z</time>
      </trkpt>
      <trkpt lat="51.64557" lon="6.63256">
        <ele>73.921056</ele>
        <time>2026-05-06T12:13:33.115Z</time>
      </trkpt>
      <trkpt lat="51.64566" lon="6.63251">
        <ele>73.84455</ele>
        <time>2026-05-06T12:13:35.106Z</time>
      </trkpt>
      <trkpt lat="51.64575" lon="6.63246">
        <ele>73.771308</ele>
        <time>2026-05-06T12:13:37.095Z</time>
      </trkpt>
      <trkpt lat="51.64583" lon="6.6324">
        <ele>73.698584</ele>
        <time>2026-05-06T12:13:39.111Z</time>
      </trkpt>
      <trkpt lat="51.64591" lon="6.63234">
        <ele>73.62694</ele>
        <time>2026-05-06T12:13:41.102Z</time>
      </trkpt>
      <trkpt lat="51.64603" lon="6.63224">
        <ele>73.526339</ele>
        <time>2026-05-06T12:13:44.105Z</time>
      </trkpt>
      <trkpt lat="51.64612" lon="6.63214">
        <ele>73.437306</ele>
        <time>2026-05-06T12:13:47.101Z</time>
      </trkpt>
      <trkpt lat="51.6462" lon="6.63206">
        <ele>73.359814</ele>
        <time>2026-05-06T12:13:50.107Z</time>
      </trkpt>
      <trkpt lat="51.64631" lon="6.63197">
        <ele>73.266502</ele>
        <time>2026-05-06T12:13:54.097Z</time>
      </trkpt>
      <trkpt lat="51.64638" lon="6.63187">
        <ele>73.188678</ele>
        <time>2026-05-06T12:13:57.103Z</time>
      </trkpt>
      <trkpt lat="51.64647" lon="6.63177">
        <ele>73.102559</ele>
        <time>2026-05-06T12:14:00.104Z</time>
      </trkpt>
      <trkpt lat="51.64657" lon="6.63168">
        <ele>73.013381</ele>
        <time>2026-05-06T12:14:03.109Z</time>
      </trkpt>
      <trkpt lat="51.64667" lon="6.63158">
        <ele>72.922003</ele>
        <time>2026-05-06T12:14:06.103Z</time>
      </trkpt>
      <trkpt lat="51.64678" lon="6.63148">
        <ele>72.823119</ele>
        <time>2026-05-06T12:14:09.107Z</time>
      </trkpt>
      <trkpt lat="51.64689" lon="6.63137">
        <ele>72.722274</ele>
        <time>2026-05-06T12:14:12.103Z</time>
      </trkpt>
      <trkpt lat="51.64699" lon="6.63126">
        <ele>72.622878</ele>
        <time>2026-05-06T12:14:15.096Z</time>
      </trkpt>
      <trkpt lat="51.6471" lon="6.63116">
        <ele>72.519218</ele>
        <time>2026-05-06T12:14:18.103Z</time>
      </trkpt>
      <trkpt lat="51.6472" lon="6.63104">
        <ele>72.410329</ele>
        <time>2026-05-06T12:14:21.098Z</time>
      </trkpt>
      <trkpt lat="51.64731" lon="6.63094">
        <ele>72.298454</ele>
        <time>2026-05-06T12:14:24.103Z</time>
      </trkpt>
      <trkpt lat="51.64741" lon="6.63084">
        <ele>72.187427</ele>
        <time>2026-05-06T12:14:27.102Z</time>
      </trkpt>
      <trkpt lat="51.64752" lon="6.63074">
        <ele>72.078813</ele>
        <time>2026-05-06T12:14:30.107Z</time>
      </trkpt>
      <trkpt lat="51.64762" lon="6.63064">
        <ele>71.97271</ele>
        <time>2026-05-06T12:14:33.118Z</time>
      </trkpt>
      <trkpt lat="51.64772" lon="6.63054">
        <ele>71.869049</ele>
        <time>2026-05-06T12:14:36.111Z</time>
      </trkpt>
      <trkpt lat="51.64781" lon="6.63043">
        <ele>71.768026</ele>
        <time>2026-05-06T12:14:39.100Z</time>
      </trkpt>
      <trkpt lat="51.64791" lon="6.63033">
        <ele>71.664195</ele>
        <time>2026-05-06T12:14:42.108Z</time>
      </trkpt>
      <trkpt lat="51.64802" lon="6.63024">
        <ele>71.557127</ele>
        <time>2026-05-06T12:14:45.103Z</time>
      </trkpt>
      <trkpt lat="51.64813" lon="6.63014">
        <ele>71.447965</ele>
        <time>2026-05-06T12:14:48.099Z</time>
      </trkpt>
      <trkpt lat="51.64823" lon="6.63002">
        <ele>71.337988</ele>
        <time>2026-05-06T12:14:51.096Z</time>
      </trkpt>
      <trkpt lat="51.64833" lon="6.62992">
        <ele>71.228334</ele>
        <time>2026-05-06T12:14:54.116Z</time>
      </trkpt>
      <trkpt lat="51.64844" lon="6.62983">
        <ele>71.121552</ele>
        <time>2026-05-06T12:14:57.104Z</time>
      </trkpt>
      <trkpt lat="51.64854" lon="6.62972">
        <ele>71.012356</ele>
        <time>2026-05-06T12:15:00.114Z</time>
      </trkpt>
      <trkpt lat="51.64865" lon="6.62959">
        <ele>70.791263</ele>
        <time>2026-05-06T12:15:03.099Z</time>
      </trkpt>
      <trkpt lat="51.64872" lon="6.6295">
        <ele>70.623545</ele>
        <time>2026-05-06T12:15:05.107Z</time>
      </trkpt>
      <trkpt lat="51.64879" lon="6.6294">
        <ele>70.458323</ele>
        <time>2026-05-06T12:15:07.103Z</time>
      </trkpt>
      <trkpt lat="51.64885" lon="6.62928">
        <ele>70.276695</ele>
        <time>2026-05-06T12:15:09.103Z</time>
      </trkpt>
      <trkpt lat="51.64891" lon="6.62916">
        <ele>70.106656</ele>
        <time>2026-05-06T12:15:11.104Z</time>
      </trkpt>
      <trkpt lat="51.64897" lon="6.62904">
        <ele>69.932608</ele>
        <time>2026-05-06T12:15:13.102Z</time>
      </trkpt>
      <trkpt lat="51.64903" lon="6.62892">
        <ele>69.761053</ele>
        <time>2026-05-06T12:15:15.098Z</time>
      </trkpt>
      <trkpt lat="51.64907" lon="6.62878">
        <ele>69.585229</ele>
        <time>2026-05-06T12:15:17.096Z</time>
      </trkpt>
      <trkpt lat="51.64911" lon="6.62863">
        <ele>69.407652</ele>
        <time>2026-05-06T12:15:19.101Z</time>
      </trkpt>
      <trkpt lat="51.64914" lon="6.62848">
        <ele>69.227096</ele>
        <time>2026-05-06T12:15:21.093Z</time>
      </trkpt>
      <trkpt lat="51.64917" lon="6.62833">
        <ele>69.049747</ele>
        <time>2026-05-06T12:15:23.104Z</time>
      </trkpt>
      <trkpt lat="51.64918" lon="6.62817">
        <ele>68.87079</ele>
        <time>2026-05-06T12:15:25.096Z</time>
      </trkpt>
      <trkpt lat="51.6492" lon="6.62802">
        <ele>68.69516</ele>
        <time>2026-05-06T12:15:27.093Z</time>
      </trkpt>
      <trkpt lat="51.64922" lon="6.62787">
        <ele>68.517712</ele>
        <time>2026-05-06T12:15:29.099Z</time>
      </trkpt>
      <trkpt lat="51.64924" lon="6.62771">
        <ele>68.336857</ele>
        <time>2026-05-06T12:15:31.100Z</time>
      </trkpt>
      <trkpt lat="51.64925" lon="6.62755">
        <ele>68.156588</ele>
        <time>2026-05-06T12:15:33.103Z</time>
      </trkpt>
      <trkpt lat="51.64927" lon="6.6274">
        <ele>67.979662</ele>
        <time>2026-05-06T12:15:35.094Z</time>
      </trkpt>
      <trkpt lat="51.64928" lon="6.62724">
        <ele>67.803123</ele>
        <time>2026-05-06T12:15:37.103Z</time>
      </trkpt>
      <trkpt lat="51.64929" lon="6.62708">
        <ele>67.657694</ele>
        <time>2026-05-06T12:15:39.106Z</time>
      </trkpt>
      <trkpt lat="51.6493" lon="6.62693">
        <ele>67.53856</ele>
        <time>2026-05-06T12:15:41.100Z</time>
      </trkpt>
      <trkpt lat="51.64931" lon="6.62677">
        <ele>67.422299</ele>
        <time>2026-05-06T12:15:43.104Z</time>
      </trkpt>
      <trkpt lat="51.64932" lon="6.62661">
        <ele>67.303608</ele>
        <time>2026-05-06T12:15:45.114Z</time>
      </trkpt>
      <trkpt lat="51.64933" lon="6.62646">
        <ele>67.183195</ele>
        <time>2026-05-06T12:15:47.099Z</time>
      </trkpt>
      <trkpt lat="51.64934" lon="6.6263">
        <ele>67.065149</ele>
        <time>2026-05-06T12:15:49.107Z</time>
      </trkpt>
      <trkpt lat="51.64934" lon="6.62614">
        <ele>66.946551</ele>
        <time>2026-05-06T12:15:51.101Z</time>
      </trkpt>
      <trkpt lat="51.64935" lon="6.62599">
        <ele>66.83036</ele>
        <time>2026-05-06T12:15:53.099Z</time>
      </trkpt>
      <trkpt lat="51.64935" lon="6.62584">
        <ele>66.716427</ele>
        <time>2026-05-06T12:15:55.097Z</time>
      </trkpt>
      <trkpt lat="51.64937" lon="6.62569">
        <ele>66.603967</ele>
        <time>2026-05-06T12:15:57.101Z</time>
      </trkpt>
      <trkpt lat="51.64937" lon="6.62554">
        <ele>66.492132</ele>
        <time>2026-05-06T12:15:59.106Z</time>
      </trkpt>
      <trkpt lat="51.64938" lon="6.62539">
        <ele>66.378128</ele>
        <time>2026-05-06T12:16:01.102Z</time>
      </trkpt>
      <trkpt lat="51.64938" lon="6.62524">
        <ele>66.262689</ele>
        <time>2026-05-06T12:16:03.106Z</time>
      </trkpt>
      <trkpt lat="51.64939" lon="6.62509">
        <ele>66.148684</ele>
        <time>2026-05-06T12:16:05.094Z</time>
      </trkpt>
      <trkpt lat="51.6494" lon="6.62494">
        <ele>66.035889</ele>
        <time>2026-05-06T12:16:07.101Z</time>
      </trkpt>
      <trkpt lat="51.64941" lon="6.62479">
        <ele>65.925965</ele>
        <time>2026-05-06T12:16:09.109Z</time>
      </trkpt>
      <trkpt lat="51.64942" lon="6.62465">
        <ele>65.815901</ele>
        <time>2026-05-06T12:16:11.098Z</time>
      </trkpt>
      <trkpt lat="51.64943" lon="6.6245">
        <ele>65.705355</ele>
        <time>2026-05-06T12:16:13.107Z</time>
      </trkpt>
      <trkpt lat="51.64944" lon="6.62436">
        <ele>65.59529</ele>
        <time>2026-05-06T12:16:15.102Z</time>
      </trkpt>
      <trkpt lat="51.64944" lon="6.62421">
        <ele>65.400767</ele>
        <time>2026-05-06T12:16:17.101Z</time>
      </trkpt>
      <trkpt lat="51.64945" lon="6.62406">
        <ele>65.127254</ele>
        <time>2026-05-06T12:16:19.105Z</time>
      </trkpt>
      <trkpt lat="51.64946" lon="6.62391">
        <ele>64.857818</ele>
        <time>2026-05-06T12:16:21.104Z</time>
      </trkpt>
      <trkpt lat="51.64946" lon="6.62376">
        <ele>64.593286</ele>
        <time>2026-05-06T12:16:23.102Z</time>
      </trkpt>
      <trkpt lat="51.64945" lon="6.62355">
        <ele>64.21355</ele>
        <time>2026-05-06T12:16:26.096Z</time>
      </trkpt>
      <trkpt lat="51.64946" lon="6.62334">
        <ele>63.833935</ele>
        <time>2026-05-06T12:16:29.115Z</time>
      </trkpt>
      <trkpt lat="51.64946" lon="6.62312">
        <ele>63.440044</ele>
        <time>2026-05-06T12:16:32.103Z</time>
      </trkpt>
      <trkpt lat="51.64946" lon="6.62297">
        <ele>63.175703</ele>
        <time>2026-05-06T12:16:34.100Z</time>
      </trkpt>
      <trkpt lat="51.64946" lon="6.62276">
        <ele>62.790873</ele>
        <time>2026-05-06T12:16:37.102Z</time>
      </trkpt>
      <trkpt lat="51.64947" lon="6.62261">
        <ele>62.524545</ele>
        <time>2026-05-06T12:16:39.115Z</time>
      </trkpt>
      <trkpt lat="51.64947" lon="6.62246">
        <ele>62.260267</ele>
        <time>2026-05-06T12:16:41.100Z</time>
      </trkpt>
      <trkpt lat="51.64947" lon="6.62225">
        <ele>61.884123</ele>
        <time>2026-05-06T12:16:44.102Z</time>
      </trkpt>
      <trkpt lat="51.64948" lon="6.62204">
        <ele>61.491676</ele>
        <time>2026-05-06T12:16:47.110Z</time>
      </trkpt>
      <trkpt lat="51.64949" lon="6.62189">
        <ele>61.225033</ele>
        <time>2026-05-06T12:16:49.109Z</time>
      </trkpt>
      <trkpt lat="51.6495" lon="6.62174">
        <ele>60.95527</ele>
        <time>2026-05-06T12:16:51.102Z</time>
      </trkpt>
      <trkpt lat="51.6495" lon="6.62159">
        <ele>60.680144</ele>
        <time>2026-05-06T12:16:53.100Z</time>
      </trkpt>
      <trkpt lat="51.64951" lon="6.62137">
        <ele>60.393898</ele>
        <time>2026-05-06T12:16:56.104Z</time>
      </trkpt>
      <trkpt lat="51.64953" lon="6.62122">
        <ele>60.818294</ele>
        <time>2026-05-06T12:16:58.104Z</time>
      </trkpt>
      <trkpt lat="51.64954" lon="6.62107">
        <ele>61.237743</ele>
        <time>2026-05-06T12:17:00.105Z</time>
      </trkpt>
      <trkpt lat="51.64956" lon="6.62093">
        <ele>61.657692</ele>
        <time>2026-05-06T12:17:02.110Z</time>
      </trkpt>
      <trkpt lat="51.64957" lon="6.62078">
        <ele>62.065859</ele>
        <time>2026-05-06T12:17:04.105Z</time>
      </trkpt>
      <trkpt lat="51.64959" lon="6.62064">
        <ele>62.475615</ele>
        <time>2026-05-06T12:17:06.111Z</time>
      </trkpt>
      <trkpt lat="51.64961" lon="6.62049">
        <ele>62.88537</ele>
        <time>2026-05-06T12:17:08.106Z</time>
      </trkpt>
      <trkpt lat="51.64963" lon="6.62035">
        <ele>63.297865</ele>
        <time>2026-05-06T12:17:10.099Z</time>
      </trkpt>
      <trkpt lat="51.64964" lon="6.62021">
        <ele>63.704637</ele>
        <time>2026-05-06T12:17:12.116Z</time>
      </trkpt>
      <trkpt lat="51.64965" lon="6.62006">
        <ele>64.115241</ele>
        <time>2026-05-06T12:17:14.104Z</time>
      </trkpt>
      <trkpt lat="51.64967" lon="6.61992">
        <ele>64.524177</ele>
        <time>2026-05-06T12:17:16.106Z</time>
      </trkpt>
      <trkpt lat="51.64968" lon="6.61977">
        <ele>64.951653</ele>
        <time>2026-05-06T12:17:18.097Z</time>
      </trkpt>
      <trkpt lat="51.64969" lon="6.61962">
        <ele>65.369356</ele>
        <time>2026-05-06T12:17:20.100Z</time>
      </trkpt>
      <trkpt lat="51.64969" lon="6.61947">
        <ele>65.783291</ele>
        <time>2026-05-06T12:17:22.106Z</time>
      </trkpt>
      <trkpt lat="51.64968" lon="6.61932">
        <ele>66.195419</ele>
        <time>2026-05-06T12:17:24.104Z</time>
      </trkpt>
      <trkpt lat="51.64967" lon="6.61911">
        <ele>66.786084</ele>
        <time>2026-05-06T12:17:27.110Z</time>
      </trkpt>
      <trkpt lat="51.64968" lon="6.6189">
        <ele>67.376337</ele>
        <time>2026-05-06T12:17:30.121Z</time>
      </trkpt>
      <trkpt lat="51.64968" lon="6.61875">
        <ele>67.785082</ele>
        <time>2026-05-06T12:17:32.103Z</time>
      </trkpt>
      <trkpt lat="51.64969" lon="6.6186">
        <ele>68.201982</ele>
        <time>2026-05-06T12:17:34.100Z</time>
      </trkpt>
      <trkpt lat="51.6497" lon="6.61839">
        <ele>68.524435</ele>
        <time>2026-05-06T12:17:37.104Z</time>
      </trkpt>
      <trkpt lat="51.6497" lon="6.61824">
        <ele>68.621536</ele>
        <time>2026-05-06T12:17:39.095Z</time>
      </trkpt>
      <trkpt lat="51.64971" lon="6.61809">
        <ele>68.721305</ele>
        <time>2026-05-06T12:17:41.099Z</time>
      </trkpt>
      <trkpt lat="51.64971" lon="6.61788">
        <ele>68.86169</ele>
        <time>2026-05-06T12:17:44.105Z</time>
      </trkpt>
      <trkpt lat="51.64972" lon="6.61768">
        <ele>69.000108</ele>
        <time>2026-05-06T12:17:47.104Z</time>
      </trkpt>
      <trkpt lat="51.64972" lon="6.61747">
        <ele>69.135818</ele>
        <time>2026-05-06T12:17:50.094Z</time>
      </trkpt>
      <trkpt lat="51.64973" lon="6.61727">
        <ele>69.272471</ele>
        <time>2026-05-06T12:17:53.102Z</time>
      </trkpt>
      <trkpt lat="51.64974" lon="6.61708">
        <ele>69.39959</ele>
        <time>2026-05-06T12:17:56.118Z</time>
      </trkpt>
      <trkpt lat="51.64974" lon="6.61691">
        <ele>69.515311</ele>
        <time>2026-05-06T12:17:59.102Z</time>
      </trkpt>
      <trkpt lat="51.64973" lon="6.61674">
        <ele>69.630425</ele>
        <time>2026-05-06T12:18:02.112Z</time>
      </trkpt>
      <trkpt lat="51.64972" lon="6.61657">
        <ele>69.744212</ele>
        <time>2026-05-06T12:18:05.107Z</time>
      </trkpt>
      <trkpt lat="51.6497" lon="6.6164">
        <ele>69.858419</ele>
        <time>2026-05-06T12:18:08.105Z</time>
      </trkpt>
      <trkpt lat="51.64969" lon="6.61623">
        <ele>69.971682</ele>
        <time>2026-05-06T12:18:11.103Z</time>
      </trkpt>
      <trkpt lat="51.64968" lon="6.61607">
        <ele>70.081492</ele>
        <time>2026-05-06T12:18:14.100Z</time>
      </trkpt>
      <trkpt lat="51.64967" lon="6.6159">
        <ele>70.194165</ele>
        <time>2026-05-06T12:18:18.106Z</time>
      </trkpt>
      <trkpt lat="51.64965" lon="6.61574">
        <ele>70.304748</ele>
        <time>2026-05-06T12:18:24.099Z</time>
      </trkpt>
      <trkpt lat="51.64993" lon="6.61569">
        <ele>70.752764</ele>
        <time>2026-05-06T12:21:20.108Z</time>
      </trkpt>
      <trkpt lat="51.65003" lon="6.61568">
        <ele>70.912837</ele>
        <time>2026-05-06T12:21:28.111Z</time>
      </trkpt>
      <trkpt lat="51.65023" lon="6.61524">
        <ele>71.491906</ele>
        <time>2026-05-06T12:22:34.117Z</time>
      </trkpt>
      <trkpt lat="51.65026" lon="6.61508">
        <ele>71.670505</ele>
        <time>2026-05-06T12:22:37.106Z</time>
      </trkpt>
      <trkpt lat="51.65026" lon="6.6149">
        <ele>71.861489</ele>
        <time>2026-05-06T12:22:40.099Z</time>
      </trkpt>
      <trkpt lat="51.65027" lon="6.61472">
        <ele>72.047259</ele>
        <time>2026-05-06T12:22:43.100Z</time>
      </trkpt>
      <trkpt lat="51.6503" lon="6.61457">
        <ele>72.218606</ele>
        <time>2026-05-06T12:22:46.102Z</time>
      </trkpt>
      <trkpt lat="51.65034" lon="6.61443">
        <ele>72.386689</ele>
        <time>2026-05-06T12:22:49.111Z</time>
      </trkpt>
      <trkpt lat="51.6504" lon="6.6143">
        <ele>72.549518</ele>
        <time>2026-05-06T12:22:52.106Z</time>
      </trkpt>
      <trkpt lat="51.65045" lon="6.61416">
        <ele>72.722804</ele>
        <time>2026-05-06T12:22:55.089Z</time>
      </trkpt>
      <trkpt lat="51.65052" lon="6.61399">
        <ele>72.931803</ele>
        <time>2026-05-06T12:22:58.104Z</time>
      </trkpt>
      <trkpt lat="51.65058" lon="6.61388">
        <ele>73.089532</ele>
        <time>2026-05-06T12:23:00.097Z</time>
      </trkpt>
      <trkpt lat="51.65066" lon="6.61371">
        <ele>73.315688</ele>
        <time>2026-05-06T12:23:03.103Z</time>
      </trkpt>
      <trkpt lat="51.65073" lon="6.61355">
        <ele>73.461127</ele>
        <time>2026-05-06T12:23:06.098Z</time>
      </trkpt>
      <trkpt lat="51.6508" lon="6.6134">
        <ele>73.521284</ele>
        <time>2026-05-06T12:23:09.103Z</time>
      </trkpt>
      <trkpt lat="51.65088" lon="6.61327">
        <ele>73.582192</ele>
        <time>2026-05-06T12:23:12.111Z</time>
      </trkpt>
      <trkpt lat="51.65097" lon="6.61316">
        <ele>73.643054</ele>
        <time>2026-05-06T12:23:15.097Z</time>
      </trkpt>
      <trkpt lat="51.65105" lon="6.613">
        <ele>73.709189</ele>
        <time>2026-05-06T12:23:18.098Z</time>
      </trkpt>
      <trkpt lat="51.65111" lon="6.61281">
        <ele>73.78078</ele>
        <time>2026-05-06T12:23:21.093Z</time>
      </trkpt>
      <trkpt lat="51.65115" lon="6.61267">
        <ele>73.832692</ele>
        <time>2026-05-06T12:23:23.102Z</time>
      </trkpt>
      <trkpt lat="51.65121" lon="6.61253">
        <ele>73.886785</ele>
        <time>2026-05-06T12:23:25.115Z</time>
      </trkpt>
      <trkpt lat="51.65127" lon="6.6124">
        <ele>73.941709</ele>
        <time>2026-05-06T12:23:27.099Z</time>
      </trkpt>
      <trkpt lat="51.65133" lon="6.61227">
        <ele>73.99287</ele>
        <time>2026-05-06T12:23:29.101Z</time>
      </trkpt>
      <trkpt lat="51.6514" lon="6.61213">
        <ele>74.053096</ele>
        <time>2026-05-06T12:23:31.106Z</time>
      </trkpt>
      <trkpt lat="51.65146" lon="6.61198">
        <ele>74.110836</ele>
        <time>2026-05-06T12:23:33.105Z</time>
      </trkpt>
      <trkpt lat="51.65152" lon="6.61184">
        <ele>74.168068</ele>
        <time>2026-05-06T12:23:35.103Z</time>
      </trkpt>
      <trkpt lat="51.65158" lon="6.61169">
        <ele>74.225521</ele>
        <time>2026-05-06T12:23:37.112Z</time>
      </trkpt>
      <trkpt lat="51.65164" lon="6.61154">
        <ele>74.285806</ele>
        <time>2026-05-06T12:23:39.102Z</time>
      </trkpt>
      <trkpt lat="51.6517" lon="6.6114">
        <ele>74.341031</ele>
        <time>2026-05-06T12:23:41.105Z</time>
      </trkpt>
      <trkpt lat="51.65175" lon="6.61127">
        <ele>74.395794</ele>
        <time>2026-05-06T12:23:43.110Z</time>
      </trkpt>
      <trkpt lat="51.65183" lon="6.6111">
        <ele>74.500884</ele>
        <time>2026-05-06T12:23:46.112Z</time>
      </trkpt>
      <trkpt lat="51.65191" lon="6.61092">
        <ele>74.610486</ele>
        <time>2026-05-06T12:23:49.091Z</time>
      </trkpt>
      <trkpt lat="51.65197" lon="6.61078">
        <ele>74.696751</ele>
        <time>2026-05-06T12:23:51.103Z</time>
      </trkpt>
      <trkpt lat="51.65204" lon="6.61063">
        <ele>74.79221</ele>
        <time>2026-05-06T12:23:53.107Z</time>
      </trkpt>
      <trkpt lat="51.65209" lon="6.6105">
        <ele>74.869098</ele>
        <time>2026-05-06T12:23:55.102Z</time>
      </trkpt>
      <trkpt lat="51.65215" lon="6.61036">
        <ele>74.948139</ele>
        <time>2026-05-06T12:23:57.093Z</time>
      </trkpt>
      <trkpt lat="51.6522" lon="6.61022">
        <ele>75.033048</ele>
        <time>2026-05-06T12:23:59.106Z</time>
      </trkpt>
      <trkpt lat="51.65226" lon="6.61008">
        <ele>75.112895</ele>
        <time>2026-05-06T12:24:01.107Z</time>
      </trkpt>
      <trkpt lat="51.65231" lon="6.60994">
        <ele>75.193574</ele>
        <time>2026-05-06T12:24:03.096Z</time>
      </trkpt>
      <trkpt lat="51.65237" lon="6.6098">
        <ele>75.281484</ele>
        <time>2026-05-06T12:24:05.104Z</time>
      </trkpt>
      <trkpt lat="51.65242" lon="6.60966">
        <ele>75.363436</ele>
        <time>2026-05-06T12:24:07.102Z</time>
      </trkpt>
      <trkpt lat="51.65248" lon="6.60952">
        <ele>75.445433</ele>
        <time>2026-05-06T12:24:09.114Z</time>
      </trkpt>
      <trkpt lat="51.65256" lon="6.60937">
        <ele>75.541972</ele>
        <time>2026-05-06T12:24:12.110Z</time>
      </trkpt>
      <trkpt lat="51.65261" lon="6.60925">
        <ele>75.615034</ele>
        <time>2026-05-06T12:24:15.099Z</time>
      </trkpt>
      <trkpt lat="51.65268" lon="6.60912">
        <ele>75.701088</ele>
        <time>2026-05-06T12:24:20.125Z</time>
      </trkpt>
      <trkpt lat="51.65275" lon="6.60899">
        <ele>75.786636</ele>
        <time>2026-05-06T12:24:24.100Z</time>
      </trkpt>
      <trkpt lat="51.6528" lon="6.60886">
        <ele>75.882752</ele>
        <time>2026-05-06T12:24:30.104Z</time>
      </trkpt>
      <trkpt lat="51.65289" lon="6.6088">
        <ele>76.016694</ele>
        <time>2026-05-06T12:24:37.097Z</time>
      </trkpt>
      <trkpt lat="51.653" lon="6.60879">
        <ele>76.158648</ele>
        <time>2026-05-06T12:24:41.098Z</time>
      </trkpt>
      <trkpt lat="51.6531" lon="6.60878">
        <ele>76.295122</ele>
        <time>2026-05-06T12:24:44.107Z</time>
      </trkpt>
      <trkpt lat="51.65318" lon="6.60874">
        <ele>76.418984</ele>
        <time>2026-05-06T12:24:47.100Z</time>
      </trkpt>
      <trkpt lat="51.6533" lon="6.6087">
        <ele>76.576441</ele>
        <time>2026-05-06T12:24:51.109Z</time>
      </trkpt>
      <trkpt lat="51.65339" lon="6.60864">
        <ele>76.708202</ele>
        <time>2026-05-06T12:24:55.100Z</time>
      </trkpt>
      <trkpt lat="51.65345" lon="6.60852">
        <ele>76.8437</ele>
        <time>2026-05-06T12:25:00.101Z</time>
      </trkpt>
      <trkpt lat="51.65355" lon="6.60854">
        <ele>76.971086</ele>
        <time>2026-05-06T12:25:05.111Z</time>
      </trkpt>
      <trkpt lat="51.65366" lon="6.60854">
        <ele>77.124997</ele>
        <time>2026-05-06T12:25:09.098Z</time>
      </trkpt>
      <trkpt lat="51.65375" lon="6.60851">
        <ele>77.249582</ele>
        <time>2026-05-06T12:25:12.114Z</time>
      </trkpt>
      <trkpt lat="51.65386" lon="6.6085">
        <ele>77.404172</ele>
        <time>2026-05-06T12:25:15.114Z</time>
      </trkpt>
      <trkpt lat="51.65399" lon="6.60851">
        <ele>77.57856</ele>
        <time>2026-05-06T12:25:18.098Z</time>
      </trkpt>
      <trkpt lat="51.65411" lon="6.60848">
        <ele>77.735919</ele>
        <time>2026-05-06T12:25:21.109Z</time>
      </trkpt>
      <trkpt lat="51.6542" lon="6.60845">
        <ele>77.858463</ele>
        <time>2026-05-06T12:25:23.106Z</time>
      </trkpt>
      <trkpt lat="51.65431" lon="6.60843">
        <ele>78.008942</ele>
        <time>2026-05-06T12:25:25.106Z</time>
      </trkpt>
      <trkpt lat="51.65441" lon="6.6084">
        <ele>78.152576</ele>
        <time>2026-05-06T12:25:27.104Z</time>
      </trkpt>
      <trkpt lat="51.65452" lon="6.60839">
        <ele>78.215653</ele>
        <time>2026-05-06T12:25:29.100Z</time>
      </trkpt>
      <trkpt lat="51.65461" lon="6.60839">
        <ele>78.07988</ele>
        <time>2026-05-06T12:25:31.105Z</time>
      </trkpt>
      <trkpt lat="51.65471" lon="6.60838">
        <ele>77.946543</ele>
        <time>2026-05-06T12:25:33.114Z</time>
      </trkpt>
      <trkpt lat="51.65481" lon="6.60835">
        <ele>77.801487</ele>
        <time>2026-05-06T12:25:35.099Z</time>
      </trkpt>
      <trkpt lat="51.65489" lon="6.60833">
        <ele>77.672805</ele>
        <time>2026-05-06T12:25:37.104Z</time>
      </trkpt>
      <trkpt lat="51.65499" lon="6.60833">
        <ele>77.542603</ele>
        <time>2026-05-06T12:25:39.116Z</time>
      </trkpt>
      <trkpt lat="51.65512" lon="6.60834">
        <ele>77.345307</ele>
        <time>2026-05-06T12:25:42.096Z</time>
      </trkpt>
      <trkpt lat="51.65522" lon="6.60834">
        <ele>77.212369</ele>
        <time>2026-05-06T12:25:44.116Z</time>
      </trkpt>
      <trkpt lat="51.65531" lon="6.60834">
        <ele>77.078025</ele>
        <time>2026-05-06T12:25:46.106Z</time>
      </trkpt>
      <trkpt lat="51.65544" lon="6.60835">
        <ele>76.889324</ele>
        <time>2026-05-06T12:25:49.106Z</time>
      </trkpt>
      <trkpt lat="51.65556" lon="6.60834">
        <ele>76.71493</ele>
        <time>2026-05-06T12:25:52.104Z</time>
      </trkpt>
      <trkpt lat="51.65567" lon="6.60834">
        <ele>76.560456</ele>
        <time>2026-05-06T12:25:55.100Z</time>
      </trkpt>
      <trkpt lat="51.65578" lon="6.60834">
        <ele>76.410392</ele>
        <time>2026-05-06T12:25:57.105Z</time>
      </trkpt>
      <trkpt lat="51.65587" lon="6.60832">
        <ele>76.278238</ele>
        <time>2026-05-06T12:25:59.101Z</time>
      </trkpt>
      <trkpt lat="51.65596" lon="6.60833">
        <ele>76.148037</ele>
        <time>2026-05-06T12:26:01.112Z</time>
      </trkpt>
      <trkpt lat="51.65605" lon="6.60834">
        <ele>76.013342</ele>
        <time>2026-05-06T12:26:03.097Z</time>
      </trkpt>
      <trkpt lat="51.65618" lon="6.60836">
        <ele>75.839758</ele>
        <time>2026-05-06T12:26:06.105Z</time>
      </trkpt>
      <trkpt lat="51.65627" lon="6.60836">
        <ele>75.706843</ele>
        <time>2026-05-06T12:26:09.097Z</time>
      </trkpt>
      <trkpt lat="51.65636" lon="6.60836">
        <ele>75.285203</ele>
        <time>2026-05-06T12:26:12.106Z</time>
      </trkpt>
      <trkpt lat="51.65646" lon="6.60835">
        <ele>74.752125</ele>
        <time>2026-05-06T12:26:17.096Z</time>
      </trkpt>
      <trkpt lat="51.65659" lon="6.60783">
        <ele>72.891774</ele>
        <time>2026-05-06T12:27:23.104Z</time>
      </trkpt>
      <trkpt lat="51.65658" lon="6.60762">
        <ele>72.224755</ele>
        <time>2026-05-06T12:27:26.109Z</time>
      </trkpt>
      <trkpt lat="51.65657" lon="6.60741">
        <ele>71.521404</ele>
        <time>2026-05-06T12:27:29.112Z</time>
      </trkpt>
      <trkpt lat="51.65655" lon="6.60719">
        <ele>70.815188</ele>
        <time>2026-05-06T12:27:32.102Z</time>
      </trkpt>
      <trkpt lat="51.65654" lon="6.60698">
        <ele>70.120572</ele>
        <time>2026-05-06T12:27:35.110Z</time>
      </trkpt>
      <trkpt lat="51.65653" lon="6.60677">
        <ele>69.429171</ele>
        <time>2026-05-06T12:27:38.098Z</time>
      </trkpt>
      <trkpt lat="51.65653" lon="6.60655">
        <ele>68.715581</ele>
        <time>2026-05-06T12:27:41.104Z</time>
      </trkpt>
      <trkpt lat="51.65652" lon="6.60634">
        <ele>68.018748</ele>
        <time>2026-05-06T12:27:44.114Z</time>
      </trkpt>
      <trkpt lat="51.65651" lon="6.60614">
        <ele>67.346966</ele>
        <time>2026-05-06T12:27:47.095Z</time>
      </trkpt>
      <trkpt lat="51.6565" lon="6.60594">
        <ele>66.707654</ele>
        <time>2026-05-06T12:27:50.105Z</time>
      </trkpt>
      <trkpt lat="51.6565" lon="6.60574">
        <ele>66.184404</ele>
        <time>2026-05-06T12:27:53.114Z</time>
      </trkpt>
      <trkpt lat="51.65648" lon="6.60554">
        <ele>66.136976</ele>
        <time>2026-05-06T12:27:56.106Z</time>
      </trkpt>
      <trkpt lat="51.65649" lon="6.60534">
        <ele>66.090819</ele>
        <time>2026-05-06T12:27:59.107Z</time>
      </trkpt>
      <trkpt lat="51.65651" lon="6.60515">
        <ele>66.046146</ele>
        <time>2026-05-06T12:28:02.106Z</time>
      </trkpt>
      <trkpt lat="51.65651" lon="6.60497">
        <ele>66.003271</ele>
        <time>2026-05-06T12:28:05.104Z</time>
      </trkpt>
      <trkpt lat="51.65653" lon="6.6048">
        <ele>65.961257</ele>
        <time>2026-05-06T12:28:08.107Z</time>
      </trkpt>
      <trkpt lat="51.65654" lon="6.60459">
        <ele>65.91276</ele>
        <time>2026-05-06T12:28:11.111Z</time>
      </trkpt>
      <trkpt lat="51.65654" lon="6.60442">
        <ele>65.874783</ele>
        <time>2026-05-06T12:28:13.101Z</time>
      </trkpt>
      <trkpt lat="51.65653" lon="6.60426">
        <ele>65.836716</ele>
        <time>2026-05-06T12:28:15.103Z</time>
      </trkpt>
      <trkpt lat="51.65652" lon="6.6041">
        <ele>65.797924</ele>
        <time>2026-05-06T12:28:17.103Z</time>
      </trkpt>
      <trkpt lat="51.65653" lon="6.60391">
        <ele>65.755041</ele>
        <time>2026-05-06T12:28:19.110Z</time>
      </trkpt>
      <trkpt lat="51.65652" lon="6.60374">
        <ele>65.714096</ele>
        <time>2026-05-06T12:28:21.106Z</time>
      </trkpt>
      <trkpt lat="51.65652" lon="6.60357">
        <ele>65.674444</ele>
        <time>2026-05-06T12:28:23.091Z</time>
      </trkpt>
      <trkpt lat="51.65653" lon="6.6034">
        <ele>65.63552</ele>
        <time>2026-05-06T12:28:25.106Z</time>
      </trkpt>
      <trkpt lat="51.65653" lon="6.60324">
        <ele>65.597303</ele>
        <time>2026-05-06T12:28:27.111Z</time>
      </trkpt>
      <trkpt lat="51.65653" lon="6.60307">
        <ele>65.559092</ele>
        <time>2026-05-06T12:28:29.111Z</time>
      </trkpt>
      <trkpt lat="51.65653" lon="6.6029">
        <ele>65.515965</ele>
        <time>2026-05-06T12:28:31.113Z</time>
      </trkpt>
      <trkpt lat="51.65653" lon="6.60274">
        <ele>65.257785</ele>
        <time>2026-05-06T12:28:33.094Z</time>
      </trkpt>
      <trkpt lat="51.65652" lon="6.60257">
        <ele>64.994764</ele>
        <time>2026-05-06T12:28:35.106Z</time>
      </trkpt>
      <trkpt lat="51.65651" lon="6.6024">
        <ele>64.728341</ele>
        <time>2026-05-06T12:28:37.084Z</time>
      </trkpt>
      <trkpt lat="51.6565" lon="6.60223">
        <ele>64.453861</ele>
        <time>2026-05-06T12:28:39.111Z</time>
      </trkpt>
      <trkpt lat="51.6565" lon="6.60207">
        <ele>64.208248</ele>
        <time>2026-05-06T12:28:41.093Z</time>
      </trkpt>
      <trkpt lat="51.6565" lon="6.60191">
        <ele>63.95488</ele>
        <time>2026-05-06T12:28:43.103Z</time>
      </trkpt>
      <trkpt lat="51.6565" lon="6.60175">
        <ele>63.698194</ele>
        <time>2026-05-06T12:28:45.111Z</time>
      </trkpt>
      <trkpt lat="51.65648" lon="6.6016">
        <ele>63.445418</ele>
        <time>2026-05-06T12:28:47.102Z</time>
      </trkpt>
      <trkpt lat="51.65646" lon="6.60144">
        <ele>63.193921</ele>
        <time>2026-05-06T12:28:49.114Z</time>
      </trkpt>
      <trkpt lat="51.65646" lon="6.60128">
        <ele>62.945236</ele>
        <time>2026-05-06T12:28:51.098Z</time>
      </trkpt>
      <trkpt lat="51.65648" lon="6.60113">
        <ele>62.708011</ele>
        <time>2026-05-06T12:28:53.106Z</time>
      </trkpt>
      <trkpt lat="51.6565" lon="6.60098">
        <ele>62.455808</ele>
        <time>2026-05-06T12:28:55.099Z</time>
      </trkpt>
      <trkpt lat="51.6565" lon="6.60081">
        <ele>62.196159</ele>
        <time>2026-05-06T12:28:57.099Z</time>
      </trkpt>
      <trkpt lat="51.65649" lon="6.60066">
        <ele>61.944219</ele>
        <time>2026-05-06T12:28:59.101Z</time>
      </trkpt>
      <trkpt lat="51.65649" lon="6.6005">
        <ele>61.694016</ele>
        <time>2026-05-06T12:29:01.106Z</time>
      </trkpt>
      <trkpt lat="51.65649" lon="6.60034">
        <ele>61.437419</ele>
        <time>2026-05-06T12:29:03.102Z</time>
      </trkpt>
      <trkpt lat="51.65649" lon="6.60018">
        <ele>61.188839</ele>
        <time>2026-05-06T12:29:05.096Z</time>
      </trkpt>
      <trkpt lat="51.65649" lon="6.60001">
        <ele>60.932242</ele>
        <time>2026-05-06T12:29:07.101Z</time>
      </trkpt>
      <trkpt lat="51.65649" lon="6.59984">
        <ele>61.040081</ele>
        <time>2026-05-06T12:29:09.096Z</time>
      </trkpt>
      <trkpt lat="51.65649" lon="6.59967">
        <ele>61.148601</ele>
        <time>2026-05-06T12:29:11.098Z</time>
      </trkpt>
      <trkpt lat="51.65648" lon="6.59951">
        <ele>61.25454</ele>
        <time>2026-05-06T12:29:13.110Z</time>
      </trkpt>
      <trkpt lat="51.65648" lon="6.59935">
        <ele>61.358467</ele>
        <time>2026-05-06T12:29:15.103Z</time>
      </trkpt>
      <trkpt lat="51.65648" lon="6.59919">
        <ele>61.46308</ele>
        <time>2026-05-06T12:29:17.103Z</time>
      </trkpt>
      <trkpt lat="51.65648" lon="6.59903">
        <ele>61.56507</ele>
        <time>2026-05-06T12:29:19.104Z</time>
      </trkpt>
      <trkpt lat="51.65648" lon="6.59887">
        <ele>61.667721</ele>
        <time>2026-05-06T12:29:21.105Z</time>
      </trkpt>
      <trkpt lat="51.65648" lon="6.59871">
        <ele>61.773016</ele>
        <time>2026-05-06T12:29:23.096Z</time>
      </trkpt>
      <trkpt lat="51.65647" lon="6.59855">
        <ele>61.87727</ele>
        <time>2026-05-06T12:29:25.097Z</time>
      </trkpt>
      <trkpt lat="51.65646" lon="6.59839">
        <ele>61.980734</ele>
        <time>2026-05-06T12:29:27.116Z</time>
      </trkpt>
      <trkpt lat="51.65647" lon="6.59823">
        <ele>62.081772</ele>
        <time>2026-05-06T12:29:29.107Z</time>
      </trkpt>
      <trkpt lat="51.6565" lon="6.59808">
        <ele>62.186891</ele>
        <time>2026-05-06T12:29:31.107Z</time>
      </trkpt>
      <trkpt lat="51.65653" lon="6.59793">
        <ele>62.288619</ele>
        <time>2026-05-06T12:29:33.109Z</time>
      </trkpt>
      <trkpt lat="51.65655" lon="6.59774">
        <ele>62.411474</ele>
        <time>2026-05-06T12:29:36.107Z</time>
      </trkpt>
      <trkpt lat="51.6566" lon="6.59757">
        <ele>62.530583</ele>
        <time>2026-05-06T12:29:39.101Z</time>
      </trkpt>
      <trkpt lat="51.65668" lon="6.59742">
        <ele>62.656828</ele>
        <time>2026-05-06T12:29:42.100Z</time>
      </trkpt>
      <trkpt lat="51.65675" lon="6.59724">
        <ele>62.794064</ele>
        <time>2026-05-06T12:29:45.102Z</time>
      </trkpt>
      <trkpt lat="51.65683" lon="6.59708">
        <ele>62.989013</ele>
        <time>2026-05-06T12:29:48.109Z</time>
      </trkpt>
      <trkpt lat="51.65692" lon="6.59692">
        <ele>63.182046</ele>
        <time>2026-05-06T12:29:51.112Z</time>
      </trkpt>
      <trkpt lat="51.65699" lon="6.59677">
        <ele>63.364267</ele>
        <time>2026-05-06T12:29:54.096Z</time>
      </trkpt>
      <trkpt lat="51.65707" lon="6.59661">
        <ele>63.556701</ele>
        <time>2026-05-06T12:29:57.107Z</time>
      </trkpt>
      <trkpt lat="51.65714" lon="6.59645">
        <ele>63.740839</ele>
        <time>2026-05-06T12:30:00.094Z</time>
      </trkpt>
      <trkpt lat="51.65721" lon="6.59628">
        <ele>63.935246</ele>
        <time>2026-05-06T12:30:03.092Z</time>
      </trkpt>
      <trkpt lat="51.65727" lon="6.59616">
        <ele>64.076287</ele>
        <time>2026-05-06T12:30:05.099Z</time>
      </trkpt>
      <trkpt lat="51.65736" lon="6.59601">
        <ele>64.273923</ele>
        <time>2026-05-06T12:30:08.119Z</time>
      </trkpt>
      <trkpt lat="51.65742" lon="6.5959">
        <ele>64.411215</ele>
        <time>2026-05-06T12:30:10.106Z</time>
      </trkpt>
      <trkpt lat="51.65749" lon="6.59579">
        <ele>64.553914</ele>
        <time>2026-05-06T12:30:12.088Z</time>
      </trkpt>
      <trkpt lat="51.65757" lon="6.59563">
        <ele>64.754459</ele>
        <time>2026-05-06T12:30:15.103Z</time>
      </trkpt>
      <trkpt lat="51.65762" lon="6.59551">
        <ele>64.891082</ele>
        <time>2026-05-06T12:30:17.102Z</time>
      </trkpt>
      <trkpt lat="51.65771" lon="6.59534">
        <ele>65.090188</ele>
        <time>2026-05-06T12:30:20.109Z</time>
      </trkpt>
      <trkpt lat="51.65778" lon="6.59517">
        <ele>65.289692</ele>
        <time>2026-05-06T12:30:23.099Z</time>
      </trkpt>
      <trkpt lat="51.65786" lon="6.59502">
        <ele>65.472476</ele>
        <time>2026-05-06T12:30:26.107Z</time>
      </trkpt>
      <trkpt lat="51.65794" lon="6.59486">
        <ele>65.612384</ele>
        <time>2026-05-06T12:30:29.103Z</time>
      </trkpt>
      <trkpt lat="51.65802" lon="6.59469">
        <ele>65.734962</ele>
        <time>2026-05-06T12:30:32.118Z</time>
      </trkpt>
      <trkpt lat="51.65809" lon="6.59453">
        <ele>65.854255</ele>
        <time>2026-05-06T12:30:35.088Z</time>
      </trkpt>
      <trkpt lat="51.65818" lon="6.5944">
        <ele>65.96523</ele>
        <time>2026-05-06T12:30:38.103Z</time>
      </trkpt>
      <trkpt lat="51.65827" lon="6.59429">
        <ele>66.074225</ele>
        <time>2026-05-06T12:30:41.096Z</time>
      </trkpt>
      <trkpt lat="51.65834" lon="6.59414">
        <ele>66.187627</ele>
        <time>2026-05-06T12:30:44.105Z</time>
      </trkpt>
      <trkpt lat="51.65841" lon="6.59401">
        <ele>66.283805</ele>
        <time>2026-05-06T12:30:47.106Z</time>
      </trkpt>
      <trkpt lat="51.65848" lon="6.59385">
        <ele>66.397541</ele>
        <time>2026-05-06T12:30:50.108Z</time>
      </trkpt>
      <trkpt lat="51.65855" lon="6.5937">
        <ele>66.514715</ele>
        <time>2026-05-06T12:30:53.107Z</time>
      </trkpt>
      <trkpt lat="51.65863" lon="6.59355">
        <ele>66.629819</ele>
        <time>2026-05-06T12:30:56.104Z</time>
      </trkpt>
      <trkpt lat="51.65871" lon="6.59339">
        <ele>66.747862</ele>
        <time>2026-05-06T12:30:59.102Z</time>
      </trkpt>
      <trkpt lat="51.65879" lon="6.59323">
        <ele>66.869302</ele>
        <time>2026-05-06T12:31:02.102Z</time>
      </trkpt>
      <trkpt lat="51.65886" lon="6.59306">
        <ele>66.991135</ele>
        <time>2026-05-06T12:31:05.100Z</time>
      </trkpt>
      <trkpt lat="51.65893" lon="6.59289">
        <ele>67.11376</ele>
        <time>2026-05-06T12:31:08.100Z</time>
      </trkpt>
      <trkpt lat="51.65898" lon="6.59276">
        <ele>67.199294</ele>
        <time>2026-05-06T12:31:10.109Z</time>
      </trkpt>
      <trkpt lat="51.65906" lon="6.59259">
        <ele>67.124271</ele>
        <time>2026-05-06T12:31:13.098Z</time>
      </trkpt>
      <trkpt lat="51.65913" lon="6.59243">
        <ele>66.987528</ele>
        <time>2026-05-06T12:31:16.107Z</time>
      </trkpt>
      <trkpt lat="51.65923" lon="6.59232">
        <ele>66.85641</ele>
        <time>2026-05-06T12:31:19.110Z</time>
      </trkpt>
      <trkpt lat="51.65932" lon="6.59229">
        <ele>66.753483</ele>
        <time>2026-05-06T12:31:21.100Z</time>
      </trkpt>
      <trkpt lat="51.65945" lon="6.59226">
        <ele>66.616847</ele>
        <time>2026-05-06T12:31:24.108Z</time>
      </trkpt>
      <trkpt lat="51.65957" lon="6.59225">
        <ele>66.485814</ele>
        <time>2026-05-06T12:31:27.097Z</time>
      </trkpt>
      <trkpt lat="51.65969" lon="6.59222">
        <ele>66.351704</ele>
        <time>2026-05-06T12:31:30.105Z</time>
      </trkpt>
      <trkpt lat="51.6598" lon="6.59219">
        <ele>66.228367</ele>
        <time>2026-05-06T12:31:33.110Z</time>
      </trkpt>
      <trkpt lat="51.65991" lon="6.59214">
        <ele>66.0976</ele>
        <time>2026-05-06T12:31:36.123Z</time>
      </trkpt>
      <trkpt lat="51.66" lon="6.59208">
        <ele>65.995938</ele>
        <time>2026-05-06T12:31:38.116Z</time>
      </trkpt>
      <trkpt lat="51.66012" lon="6.59202">
        <ele>65.857888</ele>
        <time>2026-05-06T12:31:41.105Z</time>
      </trkpt>
      <trkpt lat="51.66026" lon="6.592">
        <ele>65.71216</ele>
        <time>2026-05-06T12:31:44.105Z</time>
      </trkpt>
      <trkpt lat="51.66035" lon="6.59199">
        <ele>65.609384</ele>
        <time>2026-05-06T12:31:46.104Z</time>
      </trkpt>
      <trkpt lat="51.66047" lon="6.59199">
        <ele>65.472992</ele>
        <time>2026-05-06T12:31:49.099Z</time>
      </trkpt>
      <trkpt lat="51.6606" lon="6.59194">
        <ele>65.332548</ele>
        <time>2026-05-06T12:31:52.107Z</time>
      </trkpt>
      <trkpt lat="51.66071" lon="6.59181">
        <ele>65.227662</ele>
        <time>2026-05-06T12:31:55.103Z</time>
      </trkpt>
      <trkpt lat="51.66077" lon="6.59164">
        <ele>65.158314</ele>
        <time>2026-05-06T12:31:58.091Z</time>
      </trkpt>
      <trkpt lat="51.66079" lon="6.59145">
        <ele>65.091379</ele>
        <time>2026-05-06T12:32:01.102Z</time>
      </trkpt>
      <trkpt lat="51.66082" lon="6.59126">
        <ele>65.022085</ele>
        <time>2026-05-06T12:32:04.116Z</time>
      </trkpt>
      <trkpt lat="51.66085" lon="6.59107">
        <ele>64.952895</ele>
        <time>2026-05-06T12:32:07.107Z</time>
      </trkpt>
      <trkpt lat="51.66087" lon="6.59088">
        <ele>64.884971</ele>
        <time>2026-05-06T12:32:10.116Z</time>
      </trkpt>
      <trkpt lat="51.6609" lon="6.59067">
        <ele>64.809609</ele>
        <time>2026-05-06T12:32:13.104Z</time>
      </trkpt>
      <trkpt lat="51.66092" lon="6.59046">
        <ele>64.736163</ele>
        <time>2026-05-06T12:32:16.093Z</time>
      </trkpt>
      <trkpt lat="51.66096" lon="6.59026">
        <ele>64.663007</ele>
        <time>2026-05-06T12:32:19.111Z</time>
      </trkpt>
      <trkpt lat="51.66102" lon="6.59007">
        <ele>64.587761</ele>
        <time>2026-05-06T12:32:22.101Z</time>
      </trkpt>
      <trkpt lat="51.66108" lon="6.58995">
        <ele>64.537321</ele>
        <time>2026-05-06T12:32:24.103Z</time>
      </trkpt>
      <trkpt lat="51.66118" lon="6.58983">
        <ele>64.464662</ele>
        <time>2026-05-06T12:32:27.116Z</time>
      </trkpt>
      <trkpt lat="51.6613" lon="6.58975">
        <ele>64.391194</ele>
        <time>2026-05-06T12:32:30.109Z</time>
      </trkpt>
      <trkpt lat="51.66143" lon="6.58971">
        <ele>64.318991</ele>
        <time>2026-05-06T12:32:33.100Z</time>
      </trkpt>
      <trkpt lat="51.66155" lon="6.58968">
        <ele>64.250242</ele>
        <time>2026-05-06T12:32:36.106Z</time>
      </trkpt>
      <trkpt lat="51.66167" lon="6.58966">
        <ele>64.18434</ele>
        <time>2026-05-06T12:32:39.101Z</time>
      </trkpt>
      <trkpt lat="51.66179" lon="6.58964">
        <ele>64.117502</ele>
        <time>2026-05-06T12:32:42.103Z</time>
      </trkpt>
      <trkpt lat="51.66192" lon="6.58962">
        <ele>64.049512</ele>
        <time>2026-05-06T12:32:45.098Z</time>
      </trkpt>
      <trkpt lat="51.66205" lon="6.5896">
        <ele>63.982887</ele>
        <time>2026-05-06T12:32:48.104Z</time>
      </trkpt>
      <trkpt lat="51.66217" lon="6.58958">
        <ele>63.916419</ele>
        <time>2026-05-06T12:32:51.102Z</time>
      </trkpt>
      <trkpt lat="51.66229" lon="6.58956">
        <ele>63.85025</ele>
        <time>2026-05-06T12:32:54.103Z</time>
      </trkpt>
      <trkpt lat="51.66241" lon="6.58956">
        <ele>63.788955</ele>
        <time>2026-05-06T12:32:57.105Z</time>
      </trkpt>
      <trkpt lat="51.66252" lon="6.58954">
        <ele>63.729326</ele>
        <time>2026-05-06T12:33:00.105Z</time>
      </trkpt>
      <trkpt lat="51.66263" lon="6.58951">
        <ele>63.671853</ele>
        <time>2026-05-06T12:33:03.103Z</time>
      </trkpt>
      <trkpt lat="51.66274" lon="6.5895">
        <ele>63.613663</ele>
        <time>2026-05-06T12:33:06.115Z</time>
      </trkpt>
      <trkpt lat="51.66284" lon="6.58946">
        <ele>63.557831</ele>
        <time>2026-05-06T12:33:09.107Z</time>
      </trkpt>
      <trkpt lat="51.66288" lon="6.58932">
        <ele>63.506955</ele>
        <time>2026-05-06T12:33:12.098Z</time>
      </trkpt>
      <trkpt lat="51.66291" lon="6.58917">
        <ele>63.451871</ele>
        <time>2026-05-06T12:33:15.103Z</time>
      </trkpt>
      <trkpt lat="51.66297" lon="6.589">
        <ele>63.390214</ele>
        <time>2026-05-06T12:33:18.099Z</time>
      </trkpt>
      <trkpt lat="51.66303" lon="6.58884">
        <ele>63.328395</ele>
        <time>2026-05-06T12:33:21.105Z</time>
      </trkpt>
      <trkpt lat="51.66308" lon="6.58867">
        <ele>63.49151</ele>
        <time>2026-05-06T12:33:24.099Z</time>
      </trkpt>
      <trkpt lat="51.66315" lon="6.58851">
        <ele>63.900184</ele>
        <time>2026-05-06T12:33:27.108Z</time>
      </trkpt>
      <trkpt lat="51.66321" lon="6.58835">
        <ele>64.2945</ele>
        <time>2026-05-06T12:33:30.092Z</time>
      </trkpt>
      <trkpt lat="51.66326" lon="6.5882">
        <ele>64.668795</ele>
        <time>2026-05-06T12:33:33.097Z</time>
      </trkpt>
      <trkpt lat="51.66333" lon="6.58805">
        <ele>65.05944</ele>
        <time>2026-05-06T12:33:36.106Z</time>
      </trkpt>
      <trkpt lat="51.66339" lon="6.58789">
        <ele>65.46086</ele>
        <time>2026-05-06T12:33:39.104Z</time>
      </trkpt>
      <trkpt lat="51.66345" lon="6.58773">
        <ele>65.864101</ele>
        <time>2026-05-06T12:33:42.099Z</time>
      </trkpt>
      <trkpt lat="51.66351" lon="6.58757">
        <ele>66.260182</ele>
        <time>2026-05-06T12:33:45.110Z</time>
      </trkpt>
      <trkpt lat="51.66357" lon="6.58743">
        <ele>66.627241</ele>
        <time>2026-05-06T12:33:48.103Z</time>
      </trkpt>
      <trkpt lat="51.66362" lon="6.58726">
        <ele>67.01379</ele>
        <time>2026-05-06T12:33:51.090Z</time>
      </trkpt>
      <trkpt lat="51.66368" lon="6.58712">
        <ele>67.386995</ele>
        <time>2026-05-06T12:33:54.112Z</time>
      </trkpt>
      <trkpt lat="51.66376" lon="6.58703">
        <ele>67.727829</ele>
        <time>2026-05-06T12:33:57.109Z</time>
      </trkpt>
      <trkpt lat="51.66385" lon="6.58694">
        <ele>68.081596</ele>
        <time>2026-05-06T12:34:00.113Z</time>
      </trkpt>
      <trkpt lat="51.66394" lon="6.58686">
        <ele>68.439204</ele>
        <time>2026-05-06T12:34:03.110Z</time>
      </trkpt>
      <trkpt lat="51.66404" lon="6.5868">
        <ele>68.789408</ele>
        <time>2026-05-06T12:34:06.092Z</time>
      </trkpt>
      <trkpt lat="51.66413" lon="6.58676">
        <ele>69.120139</ele>
        <time>2026-05-06T12:34:09.092Z</time>
      </trkpt>
      <trkpt lat="51.66422" lon="6.58674">
        <ele>69.442272</ele>
        <time>2026-05-06T12:34:12.095Z</time>
      </trkpt>
      <trkpt lat="51.66432" lon="6.58671">
        <ele>69.283143</ele>
        <time>2026-05-06T12:34:15.099Z</time>
      </trkpt>
      <trkpt lat="51.6644" lon="6.58663">
        <ele>69.0908</ele>
        <time>2026-05-06T12:34:18.102Z</time>
      </trkpt>
      <trkpt lat="51.66444" lon="6.58647">
        <ele>68.872287</ele>
        <time>2026-05-06T12:34:21.108Z</time>
      </trkpt>
      <trkpt lat="51.66445" lon="6.58629">
        <ele>68.649939</ele>
        <time>2026-05-06T12:34:24.102Z</time>
      </trkpt>
      <trkpt lat="51.66447" lon="6.58612">
        <ele>68.428281</ele>
        <time>2026-05-06T12:34:27.107Z</time>
      </trkpt>
      <trkpt lat="51.66449" lon="6.58594">
        <ele>68.202466</ele>
        <time>2026-05-06T12:34:30.105Z</time>
      </trkpt>
      <trkpt lat="51.66452" lon="6.58576">
        <ele>67.967974</ele>
        <time>2026-05-06T12:34:33.104Z</time>
      </trkpt>
      <trkpt lat="51.66455" lon="6.58559">
        <ele>67.741765</ele>
        <time>2026-05-06T12:34:36.104Z</time>
      </trkpt>
      <trkpt lat="51.66459" lon="6.58541">
        <ele>67.512458</ele>
        <time>2026-05-06T12:34:39.098Z</time>
      </trkpt>
      <trkpt lat="51.66463" lon="6.58525">
        <ele>67.288135</ele>
        <time>2026-05-06T12:34:42.106Z</time>
      </trkpt>
      <trkpt lat="51.66468" lon="6.58508">
        <ele>67.058452</ele>
        <time>2026-05-06T12:34:45.102Z</time>
      </trkpt>
      <trkpt lat="51.66473" lon="6.58492">
        <ele>66.824834</ele>
        <time>2026-05-06T12:34:48.107Z</time>
      </trkpt>
      <trkpt lat="51.66479" lon="6.58476">
        <ele>66.588273</ele>
        <time>2026-05-06T12:34:51.094Z</time>
      </trkpt>
      <trkpt lat="51.66485" lon="6.58459">
        <ele>66.344416</ele>
        <time>2026-05-06T12:34:54.099Z</time>
      </trkpt>
      <trkpt lat="51.66492" lon="6.58443">
        <ele>66.098342</ele>
        <time>2026-05-06T12:34:57.106Z</time>
      </trkpt>
      <trkpt lat="51.66499" lon="6.58426">
        <ele>65.846903</ele>
        <time>2026-05-06T12:35:00.103Z</time>
      </trkpt>
      <trkpt lat="51.66506" lon="6.58409">
        <ele>65.795047</ele>
        <time>2026-05-06T12:35:03.100Z</time>
      </trkpt>
      <trkpt lat="51.66512" lon="6.58394">
        <ele>65.756699</ele>
        <time>2026-05-06T12:35:06.103Z</time>
      </trkpt>
      <trkpt lat="51.66518" lon="6.58377">
        <ele>65.717349</ele>
        <time>2026-05-06T12:35:09.100Z</time>
      </trkpt>
      <trkpt lat="51.66525" lon="6.58361">
        <ele>65.677655</ele>
        <time>2026-05-06T12:35:12.103Z</time>
      </trkpt>
      <trkpt lat="51.66531" lon="6.58345">
        <ele>65.639675</ele>
        <time>2026-05-06T12:35:15.106Z</time>
      </trkpt>
      <trkpt lat="51.66538" lon="6.58329">
        <ele>65.600428</ele>
        <time>2026-05-06T12:35:18.093Z</time>
      </trkpt>
      <trkpt lat="51.66544" lon="6.58313">
        <ele>65.560907</ele>
        <time>2026-05-06T12:35:21.093Z</time>
      </trkpt>
      <trkpt lat="51.66551" lon="6.58297">
        <ele>65.521346</ele>
        <time>2026-05-06T12:35:24.109Z</time>
      </trkpt>
      <trkpt lat="51.66557" lon="6.58281">
        <ele>65.481826</ele>
        <time>2026-05-06T12:35:27.092Z</time>
      </trkpt>
      <trkpt lat="51.66564" lon="6.58264">
        <ele>65.442305</ele>
        <time>2026-05-06T12:35:30.102Z</time>
      </trkpt>
      <trkpt lat="51.6657" lon="6.58248">
        <ele>65.402785</ele>
        <time>2026-05-06T12:35:33.106Z</time>
      </trkpt>
      <trkpt lat="51.66577" lon="6.58231">
        <ele>65.36256</ele>
        <time>2026-05-06T12:35:36.116Z</time>
      </trkpt>
      <trkpt lat="51.66583" lon="6.58215">
        <ele>65.32407</ele>
        <time>2026-05-06T12:35:39.108Z</time>
      </trkpt>
      <trkpt lat="51.66589" lon="6.58199">
        <ele>65.285414</ele>
        <time>2026-05-06T12:35:42.107Z</time>
      </trkpt>
      <trkpt lat="51.66596" lon="6.58183">
        <ele>65.24641</ele>
        <time>2026-05-06T12:35:45.094Z</time>
      </trkpt>
      <trkpt lat="51.66602" lon="6.58167">
        <ele>65.203824</ele>
        <time>2026-05-06T12:35:48.115Z</time>
      </trkpt>
      <trkpt lat="51.66608" lon="6.58151">
        <ele>65.158786</ele>
        <time>2026-05-06T12:35:51.102Z</time>
      </trkpt>
      <trkpt lat="51.66615" lon="6.58135">
        <ele>65.114138</ele>
        <time>2026-05-06T12:35:54.104Z</time>
      </trkpt>
      <trkpt lat="51.66621" lon="6.58118">
        <ele>65.070664</ele>
        <time>2026-05-06T12:35:57.105Z</time>
      </trkpt>
      <trkpt lat="51.66627" lon="6.58102">
        <ele>65.026802</ele>
        <time>2026-05-06T12:36:00.093Z</time>
      </trkpt>
      <trkpt lat="51.66632" lon="6.58086">
        <ele>64.985136</ele>
        <time>2026-05-06T12:36:03.106Z</time>
      </trkpt>
      <trkpt lat="51.66637" lon="6.5807">
        <ele>64.942036</ele>
        <time>2026-05-06T12:36:06.098Z</time>
      </trkpt>
      <trkpt lat="51.66644" lon="6.58053">
        <ele>64.897393</ele>
        <time>2026-05-06T12:36:09.102Z</time>
      </trkpt>
      <trkpt lat="51.6665" lon="6.58037">
        <ele>64.852355</ele>
        <time>2026-05-06T12:36:12.115Z</time>
      </trkpt>
      <trkpt lat="51.66657" lon="6.5802">
        <ele>64.806534</ele>
        <time>2026-05-06T12:36:15.100Z</time>
      </trkpt>
      <trkpt lat="51.66663" lon="6.58003">
        <ele>64.762084</ele>
        <time>2026-05-06T12:36:18.100Z</time>
      </trkpt>
      <trkpt lat="51.66669" lon="6.57988">
        <ele>64.719208</ele>
        <time>2026-05-06T12:36:21.100Z</time>
      </trkpt>
      <trkpt lat="51.66675" lon="6.57971">
        <ele>64.673945</ele>
        <time>2026-05-06T12:36:24.092Z</time>
      </trkpt>
      <trkpt lat="51.66681" lon="6.57954">
        <ele>64.628683</ele>
        <time>2026-05-06T12:36:27.111Z</time>
      </trkpt>
      <trkpt lat="51.66687" lon="6.57937">
        <ele>64.584034</ele>
        <time>2026-05-06T12:36:30.105Z</time>
      </trkpt>
      <trkpt lat="51.66692" lon="6.57921">
        <ele>64.512433</ele>
        <time>2026-05-06T12:36:33.104Z</time>
      </trkpt>
      <trkpt lat="51.66698" lon="6.57905">
        <ele>64.430228</ele>
        <time>2026-05-06T12:36:36.115Z</time>
      </trkpt>
      <trkpt lat="51.66704" lon="6.57889">
        <ele>64.349615</ele>
        <time>2026-05-06T12:36:39.114Z</time>
      </trkpt>
      <trkpt lat="51.6671" lon="6.57873">
        <ele>64.267411</ele>
        <time>2026-05-06T12:36:42.118Z</time>
      </trkpt>
      <trkpt lat="51.66715" lon="6.57858">
        <ele>64.186397</ele>
        <time>2026-05-06T12:36:45.112Z</time>
      </trkpt>
      <trkpt lat="51.66722" lon="6.57843">
        <ele>64.104968</ele>
        <time>2026-05-06T12:36:48.116Z</time>
      </trkpt>
      <trkpt lat="51.66727" lon="6.57827">
        <ele>64.023898</ele>
        <time>2026-05-06T12:36:51.104Z</time>
      </trkpt>
      <trkpt lat="51.66732" lon="6.57811">
        <ele>63.943968</ele>
        <time>2026-05-06T12:36:54.099Z</time>
      </trkpt>
      <trkpt lat="51.66737" lon="6.57796">
        <ele>63.866751</ele>
        <time>2026-05-06T12:36:57.107Z</time>
      </trkpt>
      <trkpt lat="51.66742" lon="6.5778">
        <ele>63.786657</ele>
        <time>2026-05-06T12:37:00.110Z</time>
      </trkpt>
      <trkpt lat="51.66748" lon="6.57763">
        <ele>63.703235</ele>
        <time>2026-05-06T12:37:03.111Z</time>
      </trkpt>
      <trkpt lat="51.66753" lon="6.57747">
        <ele>63.619141</ele>
        <time>2026-05-06T12:37:06.107Z</time>
      </trkpt>
      <trkpt lat="51.66758" lon="6.57729">
        <ele>63.532167</ele>
        <time>2026-05-06T12:37:09.092Z</time>
      </trkpt>
      <trkpt lat="51.66763" lon="6.57711">
        <ele>63.445109</ele>
        <time>2026-05-06T12:37:12.104Z</time>
      </trkpt>
      <trkpt lat="51.66768" lon="6.57695">
        <ele>63.362135</ele>
        <time>2026-05-06T12:37:15.099Z</time>
      </trkpt>
      <trkpt lat="51.66773" lon="6.57677">
        <ele>63.275698</ele>
        <time>2026-05-06T12:37:18.104Z</time>
      </trkpt>
      <trkpt lat="51.66779" lon="6.57658">
        <ele>63.216814</ele>
        <time>2026-05-06T12:37:21.104Z</time>
      </trkpt>
      <trkpt lat="51.66784" lon="6.5764">
        <ele>63.15973</ele>
        <time>2026-05-06T12:37:24.109Z</time>
      </trkpt>
      <trkpt lat="51.66789" lon="6.57621">
        <ele>63.102321</ele>
        <time>2026-05-06T12:37:27.102Z</time>
      </trkpt>
      <trkpt lat="51.66793" lon="6.57607">
        <ele>63.061827</ele>
        <time>2026-05-06T12:37:29.108Z</time>
      </trkpt>
      <trkpt lat="51.66799" lon="6.57588">
        <ele>63.0025</ele>
        <time>2026-05-06T12:37:32.103Z</time>
      </trkpt>
      <trkpt lat="51.66805" lon="6.5757">
        <ele>62.945361</ele>
        <time>2026-05-06T12:37:35.106Z</time>
      </trkpt>
      <trkpt lat="51.6681" lon="6.57551">
        <ele>62.888096</ele>
        <time>2026-05-06T12:37:38.101Z</time>
      </trkpt>
      <trkpt lat="51.66815" lon="6.57532">
        <ele>62.830141</ele>
        <time>2026-05-06T12:37:41.100Z</time>
      </trkpt>
      <trkpt lat="51.66821" lon="6.57513">
        <ele>62.771999</ele>
        <time>2026-05-06T12:37:44.096Z</time>
      </trkpt>
      <trkpt lat="51.66827" lon="6.57495">
        <ele>62.714765</ele>
        <time>2026-05-06T12:37:47.107Z</time>
      </trkpt>
      <trkpt lat="51.66832" lon="6.57476">
        <ele>62.658625</ele>
        <time>2026-05-06T12:37:50.100Z</time>
      </trkpt>
      <trkpt lat="51.66837" lon="6.57458">
        <ele>62.602871</ele>
        <time>2026-05-06T12:37:53.106Z</time>
      </trkpt>
      <trkpt lat="51.66843" lon="6.5744">
        <ele>62.547368</ele>
        <time>2026-05-06T12:37:56.113Z</time>
      </trkpt>
      <trkpt lat="51.66848" lon="6.57421">
        <ele>62.490391</ele>
        <time>2026-05-06T12:37:59.100Z</time>
      </trkpt>
      <trkpt lat="51.66853" lon="6.57402">
        <ele>62.564473</ele>
        <time>2026-05-06T12:38:02.102Z</time>
      </trkpt>
      <trkpt lat="51.66859" lon="6.57384">
        <ele>62.72187</ele>
        <time>2026-05-06T12:38:05.106Z</time>
      </trkpt>
      <trkpt lat="51.66864" lon="6.57364">
        <ele>62.881898</ele>
        <time>2026-05-06T12:38:08.119Z</time>
      </trkpt>
      <trkpt lat="51.66868" lon="6.57343">
        <ele>63.047675</ele>
        <time>2026-05-06T12:38:11.103Z</time>
      </trkpt>
      <trkpt lat="51.66874" lon="6.57324">
        <ele>63.210552</ele>
        <time>2026-05-06T12:38:14.103Z</time>
      </trkpt>
      <trkpt lat="51.66878" lon="6.57311">
        <ele>63.321178</ele>
        <time>2026-05-06T12:38:16.109Z</time>
      </trkpt>
      <trkpt lat="51.66882" lon="6.57297">
        <ele>63.431411</ele>
        <time>2026-05-06T12:38:18.104Z</time>
      </trkpt>
      <trkpt lat="51.66887" lon="6.57278">
        <ele>63.591431</ele>
        <time>2026-05-06T12:38:21.108Z</time>
      </trkpt>
      <trkpt lat="51.66893" lon="6.57259">
        <ele>63.749494</ele>
        <time>2026-05-06T12:38:24.110Z</time>
      </trkpt>
      <trkpt lat="51.66897" lon="6.57246">
        <ele>63.861077</ele>
        <time>2026-05-06T12:38:26.100Z</time>
      </trkpt>
      <trkpt lat="51.66901" lon="6.57233">
        <ele>63.972515</ele>
        <time>2026-05-06T12:38:28.112Z</time>
      </trkpt>
      <trkpt lat="51.66908" lon="6.57214">
        <ele>64.134282</ele>
        <time>2026-05-06T12:38:31.101Z</time>
      </trkpt>
      <trkpt lat="51.66913" lon="6.57195">
        <ele>64.291115</ele>
        <time>2026-05-06T12:38:34.104Z</time>
      </trkpt>
      <trkpt lat="51.6692" lon="6.57178">
        <ele>64.447445</ele>
        <time>2026-05-06T12:38:37.100Z</time>
      </trkpt>
      <trkpt lat="51.66927" lon="6.57159">
        <ele>64.608925</ele>
        <time>2026-05-06T12:38:40.102Z</time>
      </trkpt>
      <trkpt lat="51.66933" lon="6.57141">
        <ele>64.727506</ele>
        <time>2026-05-06T12:38:43.114Z</time>
      </trkpt>
      <trkpt lat="51.66939" lon="6.57122">
        <ele>64.828564</ele>
        <time>2026-05-06T12:38:46.097Z</time>
      </trkpt>
      <trkpt lat="51.66944" lon="6.57103">
        <ele>64.931562</ele>
        <time>2026-05-06T12:38:49.108Z</time>
      </trkpt>
      <trkpt lat="51.6695" lon="6.57085">
        <ele>65.033236</ele>
        <time>2026-05-06T12:38:52.102Z</time>
      </trkpt>
      <trkpt lat="51.66955" lon="6.57067">
        <ele>65.131136</ele>
        <time>2026-05-06T12:38:55.104Z</time>
      </trkpt>
      <trkpt lat="51.66961" lon="6.57048">
        <ele>65.230964</ele>
        <time>2026-05-06T12:38:58.103Z</time>
      </trkpt>
      <trkpt lat="51.66966" lon="6.5703">
        <ele>65.332075</ele>
        <time>2026-05-06T12:39:01.109Z</time>
      </trkpt>
      <trkpt lat="51.66972" lon="6.57011">
        <ele>65.433493</ele>
        <time>2026-05-06T12:39:04.102Z</time>
      </trkpt>
      <trkpt lat="51.66977" lon="6.56992">
        <ele>65.535823</ele>
        <time>2026-05-06T12:39:07.103Z</time>
      </trkpt>
      <trkpt lat="51.66984" lon="6.56974">
        <ele>65.639076</ele>
        <time>2026-05-06T12:39:10.105Z</time>
      </trkpt>
      <trkpt lat="51.6699" lon="6.56955">
        <ele>65.742322</ele>
        <time>2026-05-06T12:39:13.105Z</time>
      </trkpt>
      <trkpt lat="51.66994" lon="6.56942">
        <ele>65.814253</ele>
        <time>2026-05-06T12:39:15.111Z</time>
      </trkpt>
      <trkpt lat="51.66999" lon="6.56923">
        <ele>65.918474</ele>
        <time>2026-05-06T12:39:18.116Z</time>
      </trkpt>
      <trkpt lat="51.67006" lon="6.56904">
        <ele>66.022294</ele>
        <time>2026-05-06T12:39:21.106Z</time>
      </trkpt>
      <trkpt lat="51.67012" lon="6.56885">
        <ele>66.101303</ele>
        <time>2026-05-06T12:39:24.112Z</time>
      </trkpt>
      <trkpt lat="51.67017" lon="6.56866">
        <ele>66.156521</ele>
        <time>2026-05-06T12:39:27.103Z</time>
      </trkpt>
      <trkpt lat="51.67023" lon="6.56848">
        <ele>66.210957</ele>
        <time>2026-05-06T12:39:30.098Z</time>
      </trkpt>
      <trkpt lat="51.67029" lon="6.5683">
        <ele>66.264312</ele>
        <time>2026-05-06T12:39:33.103Z</time>
      </trkpt>
      <trkpt lat="51.67035" lon="6.56811">
        <ele>66.318408</ele>
        <time>2026-05-06T12:39:36.100Z</time>
      </trkpt>
      <trkpt lat="51.67041" lon="6.56792">
        <ele>66.373392</ele>
        <time>2026-05-06T12:39:39.104Z</time>
      </trkpt>
      <trkpt lat="51.67046" lon="6.56773">
        <ele>66.427723</ele>
        <time>2026-05-06T12:39:42.106Z</time>
      </trkpt>
      <trkpt lat="51.67053" lon="6.56755">
        <ele>66.482585</ele>
        <time>2026-05-06T12:39:45.106Z</time>
      </trkpt>
      <trkpt lat="51.67059" lon="6.56737">
        <ele>66.536559</ele>
        <time>2026-05-06T12:39:48.107Z</time>
      </trkpt>
      <trkpt lat="51.67064" lon="6.56717">
        <ele>66.592005</ele>
        <time>2026-05-06T12:39:51.101Z</time>
      </trkpt>
      <trkpt lat="51.67069" lon="6.56698">
        <ele>66.645441</ele>
        <time>2026-05-06T12:39:54.103Z</time>
      </trkpt>
      <trkpt lat="51.67074" lon="6.5668">
        <ele>66.698134</ele>
        <time>2026-05-06T12:39:57.104Z</time>
      </trkpt>
      <trkpt lat="51.67079" lon="6.56661">
        <ele>66.751316</ele>
        <time>2026-05-06T12:40:00.101Z</time>
      </trkpt>
      <trkpt lat="51.67083" lon="6.56641">
        <ele>66.804623</ele>
        <time>2026-05-06T12:40:03.104Z</time>
      </trkpt>
      <trkpt lat="51.67087" lon="6.56622">
        <ele>66.851853</ele>
        <time>2026-05-06T12:40:06.107Z</time>
      </trkpt>
      <trkpt lat="51.6709" lon="6.56602">
        <ele>66.893476</ele>
        <time>2026-05-06T12:40:09.110Z</time>
      </trkpt>
      <trkpt lat="51.67094" lon="6.56581">
        <ele>66.936502</ele>
        <time>2026-05-06T12:40:12.110Z</time>
      </trkpt>
      <trkpt lat="51.67098" lon="6.56561">
        <ele>66.977849</ele>
        <time>2026-05-06T12:40:15.100Z</time>
      </trkpt>
      <trkpt lat="51.67101" lon="6.5654">
        <ele>67.020021</ele>
        <time>2026-05-06T12:40:18.103Z</time>
      </trkpt>
      <trkpt lat="51.67104" lon="6.56519">
        <ele>67.061736</ele>
        <time>2026-05-06T12:40:21.107Z</time>
      </trkpt>
      <trkpt lat="51.67106" lon="6.56498">
        <ele>67.103281</ele>
        <time>2026-05-06T12:40:24.101Z</time>
      </trkpt>
      <trkpt lat="51.67108" lon="6.56477">
        <ele>67.145031</ele>
        <time>2026-05-06T12:40:27.100Z</time>
      </trkpt>
      <trkpt lat="51.67109" lon="6.56456">
        <ele>67.187756</ele>
        <time>2026-05-06T12:40:30.131Z</time>
      </trkpt>
      <trkpt lat="51.67111" lon="6.56434">
        <ele>67.230249</ele>
        <time>2026-05-06T12:40:33.106Z</time>
      </trkpt>
      <trkpt lat="51.67112" lon="6.56413">
        <ele>67.27177</ele>
        <time>2026-05-06T12:40:36.110Z</time>
      </trkpt>
      <trkpt lat="51.67112" lon="6.56392">
        <ele>67.314775</ele>
        <time>2026-05-06T12:40:39.097Z</time>
      </trkpt>
      <trkpt lat="51.67112" lon="6.56377">
        <ele>67.343564</ele>
        <time>2026-05-06T12:40:41.102Z</time>
      </trkpt>
      <trkpt lat="51.67112" lon="6.56362">
        <ele>67.372742</ele>
        <time>2026-05-06T12:40:43.108Z</time>
      </trkpt>
      <trkpt lat="51.67112" lon="6.56348">
        <ele>67.401524</ele>
        <time>2026-05-06T12:40:45.111Z</time>
      </trkpt>
      <trkpt lat="51.67112" lon="6.56333">
        <ele>67.373893</ele>
        <time>2026-05-06T12:40:47.098Z</time>
      </trkpt>
      <trkpt lat="51.67111" lon="6.56311">
        <ele>67.329323</ele>
        <time>2026-05-06T12:40:50.094Z</time>
      </trkpt>
      <trkpt lat="51.6711" lon="6.5629">
        <ele>67.285465</ele>
        <time>2026-05-06T12:40:53.100Z</time>
      </trkpt>
      <trkpt lat="51.67108" lon="6.56269">
        <ele>67.241292</ele>
        <time>2026-05-06T12:40:56.097Z</time>
      </trkpt>
      <trkpt lat="51.67107" lon="6.56247">
        <ele>67.196916</ele>
        <time>2026-05-06T12:40:59.105Z</time>
      </trkpt>
      <trkpt lat="51.67105" lon="6.56233">
        <ele>67.166855</ele>
        <time>2026-05-06T12:41:01.101Z</time>
      </trkpt>
      <trkpt lat="51.67103" lon="6.56219">
        <ele>67.136522</ele>
        <time>2026-05-06T12:41:03.100Z</time>
      </trkpt>
      <trkpt lat="51.67101" lon="6.56204">
        <ele>67.106141</ele>
        <time>2026-05-06T12:41:05.107Z</time>
      </trkpt>
      <trkpt lat="51.67099" lon="6.5619">
        <ele>67.076023</ele>
        <time>2026-05-06T12:41:07.107Z</time>
      </trkpt>
      <trkpt lat="51.67098" lon="6.56175">
        <ele>67.045713</ele>
        <time>2026-05-06T12:41:09.102Z</time>
      </trkpt>
      <trkpt lat="51.67095" lon="6.56161">
        <ele>67.01578</ele>
        <time>2026-05-06T12:41:11.101Z</time>
      </trkpt>
      <trkpt lat="51.67093" lon="6.56147">
        <ele>66.985298</ele>
        <time>2026-05-06T12:41:13.114Z</time>
      </trkpt>
      <trkpt lat="51.6709" lon="6.56133">
        <ele>66.955196</ele>
        <time>2026-05-06T12:41:15.103Z</time>
      </trkpt>
      <trkpt lat="51.67088" lon="6.56119">
        <ele>66.924806</ele>
        <time>2026-05-06T12:41:17.098Z</time>
      </trkpt>
      <trkpt lat="51.67086" lon="6.56105">
        <ele>66.894552</ele>
        <time>2026-05-06T12:41:19.096Z</time>
      </trkpt>
      <trkpt lat="51.67084" lon="6.5609">
        <ele>66.864097</ele>
        <time>2026-05-06T12:41:21.102Z</time>
      </trkpt>
      <trkpt lat="51.67081" lon="6.56076">
        <ele>66.833995</ele>
        <time>2026-05-06T12:41:23.103Z</time>
      </trkpt>
      <trkpt lat="51.67079" lon="6.56062">
        <ele>66.802963</ele>
        <time>2026-05-06T12:41:25.107Z</time>
      </trkpt>
      <trkpt lat="51.67077" lon="6.56048">
        <ele>66.761898</ele>
        <time>2026-05-06T12:41:27.099Z</time>
      </trkpt>
      <trkpt lat="51.67073" lon="6.56027">
        <ele>66.70101</ele>
        <time>2026-05-06T12:41:30.110Z</time>
      </trkpt>
      <trkpt lat="51.67071" lon="6.56012">
        <ele>66.660057</ele>
        <time>2026-05-06T12:41:32.104Z</time>
      </trkpt>
      <trkpt lat="51.67069" lon="6.55998">
        <ele>66.619145</ele>
        <time>2026-05-06T12:41:34.101Z</time>
      </trkpt>
      <trkpt lat="51.67065" lon="6.55977">
        <ele>66.558301</ele>
        <time>2026-05-06T12:41:37.105Z</time>
      </trkpt>
      <trkpt lat="51.67063" lon="6.55963">
        <ele>66.51619</ele>
        <time>2026-05-06T12:41:39.108Z</time>
      </trkpt>
      <trkpt lat="51.6706" lon="6.55948">
        <ele>66.474693</ele>
        <time>2026-05-06T12:41:41.108Z</time>
      </trkpt>
      <trkpt lat="51.67058" lon="6.55934">
        <ele>66.43374</ele>
        <time>2026-05-06T12:41:43.112Z</time>
      </trkpt>
      <trkpt lat="51.67055" lon="6.55913">
        <ele>66.373395</ele>
        <time>2026-05-06T12:41:46.102Z</time>
      </trkpt>
      <trkpt lat="51.67053" lon="6.55899">
        <ele>66.332474</ele>
        <time>2026-05-06T12:41:48.105Z</time>
      </trkpt>
      <trkpt lat="51.67051" lon="6.55884">
        <ele>66.291183</ele>
        <time>2026-05-06T12:41:50.107Z</time>
      </trkpt>
      <trkpt lat="51.67049" lon="6.5587">
        <ele>66.248894</ele>
        <time>2026-05-06T12:41:52.095Z</time>
      </trkpt>
      <trkpt lat="51.67048" lon="6.55855">
        <ele>66.207409</ele>
        <time>2026-05-06T12:41:54.103Z</time>
      </trkpt>
      <trkpt lat="51.67046" lon="6.55841">
        <ele>66.1662</ele>
        <time>2026-05-06T12:41:56.115Z</time>
      </trkpt>
      <trkpt lat="51.67045" lon="6.55826">
        <ele>66.124436</ele>
        <time>2026-05-06T12:41:58.103Z</time>
      </trkpt>
      <trkpt lat="51.67044" lon="6.55811">
        <ele>66.083425</ele>
        <time>2026-05-06T12:42:00.119Z</time>
      </trkpt>
      <trkpt lat="51.67043" lon="6.55796">
        <ele>66.041856</ele>
        <time>2026-05-06T12:42:02.107Z</time>
      </trkpt>
      <trkpt lat="51.67043" lon="6.55781">
        <ele>65.999545</ele>
        <time>2026-05-06T12:42:04.110Z</time>
      </trkpt>
      <trkpt lat="51.67043" lon="6.55766">
        <ele>66.00199</ele>
        <time>2026-05-06T12:42:06.111Z</time>
      </trkpt>
      <trkpt lat="51.67044" lon="6.55751">
        <ele>66.011118</ele>
        <time>2026-05-06T12:42:08.103Z</time>
      </trkpt>
      <trkpt lat="51.67045" lon="6.55736">
        <ele>66.01995</ele>
        <time>2026-05-06T12:42:10.104Z</time>
      </trkpt>
      <trkpt lat="51.67045" lon="6.55715">
        <ele>66.032559</ele>
        <time>2026-05-06T12:42:13.110Z</time>
      </trkpt>
      <trkpt lat="51.67046" lon="6.55694">
        <ele>66.044523</ele>
        <time>2026-05-06T12:42:16.103Z</time>
      </trkpt>
      <trkpt lat="51.67048" lon="6.55676">
        <ele>66.055247</ele>
        <time>2026-05-06T12:42:19.105Z</time>
      </trkpt>
      <trkpt lat="51.67049" lon="6.55658">
        <ele>66.066334</ele>
        <time>2026-05-06T12:42:22.103Z</time>
      </trkpt>
      <trkpt lat="51.6705" lon="6.5564">
        <ele>66.076764</ele>
        <time>2026-05-06T12:42:25.112Z</time>
      </trkpt>
      <trkpt lat="51.67051" lon="6.55621">
        <ele>66.087976</ele>
        <time>2026-05-06T12:42:29.108Z</time>
      </trkpt>
      <trkpt lat="51.67052" lon="6.55604">
        <ele>66.098365</ele>
        <time>2026-05-06T12:42:32.097Z</time>
      </trkpt>
      <trkpt lat="51.67055" lon="6.55588">
        <ele>66.108021</ele>
        <time>2026-05-06T12:42:35.110Z</time>
      </trkpt>
      <trkpt lat="51.67063" lon="6.55579">
        <ele>66.117421</ele>
        <time>2026-05-06T12:42:39.107Z</time>
      </trkpt>
      <trkpt lat="51.67074" lon="6.55582">
        <ele>66.128055</ele>
        <time>2026-05-06T12:42:44.106Z</time>
      </trkpt>
      <trkpt lat="51.67081" lon="6.55568">
        <ele>66.138533</ele>
        <time>2026-05-06T12:42:48.108Z</time>
      </trkpt>
      <trkpt lat="51.67085" lon="6.55552">
        <ele>66.14895</ele>
        <time>2026-05-06T12:42:52.103Z</time>
      </trkpt>
      <trkpt lat="51.67089" lon="6.55538">
        <ele>66.15829</ele>
        <time>2026-05-06T12:42:56.102Z</time>
      </trkpt>
      <trkpt lat="51.67093" lon="6.55524">
        <ele>66.244788</ele>
        <time>2026-05-06T12:42:59.099Z</time>
      </trkpt>
      <trkpt lat="51.67097" lon="6.55511">
        <ele>66.787338</ele>
        <time>2026-05-06T12:43:02.106Z</time>
      </trkpt>
      <trkpt lat="51.67102" lon="6.55497">
        <ele>67.338793</ele>
        <time>2026-05-06T12:43:05.105Z</time>
      </trkpt>
      <trkpt lat="51.67107" lon="6.55483">
        <ele>67.906709</ele>
        <time>2026-05-06T12:43:08.115Z</time>
      </trkpt>
      <trkpt lat="51.67111" lon="6.55469">
        <ele>68.474625</ele>
        <time>2026-05-06T12:43:11.104Z</time>
      </trkpt>
      <trkpt lat="51.67116" lon="6.55454">
        <ele>69.05742</ele>
        <time>2026-05-06T12:43:14.096Z</time>
      </trkpt>
      <trkpt lat="51.67121" lon="6.5544">
        <ele>69.649894</ele>
        <time>2026-05-06T12:43:17.104Z</time>
      </trkpt>
      <trkpt lat="51.67126" lon="6.55425">
        <ele>70.240192</ele>
        <time>2026-05-06T12:43:20.107Z</time>
      </trkpt>
      <trkpt lat="51.67131" lon="6.55409">
        <ele>70.853425</ele>
        <time>2026-05-06T12:43:23.100Z</time>
      </trkpt>
      <trkpt lat="51.67135" lon="6.55394">
        <ele>71.436861</ele>
        <time>2026-05-06T12:43:26.118Z</time>
      </trkpt>
      <trkpt lat="51.67139" lon="6.5538">
        <ele>71.992934</ele>
        <time>2026-05-06T12:43:29.105Z</time>
      </trkpt>
      <trkpt lat="51.67144" lon="6.55363">
        <ele>72.672255</ele>
        <time>2026-05-06T12:43:33.106Z</time>
      </trkpt>
      <trkpt lat="51.67148" lon="6.55349">
        <ele>73.223705</ele>
        <time>2026-05-06T12:43:36.107Z</time>
      </trkpt>
      <trkpt lat="51.67152" lon="6.55332">
        <ele>73.873856</ele>
        <time>2026-05-06T12:43:40.103Z</time>
      </trkpt>
      <trkpt lat="51.67154" lon="6.55315">
        <ele>74.481163</ele>
        <time>2026-05-06T12:43:44.096Z</time>
      </trkpt>
      <trkpt lat="51.67157" lon="6.55297">
        <ele>75.137957</ele>
        <time>2026-05-06T12:43:48.114Z</time>
      </trkpt>
      <trkpt lat="51.67158" lon="6.55282">
        <ele>75.675647</ele>
        <time>2026-05-06T12:43:51.102Z</time>
      </trkpt>
      <trkpt lat="51.67159" lon="6.55266">
        <ele>76.245506</ele>
        <time>2026-05-06T12:43:54.106Z</time>
      </trkpt>
      <trkpt lat="51.6716" lon="6.55247">
        <ele>76.636539</ele>
        <time>2026-05-06T12:43:58.106Z</time>
      </trkpt>
      <trkpt lat="51.67162" lon="6.5523">
        <ele>76.851217</ele>
        <time>2026-05-06T12:44:01.105Z</time>
      </trkpt>
      <trkpt lat="51.67162" lon="6.55216">
        <ele>77.043656</ele>
        <time>2026-05-06T12:44:04.106Z</time>
      </trkpt>
      <trkpt lat="51.67162" lon="6.552">
        <ele>77.242462</ele>
        <time>2026-05-06T12:44:08.102Z</time>
      </trkpt>
      <trkpt lat="51.67161" lon="6.55186">
        <ele>77.433978</ele>
        <time>2026-05-06T12:44:11.102Z</time>
      </trkpt>
      <trkpt lat="51.6716" lon="6.55166">
        <ele>77.697398</ele>
        <time>2026-05-06T12:44:14.104Z</time>
      </trkpt>
      <trkpt lat="51.67161" lon="6.55146">
        <ele>77.961661</ele>
        <time>2026-05-06T12:44:17.116Z</time>
      </trkpt>
      <trkpt lat="51.6716" lon="6.55125">
        <ele>78.227457</ele>
        <time>2026-05-06T12:44:20.094Z</time>
      </trkpt>
      <trkpt lat="51.6716" lon="6.5511">
        <ele>78.432963</ele>
        <time>2026-05-06T12:44:22.105Z</time>
      </trkpt>
      <trkpt lat="51.67161" lon="6.55094">
        <ele>78.638827</ele>
        <time>2026-05-06T12:44:24.111Z</time>
      </trkpt>
      <trkpt lat="51.67163" lon="6.55074">
        <ele>78.905159</ele>
        <time>2026-05-06T12:44:27.104Z</time>
      </trkpt>
      <trkpt lat="51.67164" lon="6.55058">
        <ele>79.112046</ele>
        <time>2026-05-06T12:44:29.097Z</time>
      </trkpt>
      <trkpt lat="51.67166" lon="6.55043">
        <ele>79.319197</ele>
        <time>2026-05-06T12:44:31.100Z</time>
      </trkpt>
      <trkpt lat="51.67167" lon="6.55027">
        <ele>79.521708</ele>
        <time>2026-05-06T12:44:33.105Z</time>
      </trkpt>
      <trkpt lat="51.67168" lon="6.55013">
        <ele>79.713595</ele>
        <time>2026-05-06T12:44:35.103Z</time>
      </trkpt>
      <trkpt lat="51.67169" lon="6.54994">
        <ele>79.954693</ele>
        <time>2026-05-06T12:44:38.102Z</time>
      </trkpt>
      <trkpt lat="51.67169" lon="6.54976">
        <ele>80.193478</ele>
        <time>2026-05-06T12:44:41.100Z</time>
      </trkpt>
      <trkpt lat="51.6717" lon="6.54957">
        <ele>80.42593</ele>
        <time>2026-05-06T12:44:44.118Z</time>
      </trkpt>
      <trkpt lat="51.67171" lon="6.54938">
        <ele>80.643964</ele>
        <time>2026-05-06T12:44:47.104Z</time>
      </trkpt>
      <trkpt lat="51.67173" lon="6.54921">
        <ele>80.84104</ele>
        <time>2026-05-06T12:44:50.104Z</time>
      </trkpt>
      <trkpt lat="51.67169" lon="6.54907">
        <ele>81.020404</ele>
        <time>2026-05-06T12:44:59.100Z</time>
      </trkpt>
      <trkpt lat="51.67171" lon="6.54889">
        <ele>81.235065</ele>
        <time>2026-05-06T12:45:05.105Z</time>
      </trkpt>
      <trkpt lat="51.67173" lon="6.54871">
        <ele>81.440498</ele>
        <time>2026-05-06T12:45:09.104Z</time>
      </trkpt>
      <trkpt lat="51.67173" lon="6.54856">
        <ele>81.611024</ele>
        <time>2026-05-06T12:45:12.105Z</time>
      </trkpt>
      <trkpt lat="51.67174" lon="6.54841">
        <ele>81.786679</ele>
        <time>2026-05-06T12:45:15.109Z</time>
      </trkpt>
      <trkpt lat="51.67176" lon="6.54826">
        <ele>81.968617</ele>
        <time>2026-05-06T12:45:18.100Z</time>
      </trkpt>
      <trkpt lat="51.67177" lon="6.54808">
        <ele>82.183613</ele>
        <time>2026-05-06T12:45:21.112Z</time>
      </trkpt>
      <trkpt lat="51.6718" lon="6.54788">
        <ele>82.419326</ele>
        <time>2026-05-06T12:45:24.105Z</time>
      </trkpt>
      <trkpt lat="51.67182" lon="6.54773">
        <ele>82.59503</ele>
        <time>2026-05-06T12:45:26.114Z</time>
      </trkpt>
      <trkpt lat="51.67185" lon="6.54755">
        <ele>82.810074</ele>
        <time>2026-05-06T12:45:29.108Z</time>
      </trkpt>
      <trkpt lat="51.67187" lon="6.54737">
        <ele>83.026972</ele>
        <time>2026-05-06T12:45:32.102Z</time>
      </trkpt>
      <trkpt lat="51.67189" lon="6.5472">
        <ele>83.220814</ele>
        <time>2026-05-06T12:45:35.099Z</time>
      </trkpt>
      <trkpt lat="51.67191" lon="6.54703">
        <ele>83.428675</ele>
        <time>2026-05-06T12:45:38.103Z</time>
      </trkpt>
      <trkpt lat="51.67194" lon="6.54683">
        <ele>83.458477</ele>
        <time>2026-05-06T12:45:41.103Z</time>
      </trkpt>
      <trkpt lat="51.67196" lon="6.54664">
        <ele>82.659908</ele>
        <time>2026-05-06T12:45:44.106Z</time>
      </trkpt>
      <trkpt lat="51.672" lon="6.54647">
        <ele>81.890685</ele>
        <time>2026-05-06T12:45:47.093Z</time>
      </trkpt>
      <trkpt lat="51.67203" lon="6.54627">
        <ele>81.032956</ele>
        <time>2026-05-06T12:45:50.097Z</time>
      </trkpt>
      <trkpt lat="51.67204" lon="6.54612">
        <ele>80.426697</ele>
        <time>2026-05-06T12:45:52.102Z</time>
      </trkpt>
      <trkpt lat="51.67206" lon="6.54595">
        <ele>79.676057</ele>
        <time>2026-05-06T12:45:55.103Z</time>
      </trkpt>
      <trkpt lat="51.67208" lon="6.54576">
        <ele>78.886512</ele>
        <time>2026-05-06T12:45:58.098Z</time>
      </trkpt>
      <trkpt lat="51.6721" lon="6.5456">
        <ele>78.232996</ele>
        <time>2026-05-06T12:46:00.096Z</time>
      </trkpt>
      <trkpt lat="51.67212" lon="6.54545">
        <ele>77.565604</ele>
        <time>2026-05-06T12:46:02.104Z</time>
      </trkpt>
      <trkpt lat="51.67213" lon="6.54524">
        <ele>76.714806</ele>
        <time>2026-05-06T12:46:05.109Z</time>
      </trkpt>
      <trkpt lat="51.67213" lon="6.54504">
        <ele>75.862374</ele>
        <time>2026-05-06T12:46:08.104Z</time>
      </trkpt>
      <trkpt lat="51.67214" lon="6.54488">
        <ele>75.187925</ele>
        <time>2026-05-06T12:46:10.104Z</time>
      </trkpt>
      <trkpt lat="51.67216" lon="6.54473">
        <ele>74.546346</ele>
        <time>2026-05-06T12:46:12.111Z</time>
      </trkpt>
      <trkpt lat="51.67218" lon="6.54451">
        <ele>73.635161</ele>
        <time>2026-05-06T12:46:15.103Z</time>
      </trkpt>
      <trkpt lat="51.6722" lon="6.54428">
        <ele>72.654956</ele>
        <time>2026-05-06T12:46:18.102Z</time>
      </trkpt>
      <trkpt lat="51.6722" lon="6.54412">
        <ele>71.987404</ele>
        <time>2026-05-06T12:46:20.101Z</time>
      </trkpt>
      <trkpt lat="51.6722" lon="6.54397">
        <ele>71.470908</ele>
        <time>2026-05-06T12:46:22.096Z</time>
      </trkpt>
      <trkpt lat="51.67218" lon="6.54376">
        <ele>71.168835</ele>
        <time>2026-05-06T12:46:25.113Z</time>
      </trkpt>
      <trkpt lat="51.67218" lon="6.54361">
        <ele>70.957945</ele>
        <time>2026-05-06T12:46:27.103Z</time>
      </trkpt>
      <trkpt lat="51.67217" lon="6.54345">
        <ele>70.735635</ele>
        <time>2026-05-06T12:46:29.105Z</time>
      </trkpt>
      <trkpt lat="51.67217" lon="6.54329">
        <ele>70.506409</ele>
        <time>2026-05-06T12:46:31.102Z</time>
      </trkpt>
      <trkpt lat="51.67218" lon="6.54311">
        <ele>70.258928</ele>
        <time>2026-05-06T12:46:33.117Z</time>
      </trkpt>
      <trkpt lat="51.67218" lon="6.54294">
        <ele>70.018543</ele>
        <time>2026-05-06T12:46:35.101Z</time>
      </trkpt>
      <trkpt lat="51.67219" lon="6.54278">
        <ele>69.786409</ele>
        <time>2026-05-06T12:46:37.105Z</time>
      </trkpt>
      <trkpt lat="51.67219" lon="6.54261">
        <ele>69.550292</ele>
        <time>2026-05-06T12:46:39.104Z</time>
      </trkpt>
      <trkpt lat="51.67219" lon="6.54244">
        <ele>69.314121</ele>
        <time>2026-05-06T12:46:41.107Z</time>
      </trkpt>
      <trkpt lat="51.67219" lon="6.54226">
        <ele>69.052509</ele>
        <time>2026-05-06T12:46:43.108Z</time>
      </trkpt>
      <trkpt lat="51.67218" lon="6.54207">
        <ele>68.793913</ele>
        <time>2026-05-06T12:46:45.107Z</time>
      </trkpt>
      <trkpt lat="51.6722" lon="6.5419">
        <ele>68.549298</ele>
        <time>2026-05-06T12:46:47.105Z</time>
      </trkpt>
      <trkpt lat="51.67221" lon="6.54173">
        <ele>68.314962</ele>
        <time>2026-05-06T12:46:49.113Z</time>
      </trkpt>
      <trkpt lat="51.67223" lon="6.54157">
        <ele>68.080627</ele>
        <time>2026-05-06T12:46:51.103Z</time>
      </trkpt>
      <trkpt lat="51.67225" lon="6.54142">
        <ele>67.864033</ele>
        <time>2026-05-06T12:46:53.112Z</time>
      </trkpt>
      <trkpt lat="51.67228" lon="6.54128">
        <ele>67.653984</ele>
        <time>2026-05-06T12:46:55.099Z</time>
      </trkpt>
      <trkpt lat="51.67232" lon="6.54108">
        <ele>67.734258</ele>
        <time>2026-05-06T12:46:58.102Z</time>
      </trkpt>
      <trkpt lat="51.67235" lon="6.54092">
        <ele>68.68746</ele>
        <time>2026-05-06T12:47:01.104Z</time>
      </trkpt>
      <trkpt lat="51.67237" lon="6.54076">
        <ele>69.613524</ele>
        <time>2026-05-06T12:47:04.109Z</time>
      </trkpt>
      <trkpt lat="51.6724" lon="6.54059">
        <ele>70.582904</ele>
        <time>2026-05-06T12:47:07.102Z</time>
      </trkpt>
      <trkpt lat="51.67244" lon="6.54043">
        <ele>71.580212</ele>
        <time>2026-05-06T12:47:10.098Z</time>
      </trkpt>
      <trkpt lat="51.67248" lon="6.5403">
        <ele>72.402019</ele>
        <time>2026-05-06T12:47:12.104Z</time>
      </trkpt>
      <trkpt lat="51.67252" lon="6.54015">
        <ele>73.285272</ele>
        <time>2026-05-06T12:47:14.116Z</time>
      </trkpt>
      <trkpt lat="51.67257" lon="6.53997">
        <ele>74.403633</ele>
        <time>2026-05-06T12:47:17.102Z</time>
      </trkpt>
      <trkpt lat="51.67262" lon="6.53978">
        <ele>75.555629</ele>
        <time>2026-05-06T12:47:20.106Z</time>
      </trkpt>
      <trkpt lat="51.67266" lon="6.53961">
        <ele>76.600446</ele>
        <time>2026-05-06T12:47:23.102Z</time>
      </trkpt>
      <trkpt lat="51.67269" lon="6.53944">
        <ele>77.591206</ele>
        <time>2026-05-06T12:47:26.101Z</time>
      </trkpt>
      <trkpt lat="51.67271" lon="6.53928">
        <ele>78.520963</ele>
        <time>2026-05-06T12:47:29.101Z</time>
      </trkpt>
      <trkpt lat="51.67274" lon="6.53905">
        <ele>79.78836</ele>
        <time>2026-05-06T12:47:32.108Z</time>
      </trkpt>
      <trkpt lat="51.67276" lon="6.53889">
        <ele>80.749176</ele>
        <time>2026-05-06T12:47:34.099Z</time>
      </trkpt>
      <trkpt lat="51.67278" lon="6.53874">
        <ele>81.587439</ele>
        <time>2026-05-06T12:47:36.111Z</time>
      </trkpt>
      <trkpt lat="51.67283" lon="6.53853">
        <ele>82.833832</ele>
        <time>2026-05-06T12:47:39.100Z</time>
      </trkpt>
      <trkpt lat="51.67286" lon="6.53837">
        <ele>83.657784</ele>
        <time>2026-05-06T12:47:41.108Z</time>
      </trkpt>
      <trkpt lat="51.6729" lon="6.5382">
        <ele>83.194464</ele>
        <time>2026-05-06T12:47:43.095Z</time>
      </trkpt>
      <trkpt lat="51.67293" lon="6.53803">
        <ele>82.731755</ele>
        <time>2026-05-06T12:47:45.105Z</time>
      </trkpt>
      <trkpt lat="51.67295" lon="6.53787">
        <ele>82.305747</ele>
        <time>2026-05-06T12:47:47.101Z</time>
      </trkpt>
      <trkpt lat="51.67297" lon="6.53772">
        <ele>81.907248</ele>
        <time>2026-05-06T12:47:49.111Z</time>
      </trkpt>
      <trkpt lat="51.67298" lon="6.53757">
        <ele>81.50295</ele>
        <time>2026-05-06T12:47:51.101Z</time>
      </trkpt>
      <trkpt lat="51.673" lon="6.53738">
        <ele>81.012236</ele>
        <time>2026-05-06T12:47:53.101Z</time>
      </trkpt>
      <trkpt lat="51.67303" lon="6.53717">
        <ele>80.436018</ele>
        <time>2026-05-06T12:47:56.107Z</time>
      </trkpt>
      <trkpt lat="51.67305" lon="6.53697">
        <ele>79.904504</ele>
        <time>2026-05-06T12:47:58.093Z</time>
      </trkpt>
      <trkpt lat="51.67306" lon="6.53679">
        <ele>79.443576</ele>
        <time>2026-05-06T12:48:00.098Z</time>
      </trkpt>
      <trkpt lat="51.67307" lon="6.5366">
        <ele>78.944657</ele>
        <time>2026-05-06T12:48:02.115Z</time>
      </trkpt>
      <trkpt lat="51.6731" lon="6.53643">
        <ele>78.481958</ele>
        <time>2026-05-06T12:48:04.110Z</time>
      </trkpt>
      <trkpt lat="51.67315" lon="6.53621">
        <ele>77.855576</ele>
        <time>2026-05-06T12:48:06.096Z</time>
      </trkpt>
      <trkpt lat="51.67319" lon="6.53601">
        <ele>77.323327</ele>
        <time>2026-05-06T12:48:08.110Z</time>
      </trkpt>
      <trkpt lat="51.67322" lon="6.53581">
        <ele>76.76974</ele>
        <time>2026-05-06T12:48:10.108Z</time>
      </trkpt>
      <trkpt lat="51.67327" lon="6.53561">
        <ele>76.233424</ele>
        <time>2026-05-06T12:48:12.103Z</time>
      </trkpt>
      <trkpt lat="51.67331" lon="6.53542">
        <ele>75.200839</ele>
        <time>2026-05-06T12:48:14.103Z</time>
      </trkpt>
      <trkpt lat="51.67336" lon="6.53523">
        <ele>74.047597</ele>
        <time>2026-05-06T12:48:16.121Z</time>
      </trkpt>
      <trkpt lat="51.67341" lon="6.53504">
        <ele>72.945247</ele>
        <time>2026-05-06T12:48:18.100Z</time>
      </trkpt>
      <trkpt lat="51.67345" lon="6.53486">
        <ele>71.856723</ele>
        <time>2026-05-06T12:48:20.100Z</time>
      </trkpt>
      <trkpt lat="51.6735" lon="6.53468">
        <ele>70.790289</ele>
        <time>2026-05-06T12:48:22.093Z</time>
      </trkpt>
      <trkpt lat="51.67354" lon="6.53451">
        <ele>69.798618</ele>
        <time>2026-05-06T12:48:24.094Z</time>
      </trkpt>
      <trkpt lat="51.67358" lon="6.53434">
        <ele>68.777089</ele>
        <time>2026-05-06T12:48:26.112Z</time>
      </trkpt>
      <trkpt lat="51.67362" lon="6.53416">
        <ele>67.730084</ele>
        <time>2026-05-06T12:48:28.107Z</time>
      </trkpt>
      <trkpt lat="51.67365" lon="6.53399">
        <ele>66.740544</ele>
        <time>2026-05-06T12:48:30.112Z</time>
      </trkpt>
      <trkpt lat="51.67369" lon="6.53384">
        <ele>65.844109</ele>
        <time>2026-05-06T12:48:32.099Z</time>
      </trkpt>
      <trkpt lat="51.67373" lon="6.53368">
        <ele>64.911621</ele>
        <time>2026-05-06T12:48:34.097Z</time>
      </trkpt>
      <trkpt lat="51.67376" lon="6.53353">
        <ele>64.021577</ele>
        <time>2026-05-06T12:48:36.105Z</time>
      </trkpt>
      <trkpt lat="51.6738" lon="6.53338">
        <ele>63.109908</ele>
        <time>2026-05-06T12:48:38.105Z</time>
      </trkpt>
      <trkpt lat="51.67384" lon="6.53324">
        <ele>62.252438</ele>
        <time>2026-05-06T12:48:40.107Z</time>
      </trkpt>
      <trkpt lat="51.67388" lon="6.53309">
        <ele>61.377892</ele>
        <time>2026-05-06T12:48:42.107Z</time>
      </trkpt>
      <trkpt lat="51.67391" lon="6.53295">
        <ele>60.527479</ele>
        <time>2026-05-06T12:48:44.109Z</time>
      </trkpt>
      <trkpt lat="51.67396" lon="6.53281">
        <ele>60.00865</ele>
        <time>2026-05-06T12:48:46.100Z</time>
      </trkpt>
      <trkpt lat="51.67399" lon="6.53266">
        <ele>59.797702</ele>
        <time>2026-05-06T12:48:48.104Z</time>
      </trkpt>
      <trkpt lat="51.67403" lon="6.53251">
        <ele>59.58705</ele>
        <time>2026-05-06T12:48:50.103Z</time>
      </trkpt>
      <trkpt lat="51.67406" lon="6.53237">
        <ele>59.381863</ele>
        <time>2026-05-06T12:48:52.106Z</time>
      </trkpt>
      <trkpt lat="51.6741" lon="6.53223">
        <ele>59.179452</ele>
        <time>2026-05-06T12:48:54.105Z</time>
      </trkpt>
      <trkpt lat="51.67414" lon="6.53209">
        <ele>58.975826</ele>
        <time>2026-05-06T12:48:56.112Z</time>
      </trkpt>
      <trkpt lat="51.67418" lon="6.53195">
        <ele>58.769839</ele>
        <time>2026-05-06T12:48:58.108Z</time>
      </trkpt>
      <trkpt lat="51.67421" lon="6.5318">
        <ele>58.561904</ele>
        <time>2026-05-06T12:49:00.100Z</time>
      </trkpt>
      <trkpt lat="51.67424" lon="6.53166">
        <ele>58.357007</ele>
        <time>2026-05-06T12:49:02.101Z</time>
      </trkpt>
      <trkpt lat="51.67428" lon="6.53152">
        <ele>58.153061</ele>
        <time>2026-05-06T12:49:04.114Z</time>
      </trkpt>
      <trkpt lat="51.67431" lon="6.53138">
        <ele>57.950355</ele>
        <time>2026-05-06T12:49:06.112Z</time>
      </trkpt>
      <trkpt lat="51.67435" lon="6.53123">
        <ele>57.746011</ele>
        <time>2026-05-06T12:49:08.102Z</time>
      </trkpt>
      <trkpt lat="51.67439" lon="6.5311">
        <ele>57.548724</ele>
        <time>2026-05-06T12:49:10.098Z</time>
      </trkpt>
      <trkpt lat="51.67443" lon="6.53097">
        <ele>57.354489</ele>
        <time>2026-05-06T12:49:12.107Z</time>
      </trkpt>
      <trkpt lat="51.67448" lon="6.53077">
        <ele>57.063705</ele>
        <time>2026-05-06T12:49:15.107Z</time>
      </trkpt>
      <trkpt lat="51.67453" lon="6.53057">
        <ele>56.775489</ele>
        <time>2026-05-06T12:49:18.108Z</time>
      </trkpt>
      <trkpt lat="51.67458" lon="6.53037">
        <ele>56.490959</ele>
        <time>2026-05-06T12:49:21.098Z</time>
      </trkpt>
      <trkpt lat="51.67463" lon="6.53017">
        <ele>56.274772</ele>
        <time>2026-05-06T12:49:24.106Z</time>
      </trkpt>
      <trkpt lat="51.67466" lon="6.53003">
        <ele>56.390412</ele>
        <time>2026-05-06T12:49:26.104Z</time>
      </trkpt>
      <trkpt lat="51.67469" lon="6.52989">
        <ele>56.506995</ele>
        <time>2026-05-06T12:49:28.101Z</time>
      </trkpt>
      <trkpt lat="51.67473" lon="6.52976">
        <ele>56.625035</ele>
        <time>2026-05-06T12:49:30.099Z</time>
      </trkpt>
      <trkpt lat="51.67476" lon="6.52962">
        <ele>56.74052</ele>
        <time>2026-05-06T12:49:32.099Z</time>
      </trkpt>
      <trkpt lat="51.67479" lon="6.52948">
        <ele>56.855579</ele>
        <time>2026-05-06T12:49:34.101Z</time>
      </trkpt>
      <trkpt lat="51.67484" lon="6.52928">
        <ele>57.025985</ele>
        <time>2026-05-06T12:49:37.098Z</time>
      </trkpt>
      <trkpt lat="51.67488" lon="6.52915">
        <ele>57.143554</ele>
        <time>2026-05-06T12:49:39.106Z</time>
      </trkpt>
      <trkpt lat="51.67493" lon="6.52896">
        <ele>57.303004</ele>
        <time>2026-05-06T12:49:42.103Z</time>
      </trkpt>
      <trkpt lat="51.67497" lon="6.52878">
        <ele>57.454284</ele>
        <time>2026-05-06T12:49:45.107Z</time>
      </trkpt>
      <trkpt lat="51.67502" lon="6.5286">
        <ele>57.603397</ele>
        <time>2026-05-06T12:49:48.107Z</time>
      </trkpt>
      <trkpt lat="51.67506" lon="6.52844">
        <ele>57.747174</ele>
        <time>2026-05-06T12:49:51.099Z</time>
      </trkpt>
      <trkpt lat="51.67511" lon="6.52827">
        <ele>57.891162</ele>
        <time>2026-05-06T12:49:54.106Z</time>
      </trkpt>
      <trkpt lat="51.67516" lon="6.52811">
        <ele>58.033798</ele>
        <time>2026-05-06T12:49:57.095Z</time>
      </trkpt>
      <trkpt lat="51.67522" lon="6.52796">
        <ele>58.166865</ele>
        <time>2026-05-06T12:50:00.090Z</time>
      </trkpt>
      <trkpt lat="51.67526" lon="6.52783">
        <ele>58.291359</ele>
        <time>2026-05-06T12:50:03.102Z</time>
      </trkpt>
      <trkpt lat="51.6753" lon="6.52769">
        <ele>58.407214</ele>
        <time>2026-05-06T12:50:06.101Z</time>
      </trkpt>
      <trkpt lat="51.67532" lon="6.52754">
        <ele>58.528205</ele>
        <time>2026-05-06T12:50:09.097Z</time>
      </trkpt>
      <trkpt lat="51.67535" lon="6.52736">
        <ele>58.927143</ele>
        <time>2026-05-06T12:50:13.097Z</time>
      </trkpt>
      <trkpt lat="51.67536" lon="6.52722">
        <ele>59.24904</ele>
        <time>2026-05-06T12:50:17.107Z</time>
      </trkpt>
      <trkpt lat="51.67537" lon="6.52706">
        <ele>59.601877</ele>
        <time>2026-05-06T12:50:23.097Z</time>
      </trkpt>
      <trkpt lat="51.67535" lon="6.52688">
        <ele>59.995505</ele>
        <time>2026-05-06T12:50:28.113Z</time>
      </trkpt>
      <trkpt lat="51.67535" lon="6.52673">
        <ele>60.321489</ele>
        <time>2026-05-06T12:50:31.099Z</time>
      </trkpt>
      <trkpt lat="51.67533" lon="6.52658">
        <ele>60.66442</ele>
        <time>2026-05-06T12:50:34.114Z</time>
      </trkpt>
      <trkpt lat="51.67532" lon="6.52643">
        <ele>60.985106</ele>
        <time>2026-05-06T12:50:37.111Z</time>
      </trkpt>
      <trkpt lat="51.67529" lon="6.52627">
        <ele>61.356524</ele>
        <time>2026-05-06T12:50:41.112Z</time>
      </trkpt>
      <trkpt lat="51.67528" lon="6.5261">
        <ele>61.735336</ele>
        <time>2026-05-06T12:50:46.106Z</time>
      </trkpt>
      <trkpt lat="51.67528" lon="6.52594">
        <ele>62.086731</ele>
        <time>2026-05-06T12:50:51.104Z</time>
      </trkpt>
      <trkpt lat="51.67523" lon="6.5253">
        <ele>63.496885</ele>
        <time>2026-05-06T13:00:40.108Z</time>
      </trkpt>
      <trkpt lat="51.67521" lon="6.52509">
        <ele>63.954818</ele>
        <time>2026-05-06T13:00:43.104Z</time>
      </trkpt>
      <trkpt lat="51.67519" lon="6.52495">
        <ele>64.286119</ele>
        <time>2026-05-06T13:00:45.108Z</time>
      </trkpt>
      <trkpt lat="51.67517" lon="6.52479">
        <ele>64.626885</ele>
        <time>2026-05-06T13:00:47.113Z</time>
      </trkpt>
      <trkpt lat="51.67516" lon="6.52461">
        <ele>64.863614</ele>
        <time>2026-05-06T13:00:49.105Z</time>
      </trkpt>
      <trkpt lat="51.67514" lon="6.52443">
        <ele>64.76492</ele>
        <time>2026-05-06T13:00:51.108Z</time>
      </trkpt>
      <trkpt lat="51.67511" lon="6.52424">
        <ele>64.657234</ele>
        <time>2026-05-06T13:00:53.106Z</time>
      </trkpt>
      <trkpt lat="51.67509" lon="6.52406">
        <ele>64.554079</ele>
        <time>2026-05-06T13:00:55.104Z</time>
      </trkpt>
      <trkpt lat="51.67506" lon="6.52386">
        <ele>64.444073</ele>
        <time>2026-05-06T13:00:57.107Z</time>
      </trkpt>
      <trkpt lat="51.67503" lon="6.52366">
        <ele>64.331255</ele>
        <time>2026-05-06T13:00:59.095Z</time>
      </trkpt>
      <trkpt lat="51.675" lon="6.52347">
        <ele>64.223692</ele>
        <time>2026-05-06T13:01:01.103Z</time>
      </trkpt>
      <trkpt lat="51.67498" lon="6.52329">
        <ele>64.12117</ele>
        <time>2026-05-06T13:01:03.088Z</time>
      </trkpt>
      <trkpt lat="51.67495" lon="6.52312">
        <ele>64.020881</ele>
        <time>2026-05-06T13:01:05.109Z</time>
      </trkpt>
      <trkpt lat="51.67492" lon="6.52294">
        <ele>63.921254</ele>
        <time>2026-05-06T13:01:07.110Z</time>
      </trkpt>
      <trkpt lat="51.67489" lon="6.52277">
        <ele>63.821769</ele>
        <time>2026-05-06T13:01:09.106Z</time>
      </trkpt>
      <trkpt lat="51.67486" lon="6.52261">
        <ele>63.728635</ele>
        <time>2026-05-06T13:01:11.104Z</time>
      </trkpt>
      <trkpt lat="51.67484" lon="6.52246">
        <ele>63.644122</ele>
        <time>2026-05-06T13:01:13.102Z</time>
      </trkpt>
      <trkpt lat="51.67482" lon="6.5223">
        <ele>63.554307</ele>
        <time>2026-05-06T13:01:15.088Z</time>
      </trkpt>
      <trkpt lat="51.6748" lon="6.52213">
        <ele>63.460528</ele>
        <time>2026-05-06T13:01:17.111Z</time>
      </trkpt>
      <trkpt lat="51.67477" lon="6.52197">
        <ele>63.364955</ele>
        <time>2026-05-06T13:01:19.096Z</time>
      </trkpt>
      <trkpt lat="51.67476" lon="6.5218">
        <ele>63.311921</ele>
        <time>2026-05-06T13:01:21.106Z</time>
      </trkpt>
      <trkpt lat="51.67474" lon="6.52164">
        <ele>63.358853</ele>
        <time>2026-05-06T13:01:23.111Z</time>
      </trkpt>
      <trkpt lat="51.67473" lon="6.52147">
        <ele>63.405435</ele>
        <time>2026-05-06T13:01:25.106Z</time>
      </trkpt>
      <trkpt lat="51.67472" lon="6.52132">
        <ele>63.450087</ele>
        <time>2026-05-06T13:01:27.101Z</time>
      </trkpt>
      <trkpt lat="51.67471" lon="6.52117">
        <ele>63.491984</ele>
        <time>2026-05-06T13:01:29.103Z</time>
      </trkpt>
      <trkpt lat="51.67471" lon="6.52096">
        <ele>63.554447</ele>
        <time>2026-05-06T13:01:32.123Z</time>
      </trkpt>
      <trkpt lat="51.67472" lon="6.52074">
        <ele>63.616094</ele>
        <time>2026-05-06T13:01:35.103Z</time>
      </trkpt>
      <trkpt lat="51.67472" lon="6.52059">
        <ele>63.658019</ele>
        <time>2026-05-06T13:01:37.098Z</time>
      </trkpt>
      <trkpt lat="51.67473" lon="6.52044">
        <ele>63.703241</ele>
        <time>2026-05-06T13:01:39.116Z</time>
      </trkpt>
      <trkpt lat="51.67475" lon="6.52028">
        <ele>63.748405</ele>
        <time>2026-05-06T13:01:41.099Z</time>
      </trkpt>
      <trkpt lat="51.67478" lon="6.52014">
        <ele>63.791388</ele>
        <time>2026-05-06T13:01:43.100Z</time>
      </trkpt>
      <trkpt lat="51.67482" lon="6.52">
        <ele>63.836279</ele>
        <time>2026-05-06T13:01:45.105Z</time>
      </trkpt>
      <trkpt lat="51.67487" lon="6.51987">
        <ele>63.879632</ele>
        <time>2026-05-06T13:01:47.101Z</time>
      </trkpt>
      <trkpt lat="51.67494" lon="6.51975">
        <ele>63.926299</ele>
        <time>2026-05-06T13:01:49.106Z</time>
      </trkpt>
      <trkpt lat="51.67501" lon="6.51964">
        <ele>63.97113</ele>
        <time>2026-05-06T13:01:51.096Z</time>
      </trkpt>
      <trkpt lat="51.67508" lon="6.51954">
        <ele>64.01556</ele>
        <time>2026-05-06T13:01:53.104Z</time>
      </trkpt>
      <trkpt lat="51.67517" lon="6.51945">
        <ele>64.063465</ele>
        <time>2026-05-06T13:01:55.107Z</time>
      </trkpt>
      <trkpt lat="51.67526" lon="6.51936">
        <ele>64.111702</ele>
        <time>2026-05-06T13:01:57.096Z</time>
      </trkpt>
      <trkpt lat="51.67535" lon="6.51929">
        <ele>64.085773</ele>
        <time>2026-05-06T13:01:59.096Z</time>
      </trkpt>
      <trkpt lat="51.67544" lon="6.51923">
        <ele>64.020659</ele>
        <time>2026-05-06T13:02:01.105Z</time>
      </trkpt>
      <trkpt lat="51.67553" lon="6.51916">
        <ele>63.955381</ele>
        <time>2026-05-06T13:02:03.094Z</time>
      </trkpt>
      <trkpt lat="51.67561" lon="6.5191">
        <ele>63.89219</ele>
        <time>2026-05-06T13:02:05.103Z</time>
      </trkpt>
      <trkpt lat="51.6757" lon="6.51902">
        <ele>63.824775</ele>
        <time>2026-05-06T13:02:07.102Z</time>
      </trkpt>
      <trkpt lat="51.67579" lon="6.51894">
        <ele>63.755221</ele>
        <time>2026-05-06T13:02:09.105Z</time>
      </trkpt>
      <trkpt lat="51.67589" lon="6.5189">
        <ele>63.692013</ele>
        <time>2026-05-06T13:02:11.109Z</time>
      </trkpt>
      <trkpt lat="51.67598" lon="6.51887">
        <ele>63.630297</ele>
        <time>2026-05-06T13:02:13.103Z</time>
      </trkpt>
      <trkpt lat="51.67607" lon="6.51883">
        <ele>63.568889</ele>
        <time>2026-05-06T13:02:15.091Z</time>
      </trkpt>
      <trkpt lat="51.67616" lon="6.51879">
        <ele>63.505948</ele>
        <time>2026-05-06T13:02:17.106Z</time>
      </trkpt>
      <trkpt lat="51.67624" lon="6.51875">
        <ele>63.445758</ele>
        <time>2026-05-06T13:02:19.107Z</time>
      </trkpt>
      <trkpt lat="51.67634" lon="6.51872">
        <ele>63.380267</ele>
        <time>2026-05-06T13:02:21.111Z</time>
      </trkpt>
      <trkpt lat="51.67644" lon="6.51869">
        <ele>63.312875</ele>
        <time>2026-05-06T13:02:23.094Z</time>
      </trkpt>
      <trkpt lat="51.67655" lon="6.51864">
        <ele>63.239294</ele>
        <time>2026-05-06T13:02:25.102Z</time>
      </trkpt>
      <trkpt lat="51.67664" lon="6.51858">
        <ele>63.170942</ele>
        <time>2026-05-06T13:02:27.107Z</time>
      </trkpt>
      <trkpt lat="51.67673" lon="6.51852">
        <ele>63.107529</ele>
        <time>2026-05-06T13:02:29.105Z</time>
      </trkpt>
      <trkpt lat="51.67682" lon="6.51847">
        <ele>63.042936</ele>
        <time>2026-05-06T13:02:31.095Z</time>
      </trkpt>
      <trkpt lat="51.67694" lon="6.51841">
        <ele>62.957189</ele>
        <time>2026-05-06T13:02:34.117Z</time>
      </trkpt>
      <trkpt lat="51.67707" lon="6.51833">
        <ele>63.002763</ele>
        <time>2026-05-06T13:02:37.103Z</time>
      </trkpt>
      <trkpt lat="51.67716" lon="6.51828">
        <ele>63.070844</ele>
        <time>2026-05-06T13:02:39.102Z</time>
      </trkpt>
      <trkpt lat="51.67724" lon="6.51821">
        <ele>63.141062</ele>
        <time>2026-05-06T13:02:41.113Z</time>
      </trkpt>
      <trkpt lat="51.67736" lon="6.51811">
        <ele>63.242061</ele>
        <time>2026-05-06T13:02:44.105Z</time>
      </trkpt>
      <trkpt lat="51.67745" lon="6.51803">
        <ele>63.313601</ele>
        <time>2026-05-06T13:02:46.105Z</time>
      </trkpt>
      <trkpt lat="51.67753" lon="6.51795">
        <ele>63.383009</ele>
        <time>2026-05-06T13:02:48.096Z</time>
      </trkpt>
      <trkpt lat="51.67761" lon="6.51788">
        <ele>63.45387</ele>
        <time>2026-05-06T13:02:50.103Z</time>
      </trkpt>
      <trkpt lat="51.6777" lon="6.51781">
        <ele>63.525159</ele>
        <time>2026-05-06T13:02:52.113Z</time>
      </trkpt>
      <trkpt lat="51.67779" lon="6.51775">
        <ele>63.594928</ele>
        <time>2026-05-06T13:02:54.108Z</time>
      </trkpt>
      <trkpt lat="51.67788" lon="6.51771">
        <ele>63.666106</ele>
        <time>2026-05-06T13:02:56.121Z</time>
      </trkpt>
      <trkpt lat="51.67797" lon="6.51766">
        <ele>63.736132</ele>
        <time>2026-05-06T13:02:58.102Z</time>
      </trkpt>
      <trkpt lat="51.67806" lon="6.51762">
        <ele>63.80589</ele>
        <time>2026-05-06T13:03:00.098Z</time>
      </trkpt>
      <trkpt lat="51.67816" lon="6.51759">
        <ele>63.876362</ele>
        <time>2026-05-06T13:03:02.100Z</time>
      </trkpt>
      <trkpt lat="51.67825" lon="6.51754">
        <ele>63.946661</ele>
        <time>2026-05-06T13:03:04.112Z</time>
      </trkpt>
      <trkpt lat="51.67834" lon="6.51749">
        <ele>64.0178</ele>
        <time>2026-05-06T13:03:06.100Z</time>
      </trkpt>
      <trkpt lat="51.67843" lon="6.51744">
        <ele>64.088982</ele>
        <time>2026-05-06T13:03:08.106Z</time>
      </trkpt>
      <trkpt lat="51.67853" lon="6.51739">
        <ele>64.163063</ele>
        <time>2026-05-06T13:03:10.102Z</time>
      </trkpt>
      <trkpt lat="51.67862" lon="6.51734">
        <ele>64.237568</ele>
        <time>2026-05-06T13:03:12.110Z</time>
      </trkpt>
      <trkpt lat="51.67872" lon="6.51728">
        <ele>64.181937</ele>
        <time>2026-05-06T13:03:14.118Z</time>
      </trkpt>
      <trkpt lat="51.67881" lon="6.51724">
        <ele>64.089609</ele>
        <time>2026-05-06T13:03:16.108Z</time>
      </trkpt>
      <trkpt lat="51.6789" lon="6.51719">
        <ele>63.998771</ele>
        <time>2026-05-06T13:03:18.099Z</time>
      </trkpt>
      <trkpt lat="51.67898" lon="6.51715">
        <ele>63.91214</ele>
        <time>2026-05-06T13:03:20.103Z</time>
      </trkpt>
      <trkpt lat="51.67911" lon="6.51708">
        <ele>63.78463</ele>
        <time>2026-05-06T13:03:23.110Z</time>
      </trkpt>
      <trkpt lat="51.67923" lon="6.51701">
        <ele>63.65808</ele>
        <time>2026-05-06T13:03:26.105Z</time>
      </trkpt>
      <trkpt lat="51.67932" lon="6.51697">
        <ele>63.571089</ele>
        <time>2026-05-06T13:03:28.096Z</time>
      </trkpt>
      <trkpt lat="51.67941" lon="6.51691">
        <ele>63.482023</ele>
        <time>2026-05-06T13:03:30.105Z</time>
      </trkpt>
      <trkpt lat="51.67949" lon="6.51686">
        <ele>63.393443</ele>
        <time>2026-05-06T13:03:32.106Z</time>
      </trkpt>
      <trkpt lat="51.67958" lon="6.51681">
        <ele>63.305686</ele>
        <time>2026-05-06T13:03:34.106Z</time>
      </trkpt>
      <trkpt lat="51.67967" lon="6.51676">
        <ele>63.217728</ele>
        <time>2026-05-06T13:03:36.104Z</time>
      </trkpt>
      <trkpt lat="51.67979" lon="6.51668">
        <ele>63.087658</ele>
        <time>2026-05-06T13:03:39.103Z</time>
      </trkpt>
      <trkpt lat="51.67988" lon="6.51663">
        <ele>62.998795</ele>
        <time>2026-05-06T13:03:41.110Z</time>
      </trkpt>
      <trkpt lat="51.67996" lon="6.51658">
        <ele>62.910633</ele>
        <time>2026-05-06T13:03:43.108Z</time>
      </trkpt>
      <trkpt lat="51.68005" lon="6.51653">
        <ele>62.823847</ele>
        <time>2026-05-06T13:03:45.101Z</time>
      </trkpt>
      <trkpt lat="51.68017" lon="6.51646">
        <ele>62.696138</ele>
        <time>2026-05-06T13:03:48.102Z</time>
      </trkpt>
      <trkpt lat="51.6803" lon="6.5164">
        <ele>62.573244</ele>
        <time>2026-05-06T13:03:51.102Z</time>
      </trkpt>
      <trkpt lat="51.68042" lon="6.51634">
        <ele>62.489282</ele>
        <time>2026-05-06T13:03:54.104Z</time>
      </trkpt>
      <trkpt lat="51.68054" lon="6.51628">
        <ele>62.42794</ele>
        <time>2026-05-06T13:03:57.096Z</time>
      </trkpt>
      <trkpt lat="51.68067" lon="6.51622">
        <ele>62.365152</ele>
        <time>2026-05-06T13:04:00.101Z</time>
      </trkpt>
      <trkpt lat="51.68079" lon="6.51615">
        <ele>62.302646</ele>
        <time>2026-05-06T13:04:03.104Z</time>
      </trkpt>
      <trkpt lat="51.68088" lon="6.5161">
        <ele>62.258784</ele>
        <time>2026-05-06T13:04:05.096Z</time>
      </trkpt>
      <trkpt lat="51.68097" lon="6.51605">
        <ele>62.214377</ele>
        <time>2026-05-06T13:04:07.107Z</time>
      </trkpt>
      <trkpt lat="51.68105" lon="6.516">
        <ele>62.171801</ele>
        <time>2026-05-06T13:04:09.109Z</time>
      </trkpt>
      <trkpt lat="51.68114" lon="6.51595">
        <ele>62.128059</ele>
        <time>2026-05-06T13:04:11.092Z</time>
      </trkpt>
      <trkpt lat="51.68127" lon="6.51589">
        <ele>62.064648</ele>
        <time>2026-05-06T13:04:14.108Z</time>
      </trkpt>
      <trkpt lat="51.68136" lon="6.51585">
        <ele>62.021482</ele>
        <time>2026-05-06T13:04:16.103Z</time>
      </trkpt>
      <trkpt lat="51.68144" lon="6.51581">
        <ele>61.978732</ele>
        <time>2026-05-06T13:04:18.121Z</time>
      </trkpt>
      <trkpt lat="51.68153" lon="6.51577">
        <ele>61.935642</ele>
        <time>2026-05-06T13:04:20.109Z</time>
      </trkpt>
      <trkpt lat="51.68162" lon="6.51573">
        <ele>61.891082</ele>
        <time>2026-05-06T13:04:22.100Z</time>
      </trkpt>
      <trkpt lat="51.68171" lon="6.51568">
        <ele>61.845807</ele>
        <time>2026-05-06T13:04:24.109Z</time>
      </trkpt>
      <trkpt lat="51.6818" lon="6.51563">
        <ele>61.801695</ele>
        <time>2026-05-06T13:04:26.094Z</time>
      </trkpt>
      <trkpt lat="51.68188" lon="6.51558">
        <ele>61.759023</ele>
        <time>2026-05-06T13:04:28.098Z</time>
      </trkpt>
      <trkpt lat="51.68201" lon="6.51552">
        <ele>61.697508</ele>
        <time>2026-05-06T13:04:31.102Z</time>
      </trkpt>
      <trkpt lat="51.68211" lon="6.51545">
        <ele>61.670412</ele>
        <time>2026-05-06T13:04:34.098Z</time>
      </trkpt>
      <trkpt lat="51.6822" lon="6.5154">
        <ele>61.667114</ele>
        <time>2026-05-06T13:04:37.120Z</time>
      </trkpt>
      <trkpt lat="51.6826" lon="6.51521">
        <ele>61.652544</ele>
        <time>2026-05-06T13:06:20.068Z</time>
      </trkpt>
      <trkpt lat="51.6827" lon="6.51517">
        <ele>61.649068</ele>
        <time>2026-05-06T13:06:23.083Z</time>
      </trkpt>
      <trkpt lat="51.6828" lon="6.51511">
        <ele>61.6452</ele>
        <time>2026-05-06T13:06:26.068Z</time>
      </trkpt>
      <trkpt lat="51.68291" lon="6.51504">
        <ele>61.641151</ele>
        <time>2026-05-06T13:06:29.077Z</time>
      </trkpt>
      <trkpt lat="51.68301" lon="6.515">
        <ele>61.637635</ele>
        <time>2026-05-06T13:06:32.083Z</time>
      </trkpt>
      <trkpt lat="51.6831" lon="6.51494">
        <ele>61.63433</ele>
        <time>2026-05-06T13:06:36.080Z</time>
      </trkpt>
      <trkpt lat="51.68319" lon="6.5149">
        <ele>61.63107</ele>
        <time>2026-05-06T13:06:45.076Z</time>
      </trkpt>
      <trkpt lat="51.68327" lon="6.51482">
        <ele>61.627643</ele>
        <time>2026-05-06T13:06:49.072Z</time>
      </trkpt>
      <trkpt lat="51.68336" lon="6.51473">
        <ele>61.624043</ele>
        <time>2026-05-06T13:06:52.075Z</time>
      </trkpt>
      <trkpt lat="51.68345" lon="6.51464">
        <ele>61.620102</ele>
        <time>2026-05-06T13:06:55.086Z</time>
      </trkpt>
      <trkpt lat="51.68356" lon="6.51452">
        <ele>61.615613</ele>
        <time>2026-05-06T13:06:58.086Z</time>
      </trkpt>
      <trkpt lat="51.68367" lon="6.51442">
        <ele>61.611075</ele>
        <time>2026-05-06T13:07:01.077Z</time>
      </trkpt>
      <trkpt lat="51.68375" lon="6.51433">
        <ele>61.569411</ele>
        <time>2026-05-06T13:07:03.076Z</time>
      </trkpt>
      <trkpt lat="51.68383" lon="6.51425">
        <ele>61.504331</ele>
        <time>2026-05-06T13:07:05.075Z</time>
      </trkpt>
      <trkpt lat="51.68394" lon="6.51414">
        <ele>61.410605</ele>
        <time>2026-05-06T13:07:08.072Z</time>
      </trkpt>
      <trkpt lat="51.68405" lon="6.51404">
        <ele>61.318027</ele>
        <time>2026-05-06T13:07:11.090Z</time>
      </trkpt>
      <trkpt lat="51.68417" lon="6.51394">
        <ele>61.224606</ele>
        <time>2026-05-06T13:07:14.078Z</time>
      </trkpt>
      <trkpt lat="51.68428" lon="6.51385">
        <ele>61.13096</ele>
        <time>2026-05-06T13:07:17.072Z</time>
      </trkpt>
      <trkpt lat="51.6844" lon="6.51375">
        <ele>61.037516</ele>
        <time>2026-05-06T13:07:20.076Z</time>
      </trkpt>
      <trkpt lat="51.68448" lon="6.51368">
        <ele>60.972063</ele>
        <time>2026-05-06T13:07:22.081Z</time>
      </trkpt>
      <trkpt lat="51.68455" lon="6.5136">
        <ele>60.906445</ele>
        <time>2026-05-06T13:07:24.078Z</time>
      </trkpt>
      <trkpt lat="51.68464" lon="6.51353">
        <ele>60.839171</ele>
        <time>2026-05-06T13:07:26.082Z</time>
      </trkpt>
      <trkpt lat="51.68472" lon="6.51346">
        <ele>60.770417</ele>
        <time>2026-05-06T13:07:28.072Z</time>
      </trkpt>
      <trkpt lat="51.68481" lon="6.51338">
        <ele>60.700799</ele>
        <time>2026-05-06T13:07:30.066Z</time>
      </trkpt>
      <trkpt lat="51.68489" lon="6.5133">
        <ele>60.62966</ele>
        <time>2026-05-06T13:07:32.083Z</time>
      </trkpt>
      <trkpt lat="51.68498" lon="6.51322">
        <ele>60.558059</ele>
        <time>2026-05-06T13:07:34.079Z</time>
      </trkpt>
      <trkpt lat="51.68506" lon="6.51314">
        <ele>60.487205</ele>
        <time>2026-05-06T13:07:36.081Z</time>
      </trkpt>
      <trkpt lat="51.68515" lon="6.51307">
        <ele>60.417827</ele>
        <time>2026-05-06T13:07:38.082Z</time>
      </trkpt>
      <trkpt lat="51.68524" lon="6.51299">
        <ele>60.34613</ele>
        <time>2026-05-06T13:07:40.081Z</time>
      </trkpt>
      <trkpt lat="51.68532" lon="6.51292">
        <ele>60.336269</ele>
        <time>2026-05-06T13:07:42.067Z</time>
      </trkpt>
      <trkpt lat="51.6854" lon="6.51284">
        <ele>60.367402</ele>
        <time>2026-05-06T13:07:44.073Z</time>
      </trkpt>
      <trkpt lat="51.68548" lon="6.51277">
        <ele>60.399723</ele>
        <time>2026-05-06T13:07:46.082Z</time>
      </trkpt>
      <trkpt lat="51.68557" lon="6.51269">
        <ele>60.432035</ele>
        <time>2026-05-06T13:07:48.081Z</time>
      </trkpt>
      <trkpt lat="51.68565" lon="6.51262">
        <ele>60.463861</ele>
        <time>2026-05-06T13:07:50.082Z</time>
      </trkpt>
      <trkpt lat="51.68574" lon="6.51254">
        <ele>60.495687</ele>
        <time>2026-05-06T13:07:52.075Z</time>
      </trkpt>
      <trkpt lat="51.68582" lon="6.51247">
        <ele>60.527606</ele>
        <time>2026-05-06T13:07:54.069Z</time>
      </trkpt>
      <trkpt lat="51.6859" lon="6.5124">
        <ele>60.559624</ele>
        <time>2026-05-06T13:07:56.074Z</time>
      </trkpt>
      <trkpt lat="51.68599" lon="6.51232">
        <ele>60.592231</ele>
        <time>2026-05-06T13:07:58.072Z</time>
      </trkpt>
      <trkpt lat="51.68608" lon="6.51225">
        <ele>60.625231</ele>
        <time>2026-05-06T13:08:00.075Z</time>
      </trkpt>
      <trkpt lat="51.68616" lon="6.51218">
        <ele>60.656463</ele>
        <time>2026-05-06T13:08:02.083Z</time>
      </trkpt>
      <trkpt lat="51.68624" lon="6.51209">
        <ele>60.689023</ele>
        <time>2026-05-06T13:08:04.073Z</time>
      </trkpt>
      <trkpt lat="51.68632" lon="6.51202">
        <ele>60.719793</ele>
        <time>2026-05-06T13:08:06.087Z</time>
      </trkpt>
      <trkpt lat="51.6864" lon="6.51194">
        <ele>60.75196</ele>
        <time>2026-05-06T13:08:08.070Z</time>
      </trkpt>
      <trkpt lat="51.68648" lon="6.51186">
        <ele>60.783841</ele>
        <time>2026-05-06T13:08:10.080Z</time>
      </trkpt>
      <trkpt lat="51.68656" lon="6.51177">
        <ele>60.815609</ele>
        <time>2026-05-06T13:08:12.083Z</time>
      </trkpt>
      <trkpt lat="51.68664" lon="6.51169">
        <ele>60.846642</ele>
        <time>2026-05-06T13:08:14.074Z</time>
      </trkpt>
      <trkpt lat="51.68675" lon="6.51156">
        <ele>60.891313</ele>
        <time>2026-05-06T13:08:17.087Z</time>
      </trkpt>
      <trkpt lat="51.68682" lon="6.51147">
        <ele>60.913215</ele>
        <time>2026-05-06T13:08:19.064Z</time>
      </trkpt>
      <trkpt lat="51.68689" lon="6.51138">
        <ele>60.846969</ele>
        <time>2026-05-06T13:08:21.074Z</time>
      </trkpt>
      <trkpt lat="51.68696" lon="6.51128">
        <ele>60.779871</ele>
        <time>2026-05-06T13:08:23.076Z</time>
      </trkpt>
      <trkpt lat="51.68703" lon="6.51118">
        <ele>60.713497</ele>
        <time>2026-05-06T13:08:25.085Z</time>
      </trkpt>
      <trkpt lat="51.6871" lon="6.51107">
        <ele>60.645463</ele>
        <time>2026-05-06T13:08:27.084Z</time>
      </trkpt>
      <trkpt lat="51.68717" lon="6.51096">
        <ele>60.57732</ele>
        <time>2026-05-06T13:08:29.078Z</time>
      </trkpt>
      <trkpt lat="51.68723" lon="6.51085">
        <ele>60.509176</ele>
        <time>2026-05-06T13:08:31.076Z</time>
      </trkpt>
      <trkpt lat="51.6873" lon="6.51074">
        <ele>60.441698</ele>
        <time>2026-05-06T13:08:33.073Z</time>
      </trkpt>
      <trkpt lat="51.68736" lon="6.51063">
        <ele>60.374561</ele>
        <time>2026-05-06T13:08:35.089Z</time>
      </trkpt>
      <trkpt lat="51.68742" lon="6.51051">
        <ele>60.308569</ele>
        <time>2026-05-06T13:08:37.079Z</time>
      </trkpt>
      <trkpt lat="51.6875" lon="6.51034">
        <ele>60.212686</ele>
        <time>2026-05-06T13:08:40.076Z</time>
      </trkpt>
      <trkpt lat="51.68755" lon="6.51022">
        <ele>60.144035</ele>
        <time>2026-05-06T13:08:42.077Z</time>
      </trkpt>
      <trkpt lat="51.68761" lon="6.51009">
        <ele>60.074708</ele>
        <time>2026-05-06T13:08:44.078Z</time>
      </trkpt>
      <trkpt lat="51.68766" lon="6.50996">
        <ele>60.006155</ele>
        <time>2026-05-06T13:08:46.078Z</time>
      </trkpt>
      <trkpt lat="51.68771" lon="6.50983">
        <ele>59.938054</ele>
        <time>2026-05-06T13:08:48.077Z</time>
      </trkpt>
      <trkpt lat="51.68776" lon="6.5097">
        <ele>59.869572</ele>
        <time>2026-05-06T13:08:50.076Z</time>
      </trkpt>
      <trkpt lat="51.68781" lon="6.50958">
        <ele>59.803352</ele>
        <time>2026-05-06T13:08:52.079Z</time>
      </trkpt>
      <trkpt lat="51.68786" lon="6.50945">
        <ele>59.736761</ele>
        <time>2026-05-06T13:08:54.067Z</time>
      </trkpt>
      <trkpt lat="51.68791" lon="6.50932">
        <ele>59.667892</ele>
        <time>2026-05-06T13:08:56.078Z</time>
      </trkpt>
      <trkpt lat="51.68797" lon="6.50919">
        <ele>59.632763</ele>
        <time>2026-05-06T13:08:58.080Z</time>
      </trkpt>
      <trkpt lat="51.68801" lon="6.50905">
        <ele>59.643633</ele>
        <time>2026-05-06T13:09:00.081Z</time>
      </trkpt>
      <trkpt lat="51.68806" lon="6.50892">
        <ele>59.654618</ele>
        <time>2026-05-06T13:09:02.074Z</time>
      </trkpt>
      <trkpt lat="51.68811" lon="6.50879">
        <ele>59.66554</ele>
        <time>2026-05-06T13:09:04.071Z</time>
      </trkpt>
      <trkpt lat="51.68816" lon="6.50866">
        <ele>59.676586</ele>
        <time>2026-05-06T13:09:06.078Z</time>
      </trkpt>
      <trkpt lat="51.68821" lon="6.50853">
        <ele>59.687328</ele>
        <time>2026-05-06T13:09:08.071Z</time>
      </trkpt>
      <trkpt lat="51.68826" lon="6.5084">
        <ele>59.698193</ele>
        <time>2026-05-06T13:09:10.077Z</time>
      </trkpt>
      <trkpt lat="51.68831" lon="6.50827">
        <ele>59.708995</ele>
        <time>2026-05-06T13:09:12.078Z</time>
      </trkpt>
      <trkpt lat="51.68836" lon="6.50814">
        <ele>59.719739</ele>
        <time>2026-05-06T13:09:14.076Z</time>
      </trkpt>
      <trkpt lat="51.68841" lon="6.50802">
        <ele>59.73044</ele>
        <time>2026-05-06T13:09:16.071Z</time>
      </trkpt>
      <trkpt lat="51.68846" lon="6.50789">
        <ele>59.741243</ele>
        <time>2026-05-06T13:09:18.072Z</time>
      </trkpt>
      <trkpt lat="51.68851" lon="6.50776">
        <ele>59.751743</ele>
        <time>2026-05-06T13:09:20.080Z</time>
      </trkpt>
      <trkpt lat="51.68856" lon="6.50764">
        <ele>59.762191</ele>
        <time>2026-05-06T13:09:22.076Z</time>
      </trkpt>
      <trkpt lat="51.68862" lon="6.50752">
        <ele>59.772884</ele>
        <time>2026-05-06T13:09:24.087Z</time>
      </trkpt>
      <trkpt lat="51.68867" lon="6.50739">
        <ele>59.783568</ele>
        <time>2026-05-06T13:09:26.073Z</time>
      </trkpt>
      <trkpt lat="51.68872" lon="6.50727">
        <ele>59.794069</ele>
        <time>2026-05-06T13:09:28.073Z</time>
      </trkpt>
      <trkpt lat="51.68877" lon="6.50714">
        <ele>59.804629</ele>
        <time>2026-05-06T13:09:30.072Z</time>
      </trkpt>
      <trkpt lat="51.68882" lon="6.50701">
        <ele>59.815311</ele>
        <time>2026-05-06T13:09:32.080Z</time>
      </trkpt>
      <trkpt lat="51.68887" lon="6.50689">
        <ele>59.825876</ele>
        <time>2026-05-06T13:09:34.076Z</time>
      </trkpt>
      <trkpt lat="51.68892" lon="6.50676">
        <ele>59.834184</ele>
        <time>2026-05-06T13:09:36.083Z</time>
      </trkpt>
      <trkpt lat="51.68897" lon="6.50664">
        <ele>59.834928</ele>
        <time>2026-05-06T13:09:38.075Z</time>
      </trkpt>
      <trkpt lat="51.68901" lon="6.50651">
        <ele>59.835691</ele>
        <time>2026-05-06T13:09:40.072Z</time>
      </trkpt>
      <trkpt lat="51.68906" lon="6.50638">
        <ele>59.836452</ele>
        <time>2026-05-06T13:09:42.070Z</time>
      </trkpt>
      <trkpt lat="51.68911" lon="6.50625">
        <ele>59.8372</ele>
        <time>2026-05-06T13:09:44.080Z</time>
      </trkpt>
      <trkpt lat="51.68916" lon="6.50613">
        <ele>59.837961</ele>
        <time>2026-05-06T13:09:46.078Z</time>
      </trkpt>
      <trkpt lat="51.68921" lon="6.506">
        <ele>59.838735</ele>
        <time>2026-05-06T13:09:48.077Z</time>
      </trkpt>
      <trkpt lat="51.68926" lon="6.50587">
        <ele>59.839505</ele>
        <time>2026-05-06T13:09:50.072Z</time>
      </trkpt>
      <trkpt lat="51.68931" lon="6.50574">
        <ele>59.840288</ele>
        <time>2026-05-06T13:09:52.083Z</time>
      </trkpt>
      <trkpt lat="51.68937" lon="6.50562">
        <ele>59.841059</ele>
        <time>2026-05-06T13:09:54.082Z</time>
      </trkpt>
      <trkpt lat="51.68943" lon="6.50549">
        <ele>59.841892</ele>
        <time>2026-05-06T13:09:56.068Z</time>
      </trkpt>
      <trkpt lat="51.68949" lon="6.50536">
        <ele>59.842693</ele>
        <time>2026-05-06T13:09:58.081Z</time>
      </trkpt>
      <trkpt lat="51.68954" lon="6.50523">
        <ele>59.843481</ele>
        <time>2026-05-06T13:10:00.063Z</time>
      </trkpt>
      <trkpt lat="51.6896" lon="6.5051">
        <ele>59.844278</ele>
        <time>2026-05-06T13:10:02.073Z</time>
      </trkpt>
      <trkpt lat="51.68966" lon="6.50497">
        <ele>59.845071</ele>
        <time>2026-05-06T13:10:04.073Z</time>
      </trkpt>
      <trkpt lat="51.68972" lon="6.50485">
        <ele>59.845859</ele>
        <time>2026-05-06T13:10:06.073Z</time>
      </trkpt>
      <trkpt lat="51.68977" lon="6.50473">
        <ele>59.846615</ele>
        <time>2026-05-06T13:10:08.072Z</time>
      </trkpt>
      <trkpt lat="51.68983" lon="6.50461">
        <ele>59.847394</ele>
        <time>2026-05-06T13:10:10.067Z</time>
      </trkpt>
      <trkpt lat="51.68988" lon="6.50448">
        <ele>59.848165</ele>
        <time>2026-05-06T13:10:12.084Z</time>
      </trkpt>
      <trkpt lat="51.68994" lon="6.50436">
        <ele>59.869731</ele>
        <time>2026-05-06T13:10:14.081Z</time>
      </trkpt>
      <trkpt lat="51.68999" lon="6.50424">
        <ele>59.938824</ele>
        <time>2026-05-06T13:10:16.103Z</time>
      </trkpt>
      <trkpt lat="51.69004" lon="6.50412">
        <ele>60.005729</ele>
        <time>2026-05-06T13:10:18.108Z</time>
      </trkpt>
      <trkpt lat="51.6901" lon="6.50401">
        <ele>60.074993</ele>
        <time>2026-05-06T13:10:20.095Z</time>
      </trkpt>
      <trkpt lat="51.69016" lon="6.50389">
        <ele>60.142153</ele>
        <time>2026-05-06T13:10:22.099Z</time>
      </trkpt>
      <trkpt lat="51.69024" lon="6.50372">
        <ele>60.238992</ele>
        <time>2026-05-06T13:10:25.097Z</time>
      </trkpt>
      <trkpt lat="51.69032" lon="6.50356">
        <ele>60.333752</ele>
        <time>2026-05-06T13:10:28.086Z</time>
      </trkpt>
      <trkpt lat="51.6904" lon="6.5034">
        <ele>60.427085</ele>
        <time>2026-05-06T13:10:31.099Z</time>
      </trkpt>
      <trkpt lat="51.69048" lon="6.50325">
        <ele>60.517351</ele>
        <time>2026-05-06T13:10:34.113Z</time>
      </trkpt>
      <trkpt lat="51.69055" lon="6.5031">
        <ele>60.607927</ele>
        <time>2026-05-06T13:10:37.099Z</time>
      </trkpt>
      <trkpt lat="51.69062" lon="6.50294">
        <ele>60.697505</ele>
        <time>2026-05-06T13:10:40.094Z</time>
      </trkpt>
      <trkpt lat="51.6907" lon="6.50279">
        <ele>60.788531</ele>
        <time>2026-05-06T13:10:43.098Z</time>
      </trkpt>
      <trkpt lat="51.69078" lon="6.50262">
        <ele>60.884579</ele>
        <time>2026-05-06T13:10:46.101Z</time>
      </trkpt>
      <trkpt lat="51.69086" lon="6.50246">
        <ele>60.979872</ele>
        <time>2026-05-06T13:10:49.101Z</time>
      </trkpt>
      <trkpt lat="51.69093" lon="6.5023">
        <ele>61.072286</ele>
        <time>2026-05-06T13:10:52.106Z</time>
      </trkpt>
      <trkpt lat="51.691" lon="6.50214">
        <ele>61.162221</ele>
        <time>2026-05-06T13:10:55.100Z</time>
      </trkpt>
      <trkpt lat="51.69108" lon="6.50199">
        <ele>61.195031</ele>
        <time>2026-05-06T13:10:58.095Z</time>
      </trkpt>
      <trkpt lat="51.69115" lon="6.50183">
        <ele>61.213153</ele>
        <time>2026-05-06T13:11:01.101Z</time>
      </trkpt>
      <trkpt lat="51.69122" lon="6.50168">
        <ele>61.230735</ele>
        <time>2026-05-06T13:11:04.104Z</time>
      </trkpt>
      <trkpt lat="51.69129" lon="6.50153">
        <ele>61.248185</ele>
        <time>2026-05-06T13:11:07.107Z</time>
      </trkpt>
      <trkpt lat="51.69136" lon="6.50139">
        <ele>61.265231</ele>
        <time>2026-05-06T13:11:10.101Z</time>
      </trkpt>
      <trkpt lat="51.69143" lon="6.50125">
        <ele>61.28217</ele>
        <time>2026-05-06T13:11:13.116Z</time>
      </trkpt>
      <trkpt lat="51.6915" lon="6.50108">
        <ele>61.301039</ele>
        <time>2026-05-06T13:11:16.101Z</time>
      </trkpt>
      <trkpt lat="51.69158" lon="6.50093">
        <ele>61.319171</ele>
        <time>2026-05-06T13:11:19.095Z</time>
      </trkpt>
      <trkpt lat="51.69166" lon="6.5008">
        <ele>61.337352</ele>
        <time>2026-05-06T13:11:22.094Z</time>
      </trkpt>
      <trkpt lat="51.69175" lon="6.50065">
        <ele>61.356071</ele>
        <time>2026-05-06T13:11:25.098Z</time>
      </trkpt>
      <trkpt lat="51.69182" lon="6.50049">
        <ele>61.374296</ele>
        <time>2026-05-06T13:11:28.100Z</time>
      </trkpt>
      <trkpt lat="51.69189" lon="6.50034">
        <ele>61.3923</ele>
        <time>2026-05-06T13:11:31.102Z</time>
      </trkpt>
      <trkpt lat="51.69197" lon="6.50019">
        <ele>61.410032</ele>
        <time>2026-05-06T13:11:34.099Z</time>
      </trkpt>
      <trkpt lat="51.69205" lon="6.50004">
        <ele>61.428386</ele>
        <time>2026-05-06T13:11:37.097Z</time>
      </trkpt>
      <trkpt lat="51.69213" lon="6.49989">
        <ele>61.447002</ele>
        <time>2026-05-06T13:11:40.110Z</time>
      </trkpt>
      <trkpt lat="51.6922" lon="6.49973">
        <ele>61.44239</ele>
        <time>2026-05-06T13:11:43.098Z</time>
      </trkpt>
      <trkpt lat="51.69229" lon="6.49958">
        <ele>61.429813</ele>
        <time>2026-05-06T13:11:46.113Z</time>
      </trkpt>
      <trkpt lat="51.69237" lon="6.49943">
        <ele>61.417029</ele>
        <time>2026-05-06T13:11:49.104Z</time>
      </trkpt>
      <trkpt lat="51.69245" lon="6.49926">
        <ele>61.40356</ele>
        <time>2026-05-06T13:11:52.114Z</time>
      </trkpt>
      <trkpt lat="51.69251" lon="6.49913">
        <ele>61.39413</ele>
        <time>2026-05-06T13:11:54.110Z</time>
      </trkpt>
      <trkpt lat="51.69259" lon="6.49897">
        <ele>61.380572</ele>
        <time>2026-05-06T13:11:57.101Z</time>
      </trkpt>
      <trkpt lat="51.69265" lon="6.49885">
        <ele>61.371411</ele>
        <time>2026-05-06T13:11:59.102Z</time>
      </trkpt>
      <trkpt lat="51.69271" lon="6.49874">
        <ele>61.361943</ele>
        <time>2026-05-06T13:12:01.118Z</time>
      </trkpt>
      <trkpt lat="51.69277" lon="6.49862">
        <ele>61.352188</ele>
        <time>2026-05-06T13:12:03.105Z</time>
      </trkpt>
      <trkpt lat="51.69283" lon="6.4985">
        <ele>61.342764</ele>
        <time>2026-05-06T13:12:05.107Z</time>
      </trkpt>
      <trkpt lat="51.69289" lon="6.49839">
        <ele>61.333614</ele>
        <time>2026-05-06T13:12:07.095Z</time>
      </trkpt>
      <trkpt lat="51.69295" lon="6.49829">
        <ele>61.324558</ele>
        <time>2026-05-06T13:12:09.109Z</time>
      </trkpt>
      <trkpt lat="51.69305" lon="6.49813">
        <ele>61.311042</ele>
        <time>2026-05-06T13:12:12.102Z</time>
      </trkpt>
      <trkpt lat="51.69313" lon="6.49796">
        <ele>61.297275</ele>
        <time>2026-05-06T13:12:15.111Z</time>
      </trkpt>
      <trkpt lat="51.69322" lon="6.49779">
        <ele>61.283922</ele>
        <time>2026-05-06T13:12:18.091Z</time>
      </trkpt>
      <trkpt lat="51.6933" lon="6.49765">
        <ele>61.272007</ele>
        <time>2026-05-06T13:12:21.104Z</time>
      </trkpt>
      <trkpt lat="51.69337" lon="6.4975">
        <ele>61.560966</ele>
        <time>2026-05-06T13:12:24.113Z</time>
      </trkpt>
      <trkpt lat="51.69345" lon="6.49733">
        <ele>61.915494</ele>
        <time>2026-05-06T13:12:27.103Z</time>
      </trkpt>
      <trkpt lat="51.69351" lon="6.4972">
        <ele>62.193223</ele>
        <time>2026-05-06T13:12:30.101Z</time>
      </trkpt>
      <trkpt lat="51.69358" lon="6.49704">
        <ele>62.514504</ele>
        <time>2026-05-06T13:12:33.109Z</time>
      </trkpt>
      <trkpt lat="51.69366" lon="6.49688">
        <ele>62.858859</ele>
        <time>2026-05-06T13:12:36.106Z</time>
      </trkpt>
      <trkpt lat="51.69373" lon="6.49673">
        <ele>63.190905</ele>
        <time>2026-05-06T13:12:39.110Z</time>
      </trkpt>
      <trkpt lat="51.69381" lon="6.49657">
        <ele>63.534634</ele>
        <time>2026-05-06T13:12:42.104Z</time>
      </trkpt>
      <trkpt lat="51.69389" lon="6.4964">
        <ele>63.892761</ele>
        <time>2026-05-06T13:12:45.094Z</time>
      </trkpt>
      <trkpt lat="51.69395" lon="6.49628">
        <ele>64.147877</ele>
        <time>2026-05-06T13:12:47.100Z</time>
      </trkpt>
      <trkpt lat="51.69401" lon="6.49617">
        <ele>64.395808</ele>
        <time>2026-05-06T13:12:49.102Z</time>
      </trkpt>
      <trkpt lat="51.6941" lon="6.49601">
        <ele>64.748206</ele>
        <time>2026-05-06T13:12:52.098Z</time>
      </trkpt>
      <trkpt lat="51.69418" lon="6.49585">
        <ele>65.112821</ele>
        <time>2026-05-06T13:12:55.096Z</time>
      </trkpt>
      <trkpt lat="51.69426" lon="6.49569">
        <ele>65.457505</ele>
        <time>2026-05-06T13:12:58.094Z</time>
      </trkpt>
      <trkpt lat="51.69432" lon="6.49555">
        <ele>65.742544</ele>
        <time>2026-05-06T13:13:00.104Z</time>
      </trkpt>
      <trkpt lat="51.69442" lon="6.49537">
        <ele>66.140408</ele>
        <time>2026-05-06T13:13:03.104Z</time>
      </trkpt>
      <trkpt lat="51.69449" lon="6.49525">
        <ele>65.864735</ele>
        <time>2026-05-06T13:13:05.096Z</time>
      </trkpt>
      <trkpt lat="51.69456" lon="6.49515">
        <ele>65.559355</ele>
        <time>2026-05-06T13:13:07.097Z</time>
      </trkpt>
      <trkpt lat="51.69462" lon="6.49503">
        <ele>65.25169</ele>
        <time>2026-05-06T13:13:09.104Z</time>
      </trkpt>
      <trkpt lat="51.69469" lon="6.4949">
        <ele>64.921896</ele>
        <time>2026-05-06T13:13:11.093Z</time>
      </trkpt>
      <trkpt lat="51.69475" lon="6.49478">
        <ele>64.610844</ele>
        <time>2026-05-06T13:13:13.100Z</time>
      </trkpt>
      <trkpt lat="51.69481" lon="6.49466">
        <ele>64.312415</ele>
        <time>2026-05-06T13:13:15.101Z</time>
      </trkpt>
      <trkpt lat="51.69487" lon="6.49454">
        <ele>64.004903</ele>
        <time>2026-05-06T13:13:17.106Z</time>
      </trkpt>
      <trkpt lat="51.69493" lon="6.49442">
        <ele>63.704878</ele>
        <time>2026-05-06T13:13:19.101Z</time>
      </trkpt>
      <trkpt lat="51.69499" lon="6.4943">
        <ele>63.399788</ele>
        <time>2026-05-06T13:13:21.100Z</time>
      </trkpt>
      <trkpt lat="51.69505" lon="6.49417">
        <ele>63.090349</ele>
        <time>2026-05-06T13:13:23.102Z</time>
      </trkpt>
      <trkpt lat="51.6951" lon="6.49406">
        <ele>62.799258</ele>
        <time>2026-05-06T13:13:25.102Z</time>
      </trkpt>
      <trkpt lat="51.69516" lon="6.49394">
        <ele>62.502742</ele>
        <time>2026-05-06T13:13:27.106Z</time>
      </trkpt>
      <trkpt lat="51.69522" lon="6.49382">
        <ele>62.201824</ele>
        <time>2026-05-06T13:13:29.108Z</time>
      </trkpt>
      <trkpt lat="51.69528" lon="6.4937">
        <ele>61.895543</ele>
        <time>2026-05-06T13:13:31.102Z</time>
      </trkpt>
      <trkpt lat="51.69534" lon="6.49358">
        <ele>61.596633</ele>
        <time>2026-05-06T13:13:33.100Z</time>
      </trkpt>
      <trkpt lat="51.6954" lon="6.49346">
        <ele>61.291642</ele>
        <time>2026-05-06T13:13:35.110Z</time>
      </trkpt>
      <trkpt lat="51.69546" lon="6.49335">
        <ele>60.991984</ele>
        <time>2026-05-06T13:13:37.109Z</time>
      </trkpt>
      <trkpt lat="51.69552" lon="6.49323">
        <ele>60.69234</ele>
        <time>2026-05-06T13:13:39.092Z</time>
      </trkpt>
      <trkpt lat="51.69558" lon="6.49311">
        <ele>60.447595</ele>
        <time>2026-05-06T13:13:41.105Z</time>
      </trkpt>
      <trkpt lat="51.69564" lon="6.493">
        <ele>60.471114</ele>
        <time>2026-05-06T13:13:43.096Z</time>
      </trkpt>
      <trkpt lat="51.6957" lon="6.49289">
        <ele>60.494634</ele>
        <time>2026-05-06T13:13:45.096Z</time>
      </trkpt>
      <trkpt lat="51.69575" lon="6.49277">
        <ele>60.518983</ele>
        <time>2026-05-06T13:13:47.109Z</time>
      </trkpt>
      <trkpt lat="51.69581" lon="6.49265">
        <ele>60.543207</ele>
        <time>2026-05-06T13:13:49.103Z</time>
      </trkpt>
      <trkpt lat="51.69587" lon="6.49254">
        <ele>60.566483</ele>
        <time>2026-05-06T13:13:51.104Z</time>
      </trkpt>
      <trkpt lat="51.69593" lon="6.49242">
        <ele>60.590675</ele>
        <time>2026-05-06T13:13:53.091Z</time>
      </trkpt>
      <trkpt lat="51.69598" lon="6.4923">
        <ele>60.613863</ele>
        <time>2026-05-06T13:13:55.103Z</time>
      </trkpt>
      <trkpt lat="51.69604" lon="6.49218">
        <ele>60.638498</ele>
        <time>2026-05-06T13:13:57.107Z</time>
      </trkpt>
      <trkpt lat="51.6961" lon="6.49206">
        <ele>60.663043</ele>
        <time>2026-05-06T13:13:59.100Z</time>
      </trkpt>
      <trkpt lat="51.69619" lon="6.4919">
        <ele>60.696884</ele>
        <time>2026-05-06T13:14:02.114Z</time>
      </trkpt>
      <trkpt lat="51.69627" lon="6.49174">
        <ele>60.730435</ele>
        <time>2026-05-06T13:14:05.104Z</time>
      </trkpt>
      <trkpt lat="51.69635" lon="6.49158">
        <ele>60.762793</ele>
        <time>2026-05-06T13:14:08.104Z</time>
      </trkpt>
      <trkpt lat="51.69643" lon="6.49143">
        <ele>60.794328</ele>
        <time>2026-05-06T13:14:11.106Z</time>
      </trkpt>
      <trkpt lat="51.69651" lon="6.49128">
        <ele>60.826161</ele>
        <time>2026-05-06T13:14:14.100Z</time>
      </trkpt>
      <trkpt lat="51.69659" lon="6.49112">
        <ele>60.858682</ele>
        <time>2026-05-06T13:14:17.100Z</time>
      </trkpt>
      <trkpt lat="51.69667" lon="6.49096">
        <ele>60.891327</ele>
        <time>2026-05-06T13:14:20.105Z</time>
      </trkpt>
      <trkpt lat="51.69675" lon="6.49081">
        <ele>60.926023</ele>
        <time>2026-05-06T13:14:23.092Z</time>
      </trkpt>
      <trkpt lat="51.69683" lon="6.49065">
        <ele>60.962424</ele>
        <time>2026-05-06T13:14:26.095Z</time>
      </trkpt>
      <trkpt lat="51.69691" lon="6.4905">
        <ele>60.997751</ele>
        <time>2026-05-06T13:14:29.094Z</time>
      </trkpt>
      <trkpt lat="51.69699" lon="6.49035">
        <ele>61.032033</ele>
        <time>2026-05-06T13:14:32.110Z</time>
      </trkpt>
      <trkpt lat="51.69706" lon="6.4902">
        <ele>61.066554</ele>
        <time>2026-05-06T13:14:35.107Z</time>
      </trkpt>
      <trkpt lat="51.69713" lon="6.49004">
        <ele>61.100729</ele>
        <time>2026-05-06T13:14:38.107Z</time>
      </trkpt>
      <trkpt lat="51.6972" lon="6.48991">
        <ele>61.130363</ele>
        <time>2026-05-06T13:14:41.108Z</time>
      </trkpt>
      <trkpt lat="51.6973" lon="6.4899">
        <ele>61.159104</ele>
        <time>2026-05-06T13:14:45.102Z</time>
      </trkpt>
      <trkpt lat="51.69738" lon="6.48998">
        <ele>61.186437</ele>
        <time>2026-05-06T13:14:48.100Z</time>
      </trkpt>
      <trkpt lat="51.69747" lon="6.49005">
        <ele>61.21466</ele>
        <time>2026-05-06T13:14:51.109Z</time>
      </trkpt>
      <trkpt lat="51.69757" lon="6.49011">
        <ele>61.245879</ele>
        <time>2026-05-06T13:14:54.104Z</time>
      </trkpt>
      <trkpt lat="51.69768" lon="6.4902">
        <ele>61.281074</ele>
        <time>2026-05-06T13:14:57.105Z</time>
      </trkpt>
      <trkpt lat="51.69777" lon="6.49026">
        <ele>61.309072</ele>
        <time>2026-05-06T13:14:59.108Z</time>
      </trkpt>
      <trkpt lat="51.69786" lon="6.49032">
        <ele>61.335382</ele>
        <time>2026-05-06T13:15:01.120Z</time>
      </trkpt>
      <trkpt lat="51.69797" lon="6.4904">
        <ele>61.372058</ele>
        <time>2026-05-06T13:15:04.106Z</time>
      </trkpt>
      <trkpt lat="51.69809" lon="6.49048">
        <ele>61.407978</ele>
        <time>2026-05-06T13:15:07.107Z</time>
      </trkpt>
      <trkpt lat="51.69821" lon="6.49056">
        <ele>61.274733</ele>
        <time>2026-05-06T13:15:10.093Z</time>
      </trkpt>
      <trkpt lat="51.69833" lon="6.49063">
        <ele>61.036539</ele>
        <time>2026-05-06T13:15:13.107Z</time>
      </trkpt>
      <trkpt lat="51.69844" lon="6.49071">
        <ele>60.808389</ele>
        <time>2026-05-06T13:15:16.106Z</time>
      </trkpt>
      <trkpt lat="51.69855" lon="6.49077">
        <ele>60.578805</ele>
        <time>2026-05-06T13:15:19.116Z</time>
      </trkpt>
      <trkpt lat="51.69866" lon="6.49084">
        <ele>60.348969</ele>
        <time>2026-05-06T13:15:22.099Z</time>
      </trkpt>
      <trkpt lat="51.69878" lon="6.49091">
        <ele>60.121326</ele>
        <time>2026-05-06T13:15:25.098Z</time>
      </trkpt>
      <trkpt lat="51.69889" lon="6.49098">
        <ele>59.890132</ele>
        <time>2026-05-06T13:15:28.107Z</time>
      </trkpt>
      <trkpt lat="51.699" lon="6.49105">
        <ele>59.665912</ele>
        <time>2026-05-06T13:15:31.098Z</time>
      </trkpt>
      <trkpt lat="51.69911" lon="6.49112">
        <ele>59.446605</ele>
        <time>2026-05-06T13:15:34.113Z</time>
      </trkpt>
      <trkpt lat="51.69922" lon="6.4912">
        <ele>59.21635</ele>
        <time>2026-05-06T13:15:37.096Z</time>
      </trkpt>
      <trkpt lat="51.69933" lon="6.49127">
        <ele>58.983892</ele>
        <time>2026-05-06T13:15:40.093Z</time>
      </trkpt>
      <trkpt lat="51.69945" lon="6.49134">
        <ele>58.747922</ele>
        <time>2026-05-06T13:15:43.090Z</time>
      </trkpt>
      <trkpt lat="51.69956" lon="6.4914">
        <ele>58.51481</ele>
        <time>2026-05-06T13:15:46.107Z</time>
      </trkpt>
      <trkpt lat="51.69968" lon="6.49144">
        <ele>58.288193</ele>
        <time>2026-05-06T13:15:49.100Z</time>
      </trkpt>
      <trkpt lat="51.69979" lon="6.49147">
        <ele>58.075044</ele>
        <time>2026-05-06T13:15:52.111Z</time>
      </trkpt>
      <trkpt lat="51.6999" lon="6.49149">
        <ele>58.085862</ele>
        <time>2026-05-06T13:15:55.108Z</time>
      </trkpt>
      <trkpt lat="51.70001" lon="6.4915">
        <ele>58.200047</ele>
        <time>2026-05-06T13:15:58.100Z</time>
      </trkpt>
      <trkpt lat="51.70012" lon="6.49149">
        <ele>58.31622</ele>
        <time>2026-05-06T13:16:01.121Z</time>
      </trkpt>
      <trkpt lat="51.70024" lon="6.49147">
        <ele>58.438367</ele>
        <time>2026-05-06T13:16:04.106Z</time>
      </trkpt>
      <trkpt lat="51.70036" lon="6.49144">
        <ele>58.567208</ele>
        <time>2026-05-06T13:16:07.088Z</time>
      </trkpt>
      <trkpt lat="51.70047" lon="6.49141">
        <ele>58.691563</ele>
        <time>2026-05-06T13:16:10.104Z</time>
      </trkpt>
      <trkpt lat="51.70056" lon="6.49136">
        <ele>58.793959</ele>
        <time>2026-05-06T13:16:13.110Z</time>
      </trkpt>
      <trkpt lat="51.70066" lon="6.49131">
        <ele>58.901365</ele>
        <time>2026-05-06T13:16:29.098Z</time>
      </trkpt>
      <trkpt lat="51.70076" lon="6.49124">
        <ele>59.015078</ele>
        <time>2026-05-06T13:16:33.095Z</time>
      </trkpt>
      <trkpt lat="51.70085" lon="6.49117">
        <ele>59.117575</ele>
        <time>2026-05-06T13:16:36.112Z</time>
      </trkpt>
      <trkpt lat="51.70094" lon="6.4911">
        <ele>59.224477</ele>
        <time>2026-05-06T13:16:39.093Z</time>
      </trkpt>
      <trkpt lat="51.70103" lon="6.49099">
        <ele>59.346678</ele>
        <time>2026-05-06T13:16:42.096Z</time>
      </trkpt>
      <trkpt lat="51.70113" lon="6.49087">
        <ele>59.476384</ele>
        <time>2026-05-06T13:16:45.118Z</time>
      </trkpt>
      <trkpt lat="51.70122" lon="6.49074">
        <ele>59.600789</ele>
        <time>2026-05-06T13:16:48.092Z</time>
      </trkpt>
      <trkpt lat="51.70131" lon="6.49061">
        <ele>59.725985</ele>
        <time>2026-05-06T13:16:51.079Z</time>
      </trkpt>
      <trkpt lat="51.70138" lon="6.49043">
        <ele>59.868042</ele>
        <time>2026-05-06T13:16:54.111Z</time>
      </trkpt>
      <trkpt lat="51.70146" lon="6.49028">
        <ele>59.998876</ele>
        <time>2026-05-06T13:16:57.102Z</time>
      </trkpt>
      <trkpt lat="51.70152" lon="6.49011">
        <ele>60.130927</ele>
        <time>2026-05-06T13:17:00.105Z</time>
      </trkpt>
      <trkpt lat="51.70159" lon="6.48994">
        <ele>60.265826</ele>
        <time>2026-05-06T13:17:03.098Z</time>
      </trkpt>
      <trkpt lat="51.70165" lon="6.48977">
        <ele>60.395084</ele>
        <time>2026-05-06T13:17:06.103Z</time>
      </trkpt>
      <trkpt lat="51.70171" lon="6.4896">
        <ele>60.529983</ele>
        <time>2026-05-06T13:17:09.107Z</time>
      </trkpt>
      <trkpt lat="51.70178" lon="6.48943">
        <ele>60.663157</ele>
        <time>2026-05-06T13:17:12.102Z</time>
      </trkpt>
      <trkpt lat="51.70184" lon="6.48925">
        <ele>60.801863</ele>
        <time>2026-05-06T13:17:15.110Z</time>
      </trkpt>
      <trkpt lat="51.70189" lon="6.48907">
        <ele>60.934519</ele>
        <time>2026-05-06T13:17:18.090Z</time>
      </trkpt>
      <trkpt lat="51.70194" lon="6.48893">
        <ele>61.045742</ele>
        <time>2026-05-06T13:17:21.109Z</time>
      </trkpt>
      <trkpt lat="51.70199" lon="6.48876">
        <ele>61.171128</ele>
        <time>2026-05-06T13:17:24.099Z</time>
      </trkpt>
      <trkpt lat="51.70205" lon="6.4886">
        <ele>61.297786</ele>
        <time>2026-05-06T13:17:27.088Z</time>
      </trkpt>
      <trkpt lat="51.70209" lon="6.48844">
        <ele>61.418393</ele>
        <time>2026-05-06T13:17:30.110Z</time>
      </trkpt>
      <trkpt lat="51.70215" lon="6.48828">
        <ele>61.539075</ele>
        <time>2026-05-06T13:17:33.111Z</time>
      </trkpt>
      <trkpt lat="51.70221" lon="6.48809">
        <ele>61.684483</ele>
        <time>2026-05-06T13:17:36.116Z</time>
      </trkpt>
      <trkpt lat="51.70228" lon="6.4879">
        <ele>61.830244</ele>
        <time>2026-05-06T13:17:39.097Z</time>
      </trkpt>
      <trkpt lat="51.70235" lon="6.48772">
        <ele>61.885657</ele>
        <time>2026-05-06T13:17:42.107Z</time>
      </trkpt>
      <trkpt lat="51.70239" lon="6.48759">
        <ele>61.911784</ele>
        <time>2026-05-06T13:17:44.103Z</time>
      </trkpt>
      <trkpt lat="51.70245" lon="6.48741">
        <ele>61.947732</ele>
        <time>2026-05-06T13:17:47.102Z</time>
      </trkpt>
      <trkpt lat="51.70249" lon="6.48728">
        <ele>61.973752</ele>
        <time>2026-05-06T13:17:49.106Z</time>
      </trkpt>
      <trkpt lat="51.70255" lon="6.48709">
        <ele>62.011692</ele>
        <time>2026-05-06T13:17:52.098Z</time>
      </trkpt>
      <trkpt lat="51.7026" lon="6.48696">
        <ele>62.038408</ele>
        <time>2026-05-06T13:17:54.101Z</time>
      </trkpt>
      <trkpt lat="51.70266" lon="6.48677">
        <ele>62.075991</ele>
        <time>2026-05-06T13:17:57.090Z</time>
      </trkpt>
      <trkpt lat="51.7027" lon="6.48664">
        <ele>62.102793</ele>
        <time>2026-05-06T13:17:59.106Z</time>
      </trkpt>
      <trkpt lat="51.70275" lon="6.4865">
        <ele>62.130038</ele>
        <time>2026-05-06T13:18:01.103Z</time>
      </trkpt>
      <trkpt lat="51.70279" lon="6.48636">
        <ele>62.157027</ele>
        <time>2026-05-06T13:18:03.108Z</time>
      </trkpt>
      <trkpt lat="51.70284" lon="6.48623">
        <ele>62.184405</ele>
        <time>2026-05-06T13:18:05.098Z</time>
      </trkpt>
      <trkpt lat="51.70289" lon="6.48604">
        <ele>62.221044</ele>
        <time>2026-05-06T13:18:08.106Z</time>
      </trkpt>
      <trkpt lat="51.70294" lon="6.48591">
        <ele>62.247063</ele>
        <time>2026-05-06T13:18:10.119Z</time>
      </trkpt>
      <trkpt lat="51.703" lon="6.48573">
        <ele>62.282824</ele>
        <time>2026-05-06T13:18:13.098Z</time>
      </trkpt>
      <trkpt lat="51.70306" lon="6.48554">
        <ele>62.322193</ele>
        <time>2026-05-06T13:18:16.099Z</time>
      </trkpt>
      <trkpt lat="51.70311" lon="6.4854">
        <ele>62.350753</ele>
        <time>2026-05-06T13:18:18.099Z</time>
      </trkpt>
      <trkpt lat="51.70316" lon="6.48526">
        <ele>62.320543</ele>
        <time>2026-05-06T13:18:20.094Z</time>
      </trkpt>
      <trkpt lat="51.70321" lon="6.48513">
        <ele>62.20431</ele>
        <time>2026-05-06T13:18:22.094Z</time>
      </trkpt>
      <trkpt lat="51.70325" lon="6.48499">
        <ele>62.08786</ele>
        <time>2026-05-06T13:18:24.102Z</time>
      </trkpt>
      <trkpt lat="51.70329" lon="6.48486">
        <ele>61.968769</ele>
        <time>2026-05-06T13:18:26.105Z</time>
      </trkpt>
      <trkpt lat="51.70333" lon="6.48472">
        <ele>61.849679</ele>
        <time>2026-05-06T13:18:28.110Z</time>
      </trkpt>
      <trkpt lat="51.70338" lon="6.48458">
        <ele>61.730121</ele>
        <time>2026-05-06T13:18:30.105Z</time>
      </trkpt>
      <trkpt lat="51.70342" lon="6.48444">
        <ele>61.608506</ele>
        <time>2026-05-06T13:18:32.102Z</time>
      </trkpt>
      <trkpt lat="51.70347" lon="6.48431">
        <ele>61.489633</ele>
        <time>2026-05-06T13:18:34.099Z</time>
      </trkpt>
      <trkpt lat="51.70352" lon="6.48418">
        <ele>61.374275</ele>
        <time>2026-05-06T13:18:36.109Z</time>
      </trkpt>
      <trkpt lat="51.70356" lon="6.48405">
        <ele>61.259897</ele>
        <time>2026-05-06T13:18:38.095Z</time>
      </trkpt>
      <trkpt lat="51.7036" lon="6.48392">
        <ele>61.145152</ele>
        <time>2026-05-06T13:18:40.107Z</time>
      </trkpt>
      <trkpt lat="51.70365" lon="6.48379">
        <ele>61.032726</ele>
        <time>2026-05-06T13:18:42.096Z</time>
      </trkpt>
      <trkpt lat="51.70369" lon="6.48366">
        <ele>60.918225</ele>
        <time>2026-05-06T13:18:44.105Z</time>
      </trkpt>
      <trkpt lat="51.70373" lon="6.48353">
        <ele>60.803158</ele>
        <time>2026-05-06T13:18:46.113Z</time>
      </trkpt>
      <trkpt lat="51.70377" lon="6.4834">
        <ele>60.690041</ele>
        <time>2026-05-06T13:18:48.108Z</time>
      </trkpt>
      <trkpt lat="51.70383" lon="6.48321">
        <ele>60.52506</ele>
        <time>2026-05-06T13:18:51.094Z</time>
      </trkpt>
      <trkpt lat="51.70389" lon="6.48302">
        <ele>60.357616</ele>
        <time>2026-05-06T13:18:54.103Z</time>
      </trkpt>
      <trkpt lat="51.70394" lon="6.48289">
        <ele>60.239781</ele>
        <time>2026-05-06T13:18:56.107Z</time>
      </trkpt>
      <trkpt lat="51.70397" lon="6.48275">
        <ele>60.124799</ele>
        <time>2026-05-06T13:18:58.102Z</time>
      </trkpt>
      <trkpt lat="51.70404" lon="6.48256">
        <ele>60.105483</ele>
        <time>2026-05-06T13:19:01.108Z</time>
      </trkpt>
      <trkpt lat="51.70409" lon="6.48243">
        <ele>60.096841</ele>
        <time>2026-05-06T13:19:03.103Z</time>
      </trkpt>
      <trkpt lat="51.70413" lon="6.4823">
        <ele>60.088544</ele>
        <time>2026-05-06T13:19:05.099Z</time>
      </trkpt>
      <trkpt lat="51.70417" lon="6.48216">
        <ele>60.079894</ele>
        <time>2026-05-06T13:19:07.105Z</time>
      </trkpt>
      <trkpt lat="51.70422" lon="6.48202">
        <ele>60.070652</ele>
        <time>2026-05-06T13:19:09.095Z</time>
      </trkpt>
      <trkpt lat="51.70426" lon="6.48189">
        <ele>60.062204</ele>
        <time>2026-05-06T13:19:11.099Z</time>
      </trkpt>
      <trkpt lat="51.7043" lon="6.48176">
        <ele>60.053712</ele>
        <time>2026-05-06T13:19:13.100Z</time>
      </trkpt>
      <trkpt lat="51.70437" lon="6.48157">
        <ele>60.041439</ele>
        <time>2026-05-06T13:19:16.100Z</time>
      </trkpt>
      <trkpt lat="51.70443" lon="6.48138">
        <ele>60.029215</ele>
        <time>2026-05-06T13:19:19.102Z</time>
      </trkpt>
      <trkpt lat="51.70448" lon="6.48125">
        <ele>60.020832</ele>
        <time>2026-05-06T13:19:21.113Z</time>
      </trkpt>
      <trkpt lat="51.70454" lon="6.48106">
        <ele>60.008679</ele>
        <time>2026-05-06T13:19:24.102Z</time>
      </trkpt>
      <trkpt lat="51.70459" lon="6.48088">
        <ele>59.997344</ele>
        <time>2026-05-06T13:19:27.112Z</time>
      </trkpt>
      <trkpt lat="51.70465" lon="6.48071">
        <ele>59.985797</ele>
        <time>2026-05-06T13:19:30.098Z</time>
      </trkpt>
      <trkpt lat="51.70472" lon="6.48051">
        <ele>59.973195</ele>
        <time>2026-05-06T13:19:33.094Z</time>
      </trkpt>
      <trkpt lat="51.70477" lon="6.48038">
        <ele>59.964614</ele>
        <time>2026-05-06T13:19:35.100Z</time>
      </trkpt>
      <trkpt lat="51.70481" lon="6.48025">
        <ele>59.956158</ele>
        <time>2026-05-06T13:19:37.101Z</time>
      </trkpt>
      <trkpt lat="51.70485" lon="6.48012">
        <ele>60.074179</ele>
        <time>2026-05-06T13:19:39.103Z</time>
      </trkpt>
      <trkpt lat="51.70492" lon="6.47994">
        <ele>60.417893</ele>
        <time>2026-05-06T13:19:42.102Z</time>
      </trkpt>
      <trkpt lat="51.70499" lon="6.47976">
        <ele>60.756102</ele>
        <time>2026-05-06T13:19:45.103Z</time>
      </trkpt>
      <trkpt lat="51.70504" lon="6.47964">
        <ele>60.990872</ele>
        <time>2026-05-06T13:19:47.101Z</time>
      </trkpt>
      <trkpt lat="51.70509" lon="6.47951">
        <ele>61.235737</ele>
        <time>2026-05-06T13:19:49.108Z</time>
      </trkpt>
      <trkpt lat="51.70515" lon="6.4794">
        <ele>61.471644</ele>
        <time>2026-05-06T13:19:51.118Z</time>
      </trkpt>
      <trkpt lat="51.70523" lon="6.47923">
        <ele>61.813138</ele>
        <time>2026-05-06T13:19:54.102Z</time>
      </trkpt>
      <trkpt lat="51.70531" lon="6.47907">
        <ele>62.139738</ele>
        <time>2026-05-06T13:19:57.105Z</time>
      </trkpt>
      <trkpt lat="51.70537" lon="6.47896">
        <ele>62.381804</ele>
        <time>2026-05-06T13:19:59.113Z</time>
      </trkpt>
      <trkpt lat="51.70544" lon="6.47885">
        <ele>62.625148</ele>
        <time>2026-05-06T13:20:01.113Z</time>
      </trkpt>
      <trkpt lat="51.70553" lon="6.47871">
        <ele>62.960695</ele>
        <time>2026-05-06T13:20:04.109Z</time>
      </trkpt>
      <trkpt lat="51.70562" lon="6.47857">
        <ele>63.27837</ele>
        <time>2026-05-06T13:20:07.099Z</time>
      </trkpt>
      <trkpt lat="51.70572" lon="6.47846">
        <ele>63.594419</ele>
        <time>2026-05-06T13:20:10.102Z</time>
      </trkpt>
      <trkpt lat="51.70583" lon="6.47835">
        <ele>63.91896</ele>
        <time>2026-05-06T13:20:13.102Z</time>
      </trkpt>
      <trkpt lat="51.70594" lon="6.47824">
        <ele>64.260382</ele>
        <time>2026-05-06T13:20:16.105Z</time>
      </trkpt>
      <trkpt lat="51.70602" lon="6.47817">
        <ele>64.494465</ele>
        <time>2026-05-06T13:20:18.104Z</time>
      </trkpt>
      <trkpt lat="51.70614" lon="6.47807">
        <ele>64.653509</ele>
        <time>2026-05-06T13:20:21.110Z</time>
      </trkpt>
      <trkpt lat="51.70625" lon="6.47796">
        <ele>64.721769</ele>
        <time>2026-05-06T13:20:24.111Z</time>
      </trkpt>
      <trkpt lat="51.70634" lon="6.4779">
        <ele>64.76829</ele>
        <time>2026-05-06T13:20:26.119Z</time>
      </trkpt>
      <trkpt lat="51.70642" lon="6.47783">
        <ele>64.813905</ele>
        <time>2026-05-06T13:20:28.097Z</time>
      </trkpt>
      <trkpt lat="51.70653" lon="6.47772">
        <ele>64.882212</ele>
        <time>2026-05-06T13:20:31.098Z</time>
      </trkpt>
      <trkpt lat="51.70661" lon="6.47764">
        <ele>64.930536</ele>
        <time>2026-05-06T13:20:33.095Z</time>
      </trkpt>
      <trkpt lat="51.70669" lon="6.47757">
        <ele>64.976888</ele>
        <time>2026-05-06T13:20:35.111Z</time>
      </trkpt>
      <trkpt lat="51.70681" lon="6.47746">
        <ele>65.044125</ele>
        <time>2026-05-06T13:20:38.107Z</time>
      </trkpt>
      <trkpt lat="51.70692" lon="6.47736">
        <ele>65.108573</ele>
        <time>2026-05-06T13:20:41.105Z</time>
      </trkpt>
      <trkpt lat="51.70703" lon="6.47726">
        <ele>65.176236</ele>
        <time>2026-05-06T13:20:44.105Z</time>
      </trkpt>
      <trkpt lat="51.70715" lon="6.47716">
        <ele>65.242408</ele>
        <time>2026-05-06T13:20:47.116Z</time>
      </trkpt>
      <trkpt lat="51.70726" lon="6.47707">
        <ele>65.305616</ele>
        <time>2026-05-06T13:20:50.103Z</time>
      </trkpt>
      <trkpt lat="51.70738" lon="6.47696">
        <ele>65.372543</ele>
        <time>2026-05-06T13:20:53.095Z</time>
      </trkpt>
      <trkpt lat="51.70746" lon="6.47689">
        <ele>65.419047</ele>
        <time>2026-05-06T13:20:55.113Z</time>
      </trkpt>
      <trkpt lat="51.70753" lon="6.4768">
        <ele>65.465757</ele>
        <time>2026-05-06T13:20:57.105Z</time>
      </trkpt>
      <trkpt lat="51.70761" lon="6.47672">
        <ele>65.511574</ele>
        <time>2026-05-06T13:20:59.113Z</time>
      </trkpt>
      <trkpt lat="51.70771" lon="6.47661">
        <ele>65.522235</ele>
        <time>2026-05-06T13:21:02.101Z</time>
      </trkpt>
      <trkpt lat="51.70782" lon="6.47649">
        <ele>65.522965</ele>
        <time>2026-05-06T13:21:05.107Z</time>
      </trkpt>
      <trkpt lat="51.70791" lon="6.47639">
        <ele>65.523589</ele>
        <time>2026-05-06T13:21:08.103Z</time>
      </trkpt>
      <trkpt lat="51.70798" lon="6.4763">
        <ele>65.524127</ele>
        <time>2026-05-06T13:21:11.099Z</time>
      </trkpt>
      <trkpt lat="51.70805" lon="6.47621">
        <ele>65.524653</ele>
        <time>2026-05-06T13:21:14.103Z</time>
      </trkpt>
      <trkpt lat="51.70814" lon="6.47612">
        <ele>65.525247</ele>
        <time>2026-05-06T13:21:18.096Z</time>
      </trkpt>
      <trkpt lat="51.70821" lon="6.47599">
        <ele>65.52582</ele>
        <time>2026-05-06T13:21:24.096Z</time>
      </trkpt>
      <trkpt lat="51.70828" lon="6.47589">
        <ele>65.52636</ele>
        <time>2026-05-06T13:21:30.106Z</time>
      </trkpt>
      <trkpt lat="51.70836" lon="6.47577">
        <ele>65.526978</ele>
        <time>2026-05-06T13:21:35.104Z</time>
      </trkpt>
      <trkpt lat="51.70841" lon="6.47565">
        <ele>65.527513</ele>
        <time>2026-05-06T13:21:39.102Z</time>
      </trkpt>
      <trkpt lat="51.70847" lon="6.47549">
        <ele>65.528168</ele>
        <time>2026-05-06T13:21:44.104Z</time>
      </trkpt>
      <trkpt lat="51.70855" lon="6.47533">
        <ele>65.528886</ele>
        <time>2026-05-06T13:21:48.100Z</time>
      </trkpt>
      <trkpt lat="51.7086" lon="6.47521">
        <ele>65.529404</ele>
        <time>2026-05-06T13:21:50.103Z</time>
      </trkpt>
      <trkpt lat="51.70866" lon="6.47506">
        <ele>65.530017</ele>
        <time>2026-05-06T13:21:52.107Z</time>
      </trkpt>
      <trkpt lat="51.70872" lon="6.47488">
        <ele>65.530766</ele>
        <time>2026-05-06T13:21:55.108Z</time>
      </trkpt>
      <trkpt lat="51.70876" lon="6.47474">
        <ele>65.531294</ele>
        <time>2026-05-06T13:21:57.098Z</time>
      </trkpt>
      <trkpt lat="51.7088" lon="6.4746">
        <ele>65.531835</ele>
        <time>2026-05-06T13:21:59.093Z</time>
      </trkpt>
      <trkpt lat="51.70885" lon="6.47445">
        <ele>65.475032</ele>
        <time>2026-05-06T13:22:01.099Z</time>
      </trkpt>
      <trkpt lat="51.7089" lon="6.4743">
        <ele>65.417044</ele>
        <time>2026-05-06T13:22:03.099Z</time>
      </trkpt>
      <trkpt lat="51.70895" lon="6.47411">
        <ele>65.344537</ele>
        <time>2026-05-06T13:22:06.096Z</time>
      </trkpt>
      <trkpt lat="51.70901" lon="6.47394">
        <ele>65.277551</ele>
        <time>2026-05-06T13:22:09.094Z</time>
      </trkpt>
      <trkpt lat="51.70906" lon="6.47379">
        <ele>65.217369</ele>
        <time>2026-05-06T13:22:12.116Z</time>
      </trkpt>
      <trkpt lat="51.70911" lon="6.47362">
        <ele>65.152031</ele>
        <time>2026-05-06T13:22:15.106Z</time>
      </trkpt>
      <trkpt lat="51.70916" lon="6.47348">
        <ele>65.093688</ele>
        <time>2026-05-06T13:22:17.097Z</time>
      </trkpt>
      <trkpt lat="51.70921" lon="6.47333">
        <ele>65.038386</ele>
        <time>2026-05-06T13:22:19.106Z</time>
      </trkpt>
      <trkpt lat="51.70925" lon="6.47319">
        <ele>64.982895</ele>
        <time>2026-05-06T13:22:21.102Z</time>
      </trkpt>
      <trkpt lat="51.7093" lon="6.47305">
        <ele>64.927094</ele>
        <time>2026-05-06T13:22:23.106Z</time>
      </trkpt>
      <trkpt lat="51.70934" lon="6.47291">
        <ele>64.872663</ele>
        <time>2026-05-06T13:22:25.102Z</time>
      </trkpt>
      <trkpt lat="51.70939" lon="6.47276">
        <ele>64.81435</ele>
        <time>2026-05-06T13:22:27.101Z</time>
      </trkpt>
      <trkpt lat="51.70943" lon="6.47262">
        <ele>64.758549</ele>
        <time>2026-05-06T13:22:29.101Z</time>
      </trkpt>
      <trkpt lat="51.70949" lon="6.47243">
        <ele>64.68464</ele>
        <time>2026-05-06T13:22:32.096Z</time>
      </trkpt>
      <trkpt lat="51.70953" lon="6.47228">
        <ele>64.628397</ele>
        <time>2026-05-06T13:22:34.107Z</time>
      </trkpt>
      <trkpt lat="51.70959" lon="6.47211">
        <ele>64.561453</ele>
        <time>2026-05-06T13:22:37.119Z</time>
      </trkpt>
      <trkpt lat="51.70965" lon="6.47195">
        <ele>64.493773</ele>
        <time>2026-05-06T13:22:40.104Z</time>
      </trkpt>
      <trkpt lat="51.7097" lon="6.47177">
        <ele>64.415879</ele>
        <time>2026-05-06T13:22:43.104Z</time>
      </trkpt>
      <trkpt lat="51.70974" lon="6.47161">
        <ele>64.346805</ele>
        <time>2026-05-06T13:22:46.105Z</time>
      </trkpt>
      <trkpt lat="51.70981" lon="6.47142">
        <ele>64.264323</ele>
        <time>2026-05-06T13:22:49.099Z</time>
      </trkpt>
      <trkpt lat="51.70986" lon="6.47125">
        <ele>64.186539</ele>
        <time>2026-05-06T13:22:52.100Z</time>
      </trkpt>
      <trkpt lat="51.70991" lon="6.47108">
        <ele>64.113723</ele>
        <time>2026-05-06T13:22:54.097Z</time>
      </trkpt>
      <trkpt lat="51.70995" lon="6.47093">
        <ele>64.048946</ele>
        <time>2026-05-06T13:22:56.097Z</time>
      </trkpt>
      <trkpt lat="51.70999" lon="6.47078">
        <ele>63.983456</ele>
        <time>2026-05-06T13:22:58.106Z</time>
      </trkpt>
      <trkpt lat="51.71004" lon="6.47062">
        <ele>63.916174</ele>
        <time>2026-05-06T13:23:00.118Z</time>
      </trkpt>
      <trkpt lat="51.71009" lon="6.47047">
        <ele>63.849658</ele>
        <time>2026-05-06T13:23:02.106Z</time>
      </trkpt>
      <trkpt lat="51.71013" lon="6.47033">
        <ele>63.788967</ele>
        <time>2026-05-06T13:23:04.103Z</time>
      </trkpt>
      <trkpt lat="51.71018" lon="6.47017">
        <ele>63.715484</ele>
        <time>2026-05-06T13:23:07.102Z</time>
      </trkpt>
      <trkpt lat="51.71024" lon="6.46999">
        <ele>63.637997</ele>
        <time>2026-05-06T13:23:10.090Z</time>
      </trkpt>
      <trkpt lat="51.71029" lon="6.46986">
        <ele>63.576354</ele>
        <time>2026-05-06T13:23:12.105Z</time>
      </trkpt>
      <trkpt lat="51.71035" lon="6.46974">
        <ele>63.517535</ele>
        <time>2026-05-06T13:23:16.103Z</time>
      </trkpt>
      <trkpt lat="51.71044" lon="6.46972">
        <ele>63.458962</ele>
        <time>2026-05-06T13:23:22.091Z</time>
      </trkpt>
      <trkpt lat="51.71048" lon="6.46933">
        <ele>63.359062</ele>
        <time>2026-05-06T13:26:54.099Z</time>
      </trkpt>
      <trkpt lat="51.71053" lon="6.46918">
        <ele>63.338633</ele>
        <time>2026-05-06T13:26:57.098Z</time>
      </trkpt>
      <trkpt lat="51.71058" lon="6.46902">
        <ele>63.31653</ele>
        <time>2026-05-06T13:27:00.105Z</time>
      </trkpt>
      <trkpt lat="51.71063" lon="6.46885">
        <ele>63.293107</ele>
        <time>2026-05-06T13:27:03.101Z</time>
      </trkpt>
      <trkpt lat="51.71069" lon="6.46868">
        <ele>63.269053</ele>
        <time>2026-05-06T13:27:06.102Z</time>
      </trkpt>
      <trkpt lat="51.71075" lon="6.46849">
        <ele>63.242924</ele>
        <time>2026-05-06T13:27:09.095Z</time>
      </trkpt>
      <trkpt lat="51.71081" lon="6.4683">
        <ele>63.217016</ele>
        <time>2026-05-06T13:27:12.099Z</time>
      </trkpt>
      <trkpt lat="51.71086" lon="6.46812">
        <ele>63.192731</ele>
        <time>2026-05-06T13:27:15.100Z</time>
      </trkpt>
      <trkpt lat="51.71091" lon="6.46794">
        <ele>63.168835</ele>
        <time>2026-05-06T13:27:18.106Z</time>
      </trkpt>
      <trkpt lat="51.71096" lon="6.46777">
        <ele>63.145216</ele>
        <time>2026-05-06T13:27:21.105Z</time>
      </trkpt>
      <trkpt lat="51.71102" lon="6.4676">
        <ele>63.121255</ele>
        <time>2026-05-06T13:27:24.103Z</time>
      </trkpt>
      <trkpt lat="51.71106" lon="6.46741">
        <ele>63.09654</ele>
        <time>2026-05-06T13:27:27.095Z</time>
      </trkpt>
      <trkpt lat="51.71111" lon="6.46724">
        <ele>63.073144</ele>
        <time>2026-05-06T13:27:30.104Z</time>
      </trkpt>
      <trkpt lat="51.71116" lon="6.46709">
        <ele>63.052893</ele>
        <time>2026-05-06T13:27:33.108Z</time>
      </trkpt>
      <trkpt lat="51.71122" lon="6.46691">
        <ele>63.028297</ele>
        <time>2026-05-06T13:27:36.128Z</time>
      </trkpt>
      <trkpt lat="51.71126" lon="6.46678">
        <ele>62.977491</ele>
        <time>2026-05-06T13:27:38.103Z</time>
      </trkpt>
      <trkpt lat="51.71131" lon="6.4666">
        <ele>62.905781</ele>
        <time>2026-05-06T13:27:41.102Z</time>
      </trkpt>
      <trkpt lat="51.71136" lon="6.46641">
        <ele>62.835777</ele>
        <time>2026-05-06T13:27:44.103Z</time>
      </trkpt>
      <trkpt lat="51.71142" lon="6.46623">
        <ele>62.766061</ele>
        <time>2026-05-06T13:27:47.102Z</time>
      </trkpt>
      <trkpt lat="51.71148" lon="6.46606">
        <ele>62.696653</ele>
        <time>2026-05-06T13:27:50.099Z</time>
      </trkpt>
      <trkpt lat="51.71153" lon="6.46587">
        <ele>62.625258</ele>
        <time>2026-05-06T13:27:53.102Z</time>
      </trkpt>
      <trkpt lat="51.71159" lon="6.46569">
        <ele>62.554866</ele>
        <time>2026-05-06T13:27:56.096Z</time>
      </trkpt>
      <trkpt lat="51.71165" lon="6.46552">
        <ele>62.48558</ele>
        <time>2026-05-06T13:27:59.106Z</time>
      </trkpt>
      <trkpt lat="51.71171" lon="6.46535">
        <ele>62.417227</ele>
        <time>2026-05-06T13:28:02.110Z</time>
      </trkpt>
      <trkpt lat="51.71178" lon="6.46519">
        <ele>62.349268</ele>
        <time>2026-05-06T13:28:05.105Z</time>
      </trkpt>
      <trkpt lat="51.71185" lon="6.46504">
        <ele>62.283652</ele>
        <time>2026-05-06T13:28:08.101Z</time>
      </trkpt>
      <trkpt lat="51.71192" lon="6.4649">
        <ele>62.220995</ele>
        <time>2026-05-06T13:28:11.097Z</time>
      </trkpt>
      <trkpt lat="51.71199" lon="6.46477">
        <ele>62.161101</ele>
        <time>2026-05-06T13:28:14.106Z</time>
      </trkpt>
      <trkpt lat="51.71208" lon="6.46464">
        <ele>62.09631</ele>
        <time>2026-05-06T13:28:17.103Z</time>
      </trkpt>
      <trkpt lat="51.71216" lon="6.46451">
        <ele>62.029732</ele>
        <time>2026-05-06T13:28:20.132Z</time>
      </trkpt>
      <trkpt lat="51.71225" lon="6.46437">
        <ele>61.874997</ele>
        <time>2026-05-06T13:28:23.101Z</time>
      </trkpt>
      <trkpt lat="51.71234" lon="6.46425">
        <ele>61.712288</ele>
        <time>2026-05-06T13:28:26.100Z</time>
      </trkpt>
      <trkpt lat="51.71243" lon="6.46413">
        <ele>61.555527</ele>
        <time>2026-05-06T13:28:29.094Z</time>
      </trkpt>
      <trkpt lat="51.71252" lon="6.46403">
        <ele>61.40281</ele>
        <time>2026-05-06T13:28:32.103Z</time>
      </trkpt>
      <trkpt lat="51.71261" lon="6.46393">
        <ele>61.256162</ele>
        <time>2026-05-06T13:28:35.103Z</time>
      </trkpt>
      <trkpt lat="51.71269" lon="6.46384">
        <ele>61.120486</ele>
        <time>2026-05-06T13:28:38.105Z</time>
      </trkpt>
      <trkpt lat="51.71277" lon="6.46393">
        <ele>60.987564</ele>
        <time>2026-05-06T13:28:42.106Z</time>
      </trkpt>
      <trkpt lat="51.71279" lon="6.46408">
        <ele>60.850292</ele>
        <time>2026-05-06T13:28:45.102Z</time>
      </trkpt>
      <trkpt lat="51.71283" lon="6.46425">
        <ele>60.694736</ele>
        <time>2026-05-06T13:28:48.106Z</time>
      </trkpt>
      <trkpt lat="51.71287" lon="6.46445">
        <ele>60.520765</ele>
        <time>2026-05-06T13:28:51.105Z</time>
      </trkpt>
      <trkpt lat="51.71291" lon="6.46464">
        <ele>60.346706</ele>
        <time>2026-05-06T13:28:54.096Z</time>
      </trkpt>
      <trkpt lat="51.71298" lon="6.46477">
        <ele>60.196107</ele>
        <time>2026-05-06T13:28:57.100Z</time>
      </trkpt>
      <trkpt lat="51.7131" lon="6.4648">
        <ele>60.026354</ele>
        <time>2026-05-06T13:29:00.095Z</time>
      </trkpt>
      <trkpt lat="51.71322" lon="6.46483">
        <ele>59.867129</ele>
        <time>2026-05-06T13:29:03.101Z</time>
      </trkpt>
      <trkpt lat="51.71333" lon="6.46486">
        <ele>59.71035</ele>
        <time>2026-05-06T13:29:06.097Z</time>
      </trkpt>
      <trkpt lat="51.71344" lon="6.4649">
        <ele>59.549048</ele>
        <time>2026-05-06T13:29:09.101Z</time>
      </trkpt>
      <trkpt lat="51.71357" lon="6.46493">
        <ele>59.765098</ele>
        <time>2026-05-06T13:29:12.107Z</time>
      </trkpt>
      <trkpt lat="51.71368" lon="6.46497">
        <ele>60.004192</ele>
        <time>2026-05-06T13:29:15.103Z</time>
      </trkpt>
      <trkpt lat="51.7138" lon="6.465">
        <ele>60.241535</ele>
        <time>2026-05-06T13:29:18.092Z</time>
      </trkpt>
      <trkpt lat="51.71392" lon="6.46503">
        <ele>60.483602</ele>
        <time>2026-05-06T13:29:21.099Z</time>
      </trkpt>
      <trkpt lat="51.71404" lon="6.46506">
        <ele>60.729622</ele>
        <time>2026-05-06T13:29:24.102Z</time>
      </trkpt>
      <trkpt lat="51.71417" lon="6.46509">
        <ele>60.97701</ele>
        <time>2026-05-06T13:29:27.108Z</time>
      </trkpt>
      <trkpt lat="51.71429" lon="6.46513">
        <ele>61.227758</ele>
        <time>2026-05-06T13:29:30.097Z</time>
      </trkpt>
      <trkpt lat="51.71441" lon="6.46518">
        <ele>61.471219</ele>
        <time>2026-05-06T13:29:33.116Z</time>
      </trkpt>
      <trkpt lat="51.71452" lon="6.46522">
        <ele>61.704503</ele>
        <time>2026-05-06T13:29:36.110Z</time>
      </trkpt>
      <trkpt lat="51.71464" lon="6.46526">
        <ele>61.942773</ele>
        <time>2026-05-06T13:29:39.116Z</time>
      </trkpt>
      <trkpt lat="51.71475" lon="6.4653">
        <ele>62.167621</ele>
        <time>2026-05-06T13:29:42.101Z</time>
      </trkpt>
      <trkpt lat="51.71486" lon="6.46535">
        <ele>62.396113</ele>
        <time>2026-05-06T13:29:45.099Z</time>
      </trkpt>
      <trkpt lat="51.71497" lon="6.46539">
        <ele>62.627152</ele>
        <time>2026-05-06T13:29:48.103Z</time>
      </trkpt>
      <trkpt lat="51.71509" lon="6.46543">
        <ele>62.876201</ele>
        <time>2026-05-06T13:29:51.110Z</time>
      </trkpt>
      <trkpt lat="51.71521" lon="6.46546">
        <ele>63.114316</ele>
        <time>2026-05-06T13:29:54.106Z</time>
      </trkpt>
      <trkpt lat="51.71532" lon="6.46547">
        <ele>63.077754</ele>
        <time>2026-05-06T13:29:57.108Z</time>
      </trkpt>
      <trkpt lat="51.71543" lon="6.4655">
        <ele>63.022792</ele>
        <time>2026-05-06T13:30:00.095Z</time>
      </trkpt>
      <trkpt lat="51.71554" lon="6.46553">
        <ele>62.96707</ele>
        <time>2026-05-06T13:30:03.096Z</time>
      </trkpt>
      <trkpt lat="51.71565" lon="6.46558">
        <ele>62.908182</ele>
        <time>2026-05-06T13:30:06.109Z</time>
      </trkpt>
      <trkpt lat="51.71577" lon="6.46562">
        <ele>62.849776</ele>
        <time>2026-05-06T13:30:09.104Z</time>
      </trkpt>
      <trkpt lat="51.71589" lon="6.46566">
        <ele>62.786356</ele>
        <time>2026-05-06T13:30:12.104Z</time>
      </trkpt>
      <trkpt lat="51.71602" lon="6.46569">
        <ele>62.725386</ele>
        <time>2026-05-06T13:30:15.101Z</time>
      </trkpt>
      <trkpt lat="51.71612" lon="6.46571">
        <ele>62.672056</ele>
        <time>2026-05-06T13:30:18.111Z</time>
      </trkpt>
      <trkpt lat="51.71624" lon="6.46576">
        <ele>62.613186</ele>
        <time>2026-05-06T13:30:21.101Z</time>
      </trkpt>
      <trkpt lat="51.71636" lon="6.46581">
        <ele>62.550918</ele>
        <time>2026-05-06T13:30:24.106Z</time>
      </trkpt>
      <trkpt lat="51.71649" lon="6.46584">
        <ele>62.487902</ele>
        <time>2026-05-06T13:30:27.103Z</time>
      </trkpt>
      <trkpt lat="51.71661" lon="6.46586">
        <ele>62.426146</ele>
        <time>2026-05-06T13:30:30.095Z</time>
      </trkpt>
      <trkpt lat="51.71673" lon="6.46587">
        <ele>62.366165</ele>
        <time>2026-05-06T13:30:33.114Z</time>
      </trkpt>
      <trkpt lat="51.71685" lon="6.46589">
        <ele>62.304865</ele>
        <time>2026-05-06T13:30:36.102Z</time>
      </trkpt>
      <trkpt lat="51.71697" lon="6.46593">
        <ele>62.245693</ele>
        <time>2026-05-06T13:30:39.107Z</time>
      </trkpt>
      <trkpt lat="51.71709" lon="6.46598">
        <ele>62.090516</ele>
        <time>2026-05-06T13:30:42.104Z</time>
      </trkpt>
      <trkpt lat="51.7172" lon="6.46603">
        <ele>61.922575</ele>
        <time>2026-05-06T13:30:45.111Z</time>
      </trkpt>
      <trkpt lat="51.71731" lon="6.46612">
        <ele>61.747872</ele>
        <time>2026-05-06T13:30:48.101Z</time>
      </trkpt>
      <trkpt lat="51.71742" lon="6.46619">
        <ele>61.580325</ele>
        <time>2026-05-06T13:30:51.112Z</time>
      </trkpt>
      <trkpt lat="51.71753" lon="6.46626">
        <ele>61.416772</ele>
        <time>2026-05-06T13:30:54.093Z</time>
      </trkpt>
      <trkpt lat="51.71764" lon="6.46629">
        <ele>61.257645</ele>
        <time>2026-05-06T13:30:57.100Z</time>
      </trkpt>
      <trkpt lat="51.71775" lon="6.4663">
        <ele>61.096265</ele>
        <time>2026-05-06T13:31:00.102Z</time>
      </trkpt>
      <trkpt lat="51.71786" lon="6.46633">
        <ele>60.929966</ele>
        <time>2026-05-06T13:31:03.093Z</time>
      </trkpt>
      <trkpt lat="51.71798" lon="6.46637">
        <ele>60.763667</ele>
        <time>2026-05-06T13:31:06.095Z</time>
      </trkpt>
      <trkpt lat="51.71809" lon="6.4664">
        <ele>60.602982</ele>
        <time>2026-05-06T13:31:09.132Z</time>
      </trkpt>
      <trkpt lat="51.71821" lon="6.46643">
        <ele>60.434648</ele>
        <time>2026-05-06T13:31:12.112Z</time>
      </trkpt>
      <trkpt lat="51.71832" lon="6.46647">
        <ele>60.269279</ele>
        <time>2026-05-06T13:31:15.102Z</time>
      </trkpt>
      <trkpt lat="51.71844" lon="6.4665">
        <ele>60.099866</ele>
        <time>2026-05-06T13:31:18.098Z</time>
      </trkpt>
      <trkpt lat="51.71855" lon="6.46653">
        <ele>59.939182</ele>
        <time>2026-05-06T13:31:21.105Z</time>
      </trkpt>
      <trkpt lat="51.71866" lon="6.46657">
        <ele>59.776087</ele>
        <time>2026-05-06T13:31:24.100Z</time>
      </trkpt>
      <trkpt lat="51.71877" lon="6.4666">
        <ele>59.695886</ele>
        <time>2026-05-06T13:31:27.099Z</time>
      </trkpt>
      <trkpt lat="51.71889" lon="6.46662">
        <ele>59.752006</ele>
        <time>2026-05-06T13:31:30.103Z</time>
      </trkpt>
      <trkpt lat="51.719" lon="6.46667">
        <ele>59.810638</ele>
        <time>2026-05-06T13:31:33.113Z</time>
      </trkpt>
      <trkpt lat="51.71911" lon="6.46672">
        <ele>59.868222</ele>
        <time>2026-05-06T13:31:36.109Z</time>
      </trkpt>
      <trkpt lat="51.71922" lon="6.46675">
        <ele>59.92254</ele>
        <time>2026-05-06T13:31:39.105Z</time>
      </trkpt>
      <trkpt lat="51.71931" lon="6.46672">
        <ele>59.972524</ele>
        <time>2026-05-06T13:31:42.105Z</time>
      </trkpt>
      <trkpt lat="51.71941" lon="6.46665">
        <ele>60.023944</ele>
        <time>2026-05-06T13:31:45.109Z</time>
      </trkpt>
      <trkpt lat="51.71951" lon="6.46666">
        <ele>60.073088</ele>
        <time>2026-05-06T13:31:48.097Z</time>
      </trkpt>
      <trkpt lat="51.71962" lon="6.46668">
        <ele>60.130919</ele>
        <time>2026-05-06T13:31:51.097Z</time>
      </trkpt>
      <trkpt lat="51.71974" lon="6.46672">
        <ele>60.19356</ele>
        <time>2026-05-06T13:31:54.102Z</time>
      </trkpt>
      <trkpt lat="51.71987" lon="6.46674">
        <ele>60.258595</ele>
        <time>2026-05-06T13:31:57.104Z</time>
      </trkpt>
      <trkpt lat="51.71999" lon="6.46677">
        <ele>60.317465</ele>
        <time>2026-05-06T13:32:00.100Z</time>
      </trkpt>
      <trkpt lat="51.72011" lon="6.46682">
        <ele>60.38004</ele>
        <time>2026-05-06T13:32:03.104Z</time>
      </trkpt>
      <trkpt lat="51.72022" lon="6.46686">
        <ele>60.437521</ele>
        <time>2026-05-06T13:32:06.097Z</time>
      </trkpt>
      <trkpt lat="51.72034" lon="6.46689">
        <ele>60.499458</ele>
        <time>2026-05-06T13:32:09.103Z</time>
      </trkpt>
      <trkpt lat="51.72047" lon="6.46693">
        <ele>60.564182</ele>
        <time>2026-05-06T13:32:12.104Z</time>
      </trkpt>
      <trkpt lat="51.72058" lon="6.46696">
        <ele>60.548312</ele>
        <time>2026-05-06T13:32:15.098Z</time>
      </trkpt>
      <trkpt lat="51.72068" lon="6.46699">
        <ele>60.51389</ele>
        <time>2026-05-06T13:32:18.105Z</time>
      </trkpt>
      <trkpt lat="51.7208" lon="6.46703">
        <ele>60.476437</ele>
        <time>2026-05-06T13:32:21.104Z</time>
      </trkpt>
      <trkpt lat="51.72091" lon="6.46708">
        <ele>60.441565</ele>
        <time>2026-05-06T13:32:24.100Z</time>
      </trkpt>
      <trkpt lat="51.72102" lon="6.4671">
        <ele>60.4077</ele>
        <time>2026-05-06T13:32:27.112Z</time>
      </trkpt>
      <trkpt lat="51.72112" lon="6.46713">
        <ele>60.374088</ele>
        <time>2026-05-06T13:32:30.109Z</time>
      </trkpt>
      <trkpt lat="51.72124" lon="6.46715">
        <ele>60.336726</ele>
        <time>2026-05-06T13:32:33.091Z</time>
      </trkpt>
      <trkpt lat="51.72136" lon="6.46719">
        <ele>60.300075</ele>
        <time>2026-05-06T13:32:36.106Z</time>
      </trkpt>
      <trkpt lat="51.72147" lon="6.46723">
        <ele>60.262806</ele>
        <time>2026-05-06T13:32:39.110Z</time>
      </trkpt>
      <trkpt lat="51.72158" lon="6.46725">
        <ele>60.228727</ele>
        <time>2026-05-06T13:32:42.103Z</time>
      </trkpt>
      <trkpt lat="51.72169" lon="6.46727">
        <ele>60.192711</ele>
        <time>2026-05-06T13:32:45.109Z</time>
      </trkpt>
      <trkpt lat="51.72181" lon="6.46731">
        <ele>60.154791</ele>
        <time>2026-05-06T13:32:48.110Z</time>
      </trkpt>
      <trkpt lat="51.72193" lon="6.46734">
        <ele>60.118303</ele>
        <time>2026-05-06T13:32:51.096Z</time>
      </trkpt>
      <trkpt lat="51.72205" lon="6.46737">
        <ele>60.080235</ele>
        <time>2026-05-06T13:32:54.099Z</time>
      </trkpt>
      <trkpt lat="51.72217" lon="6.46741">
        <ele>60.041515</ele>
        <time>2026-05-06T13:32:57.093Z</time>
      </trkpt>
      <trkpt lat="51.72229" lon="6.46745">
        <ele>60.039294</ele>
        <time>2026-05-06T13:33:00.103Z</time>
      </trkpt>
      <trkpt lat="51.7224" lon="6.46748">
        <ele>60.181502</ele>
        <time>2026-05-06T13:33:03.100Z</time>
      </trkpt>
      <trkpt lat="51.72252" lon="6.46752">
        <ele>60.326535</ele>
        <time>2026-05-06T13:33:06.097Z</time>
      </trkpt>
      <trkpt lat="51.72264" lon="6.46755">
        <ele>60.465265</ele>
        <time>2026-05-06T13:33:09.100Z</time>
      </trkpt>
      <trkpt lat="51.72275" lon="6.46757">
        <ele>60.599873</ele>
        <time>2026-05-06T13:33:12.107Z</time>
      </trkpt>
      <trkpt lat="51.72287" lon="6.4676">
        <ele>60.738493</ele>
        <time>2026-05-06T13:33:15.105Z</time>
      </trkpt>
      <trkpt lat="51.72298" lon="6.46763">
        <ele>60.866079</ele>
        <time>2026-05-06T13:33:18.098Z</time>
      </trkpt>
      <trkpt lat="51.72308" lon="6.46767">
        <ele>60.996717</ele>
        <time>2026-05-06T13:33:21.102Z</time>
      </trkpt>
      <trkpt lat="51.7232" lon="6.46771">
        <ele>61.134292</ele>
        <time>2026-05-06T13:33:24.108Z</time>
      </trkpt>
      <trkpt lat="51.72331" lon="6.46774">
        <ele>61.269553</ele>
        <time>2026-05-06T13:33:27.100Z</time>
      </trkpt>
      <trkpt lat="51.72342" lon="6.46778">
        <ele>61.400622</ele>
        <time>2026-05-06T13:33:30.100Z</time>
      </trkpt>
      <trkpt lat="51.72353" lon="6.46782">
        <ele>61.530428</ele>
        <time>2026-05-06T13:33:33.103Z</time>
      </trkpt>
      <trkpt lat="51.72363" lon="6.46785">
        <ele>61.658601</ele>
        <time>2026-05-06T13:33:36.096Z</time>
      </trkpt>
      <trkpt lat="51.72374" lon="6.46789">
        <ele>61.793156</ele>
        <time>2026-05-06T13:33:39.114Z</time>
      </trkpt>
      <trkpt lat="51.72385" lon="6.46791">
        <ele>61.925935</ele>
        <time>2026-05-06T13:33:42.096Z</time>
      </trkpt>
      <trkpt lat="51.72396" lon="6.46794">
        <ele>62.051373</ele>
        <time>2026-05-06T13:33:45.106Z</time>
      </trkpt>
      <trkpt lat="51.72407" lon="6.46798">
        <ele>62.108402</ele>
        <time>2026-05-06T13:33:48.102Z</time>
      </trkpt>
      <trkpt lat="51.72417" lon="6.468">
        <ele>62.022667</ele>
        <time>2026-05-06T13:33:51.101Z</time>
      </trkpt>
      <trkpt lat="51.72428" lon="6.46803">
        <ele>61.935379</ele>
        <time>2026-05-06T13:33:54.106Z</time>
      </trkpt>
      <trkpt lat="51.72439" lon="6.46808">
        <ele>61.848251</ele>
        <time>2026-05-06T13:33:57.101Z</time>
      </trkpt>
      <trkpt lat="51.72451" lon="6.46811">
        <ele>61.756626</ele>
        <time>2026-05-06T13:34:00.112Z</time>
      </trkpt>
      <trkpt lat="51.72462" lon="6.46815">
        <ele>61.66569</ele>
        <time>2026-05-06T13:34:03.101Z</time>
      </trkpt>
      <trkpt lat="51.72474" lon="6.46818">
        <ele>61.572755</ele>
        <time>2026-05-06T13:34:06.095Z</time>
      </trkpt>
      <trkpt lat="51.72485" lon="6.46822">
        <ele>61.480273</ele>
        <time>2026-05-06T13:34:09.102Z</time>
      </trkpt>
      <trkpt lat="51.72497" lon="6.46825">
        <ele>61.385471</ele>
        <time>2026-05-06T13:34:12.099Z</time>
      </trkpt>
      <trkpt lat="51.72508" lon="6.46829">
        <ele>61.296577</ele>
        <time>2026-05-06T13:34:15.102Z</time>
      </trkpt>
      <trkpt lat="51.72519" lon="6.46833">
        <ele>61.206186</ele>
        <time>2026-05-06T13:34:18.103Z</time>
      </trkpt>
      <trkpt lat="51.72531" lon="6.46836">
        <ele>61.11353</ele>
        <time>2026-05-06T13:34:21.114Z</time>
      </trkpt>
      <trkpt lat="51.72542" lon="6.46839">
        <ele>61.027403</ele>
        <time>2026-05-06T13:34:24.105Z</time>
      </trkpt>
      <trkpt lat="51.72553" lon="6.46843">
        <ele>60.93638</ele>
        <time>2026-05-06T13:34:27.104Z</time>
      </trkpt>
      <trkpt lat="51.72564" lon="6.46846">
        <ele>60.848351</ele>
        <time>2026-05-06T13:34:30.099Z</time>
      </trkpt>
      <trkpt lat="51.72576" lon="6.46849">
        <ele>60.757426</ele>
        <time>2026-05-06T13:34:33.102Z</time>
      </trkpt>
      <trkpt lat="51.72587" lon="6.46853">
        <ele>60.686746</ele>
        <time>2026-05-06T13:34:36.100Z</time>
      </trkpt>
      <trkpt lat="51.72599" lon="6.46856">
        <ele>60.624832</ele>
        <time>2026-05-06T13:34:39.109Z</time>
      </trkpt>
      <trkpt lat="51.72611" lon="6.46859">
        <ele>60.563525</ele>
        <time>2026-05-06T13:34:42.091Z</time>
      </trkpt>
      <trkpt lat="51.72622" lon="6.46862">
        <ele>60.504296</ele>
        <time>2026-05-06T13:34:45.109Z</time>
      </trkpt>
      <trkpt lat="51.72633" lon="6.46865">
        <ele>60.444799</ele>
        <time>2026-05-06T13:34:48.097Z</time>
      </trkpt>
      <trkpt lat="51.72645" lon="6.46869">
        <ele>60.385302</ele>
        <time>2026-05-06T13:34:51.111Z</time>
      </trkpt>
      <trkpt lat="51.72656" lon="6.46873">
        <ele>60.325291</ele>
        <time>2026-05-06T13:34:54.098Z</time>
      </trkpt>
      <trkpt lat="51.72668" lon="6.46876">
        <ele>60.265851</ele>
        <time>2026-05-06T13:34:57.104Z</time>
      </trkpt>
      <trkpt lat="51.72679" lon="6.46879">
        <ele>60.206915</ele>
        <time>2026-05-06T13:35:00.105Z</time>
      </trkpt>
      <trkpt lat="51.7269" lon="6.46883">
        <ele>60.14736</ele>
        <time>2026-05-06T13:35:03.092Z</time>
      </trkpt>
      <trkpt lat="51.72702" lon="6.46886">
        <ele>60.087672</ele>
        <time>2026-05-06T13:35:06.105Z</time>
      </trkpt>
      <trkpt lat="51.72712" lon="6.46889">
        <ele>60.032145</ele>
        <time>2026-05-06T13:35:09.091Z</time>
      </trkpt>
      <trkpt lat="51.72723" lon="6.46893">
        <ele>59.976204</ele>
        <time>2026-05-06T13:35:12.111Z</time>
      </trkpt>
      <trkpt lat="51.72733" lon="6.46897">
        <ele>59.922751</ele>
        <time>2026-05-06T13:35:15.106Z</time>
      </trkpt>
      <trkpt lat="51.72744" lon="6.469">
        <ele>59.866959</ele>
        <time>2026-05-06T13:35:18.108Z</time>
      </trkpt>
      <trkpt lat="51.72754" lon="6.46902">
        <ele>59.812441</ele>
        <time>2026-05-06T13:35:21.107Z</time>
      </trkpt>
      <trkpt lat="51.72765" lon="6.46904">
        <ele>59.869132</ele>
        <time>2026-05-06T13:35:24.096Z</time>
      </trkpt>
      <trkpt lat="51.72777" lon="6.46907">
        <ele>59.964051</ele>
        <time>2026-05-06T13:35:27.093Z</time>
      </trkpt>
      <trkpt lat="51.72789" lon="6.46912">
        <ele>60.064041</ele>
        <time>2026-05-06T13:35:30.104Z</time>
      </trkpt>
      <trkpt lat="51.728" lon="6.46913">
        <ele>60.156298</ele>
        <time>2026-05-06T13:35:33.100Z</time>
      </trkpt>
      <trkpt lat="51.7281" lon="6.46912">
        <ele>60.236906</ele>
        <time>2026-05-06T13:35:36.095Z</time>
      </trkpt>
      <trkpt lat="51.7282" lon="6.4691">
        <ele>60.318151</ele>
        <time>2026-05-06T13:35:42.103Z</time>
      </trkpt>
      <trkpt lat="51.72832" lon="6.46908">
        <ele>60.409718</ele>
        <time>2026-05-06T13:35:47.105Z</time>
      </trkpt>
      <trkpt lat="51.72843" lon="6.46907">
        <ele>60.504476</ele>
        <time>2026-05-06T13:35:51.104Z</time>
      </trkpt>
      <trkpt lat="51.72853" lon="6.46907">
        <ele>60.582131</ele>
        <time>2026-05-06T13:35:54.099Z</time>
      </trkpt>
      <trkpt lat="51.72863" lon="6.46905">
        <ele>60.66014</ele>
        <time>2026-05-06T13:35:57.112Z</time>
      </trkpt>
      <trkpt lat="51.72872" lon="6.46904">
        <ele>60.732525</ele>
        <time>2026-05-06T13:36:00.098Z</time>
      </trkpt>
      <trkpt lat="51.72883" lon="6.46905">
        <ele>60.825454</ele>
        <time>2026-05-06T13:36:04.103Z</time>
      </trkpt>
      <trkpt lat="51.72893" lon="6.46907">
        <ele>60.898912</ele>
        <time>2026-05-06T13:36:08.106Z</time>
      </trkpt>
      <trkpt lat="51.72924" lon="6.46906">
        <ele>61.147891</ele>
        <time>2026-05-06T13:37:42.102Z</time>
      </trkpt>
      <trkpt lat="51.72933" lon="6.46906">
        <ele>61.223248</ele>
        <time>2026-05-06T13:37:45.105Z</time>
      </trkpt>
      <trkpt lat="51.72945" lon="6.46903">
        <ele>61.223161</ele>
        <time>2026-05-06T13:37:48.099Z</time>
      </trkpt>
      <trkpt lat="51.72957" lon="6.46902">
        <ele>61.200349</ele>
        <time>2026-05-06T13:37:51.092Z</time>
      </trkpt>
      <trkpt lat="51.72969" lon="6.46903">
        <ele>61.17641</ele>
        <time>2026-05-06T13:37:54.106Z</time>
      </trkpt>
      <trkpt lat="51.72981" lon="6.46902">
        <ele>61.153213</ele>
        <time>2026-05-06T13:37:57.094Z</time>
      </trkpt>
      <trkpt lat="51.72991" lon="6.46899">
        <ele>61.13327</ele>
        <time>2026-05-06T13:38:00.104Z</time>
      </trkpt>
      <trkpt lat="51.73" lon="6.46891">
        <ele>61.113558</ele>
        <time>2026-05-06T13:38:03.105Z</time>
      </trkpt>
      <trkpt lat="51.73009" lon="6.46878">
        <ele>61.090079</ele>
        <time>2026-05-06T13:38:06.094Z</time>
      </trkpt>
      <trkpt lat="51.73017" lon="6.46866">
        <ele>61.069557</ele>
        <time>2026-05-06T13:38:09.102Z</time>
      </trkpt>
      <trkpt lat="51.73026" lon="6.46863">
        <ele>61.052099</ele>
        <time>2026-05-06T13:38:13.094Z</time>
      </trkpt>
      <trkpt lat="51.73036" lon="6.4686">
        <ele>61.032801</ele>
        <time>2026-05-06T13:38:17.111Z</time>
      </trkpt>
      <trkpt lat="51.73044" lon="6.46853">
        <ele>61.013999</ele>
        <time>2026-05-06T13:38:20.107Z</time>
      </trkpt>
      <trkpt lat="51.73055" lon="6.46841">
        <ele>60.989632</ele>
        <time>2026-05-06T13:38:23.110Z</time>
      </trkpt>
      <trkpt lat="51.73064" lon="6.46828">
        <ele>60.965646</ele>
        <time>2026-05-06T13:38:26.101Z</time>
      </trkpt>
      <trkpt lat="51.73073" lon="6.46814">
        <ele>60.942026</ele>
        <time>2026-05-06T13:38:29.126Z</time>
      </trkpt>
      <trkpt lat="51.73082" lon="6.468">
        <ele>60.918135</ele>
        <time>2026-05-06T13:38:32.108Z</time>
      </trkpt>
      <trkpt lat="51.73091" lon="6.46786">
        <ele>60.89339</ele>
        <time>2026-05-06T13:38:35.102Z</time>
      </trkpt>
      <trkpt lat="51.731" lon="6.46773">
        <ele>60.861261</ele>
        <time>2026-05-06T13:38:38.101Z</time>
      </trkpt>
      <trkpt lat="51.73109" lon="6.4676">
        <ele>60.831171</ele>
        <time>2026-05-06T13:38:41.102Z</time>
      </trkpt>
      <trkpt lat="51.73117" lon="6.46747">
        <ele>60.79998</ele>
        <time>2026-05-06T13:38:44.102Z</time>
      </trkpt>
      <trkpt lat="51.73126" lon="6.46733">
        <ele>60.768901</ele>
        <time>2026-05-06T13:38:47.103Z</time>
      </trkpt>
      <trkpt lat="51.73136" lon="6.46719">
        <ele>60.734889</ele>
        <time>2026-05-06T13:38:50.098Z</time>
      </trkpt>
      <trkpt lat="51.73145" lon="6.46706">
        <ele>60.702518</ele>
        <time>2026-05-06T13:38:53.115Z</time>
      </trkpt>
      <trkpt lat="51.73154" lon="6.46692">
        <ele>60.671551</ele>
        <time>2026-05-06T13:38:56.104Z</time>
      </trkpt>
      <trkpt lat="51.73162" lon="6.46679">
        <ele>60.640319</ele>
        <time>2026-05-06T13:38:59.111Z</time>
      </trkpt>
      <trkpt lat="51.73172" lon="6.46665">
        <ele>60.607118</ele>
        <time>2026-05-06T13:39:02.113Z</time>
      </trkpt>
      <trkpt lat="51.73181" lon="6.4665">
        <ele>60.572129</ele>
        <time>2026-05-06T13:39:05.104Z</time>
      </trkpt>
      <trkpt lat="51.73188" lon="6.4664">
        <ele>60.54883</ele>
        <time>2026-05-06T13:39:07.103Z</time>
      </trkpt>
      <trkpt lat="51.73197" lon="6.46626">
        <ele>60.516337</ele>
        <time>2026-05-06T13:39:10.101Z</time>
      </trkpt>
      <trkpt lat="51.73206" lon="6.46613">
        <ele>60.485104</ele>
        <time>2026-05-06T13:39:13.094Z</time>
      </trkpt>
      <trkpt lat="51.73215" lon="6.466">
        <ele>60.453336</ele>
        <time>2026-05-06T13:39:16.113Z</time>
      </trkpt>
      <trkpt lat="51.73224" lon="6.46586">
        <ele>60.419022</ele>
        <time>2026-05-06T13:39:19.114Z</time>
      </trkpt>
      <trkpt lat="51.73233" lon="6.46573">
        <ele>60.37857</ele>
        <time>2026-05-06T13:39:22.117Z</time>
      </trkpt>
      <trkpt lat="51.73242" lon="6.4656">
        <ele>60.338078</ele>
        <time>2026-05-06T13:39:25.111Z</time>
      </trkpt>
      <trkpt lat="51.73251" lon="6.46546">
        <ele>60.296204</ele>
        <time>2026-05-06T13:39:28.108Z</time>
      </trkpt>
      <trkpt lat="51.7326" lon="6.46533">
        <ele>60.256201</ele>
        <time>2026-05-06T13:39:31.111Z</time>
      </trkpt>
      <trkpt lat="51.73268" lon="6.4652">
        <ele>60.215074</ele>
        <time>2026-05-06T13:39:34.106Z</time>
      </trkpt>
      <trkpt lat="51.73278" lon="6.46507">
        <ele>60.174009</ele>
        <time>2026-05-06T13:39:37.108Z</time>
      </trkpt>
      <trkpt lat="51.73286" lon="6.46494">
        <ele>60.133805</ele>
        <time>2026-05-06T13:39:40.101Z</time>
      </trkpt>
      <trkpt lat="51.73295" lon="6.46481">
        <ele>60.094837</ele>
        <time>2026-05-06T13:39:43.109Z</time>
      </trkpt>
      <trkpt lat="51.73304" lon="6.46469">
        <ele>60.055784</ele>
        <time>2026-05-06T13:39:46.110Z</time>
      </trkpt>
      <trkpt lat="51.73312" lon="6.46456">
        <ele>60.016071</ele>
        <time>2026-05-06T13:39:49.107Z</time>
      </trkpt>
      <trkpt lat="51.7332" lon="6.46443">
        <ele>59.97786</ele>
        <time>2026-05-06T13:39:52.118Z</time>
      </trkpt>
      <trkpt lat="51.73329" lon="6.46431">
        <ele>59.937718</ele>
        <time>2026-05-06T13:39:55.112Z</time>
      </trkpt>
      <trkpt lat="51.73338" lon="6.46417">
        <ele>59.895627</ele>
        <time>2026-05-06T13:39:58.101Z</time>
      </trkpt>
      <trkpt lat="51.73347" lon="6.46403">
        <ele>59.85407</ele>
        <time>2026-05-06T13:40:01.127Z</time>
      </trkpt>
      <trkpt lat="51.73356" lon="6.4639">
        <ele>59.818755</ele>
        <time>2026-05-06T13:40:04.103Z</time>
      </trkpt>
      <trkpt lat="51.73365" lon="6.46376">
        <ele>59.80823</ele>
        <time>2026-05-06T13:40:07.104Z</time>
      </trkpt>
      <trkpt lat="51.73374" lon="6.46363">
        <ele>59.79766</ele>
        <time>2026-05-06T13:40:10.105Z</time>
      </trkpt>
      <trkpt lat="51.73383" lon="6.4635">
        <ele>59.787209</ele>
        <time>2026-05-06T13:40:13.105Z</time>
      </trkpt>
      <trkpt lat="51.73392" lon="6.46336">
        <ele>59.776611</ele>
        <time>2026-05-06T13:40:16.115Z</time>
      </trkpt>
      <trkpt lat="51.734" lon="6.46323">
        <ele>59.766197</ele>
        <time>2026-05-06T13:40:19.107Z</time>
      </trkpt>
      <trkpt lat="51.73409" lon="6.4631">
        <ele>59.755755</ele>
        <time>2026-05-06T13:40:22.100Z</time>
      </trkpt>
      <trkpt lat="51.73418" lon="6.46297">
        <ele>59.745514</ele>
        <time>2026-05-06T13:40:25.106Z</time>
      </trkpt>
      <trkpt lat="51.73427" lon="6.46284">
        <ele>59.735273</ele>
        <time>2026-05-06T13:40:28.106Z</time>
      </trkpt>
      <trkpt lat="51.73435" lon="6.4627">
        <ele>59.724774</ele>
        <time>2026-05-06T13:40:31.106Z</time>
      </trkpt>
      <trkpt lat="51.73444" lon="6.46257">
        <ele>59.714597</ele>
        <time>2026-05-06T13:40:34.108Z</time>
      </trkpt>
      <trkpt lat="51.73452" lon="6.46244">
        <ele>59.704596</ele>
        <time>2026-05-06T13:40:37.102Z</time>
      </trkpt>
      <trkpt lat="51.7346" lon="6.46231">
        <ele>59.694533</ele>
        <time>2026-05-06T13:40:40.114Z</time>
      </trkpt>
      <trkpt lat="51.73469" lon="6.46219">
        <ele>59.684481</ele>
        <time>2026-05-06T13:40:43.100Z</time>
      </trkpt>
      <trkpt lat="51.73478" lon="6.46207">
        <ele>59.674425</ele>
        <time>2026-05-06T13:40:46.102Z</time>
      </trkpt>
      <trkpt lat="51.73487" lon="6.46194">
        <ele>59.669894</ele>
        <time>2026-05-06T13:40:49.105Z</time>
      </trkpt>
      <trkpt lat="51.73496" lon="6.46179">
        <ele>59.710793</ele>
        <time>2026-05-06T13:40:52.097Z</time>
      </trkpt>
      <trkpt lat="51.73505" lon="6.46166">
        <ele>59.749782</ele>
        <time>2026-05-06T13:40:55.093Z</time>
      </trkpt>
      <trkpt lat="51.73513" lon="6.46153">
        <ele>59.787257</ele>
        <time>2026-05-06T13:40:58.095Z</time>
      </trkpt>
      <trkpt lat="51.73522" lon="6.46142">
        <ele>59.823256</ele>
        <time>2026-05-06T13:41:01.106Z</time>
      </trkpt>
      <trkpt lat="51.73529" lon="6.46129">
        <ele>59.858948</ele>
        <time>2026-05-06T13:41:04.119Z</time>
      </trkpt>
      <trkpt lat="51.73538" lon="6.46118">
        <ele>59.894584</ele>
        <time>2026-05-06T13:41:07.112Z</time>
      </trkpt>
      <trkpt lat="51.73546" lon="6.46106">
        <ele>59.930446</ele>
        <time>2026-05-06T13:41:10.107Z</time>
      </trkpt>
      <trkpt lat="51.73555" lon="6.46093">
        <ele>59.970362</ele>
        <time>2026-05-06T13:41:13.119Z</time>
      </trkpt>
      <trkpt lat="51.73563" lon="6.4608">
        <ele>60.008677</ele>
        <time>2026-05-06T13:41:16.099Z</time>
      </trkpt>
      <trkpt lat="51.73572" lon="6.46067">
        <ele>60.046155</ele>
        <time>2026-05-06T13:41:19.110Z</time>
      </trkpt>
      <trkpt lat="51.7358" lon="6.46054">
        <ele>60.084188</ele>
        <time>2026-05-06T13:41:22.103Z</time>
      </trkpt>
      <trkpt lat="51.73588" lon="6.46041">
        <ele>60.120458</ele>
        <time>2026-05-06T13:41:25.102Z</time>
      </trkpt>
      <trkpt lat="51.73596" lon="6.46029">
        <ele>60.156853</ele>
        <time>2026-05-06T13:41:28.107Z</time>
      </trkpt>
      <trkpt lat="51.73604" lon="6.46017">
        <ele>60.193028</ele>
        <time>2026-05-06T13:41:31.108Z</time>
      </trkpt>
      <trkpt lat="51.73613" lon="6.46006">
        <ele>60.229311</ele>
        <time>2026-05-06T13:41:34.117Z</time>
      </trkpt>
      <trkpt lat="51.73622" lon="6.45993">
        <ele>60.276742</ele>
        <time>2026-05-06T13:41:37.107Z</time>
      </trkpt>
      <trkpt lat="51.73631" lon="6.45979">
        <ele>60.343897</ele>
        <time>2026-05-06T13:41:40.101Z</time>
      </trkpt>
      <trkpt lat="51.7364" lon="6.45965">
        <ele>60.40951</ele>
        <time>2026-05-06T13:41:43.092Z</time>
      </trkpt>
      <trkpt lat="51.73649" lon="6.45953">
        <ele>60.471434</ele>
        <time>2026-05-06T13:41:46.112Z</time>
      </trkpt>
      <trkpt lat="51.73657" lon="6.45939">
        <ele>60.532644</ele>
        <time>2026-05-06T13:41:49.101Z</time>
      </trkpt>
      <trkpt lat="51.73666" lon="6.45927">
        <ele>60.591883</ele>
        <time>2026-05-06T13:41:52.101Z</time>
      </trkpt>
      <trkpt lat="51.73674" lon="6.45916">
        <ele>60.649511</ele>
        <time>2026-05-06T13:41:55.092Z</time>
      </trkpt>
      <trkpt lat="51.73681" lon="6.45904">
        <ele>60.704907</ele>
        <time>2026-05-06T13:41:58.098Z</time>
      </trkpt>
      <trkpt lat="51.73689" lon="6.45891">
        <ele>60.761657</ele>
        <time>2026-05-06T13:42:01.121Z</time>
      </trkpt>
      <trkpt lat="51.73698" lon="6.45879">
        <ele>60.820764</ele>
        <time>2026-05-06T13:42:04.104Z</time>
      </trkpt>
      <trkpt lat="51.73706" lon="6.45866">
        <ele>60.882794</ele>
        <time>2026-05-06T13:42:07.093Z</time>
      </trkpt>
      <trkpt lat="51.73714" lon="6.45853">
        <ele>60.943774</ele>
        <time>2026-05-06T13:42:10.099Z</time>
      </trkpt>
      <trkpt lat="51.73722" lon="6.45841">
        <ele>61.001507</ele>
        <time>2026-05-06T13:42:13.095Z</time>
      </trkpt>
      <trkpt lat="51.7373" lon="6.45827">
        <ele>61.061286</ele>
        <time>2026-05-06T13:42:16.103Z</time>
      </trkpt>
      <trkpt lat="51.73739" lon="6.45815">
        <ele>61.121928</ele>
        <time>2026-05-06T13:42:19.105Z</time>
      </trkpt>
      <trkpt lat="51.73747" lon="6.45803">
        <ele>61.181767</ele>
        <time>2026-05-06T13:42:22.102Z</time>
      </trkpt>
      <trkpt lat="51.73756" lon="6.4579">
        <ele>61.189763</ele>
        <time>2026-05-06T13:42:25.099Z</time>
      </trkpt>
      <trkpt lat="51.73764" lon="6.45778">
        <ele>61.180434</ele>
        <time>2026-05-06T13:42:28.098Z</time>
      </trkpt>
      <trkpt lat="51.73772" lon="6.45766">
        <ele>61.171439</ele>
        <time>2026-05-06T13:42:31.102Z</time>
      </trkpt>
      <trkpt lat="51.73781" lon="6.45753">
        <ele>61.161998</ele>
        <time>2026-05-06T13:42:34.119Z</time>
      </trkpt>
      <trkpt lat="51.73788" lon="6.45741">
        <ele>61.153268</ele>
        <time>2026-05-06T13:42:37.110Z</time>
      </trkpt>
      <trkpt lat="51.73796" lon="6.45729">
        <ele>61.144185</ele>
        <time>2026-05-06T13:42:40.092Z</time>
      </trkpt>
      <trkpt lat="51.73804" lon="6.45716">
        <ele>61.134939</ele>
        <time>2026-05-06T13:42:43.098Z</time>
      </trkpt>
      <trkpt lat="51.73813" lon="6.45703">
        <ele>61.125276</ele>
        <time>2026-05-06T13:42:46.101Z</time>
      </trkpt>
      <trkpt lat="51.73822" lon="6.45689">
        <ele>61.115244</ele>
        <time>2026-05-06T13:42:49.103Z</time>
      </trkpt>
      <trkpt lat="51.73831" lon="6.45677">
        <ele>61.105397</ele>
        <time>2026-05-06T13:42:52.108Z</time>
      </trkpt>
      <trkpt lat="51.73841" lon="6.45662">
        <ele>61.094815</ele>
        <time>2026-05-06T13:42:55.100Z</time>
      </trkpt>
      <trkpt lat="51.7385" lon="6.45648">
        <ele>61.084065</ele>
        <time>2026-05-06T13:42:58.109Z</time>
      </trkpt>
      <trkpt lat="51.7386" lon="6.45634">
        <ele>61.073929</ele>
        <time>2026-05-06T13:43:01.112Z</time>
      </trkpt>
      <trkpt lat="51.73869" lon="6.45621">
        <ele>61.063907</ele>
        <time>2026-05-06T13:43:04.106Z</time>
      </trkpt>
      <trkpt lat="51.73877" lon="6.45607">
        <ele>61.053887</ele>
        <time>2026-05-06T13:43:07.104Z</time>
      </trkpt>
      <trkpt lat="51.73886" lon="6.45594">
        <ele>61.043504</ele>
        <time>2026-05-06T13:43:10.099Z</time>
      </trkpt>
      <trkpt lat="51.73895" lon="6.45581">
        <ele>61.032596</ele>
        <time>2026-05-06T13:43:13.105Z</time>
      </trkpt>
      <trkpt lat="51.73903" lon="6.45568">
        <ele>61.021785</ele>
        <time>2026-05-06T13:43:16.104Z</time>
      </trkpt>
      <trkpt lat="51.73912" lon="6.45555">
        <ele>61.011175</ele>
        <time>2026-05-06T13:43:19.128Z</time>
      </trkpt>
      <trkpt lat="51.73921" lon="6.45542">
        <ele>61.00019</ele>
        <time>2026-05-06T13:43:22.109Z</time>
      </trkpt>
      <trkpt lat="51.73929" lon="6.4553">
        <ele>60.98993</ele>
        <time>2026-05-06T13:43:25.108Z</time>
      </trkpt>
      <trkpt lat="51.73937" lon="6.45518">
        <ele>60.979728</ele>
        <time>2026-05-06T13:43:28.101Z</time>
      </trkpt>
      <trkpt lat="51.73945" lon="6.45505">
        <ele>60.969185</ele>
        <time>2026-05-06T13:43:31.101Z</time>
      </trkpt>
      <trkpt lat="51.73953" lon="6.45493">
        <ele>60.958614</ele>
        <time>2026-05-06T13:43:34.102Z</time>
      </trkpt>
      <trkpt lat="51.73962" lon="6.4548">
        <ele>60.94792</ele>
        <time>2026-05-06T13:43:37.108Z</time>
      </trkpt>
      <trkpt lat="51.73971" lon="6.45467">
        <ele>60.937148</ele>
        <time>2026-05-06T13:43:40.106Z</time>
      </trkpt>
      <trkpt lat="51.73979" lon="6.45454">
        <ele>60.926125</ele>
        <time>2026-05-06T13:43:43.107Z</time>
      </trkpt>
      <trkpt lat="51.73988" lon="6.45441">
        <ele>60.915353</ele>
        <time>2026-05-06T13:43:46.105Z</time>
      </trkpt>
      <trkpt lat="51.73997" lon="6.45428">
        <ele>60.904358</ele>
        <time>2026-05-06T13:43:49.111Z</time>
      </trkpt>
      <trkpt lat="51.74005" lon="6.45416">
        <ele>60.893808</ele>
        <time>2026-05-06T13:43:52.094Z</time>
      </trkpt>
      <trkpt lat="51.74014" lon="6.45403">
        <ele>60.887747</ele>
        <time>2026-05-06T13:43:55.108Z</time>
      </trkpt>
      <trkpt lat="51.74022" lon="6.4539">
        <ele>60.920997</ele>
        <time>2026-05-06T13:43:58.105Z</time>
      </trkpt>
      <trkpt lat="51.74031" lon="6.45378">
        <ele>60.953629</ele>
        <time>2026-05-06T13:44:01.109Z</time>
      </trkpt>
      <trkpt lat="51.7404" lon="6.45366">
        <ele>60.986705</ele>
        <time>2026-05-06T13:44:04.130Z</time>
      </trkpt>
      <trkpt lat="51.74049" lon="6.45354">
        <ele>61.020112</ele>
        <time>2026-05-06T13:44:07.109Z</time>
      </trkpt>
      <trkpt lat="51.74058" lon="6.45342">
        <ele>61.053961</ele>
        <time>2026-05-06T13:44:10.097Z</time>
      </trkpt>
      <trkpt lat="51.74068" lon="6.45329">
        <ele>61.0888</ele>
        <time>2026-05-06T13:44:13.101Z</time>
      </trkpt>
      <trkpt lat="51.74077" lon="6.45317">
        <ele>61.122644</ele>
        <time>2026-05-06T13:44:16.113Z</time>
      </trkpt>
      <trkpt lat="51.74086" lon="6.45305">
        <ele>61.155617</ele>
        <time>2026-05-06T13:44:19.106Z</time>
      </trkpt>
      <trkpt lat="51.74094" lon="6.45294">
        <ele>61.186925</ele>
        <time>2026-05-06T13:44:22.103Z</time>
      </trkpt>
      <trkpt lat="51.74104" lon="6.45284">
        <ele>61.218066</ele>
        <time>2026-05-06T13:44:25.099Z</time>
      </trkpt>
      <trkpt lat="51.74112" lon="6.45275">
        <ele>61.246963</ele>
        <time>2026-05-06T13:44:28.095Z</time>
      </trkpt>
      <trkpt lat="51.74121" lon="6.45266">
        <ele>61.27572</ele>
        <time>2026-05-06T13:44:31.096Z</time>
      </trkpt>
      <trkpt lat="51.74129" lon="6.45258">
        <ele>61.303234</ele>
        <time>2026-05-06T13:44:34.116Z</time>
      </trkpt>
      <trkpt lat="51.74139" lon="6.45248">
        <ele>61.336798</ele>
        <time>2026-05-06T13:44:38.104Z</time>
      </trkpt>
      <trkpt lat="51.74147" lon="6.45239">
        <ele>61.364692</ele>
        <time>2026-05-06T13:44:41.110Z</time>
      </trkpt>
      <trkpt lat="51.74157" lon="6.4523">
        <ele>61.395306</ele>
        <time>2026-05-06T13:44:44.107Z</time>
      </trkpt>
      <trkpt lat="51.74167" lon="6.45221">
        <ele>61.381429</ele>
        <time>2026-05-06T13:44:47.096Z</time>
      </trkpt>
      <trkpt lat="51.74177" lon="6.4521">
        <ele>61.365973</ele>
        <time>2026-05-06T13:44:50.108Z</time>
      </trkpt>
      <trkpt lat="51.74187" lon="6.452">
        <ele>61.351881</ele>
        <time>2026-05-06T13:44:53.102Z</time>
      </trkpt>
      <trkpt lat="51.74198" lon="6.4519">
        <ele>61.337352</ele>
        <time>2026-05-06T13:44:56.116Z</time>
      </trkpt>
      <trkpt lat="51.74207" lon="6.45182">
        <ele>61.324292</ele>
        <time>2026-05-06T13:44:59.104Z</time>
      </trkpt>
      <trkpt lat="51.74216" lon="6.45173">
        <ele>61.311353</ele>
        <time>2026-05-06T13:45:02.112Z</time>
      </trkpt>
      <trkpt lat="51.74225" lon="6.45165">
        <ele>61.298966</ele>
        <time>2026-05-06T13:45:05.107Z</time>
      </trkpt>
      <trkpt lat="51.74236" lon="6.45156">
        <ele>61.28502</ele>
        <time>2026-05-06T13:45:08.093Z</time>
      </trkpt>
      <trkpt lat="51.74246" lon="6.45147">
        <ele>61.269975</ele>
        <time>2026-05-06T13:45:11.114Z</time>
      </trkpt>
      <trkpt lat="51.74257" lon="6.45137">
        <ele>61.255072</ele>
        <time>2026-05-06T13:45:14.100Z</time>
      </trkpt>
      <trkpt lat="51.74268" lon="6.45127">
        <ele>61.23949</ele>
        <time>2026-05-06T13:45:17.104Z</time>
      </trkpt>
      <trkpt lat="51.7428" lon="6.45118">
        <ele>61.224117</ele>
        <time>2026-05-06T13:45:20.097Z</time>
      </trkpt>
      <trkpt lat="51.74292" lon="6.45108">
        <ele>61.208244</ele>
        <time>2026-05-06T13:45:23.113Z</time>
      </trkpt>
      <trkpt lat="51.743" lon="6.45102">
        <ele>61.197309</ele>
        <time>2026-05-06T13:45:25.110Z</time>
      </trkpt>
      <trkpt lat="51.7431" lon="6.45092">
        <ele>61.182759</ele>
        <time>2026-05-06T13:45:28.108Z</time>
      </trkpt>
      <trkpt lat="51.74321" lon="6.45083">
        <ele>61.131191</ele>
        <time>2026-05-06T13:45:31.110Z</time>
      </trkpt>
      <trkpt lat="51.74329" lon="6.45076">
        <ele>61.081406</ele>
        <time>2026-05-06T13:45:33.092Z</time>
      </trkpt>
      <trkpt lat="51.74341" lon="6.45065">
        <ele>61.007208</ele>
        <time>2026-05-06T13:45:36.101Z</time>
      </trkpt>
      <trkpt lat="51.74349" lon="6.45058">
        <ele>60.95805</ele>
        <time>2026-05-06T13:45:38.112Z</time>
      </trkpt>
      <trkpt lat="51.74356" lon="6.4505">
        <ele>60.908412</ele>
        <time>2026-05-06T13:45:40.103Z</time>
      </trkpt>
      <trkpt lat="51.74368" lon="6.45041">
        <ele>60.83822</ele>
        <time>2026-05-06T13:45:43.103Z</time>
      </trkpt>
      <trkpt lat="51.74379" lon="6.4503">
        <ele>60.76946</ele>
        <time>2026-05-06T13:45:46.106Z</time>
      </trkpt>
      <trkpt lat="51.74389" lon="6.45021">
        <ele>60.703576</ele>
        <time>2026-05-06T13:45:49.102Z</time>
      </trkpt>
      <trkpt lat="51.744" lon="6.45011">
        <ele>60.63531</ele>
        <time>2026-05-06T13:45:52.108Z</time>
      </trkpt>
      <trkpt lat="51.74411" lon="6.45002">
        <ele>60.567538</ele>
        <time>2026-05-06T13:45:55.111Z</time>
      </trkpt>
      <trkpt lat="51.74421" lon="6.44994">
        <ele>60.505985</ele>
        <time>2026-05-06T13:45:58.102Z</time>
      </trkpt>
      <trkpt lat="51.74432" lon="6.44985">
        <ele>60.439002</ele>
        <time>2026-05-06T13:46:01.113Z</time>
      </trkpt>
      <trkpt lat="51.74442" lon="6.44976">
        <ele>60.375884</ele>
        <time>2026-05-06T13:46:04.103Z</time>
      </trkpt>
      <trkpt lat="51.74454" lon="6.44966">
        <ele>60.304886</ele>
        <time>2026-05-06T13:46:07.098Z</time>
      </trkpt>
      <trkpt lat="51.74461" lon="6.44958">
        <ele>60.254398</ele>
        <time>2026-05-06T13:46:09.106Z</time>
      </trkpt>
      <trkpt lat="51.7447" lon="6.4495">
        <ele>60.202623</ele>
        <time>2026-05-06T13:46:11.107Z</time>
      </trkpt>
      <trkpt lat="51.74481" lon="6.44939">
        <ele>60.289247</ele>
        <time>2026-05-06T13:46:14.108Z</time>
      </trkpt>
      <trkpt lat="51.74492" lon="6.44928">
        <ele>60.39374</ele>
        <time>2026-05-06T13:46:17.106Z</time>
      </trkpt>
      <trkpt lat="51.74503" lon="6.44918">
        <ele>60.49913</ele>
        <time>2026-05-06T13:46:20.122Z</time>
      </trkpt>
      <trkpt lat="51.74515" lon="6.44908">
        <ele>60.605676</ele>
        <time>2026-05-06T13:46:23.097Z</time>
      </trkpt>
      <trkpt lat="51.74526" lon="6.44898">
        <ele>60.712732</ele>
        <time>2026-05-06T13:46:26.104Z</time>
      </trkpt>
      <trkpt lat="51.74537" lon="6.44887">
        <ele>60.817163</ele>
        <time>2026-05-06T13:46:29.101Z</time>
      </trkpt>
      <trkpt lat="51.74549" lon="6.44877">
        <ele>60.92587</ele>
        <time>2026-05-06T13:46:32.118Z</time>
      </trkpt>
      <trkpt lat="51.7456" lon="6.44866">
        <ele>61.03525</ele>
        <time>2026-05-06T13:46:35.098Z</time>
      </trkpt>
      <trkpt lat="51.74571" lon="6.44854">
        <ele>61.142556</ele>
        <time>2026-05-06T13:46:38.096Z</time>
      </trkpt>
      <trkpt lat="51.74583" lon="6.44845">
        <ele>61.246712</ele>
        <time>2026-05-06T13:46:41.107Z</time>
      </trkpt>
      <trkpt lat="51.74594" lon="6.44836">
        <ele>61.349493</ele>
        <time>2026-05-06T13:46:44.113Z</time>
      </trkpt>
      <trkpt lat="51.74605" lon="6.44826">
        <ele>61.453423</ele>
        <time>2026-05-06T13:46:47.118Z</time>
      </trkpt>
      <trkpt lat="51.74616" lon="6.44816">
        <ele>61.556862</ele>
        <time>2026-05-06T13:46:50.113Z</time>
      </trkpt>
      <trkpt lat="51.74628" lon="6.44806">
        <ele>61.661129</ele>
        <time>2026-05-06T13:46:53.112Z</time>
      </trkpt>
      <trkpt lat="51.74639" lon="6.44797">
        <ele>61.656289</ele>
        <time>2026-05-06T13:46:56.101Z</time>
      </trkpt>
      <trkpt lat="51.74648" lon="6.44789">
        <ele>61.652151</ele>
        <time>2026-05-06T13:46:59.104Z</time>
      </trkpt>
      <trkpt lat="51.74658" lon="6.4478">
        <ele>61.647922</ele>
        <time>2026-05-06T13:47:02.099Z</time>
      </trkpt>
      <trkpt lat="51.74667" lon="6.44772">
        <ele>61.643807</ele>
        <time>2026-05-06T13:47:05.101Z</time>
      </trkpt>
      <trkpt lat="51.74677" lon="6.44763">
        <ele>61.639438</ele>
        <time>2026-05-06T13:47:08.102Z</time>
      </trkpt>
      <trkpt lat="51.74688" lon="6.44752">
        <ele>61.634468</ele>
        <time>2026-05-06T13:47:11.105Z</time>
      </trkpt>
      <trkpt lat="51.74699" lon="6.44741">
        <ele>61.629599</ele>
        <time>2026-05-06T13:47:14.104Z</time>
      </trkpt>
      <trkpt lat="51.7471" lon="6.44732">
        <ele>61.624565</ele>
        <time>2026-05-06T13:47:17.104Z</time>
      </trkpt>
      <trkpt lat="51.74722" lon="6.44722">
        <ele>61.619429</ele>
        <time>2026-05-06T13:47:20.109Z</time>
      </trkpt>
      <trkpt lat="51.74733" lon="6.44711">
        <ele>61.614494</ele>
        <time>2026-05-06T13:47:23.107Z</time>
      </trkpt>
      <trkpt lat="51.74744" lon="6.44701">
        <ele>61.609686</ele>
        <time>2026-05-06T13:47:26.102Z</time>
      </trkpt>
      <trkpt lat="51.74755" lon="6.44691">
        <ele>61.604879</ele>
        <time>2026-05-06T13:47:29.111Z</time>
      </trkpt>
      <trkpt lat="51.74765" lon="6.44682">
        <ele>61.600311</ele>
        <time>2026-05-06T13:47:32.103Z</time>
      </trkpt>
      <trkpt lat="51.74776" lon="6.44673">
        <ele>61.595594</ele>
        <time>2026-05-06T13:47:35.103Z</time>
      </trkpt>
      <trkpt lat="51.74786" lon="6.44663">
        <ele>61.58069</ele>
        <time>2026-05-06T13:47:38.094Z</time>
      </trkpt>
      <trkpt lat="51.74796" lon="6.44655">
        <ele>61.514045</ele>
        <time>2026-05-06T13:47:41.108Z</time>
      </trkpt>
      <trkpt lat="51.74803" lon="6.44645">
        <ele>61.450885</ele>
        <time>2026-05-06T13:47:44.101Z</time>
      </trkpt>
      <trkpt lat="51.74807" lon="6.44628">
        <ele>61.381779</ele>
        <time>2026-05-06T13:47:47.097Z</time>
      </trkpt>
      <trkpt lat="51.74812" lon="6.44609">
        <ele>61.303454</ele>
        <time>2026-05-06T13:47:50.099Z</time>
      </trkpt>
      <trkpt lat="51.74816" lon="6.4459">
        <ele>61.22543</ele>
        <time>2026-05-06T13:47:53.106Z</time>
      </trkpt>
      <trkpt lat="51.7482" lon="6.44572">
        <ele>61.150722</ele>
        <time>2026-05-06T13:47:56.116Z</time>
      </trkpt>
      <trkpt lat="51.74823" lon="6.44553">
        <ele>61.07639</ele>
        <time>2026-05-06T13:47:59.105Z</time>
      </trkpt>
      <trkpt lat="51.74826" lon="6.44536">
        <ele>61.005894</ele>
        <time>2026-05-06T13:48:02.111Z</time>
      </trkpt>
      <trkpt lat="51.74832" lon="6.44522">
        <ele>60.94269</ele>
        <time>2026-05-06T13:48:05.094Z</time>
      </trkpt>
      <trkpt lat="51.74843" lon="6.44519">
        <ele>60.874029</ele>
        <time>2026-05-06T13:48:08.114Z</time>
      </trkpt>
      <trkpt lat="51.74854" lon="6.4452">
        <ele>60.804301</ele>
        <time>2026-05-06T13:48:11.101Z</time>
      </trkpt>
      <trkpt lat="51.74865" lon="6.44521">
        <ele>60.735761</ele>
        <time>2026-05-06T13:48:14.095Z</time>
      </trkpt>
      <trkpt lat="51.74876" lon="6.44519">
        <ele>60.665312</ele>
        <time>2026-05-06T13:48:17.104Z</time>
      </trkpt>
      <trkpt lat="51.74887" lon="6.4452">
        <ele>60.600608</ele>
        <time>2026-05-06T13:48:20.100Z</time>
      </trkpt>
      <trkpt lat="51.74897" lon="6.44521">
        <ele>60.533064</ele>
        <time>2026-05-06T13:48:23.114Z</time>
      </trkpt>
      <trkpt lat="51.74908" lon="6.44522">
        <ele>60.498888</ele>
        <time>2026-05-06T13:48:26.112Z</time>
      </trkpt>
      <trkpt lat="51.74919" lon="6.44522">
        <ele>60.717967</ele>
        <time>2026-05-06T13:48:29.111Z</time>
      </trkpt>
      <trkpt lat="51.7493" lon="6.44521">
        <ele>60.933152</ele>
        <time>2026-05-06T13:48:32.110Z</time>
      </trkpt>
      <trkpt lat="51.74942" lon="6.4452">
        <ele>61.160762</ele>
        <time>2026-05-06T13:48:35.103Z</time>
      </trkpt>
      <trkpt lat="51.74952" lon="6.44519">
        <ele>61.370014</ele>
        <time>2026-05-06T13:48:38.116Z</time>
      </trkpt>
      <trkpt lat="51.74962" lon="6.4452">
        <ele>61.571354</ele>
        <time>2026-05-06T13:48:41.096Z</time>
      </trkpt>
      <trkpt lat="51.74972" lon="6.4452">
        <ele>61.768529</ele>
        <time>2026-05-06T13:48:44.113Z</time>
      </trkpt>
      <trkpt lat="51.74983" lon="6.4452">
        <ele>61.985673</ele>
        <time>2026-05-06T13:48:47.098Z</time>
      </trkpt>
      <trkpt lat="51.74995" lon="6.44519">
        <ele>62.218707</ele>
        <time>2026-05-06T13:48:50.108Z</time>
      </trkpt>
      <trkpt lat="51.75006" lon="6.44518">
        <ele>62.440121</ele>
        <time>2026-05-06T13:48:53.104Z</time>
      </trkpt>
      <trkpt lat="51.75017" lon="6.44516">
        <ele>62.665655</ele>
        <time>2026-05-06T13:48:56.123Z</time>
      </trkpt>
      <trkpt lat="51.75028" lon="6.44513">
        <ele>62.89766</ele>
        <time>2026-05-06T13:48:59.103Z</time>
      </trkpt>
      <trkpt lat="51.75039" lon="6.44508">
        <ele>63.122998</ele>
        <time>2026-05-06T13:49:02.108Z</time>
      </trkpt>
      <trkpt lat="51.7505" lon="6.44504">
        <ele>63.34756</ele>
        <time>2026-05-06T13:49:05.102Z</time>
      </trkpt>
      <trkpt lat="51.75061" lon="6.44501">
        <ele>63.571911</ele>
        <time>2026-05-06T13:49:08.133Z</time>
      </trkpt>
      <trkpt lat="51.75072" lon="6.44497">
        <ele>63.787056</ele>
        <time>2026-05-06T13:49:11.113Z</time>
      </trkpt>
      <trkpt lat="51.75082" lon="6.44493">
        <ele>63.994482</ele>
        <time>2026-05-06T13:49:14.096Z</time>
      </trkpt>
      <trkpt lat="51.75092" lon="6.4449">
        <ele>63.972159</ele>
        <time>2026-05-06T13:49:17.101Z</time>
      </trkpt>
      <trkpt lat="51.75102" lon="6.44486">
        <ele>63.853074</ele>
        <time>2026-05-06T13:49:20.108Z</time>
      </trkpt>
      <trkpt lat="51.75113" lon="6.44481">
        <ele>63.729995</ele>
        <time>2026-05-06T13:49:23.111Z</time>
      </trkpt>
      <trkpt lat="51.75123" lon="6.44476">
        <ele>63.608586</ele>
        <time>2026-05-06T13:49:26.105Z</time>
      </trkpt>
      <trkpt lat="51.75134" lon="6.44471">
        <ele>63.479261</ele>
        <time>2026-05-06T13:49:29.094Z</time>
      </trkpt>
      <trkpt lat="51.75143" lon="6.44468">
        <ele>63.371653</ele>
        <time>2026-05-06T13:49:31.102Z</time>
      </trkpt>
      <trkpt lat="51.75156" lon="6.44463">
        <ele>63.224465</ele>
        <time>2026-05-06T13:49:34.104Z</time>
      </trkpt>
      <trkpt lat="51.75168" lon="6.44459">
        <ele>63.083033</ele>
        <time>2026-05-06T13:49:37.105Z</time>
      </trkpt>
      <trkpt lat="51.75179" lon="6.44454">
        <ele>62.953582</ele>
        <time>2026-05-06T13:49:40.121Z</time>
      </trkpt>
      <trkpt lat="51.75191" lon="6.44448">
        <ele>62.811074</ele>
        <time>2026-05-06T13:49:43.104Z</time>
      </trkpt>
      <trkpt lat="51.75203" lon="6.44442">
        <ele>62.670958</ele>
        <time>2026-05-06T13:49:46.105Z</time>
      </trkpt>
      <trkpt lat="51.75213" lon="6.44434">
        <ele>62.540689</ele>
        <time>2026-05-06T13:49:49.106Z</time>
      </trkpt>
      <trkpt lat="51.75223" lon="6.44426">
        <ele>62.416459</ele>
        <time>2026-05-06T13:49:52.098Z</time>
      </trkpt>
      <trkpt lat="51.75232" lon="6.44419">
        <ele>62.303687</ele>
        <time>2026-05-06T13:49:55.101Z</time>
      </trkpt>
      <trkpt lat="51.75241" lon="6.4441">
        <ele>62.181347</ele>
        <time>2026-05-06T13:49:59.101Z</time>
      </trkpt>
      <trkpt lat="51.75249" lon="6.444">
        <ele>62.065558</ele>
        <time>2026-05-06T13:50:04.104Z</time>
      </trkpt>
      <trkpt lat="51.75256" lon="6.44388">
        <ele>62.004088</ele>
        <time>2026-05-06T13:50:08.115Z</time>
      </trkpt>
      <trkpt lat="51.75263" lon="6.44379">
        <ele>61.990923</ele>
        <time>2026-05-06T13:50:11.098Z</time>
      </trkpt>
      <trkpt lat="51.75274" lon="6.44371">
        <ele>61.974143</ele>
        <time>2026-05-06T13:50:15.095Z</time>
      </trkpt>
      <trkpt lat="51.75281" lon="6.44363">
        <ele>61.961215</ele>
        <time>2026-05-06T13:50:18.098Z</time>
      </trkpt>
      <trkpt lat="51.75291" lon="6.44355">
        <ele>61.94595</ele>
        <time>2026-05-06T13:50:22.101Z</time>
      </trkpt>
      <trkpt lat="51.75299" lon="6.44348">
        <ele>61.932567</ele>
        <time>2026-05-06T13:50:26.111Z</time>
      </trkpt>
      <trkpt lat="51.75308" lon="6.4434">
        <ele>61.918436</ele>
        <time>2026-05-06T13:50:30.105Z</time>
      </trkpt>
      <trkpt lat="51.75317" lon="6.44332">
        <ele>61.903382</ele>
        <time>2026-05-06T13:50:35.102Z</time>
      </trkpt>
      <trkpt lat="51.75326" lon="6.44323">
        <ele>61.88817</ele>
        <time>2026-05-06T13:50:40.113Z</time>
      </trkpt>
      <trkpt lat="51.75335" lon="6.44316">
        <ele>61.873278</ele>
        <time>2026-05-06T13:50:46.094Z</time>
      </trkpt>
      <trkpt lat="51.75343" lon="6.44307">
        <ele>61.859896</ele>
        <time>2026-05-06T13:50:52.104Z</time>
      </trkpt>
      <trkpt lat="51.75351" lon="6.44301">
        <ele>61.846832</ele>
        <time>2026-05-06T13:51:00.107Z</time>
      </trkpt>
      <trkpt lat="51.75374" lon="6.44281">
        <ele>61.809491</ele>
        <time>2026-05-06T13:52:38.106Z</time>
      </trkpt>
      <trkpt lat="51.75382" lon="6.44274">
        <ele>61.796539</ele>
        <time>2026-05-06T13:52:41.103Z</time>
      </trkpt>
      <trkpt lat="51.7539" lon="6.44266">
        <ele>61.783396</ele>
        <time>2026-05-06T13:52:44.107Z</time>
      </trkpt>
      <trkpt lat="51.75398" lon="6.44258">
        <ele>61.769894</ele>
        <time>2026-05-06T13:52:47.099Z</time>
      </trkpt>
      <trkpt lat="51.75406" lon="6.4425">
        <ele>61.756225</ele>
        <time>2026-05-06T13:52:50.115Z</time>
      </trkpt>
      <trkpt lat="51.75414" lon="6.44241">
        <ele>61.673632</ele>
        <time>2026-05-06T13:52:53.095Z</time>
      </trkpt>
      <trkpt lat="51.75424" lon="6.44233">
        <ele>61.569112</ele>
        <time>2026-05-06T13:52:56.119Z</time>
      </trkpt>
      <trkpt lat="51.75433" lon="6.44226">
        <ele>61.466307</ele>
        <time>2026-05-06T13:52:59.104Z</time>
      </trkpt>
      <trkpt lat="51.75442" lon="6.44217">
        <ele>61.363656</ele>
        <time>2026-05-06T13:53:02.097Z</time>
      </trkpt>
      <trkpt lat="51.75451" lon="6.44208">
        <ele>61.263319</ele>
        <time>2026-05-06T13:53:05.109Z</time>
      </trkpt>
      <trkpt lat="51.7546" lon="6.44201">
        <ele>61.161977</ele>
        <time>2026-05-06T13:53:08.107Z</time>
      </trkpt>
      <trkpt lat="51.75468" lon="6.44192">
        <ele>61.063113</ele>
        <time>2026-05-06T13:53:11.106Z</time>
      </trkpt>
      <trkpt lat="51.75478" lon="6.44183">
        <ele>60.954828</ele>
        <time>2026-05-06T13:53:14.104Z</time>
      </trkpt>
      <trkpt lat="51.75488" lon="6.44173">
        <ele>60.839814</ele>
        <time>2026-05-06T13:53:17.104Z</time>
      </trkpt>
      <trkpt lat="51.75497" lon="6.44163">
        <ele>60.726942</ele>
        <time>2026-05-06T13:53:20.104Z</time>
      </trkpt>
      <trkpt lat="51.75507" lon="6.44152">
        <ele>60.607237</ele>
        <time>2026-05-06T13:53:23.102Z</time>
      </trkpt>
      <trkpt lat="51.75518" lon="6.4414">
        <ele>60.479315</ele>
        <time>2026-05-06T13:53:26.117Z</time>
      </trkpt>
      <trkpt lat="51.75529" lon="6.4413">
        <ele>60.35856</ele>
        <time>2026-05-06T13:53:29.104Z</time>
      </trkpt>
      <trkpt lat="51.75539" lon="6.44121">
        <ele>60.243499</ele>
        <time>2026-05-06T13:53:32.116Z</time>
      </trkpt>
      <trkpt lat="51.75549" lon="6.44111">
        <ele>60.131274</ele>
        <time>2026-05-06T13:53:35.099Z</time>
      </trkpt>
      <trkpt lat="51.7556" lon="6.44101">
        <ele>60.006199</ele>
        <time>2026-05-06T13:53:38.109Z</time>
      </trkpt>
      <trkpt lat="51.75567" lon="6.44093">
        <ele>60.100516</ele>
        <time>2026-05-06T13:53:40.127Z</time>
      </trkpt>
      <trkpt lat="51.75577" lon="6.44079">
        <ele>60.323353</ele>
        <time>2026-05-06T13:53:43.095Z</time>
      </trkpt>
      <trkpt lat="51.75586" lon="6.44065">
        <ele>60.530163</ele>
        <time>2026-05-06T13:53:46.111Z</time>
      </trkpt>
      <trkpt lat="51.75595" lon="6.44052">
        <ele>60.739665</ele>
        <time>2026-05-06T13:53:49.097Z</time>
      </trkpt>
      <trkpt lat="51.75603" lon="6.44037">
        <ele>60.955222</ele>
        <time>2026-05-06T13:53:52.110Z</time>
      </trkpt>
      <trkpt lat="51.75612" lon="6.44022">
        <ele>61.173113</ele>
        <time>2026-05-06T13:53:55.107Z</time>
      </trkpt>
      <trkpt lat="51.75621" lon="6.44009">
        <ele>61.373867</ele>
        <time>2026-05-06T13:53:58.114Z</time>
      </trkpt>
      <trkpt lat="51.75629" lon="6.43996">
        <ele>61.563805</ele>
        <time>2026-05-06T13:54:01.101Z</time>
      </trkpt>
      <trkpt lat="51.75637" lon="6.43983">
        <ele>61.759856</ele>
        <time>2026-05-06T13:54:04.122Z</time>
      </trkpt>
      <trkpt lat="51.75646" lon="6.4397">
        <ele>61.964204</ele>
        <time>2026-05-06T13:54:07.105Z</time>
      </trkpt>
      <trkpt lat="51.75655" lon="6.43955">
        <ele>62.185548</ele>
        <time>2026-05-06T13:54:10.098Z</time>
      </trkpt>
      <trkpt lat="51.75663" lon="6.4394">
        <ele>62.389903</ele>
        <time>2026-05-06T13:54:13.100Z</time>
      </trkpt>
      <trkpt lat="51.75669" lon="6.43929">
        <ele>62.549934</ele>
        <time>2026-05-06T13:54:16.115Z</time>
      </trkpt>
      <trkpt lat="51.75676" lon="6.43918">
        <ele>62.714594</ele>
        <time>2026-05-06T13:54:21.101Z</time>
      </trkpt>
      <trkpt lat="51.75692" lon="6.43881">
        <ele>63.068981</ele>
        <time>2026-05-06T13:58:06.116Z</time>
      </trkpt>
      <trkpt lat="51.757" lon="6.4387">
        <ele>63.103339</ele>
        <time>2026-05-06T13:58:12.105Z</time>
      </trkpt>
      <trkpt lat="51.75709" lon="6.43858">
        <ele>63.139545</ele>
        <time>2026-05-06T13:58:16.102Z</time>
      </trkpt>
      <trkpt lat="51.75718" lon="6.43848">
        <ele>63.173645</ele>
        <time>2026-05-06T13:58:19.106Z</time>
      </trkpt>
      <trkpt lat="51.75725" lon="6.43837">
        <ele>63.206891</ele>
        <time>2026-05-06T13:58:22.103Z</time>
      </trkpt>
      <trkpt lat="51.75733" lon="6.43825">
        <ele>63.239854</ele>
        <time>2026-05-06T13:58:25.106Z</time>
      </trkpt>
      <trkpt lat="51.7574" lon="6.43813">
        <ele>63.273053</ele>
        <time>2026-05-06T13:58:28.097Z</time>
      </trkpt>
      <trkpt lat="51.75748" lon="6.43799">
        <ele>63.310811</ele>
        <time>2026-05-06T13:58:31.105Z</time>
      </trkpt>
      <trkpt lat="51.75755" lon="6.43785">
        <ele>63.346371</ele>
        <time>2026-05-06T13:58:34.122Z</time>
      </trkpt>
      <trkpt lat="51.75763" lon="6.43771">
        <ele>63.383392</ele>
        <time>2026-05-06T13:58:37.108Z</time>
      </trkpt>
      <trkpt lat="51.7577" lon="6.43759">
        <ele>63.417446</ele>
        <time>2026-05-06T13:58:40.111Z</time>
      </trkpt>
      <trkpt lat="51.75778" lon="6.43747">
        <ele>63.449583</ele>
        <time>2026-05-06T13:58:43.104Z</time>
      </trkpt>
      <trkpt lat="51.75786" lon="6.43734">
        <ele>63.487863</ele>
        <time>2026-05-06T13:58:47.104Z</time>
      </trkpt>
      <trkpt lat="51.75793" lon="6.43723">
        <ele>63.518447</ele>
        <time>2026-05-06T13:58:50.106Z</time>
      </trkpt>
      <trkpt lat="51.75801" lon="6.43711">
        <ele>63.55389</ele>
        <time>2026-05-06T13:58:53.101Z</time>
      </trkpt>
      <trkpt lat="51.75811" lon="6.43696">
        <ele>63.596008</ele>
        <time>2026-05-06T13:58:56.109Z</time>
      </trkpt>
      <trkpt lat="51.75819" lon="6.43681">
        <ele>63.559045</ele>
        <time>2026-05-06T13:58:59.101Z</time>
      </trkpt>
      <trkpt lat="51.75828" lon="6.43667">
        <ele>63.446953</ele>
        <time>2026-05-06T13:59:02.105Z</time>
      </trkpt>
      <trkpt lat="51.75838" lon="6.4365">
        <ele>63.322935</ele>
        <time>2026-05-06T13:59:05.105Z</time>
      </trkpt>
      <trkpt lat="51.75844" lon="6.43638">
        <ele>63.231393</ele>
        <time>2026-05-06T13:59:07.110Z</time>
      </trkpt>
      <trkpt lat="51.75851" lon="6.43626">
        <ele>63.141272</ele>
        <time>2026-05-06T13:59:09.106Z</time>
      </trkpt>
      <trkpt lat="51.75858" lon="6.43614">
        <ele>63.053773</ele>
        <time>2026-05-06T13:59:11.106Z</time>
      </trkpt>
      <trkpt lat="51.75864" lon="6.43603">
        <ele>62.967282</ele>
        <time>2026-05-06T13:59:13.105Z</time>
      </trkpt>
      <trkpt lat="51.75871" lon="6.43592">
        <ele>62.879733</ele>
        <time>2026-05-06T13:59:15.107Z</time>
      </trkpt>
      <trkpt lat="51.75878" lon="6.43582">
        <ele>62.79707</ele>
        <time>2026-05-06T13:59:17.109Z</time>
      </trkpt>
      <trkpt lat="51.75888" lon="6.43568">
        <ele>62.679554</ele>
        <time>2026-05-06T13:59:20.115Z</time>
      </trkpt>
      <trkpt lat="51.75895" lon="6.43558">
        <ele>62.598299</ele>
        <time>2026-05-06T13:59:22.111Z</time>
      </trkpt>
      <trkpt lat="51.75901" lon="6.43547">
        <ele>62.511395</ele>
        <time>2026-05-06T13:59:24.104Z</time>
      </trkpt>
      <trkpt lat="51.75908" lon="6.43535">
        <ele>62.425117</ele>
        <time>2026-05-06T13:59:26.100Z</time>
      </trkpt>
      <trkpt lat="51.75914" lon="6.43524">
        <ele>62.340682</ele>
        <time>2026-05-06T13:59:28.119Z</time>
      </trkpt>
      <trkpt lat="51.75921" lon="6.43514">
        <ele>62.258423</ele>
        <time>2026-05-06T13:59:30.108Z</time>
      </trkpt>
      <trkpt lat="51.7593" lon="6.43498">
        <ele>62.141697</ele>
        <time>2026-05-06T13:59:33.114Z</time>
      </trkpt>
      <trkpt lat="51.75939" lon="6.43483">
        <ele>62.026535</ele>
        <time>2026-05-06T13:59:36.105Z</time>
      </trkpt>
      <trkpt lat="51.75947" lon="6.4347">
        <ele>62.036289</ele>
        <time>2026-05-06T13:59:39.104Z</time>
      </trkpt>
      <trkpt lat="51.75956" lon="6.43455">
        <ele>62.075894</ele>
        <time>2026-05-06T13:59:42.102Z</time>
      </trkpt>
      <trkpt lat="51.75964" lon="6.4344">
        <ele>62.115586</ele>
        <time>2026-05-06T13:59:45.107Z</time>
      </trkpt>
      <trkpt lat="51.75973" lon="6.43426">
        <ele>62.154361</ele>
        <time>2026-05-06T13:59:48.103Z</time>
      </trkpt>
      <trkpt lat="51.75982" lon="6.43412">
        <ele>62.193137</ele>
        <time>2026-05-06T13:59:51.096Z</time>
      </trkpt>
      <trkpt lat="51.7599" lon="6.43398">
        <ele>62.231028</ele>
        <time>2026-05-06T13:59:54.116Z</time>
      </trkpt>
      <trkpt lat="51.75998" lon="6.43385">
        <ele>62.267636</ele>
        <time>2026-05-06T13:59:57.107Z</time>
      </trkpt>
      <trkpt lat="51.76007" lon="6.43372">
        <ele>62.305058</ele>
        <time>2026-05-06T14:00:00.108Z</time>
      </trkpt>
      <trkpt lat="51.76015" lon="6.43358">
        <ele>62.343028</ele>
        <time>2026-05-06T14:00:03.101Z</time>
      </trkpt>
      <trkpt lat="51.76024" lon="6.43344">
        <ele>62.38108</ele>
        <time>2026-05-06T14:00:06.101Z</time>
      </trkpt>
      <trkpt lat="51.76032" lon="6.4333">
        <ele>62.41782</ele>
        <time>2026-05-06T14:00:09.106Z</time>
      </trkpt>
      <trkpt lat="51.76039" lon="6.43319">
        <ele>62.450277</ele>
        <time>2026-05-06T14:00:12.106Z</time>
      </trkpt>
      <trkpt lat="51.76046" lon="6.43309">
        <ele>62.48044</ele>
        <time>2026-05-06T14:00:15.110Z</time>
      </trkpt>
      <trkpt lat="51.7605" lon="6.43295">
        <ele>62.50906</ele>
        <time>2026-05-06T14:00:18.102Z</time>
      </trkpt>
      <trkpt lat="51.76051" lon="6.4328">
        <ele>62.539884</ele>
        <time>2026-05-06T14:00:21.111Z</time>
      </trkpt>
      <trkpt lat="51.76056" lon="6.43263">
        <ele>62.568076</ele>
        <time>2026-05-06T14:00:24.119Z</time>
      </trkpt>
      <trkpt lat="51.76062" lon="6.43246">
        <ele>62.288603</ele>
        <time>2026-05-06T14:00:27.109Z</time>
      </trkpt>
      <trkpt lat="51.76067" lon="6.43231">
        <ele>62.061369</ele>
        <time>2026-05-06T14:00:30.107Z</time>
      </trkpt>
      <trkpt lat="51.76072" lon="6.43218">
        <ele>61.850594</ele>
        <time>2026-05-06T14:00:33.112Z</time>
      </trkpt>
      <trkpt lat="51.76078" lon="6.43201">
        <ele>61.576219</ele>
        <time>2026-05-06T14:00:37.112Z</time>
      </trkpt>
      <trkpt lat="51.76081" lon="6.43184">
        <ele>61.331606</ele>
        <time>2026-05-06T14:00:40.110Z</time>
      </trkpt>
      <trkpt lat="51.76086" lon="6.43164">
        <ele>61.03008</ele>
        <time>2026-05-06T14:00:43.107Z</time>
      </trkpt>
      <trkpt lat="51.76091" lon="6.43148">
        <ele>60.783699</ele>
        <time>2026-05-06T14:00:45.116Z</time>
      </trkpt>
      <trkpt lat="51.76096" lon="6.43131">
        <ele>60.523467</ele>
        <time>2026-05-06T14:00:47.103Z</time>
      </trkpt>
      <trkpt lat="51.76101" lon="6.43115">
        <ele>60.269848</ele>
        <time>2026-05-06T14:00:49.093Z</time>
      </trkpt>
      <trkpt lat="51.76106" lon="6.431">
        <ele>60.03539</ele>
        <time>2026-05-06T14:00:51.105Z</time>
      </trkpt>
      <trkpt lat="51.76111" lon="6.43084">
        <ele>59.797143</ele>
        <time>2026-05-06T14:00:53.103Z</time>
      </trkpt>
      <trkpt lat="51.76116" lon="6.43069">
        <ele>59.565445</ele>
        <time>2026-05-06T14:00:55.095Z</time>
      </trkpt>
      <trkpt lat="51.7612" lon="6.43056">
        <ele>59.356317</ele>
        <time>2026-05-06T14:00:57.108Z</time>
      </trkpt>
      <trkpt lat="51.76124" lon="6.43043">
        <ele>59.152304</ele>
        <time>2026-05-06T14:00:59.122Z</time>
      </trkpt>
      <trkpt lat="51.7613" lon="6.43023">
        <ele>58.852137</ele>
        <time>2026-05-06T14:01:02.102Z</time>
      </trkpt>
      <trkpt lat="51.76134" lon="6.43011">
        <ele>58.650395</ele>
        <time>2026-05-06T14:01:04.110Z</time>
      </trkpt>
      <trkpt lat="51.76139" lon="6.42992">
        <ele>58.768305</ele>
        <time>2026-05-06T14:01:07.111Z</time>
      </trkpt>
      <trkpt lat="51.76142" lon="6.42972">
        <ele>59.101996</ele>
        <time>2026-05-06T14:01:10.115Z</time>
      </trkpt>
      <trkpt lat="51.76144" lon="6.42953">
        <ele>59.41316</ele>
        <time>2026-05-06T14:01:13.099Z</time>
      </trkpt>
      <trkpt lat="51.76145" lon="6.42933">
        <ele>59.743943</ele>
        <time>2026-05-06T14:01:16.122Z</time>
      </trkpt>
      <trkpt lat="51.76146" lon="6.42913">
        <ele>60.085545</ele>
        <time>2026-05-06T14:01:19.095Z</time>
      </trkpt>
      <trkpt lat="51.76146" lon="6.42893">
        <ele>60.403361</ele>
        <time>2026-05-06T14:01:22.092Z</time>
      </trkpt>
      <trkpt lat="51.76146" lon="6.42874">
        <ele>60.721121</ele>
        <time>2026-05-06T14:01:25.106Z</time>
      </trkpt>
      <trkpt lat="51.76146" lon="6.42856">
        <ele>61.025714</ele>
        <time>2026-05-06T14:01:28.109Z</time>
      </trkpt>
      <trkpt lat="51.76146" lon="6.42837">
        <ele>61.332091</ele>
        <time>2026-05-06T14:01:31.100Z</time>
      </trkpt>
      <trkpt lat="51.76146" lon="6.42818">
        <ele>61.648172</ele>
        <time>2026-05-06T14:01:34.100Z</time>
      </trkpt>
      <trkpt lat="51.76146" lon="6.42799">
        <ele>61.964342</ele>
        <time>2026-05-06T14:01:37.115Z</time>
      </trkpt>
      <trkpt lat="51.76145" lon="6.4278">
        <ele>62.269306</ele>
        <time>2026-05-06T14:01:40.106Z</time>
      </trkpt>
      <trkpt lat="51.76145" lon="6.42762">
        <ele>62.572253</ele>
        <time>2026-05-06T14:01:43.112Z</time>
      </trkpt>
      <trkpt lat="51.76145" lon="6.42744">
        <ele>62.86858</ele>
        <time>2026-05-06T14:01:46.102Z</time>
      </trkpt>
      <trkpt lat="51.76145" lon="6.42726">
        <ele>63.160151</ele>
        <time>2026-05-06T14:01:49.114Z</time>
      </trkpt>
      <trkpt lat="51.76144" lon="6.42708">
        <ele>63.341184</ele>
        <time>2026-05-06T14:01:52.104Z</time>
      </trkpt>
      <trkpt lat="51.76144" lon="6.4269">
        <ele>63.355511</ele>
        <time>2026-05-06T14:01:55.098Z</time>
      </trkpt>
      <trkpt lat="51.76144" lon="6.42672">
        <ele>63.370243</ele>
        <time>2026-05-06T14:01:58.100Z</time>
      </trkpt>
      <trkpt lat="51.76143" lon="6.42653">
        <ele>63.384733</ele>
        <time>2026-05-06T14:02:01.103Z</time>
      </trkpt>
      <trkpt lat="51.76143" lon="6.42636">
        <ele>63.398825</ele>
        <time>2026-05-06T14:02:04.104Z</time>
      </trkpt>
      <trkpt lat="51.76143" lon="6.42617">
        <ele>63.413788</ele>
        <time>2026-05-06T14:02:07.105Z</time>
      </trkpt>
      <trkpt lat="51.76142" lon="6.42598">
        <ele>63.428525</ele>
        <time>2026-05-06T14:02:10.093Z</time>
      </trkpt>
      <trkpt lat="51.76142" lon="6.42579">
        <ele>63.443494</ele>
        <time>2026-05-06T14:02:13.110Z</time>
      </trkpt>
      <trkpt lat="51.76142" lon="6.42561">
        <ele>63.458146</ele>
        <time>2026-05-06T14:02:16.106Z</time>
      </trkpt>
      <trkpt lat="51.76141" lon="6.42543">
        <ele>63.472476</ele>
        <time>2026-05-06T14:02:19.105Z</time>
      </trkpt>
      <trkpt lat="51.76141" lon="6.42525">
        <ele>63.486208</ele>
        <time>2026-05-06T14:02:22.103Z</time>
      </trkpt>
      <trkpt lat="51.7614" lon="6.42508">
        <ele>63.499861</ele>
        <time>2026-05-06T14:02:25.106Z</time>
      </trkpt>
      <trkpt lat="51.76139" lon="6.42491">
        <ele>63.513023</ele>
        <time>2026-05-06T14:02:28.103Z</time>
      </trkpt>
      <trkpt lat="51.7614" lon="6.42475">
        <ele>63.525783</ele>
        <time>2026-05-06T14:02:31.106Z</time>
      </trkpt>
      <trkpt lat="51.76141" lon="6.42459">
        <ele>63.538462</ele>
        <time>2026-05-06T14:02:34.107Z</time>
      </trkpt>
      <trkpt lat="51.76143" lon="6.42443">
        <ele>63.552036</ele>
        <time>2026-05-06T14:02:37.118Z</time>
      </trkpt>
      <trkpt lat="51.76144" lon="6.42426">
        <ele>63.565064</ele>
        <time>2026-05-06T14:02:40.101Z</time>
      </trkpt>
      <trkpt lat="51.76146" lon="6.42411">
        <ele>63.712113</ele>
        <time>2026-05-06T14:02:43.099Z</time>
      </trkpt>
      <trkpt lat="51.76148" lon="6.42395">
        <ele>63.873059</ele>
        <time>2026-05-06T14:02:47.112Z</time>
      </trkpt>
      <trkpt lat="51.76147" lon="6.4238">
        <ele>64.022493</ele>
        <time>2026-05-06T14:02:51.105Z</time>
      </trkpt>
      <trkpt lat="51.76147" lon="6.42365">
        <ele>64.168294</ele>
        <time>2026-05-06T14:02:55.111Z</time>
      </trkpt>
      <trkpt lat="51.76154" lon="6.42349">
        <ele>64.35232</ele>
        <time>2026-05-06T14:02:59.098Z</time>
      </trkpt>
      <trkpt lat="51.76158" lon="6.42334">
        <ele>64.516493</ele>
        <time>2026-05-06T14:03:02.106Z</time>
      </trkpt>
      <trkpt lat="51.76158" lon="6.42315">
        <ele>64.704221</ele>
        <time>2026-05-06T14:03:05.109Z</time>
      </trkpt>
      <trkpt lat="51.76158" lon="6.42295">
        <ele>64.892926</ele>
        <time>2026-05-06T14:03:08.097Z</time>
      </trkpt>
      <trkpt lat="51.76157" lon="6.42278">
        <ele>65.062237</ele>
        <time>2026-05-06T14:03:12.118Z</time>
      </trkpt>
      <trkpt lat="51.76157" lon="6.42263">
        <ele>65.207139</ele>
        <time>2026-05-06T14:03:16.103Z</time>
      </trkpt>
      <trkpt lat="51.76156" lon="6.42247">
        <ele>65.368096</ele>
        <time>2026-05-06T14:03:21.117Z</time>
      </trkpt>
      <trkpt lat="51.76156" lon="6.42231">
        <ele>65.520808</ele>
        <time>2026-05-06T14:03:26.106Z</time>
      </trkpt>
      <trkpt lat="51.76158" lon="6.42215">
        <ele>65.679748</ele>
        <time>2026-05-06T14:03:31.112Z</time>
      </trkpt>
      <trkpt lat="51.76161" lon="6.42197">
        <ele>65.85914</ele>
        <time>2026-05-06T14:03:36.104Z</time>
      </trkpt>
      <trkpt lat="51.76163" lon="6.42182">
        <ele>66.013927</ele>
        <time>2026-05-06T14:03:40.101Z</time>
      </trkpt>
      <trkpt lat="51.76165" lon="6.42166">
        <ele>66.173756</ele>
        <time>2026-05-06T14:03:44.112Z</time>
      </trkpt>
      <trkpt lat="51.76167" lon="6.42152">
        <ele>66.319291</ele>
        <time>2026-05-06T14:03:48.110Z</time>
      </trkpt>
      <trkpt lat="51.7617" lon="6.42136">
        <ele>66.403007</ele>
        <time>2026-05-06T14:03:52.119Z</time>
      </trkpt>
      <trkpt lat="51.76174" lon="6.42118">
        <ele>66.394335</ele>
        <time>2026-05-06T14:03:56.113Z</time>
      </trkpt>
      <trkpt lat="51.76177" lon="6.421">
        <ele>66.385208</ele>
        <time>2026-05-06T14:04:00.111Z</time>
      </trkpt>
      <trkpt lat="51.7618" lon="6.42085">
        <ele>66.377939</ele>
        <time>2026-05-06T14:04:03.103Z</time>
      </trkpt>
      <trkpt lat="51.76183" lon="6.4207">
        <ele>66.370334</ele>
        <time>2026-05-06T14:04:06.101Z</time>
      </trkpt>
      <trkpt lat="51.76185" lon="6.42054">
        <ele>66.362679</ele>
        <time>2026-05-06T14:04:09.106Z</time>
      </trkpt>
      <trkpt lat="51.76188" lon="6.42039">
        <ele>66.354892</ele>
        <time>2026-05-06T14:04:12.103Z</time>
      </trkpt>
      <trkpt lat="51.76191" lon="6.42022">
        <ele>66.346889</ele>
        <time>2026-05-06T14:04:15.104Z</time>
      </trkpt>
      <trkpt lat="51.76193" lon="6.42006">
        <ele>66.338849</ele>
        <time>2026-05-06T14:04:18.108Z</time>
      </trkpt>
      <trkpt lat="51.76195" lon="6.41988">
        <ele>66.330477</ele>
        <time>2026-05-06T14:04:21.107Z</time>
      </trkpt>
      <trkpt lat="51.76197" lon="6.41971">
        <ele>66.321993</ele>
        <time>2026-05-06T14:04:24.104Z</time>
      </trkpt>
      <trkpt lat="51.76197" lon="6.41953">
        <ele>66.313537</ele>
        <time>2026-05-06T14:04:27.112Z</time>
      </trkpt>
      <trkpt lat="51.76198" lon="6.41937">
        <ele>66.305843</ele>
        <time>2026-05-06T14:04:30.116Z</time>
      </trkpt>
      <trkpt lat="51.76199" lon="6.41919">
        <ele>66.297443</ele>
        <time>2026-05-06T14:04:33.118Z</time>
      </trkpt>
      <trkpt lat="51.76199" lon="6.41901">
        <ele>66.288909</ele>
        <time>2026-05-06T14:04:36.112Z</time>
      </trkpt>
      <trkpt lat="51.76199" lon="6.41883">
        <ele>66.280428</ele>
        <time>2026-05-06T14:04:39.105Z</time>
      </trkpt>
      <trkpt lat="51.76199" lon="6.41865">
        <ele>66.27189</ele>
        <time>2026-05-06T14:04:42.108Z</time>
      </trkpt>
      <trkpt lat="51.76197" lon="6.41847">
        <ele>66.274088</ele>
        <time>2026-05-06T14:04:45.108Z</time>
      </trkpt>
      <trkpt lat="51.76195" lon="6.41829">
        <ele>66.28227</ele>
        <time>2026-05-06T14:04:48.120Z</time>
      </trkpt>
      <trkpt lat="51.76193" lon="6.41811">
        <ele>66.290652</ele>
        <time>2026-05-06T14:04:51.093Z</time>
      </trkpt>
      <trkpt lat="51.76191" lon="6.41793">
        <ele>66.299122</ele>
        <time>2026-05-06T14:04:54.118Z</time>
      </trkpt>
      <trkpt lat="51.76188" lon="6.41774">
        <ele>66.307621</ele>
        <time>2026-05-06T14:04:57.105Z</time>
      </trkpt>
      <trkpt lat="51.76185" lon="6.41756">
        <ele>66.316136</ele>
        <time>2026-05-06T14:05:00.123Z</time>
      </trkpt>
      <trkpt lat="51.76182" lon="6.41738">
        <ele>66.32494</ele>
        <time>2026-05-06T14:05:03.109Z</time>
      </trkpt>
      <trkpt lat="51.7618" lon="6.41718">
        <ele>66.333725</ele>
        <time>2026-05-06T14:05:06.104Z</time>
      </trkpt>
      <trkpt lat="51.76177" lon="6.41699">
        <ele>66.342491</ele>
        <time>2026-05-06T14:05:09.104Z</time>
      </trkpt>
      <trkpt lat="51.76175" lon="6.4168">
        <ele>66.351448</ele>
        <time>2026-05-06T14:05:12.114Z</time>
      </trkpt>
      <trkpt lat="51.76173" lon="6.4166">
        <ele>66.360392</ele>
        <time>2026-05-06T14:05:15.105Z</time>
      </trkpt>
      <trkpt lat="51.76171" lon="6.41641">
        <ele>66.369254</ele>
        <time>2026-05-06T14:05:18.103Z</time>
      </trkpt>
      <trkpt lat="51.76169" lon="6.41622">
        <ele>66.378078</ele>
        <time>2026-05-06T14:05:21.106Z</time>
      </trkpt>
      <trkpt lat="51.76166" lon="6.41602">
        <ele>66.387094</ele>
        <time>2026-05-06T14:05:24.099Z</time>
      </trkpt>
      <trkpt lat="51.76164" lon="6.41583">
        <ele>66.396069</ele>
        <time>2026-05-06T14:05:27.101Z</time>
      </trkpt>
      <trkpt lat="51.76162" lon="6.41563">
        <ele>66.37919</ele>
        <time>2026-05-06T14:05:30.109Z</time>
      </trkpt>
      <trkpt lat="51.7616" lon="6.41543">
        <ele>66.341866</ele>
        <time>2026-05-06T14:05:33.107Z</time>
      </trkpt>
      <trkpt lat="51.76157" lon="6.41523">
        <ele>66.304563</ele>
        <time>2026-05-06T14:05:36.114Z</time>
      </trkpt>
      <trkpt lat="51.76155" lon="6.41503">
        <ele>66.268001</ele>
        <time>2026-05-06T14:05:39.110Z</time>
      </trkpt>
      <trkpt lat="51.76153" lon="6.41483">
        <ele>66.230857</ele>
        <time>2026-05-06T14:05:42.107Z</time>
      </trkpt>
      <trkpt lat="51.76152" lon="6.41463">
        <ele>66.194611</ele>
        <time>2026-05-06T14:05:45.109Z</time>
      </trkpt>
      <trkpt lat="51.76151" lon="6.41442">
        <ele>66.156332</ele>
        <time>2026-05-06T14:05:48.111Z</time>
      </trkpt>
      <trkpt lat="51.7615" lon="6.41422">
        <ele>66.118594</ele>
        <time>2026-05-06T14:05:51.109Z</time>
      </trkpt>
      <trkpt lat="51.76151" lon="6.41401">
        <ele>66.080681</ele>
        <time>2026-05-06T14:05:54.116Z</time>
      </trkpt>
      <trkpt lat="51.76152" lon="6.41381">
        <ele>66.043369</ele>
        <time>2026-05-06T14:05:57.112Z</time>
      </trkpt>
      <trkpt lat="51.76153" lon="6.4136">
        <ele>66.005535</ele>
        <time>2026-05-06T14:06:00.104Z</time>
      </trkpt>
      <trkpt lat="51.76156" lon="6.41339">
        <ele>65.966442</ele>
        <time>2026-05-06T14:06:03.105Z</time>
      </trkpt>
      <trkpt lat="51.76158" lon="6.41318">
        <ele>65.926857</ele>
        <time>2026-05-06T14:06:06.108Z</time>
      </trkpt>
      <trkpt lat="51.7616" lon="6.41297">
        <ele>65.888219</ele>
        <time>2026-05-06T14:06:09.113Z</time>
      </trkpt>
      <trkpt lat="51.76162" lon="6.41276">
        <ele>65.832058</ele>
        <time>2026-05-06T14:06:12.111Z</time>
      </trkpt>
      <trkpt lat="51.76163" lon="6.41256">
        <ele>65.756137</ele>
        <time>2026-05-06T14:06:15.106Z</time>
      </trkpt>
      <trkpt lat="51.76165" lon="6.41235">
        <ele>65.680791</ele>
        <time>2026-05-06T14:06:18.103Z</time>
      </trkpt>
      <trkpt lat="51.76166" lon="6.41214">
        <ele>65.605106</ele>
        <time>2026-05-06T14:06:21.092Z</time>
      </trkpt>
      <trkpt lat="51.76167" lon="6.41194">
        <ele>65.531089</ele>
        <time>2026-05-06T14:06:24.099Z</time>
      </trkpt>
      <trkpt lat="51.76167" lon="6.41173">
        <ele>65.455296</ele>
        <time>2026-05-06T14:06:27.108Z</time>
      </trkpt>
      <trkpt lat="51.76166" lon="6.41152">
        <ele>65.38086</ele>
        <time>2026-05-06T14:06:30.105Z</time>
      </trkpt>
      <trkpt lat="51.76167" lon="6.41132">
        <ele>65.305067</ele>
        <time>2026-05-06T14:06:33.116Z</time>
      </trkpt>
      <trkpt lat="51.76166" lon="6.4111">
        <ele>65.228567</ele>
        <time>2026-05-06T14:06:36.092Z</time>
      </trkpt>
      <trkpt lat="51.76166" lon="6.41089">
        <ele>65.152061</ele>
        <time>2026-05-06T14:06:39.107Z</time>
      </trkpt>
      <trkpt lat="51.76165" lon="6.41068">
        <ele>65.076014</ele>
        <time>2026-05-06T14:06:42.113Z</time>
      </trkpt>
      <trkpt lat="51.76163" lon="6.41048">
        <ele>65.001039</ele>
        <time>2026-05-06T14:06:45.101Z</time>
      </trkpt>
      <trkpt lat="51.76161" lon="6.41028">
        <ele>64.927036</ele>
        <time>2026-05-06T14:06:48.111Z</time>
      </trkpt>
      <trkpt lat="51.7616" lon="6.41008">
        <ele>64.853928</ele>
        <time>2026-05-06T14:06:51.101Z</time>
      </trkpt>
      <trkpt lat="51.76158" lon="6.40988">
        <ele>64.843311</ele>
        <time>2026-05-06T14:06:54.101Z</time>
      </trkpt>
      <trkpt lat="51.76156" lon="6.40969">
        <ele>64.90986</ele>
        <time>2026-05-06T14:06:57.108Z</time>
      </trkpt>
      <trkpt lat="51.76153" lon="6.40951">
        <ele>64.971204</ele>
        <time>2026-05-06T14:07:00.104Z</time>
      </trkpt>
      <trkpt lat="51.7615" lon="6.40933">
        <ele>65.033554</ele>
        <time>2026-05-06T14:07:03.105Z</time>
      </trkpt>
      <trkpt lat="51.76147" lon="6.40914">
        <ele>65.098653</ele>
        <time>2026-05-06T14:07:06.110Z</time>
      </trkpt>
      <trkpt lat="51.76144" lon="6.40894">
        <ele>65.164809</ele>
        <time>2026-05-06T14:07:09.099Z</time>
      </trkpt>
      <trkpt lat="51.7614" lon="6.40875">
        <ele>65.231478</ele>
        <time>2026-05-06T14:07:12.102Z</time>
      </trkpt>
      <trkpt lat="51.76136" lon="6.40856">
        <ele>65.30111</ele>
        <time>2026-05-06T14:07:15.096Z</time>
      </trkpt>
      <trkpt lat="51.76131" lon="6.40836">
        <ele>65.368898</ele>
        <time>2026-05-06T14:07:18.106Z</time>
      </trkpt>
      <trkpt lat="51.76127" lon="6.40817">
        <ele>65.436819</ele>
        <time>2026-05-06T14:07:21.104Z</time>
      </trkpt>
      <trkpt lat="51.76123" lon="6.40798">
        <ele>65.504791</ele>
        <time>2026-05-06T14:07:24.103Z</time>
      </trkpt>
      <trkpt lat="51.76119" lon="6.40778">
        <ele>65.57301</ele>
        <time>2026-05-06T14:07:27.104Z</time>
      </trkpt>
      <trkpt lat="51.76116" lon="6.40758">
        <ele>65.642161</ele>
        <time>2026-05-06T14:07:30.102Z</time>
      </trkpt>
      <trkpt lat="51.76112" lon="6.40738">
        <ele>65.71166</ele>
        <time>2026-05-06T14:07:33.099Z</time>
      </trkpt>
      <trkpt lat="51.76109" lon="6.40718">
        <ele>65.78005</ele>
        <time>2026-05-06T14:07:36.092Z</time>
      </trkpt>
      <trkpt lat="51.76106" lon="6.40698">
        <ele>65.874521</ele>
        <time>2026-05-06T14:07:39.110Z</time>
      </trkpt>
      <trkpt lat="51.76103" lon="6.40679">
        <ele>65.967464</ele>
        <time>2026-05-06T14:07:42.104Z</time>
      </trkpt>
      <trkpt lat="51.761" lon="6.40659">
        <ele>66.06023</ele>
        <time>2026-05-06T14:07:45.100Z</time>
      </trkpt>
      <trkpt lat="51.76097" lon="6.4064">
        <ele>66.153939</ele>
        <time>2026-05-06T14:07:48.115Z</time>
      </trkpt>
      <trkpt lat="51.76094" lon="6.4062">
        <ele>66.248149</ele>
        <time>2026-05-06T14:07:51.103Z</time>
      </trkpt>
      <trkpt lat="51.76091" lon="6.406">
        <ele>66.341911</ele>
        <time>2026-05-06T14:07:54.107Z</time>
      </trkpt>
      <trkpt lat="51.76087" lon="6.40581">
        <ele>66.435175</ele>
        <time>2026-05-06T14:07:57.114Z</time>
      </trkpt>
      <trkpt lat="51.76083" lon="6.40562">
        <ele>66.52694</ele>
        <time>2026-05-06T14:08:00.112Z</time>
      </trkpt>
      <trkpt lat="51.7608" lon="6.40543">
        <ele>66.618426</ele>
        <time>2026-05-06T14:08:03.101Z</time>
      </trkpt>
      <trkpt lat="51.76076" lon="6.40525">
        <ele>66.706834</ele>
        <time>2026-05-06T14:08:06.109Z</time>
      </trkpt>
      <trkpt lat="51.76072" lon="6.40507">
        <ele>66.796945</ele>
        <time>2026-05-06T14:08:09.110Z</time>
      </trkpt>
      <trkpt lat="51.76067" lon="6.40488">
        <ele>66.888093</ele>
        <time>2026-05-06T14:08:12.108Z</time>
      </trkpt>
      <trkpt lat="51.76064" lon="6.4047">
        <ele>66.978695</ele>
        <time>2026-05-06T14:08:15.106Z</time>
      </trkpt>
      <trkpt lat="51.76059" lon="6.40451">
        <ele>67.071234</ele>
        <time>2026-05-06T14:08:18.103Z</time>
      </trkpt>
      <trkpt lat="51.76055" lon="6.40432">
        <ele>67.124278</ele>
        <time>2026-05-06T14:08:21.109Z</time>
      </trkpt>
      <trkpt lat="51.76051" lon="6.40414">
        <ele>67.126501</ele>
        <time>2026-05-06T14:08:24.112Z</time>
      </trkpt>
      <trkpt lat="51.76046" lon="6.40395">
        <ele>67.128714</ele>
        <time>2026-05-06T14:08:27.095Z</time>
      </trkpt>
      <trkpt lat="51.76041" lon="6.40377">
        <ele>67.130964</ele>
        <time>2026-05-06T14:08:30.100Z</time>
      </trkpt>
      <trkpt lat="51.76036" lon="6.40359">
        <ele>67.133178</ele>
        <time>2026-05-06T14:08:33.106Z</time>
      </trkpt>
      <trkpt lat="51.76031" lon="6.40341">
        <ele>67.135356</ele>
        <time>2026-05-06T14:08:36.100Z</time>
      </trkpt>
      <trkpt lat="51.76026" lon="6.40323">
        <ele>67.137536</ele>
        <time>2026-05-06T14:08:39.113Z</time>
      </trkpt>
      <trkpt lat="51.76022" lon="6.40304">
        <ele>67.139757</ele>
        <time>2026-05-06T14:08:42.104Z</time>
      </trkpt>
      <trkpt lat="51.76018" lon="6.40284">
        <ele>67.14207</ele>
        <time>2026-05-06T14:08:45.100Z</time>
      </trkpt>
      <trkpt lat="51.76014" lon="6.40265">
        <ele>67.144345</ele>
        <time>2026-05-06T14:08:48.100Z</time>
      </trkpt>
      <trkpt lat="51.76009" lon="6.40247">
        <ele>67.146564</ele>
        <time>2026-05-06T14:08:51.103Z</time>
      </trkpt>
      <trkpt lat="51.76004" lon="6.40229">
        <ele>67.148734</ele>
        <time>2026-05-06T14:08:54.105Z</time>
      </trkpt>
      <trkpt lat="51.75998" lon="6.40212">
        <ele>67.150925</ele>
        <time>2026-05-06T14:08:57.107Z</time>
      </trkpt>
      <trkpt lat="51.75991" lon="6.40196">
        <ele>67.153155</ele>
        <time>2026-05-06T14:09:00.111Z</time>
      </trkpt>
      <trkpt lat="51.75983" lon="6.40181">
        <ele>67.155375</ele>
        <time>2026-05-06T14:09:03.107Z</time>
      </trkpt>
      <trkpt lat="51.75975" lon="6.40166">
        <ele>67.152714</ele>
        <time>2026-05-06T14:09:06.105Z</time>
      </trkpt>
      <trkpt lat="51.75966" lon="6.40153">
        <ele>67.149379</ele>
        <time>2026-05-06T14:09:09.108Z</time>
      </trkpt>
      <trkpt lat="51.75958" lon="6.40141">
        <ele>67.146303</ele>
        <time>2026-05-06T14:09:12.119Z</time>
      </trkpt>
      <trkpt lat="51.75951" lon="6.40131">
        <ele>67.143425</ele>
        <time>2026-05-06T14:09:15.104Z</time>
      </trkpt>
      <trkpt lat="51.75944" lon="6.40121">
        <ele>67.140723</ele>
        <time>2026-05-06T14:09:18.102Z</time>
      </trkpt>
      <trkpt lat="51.75937" lon="6.4011">
        <ele>67.138137</ele>
        <time>2026-05-06T14:09:21.109Z</time>
      </trkpt>
      <trkpt lat="51.75929" lon="6.40101">
        <ele>67.135412</ele>
        <time>2026-05-06T14:09:24.106Z</time>
      </trkpt>
      <trkpt lat="51.75922" lon="6.40091">
        <ele>67.132545</ele>
        <time>2026-05-06T14:09:27.104Z</time>
      </trkpt>
      <trkpt lat="51.75915" lon="6.4008">
        <ele>67.129743</ele>
        <time>2026-05-06T14:09:30.106Z</time>
      </trkpt>
      <trkpt lat="51.75906" lon="6.40067">
        <ele>67.126423</ele>
        <time>2026-05-06T14:09:34.093Z</time>
      </trkpt>
      <trkpt lat="51.75899" lon="6.40058">
        <ele>67.123671</ele>
        <time>2026-05-06T14:09:38.110Z</time>
      </trkpt>
      <trkpt lat="51.75917" lon="6.40013">
        <ele>67.11395</ele>
        <time>2026-05-06T14:11:08.104Z</time>
      </trkpt>
      <trkpt lat="51.75924" lon="6.4">
        <ele>67.110997</ele>
        <time>2026-05-06T14:11:12.099Z</time>
      </trkpt>
      <trkpt lat="51.75929" lon="6.39986">
        <ele>67.10811</ele>
        <time>2026-05-06T14:11:16.116Z</time>
      </trkpt>
      <trkpt lat="51.75933" lon="6.39968">
        <ele>67.104794</ele>
        <time>2026-05-06T14:11:20.104Z</time>
      </trkpt>
      <trkpt lat="51.75935" lon="6.39949">
        <ele>67.308791</ele>
        <time>2026-05-06T14:11:23.104Z</time>
      </trkpt>
      <trkpt lat="51.75939" lon="6.39933">
        <ele>67.536008</ele>
        <time>2026-05-06T14:11:26.095Z</time>
      </trkpt>
      <trkpt lat="51.75943" lon="6.39918">
        <ele>67.736351</ele>
        <time>2026-05-06T14:11:30.103Z</time>
      </trkpt>
      <trkpt lat="51.75937" lon="6.39903">
        <ele>67.969788</ele>
        <time>2026-05-06T14:11:36.111Z</time>
      </trkpt>
      <trkpt lat="51.75927" lon="6.39897">
        <ele>68.189764</ele>
        <time>2026-05-06T14:11:39.113Z</time>
      </trkpt>
      <trkpt lat="51.75917" lon="6.39891">
        <ele>68.406658</ele>
        <time>2026-05-06T14:11:42.109Z</time>
      </trkpt>
      <trkpt lat="51.75906" lon="6.39887">
        <ele>68.6284</ele>
        <time>2026-05-06T14:11:45.102Z</time>
      </trkpt>
      <trkpt lat="51.75895" lon="6.3988">
        <ele>68.880394</ele>
        <time>2026-05-06T14:11:48.125Z</time>
      </trkpt>
      <trkpt lat="51.75884" lon="6.39875">
        <ele>69.118578</ele>
        <time>2026-05-06T14:11:51.115Z</time>
      </trkpt>
      <trkpt lat="51.75874" lon="6.39867">
        <ele>69.34324</ele>
        <time>2026-05-06T14:11:54.092Z</time>
      </trkpt>
      <trkpt lat="51.75866" lon="6.3986">
        <ele>69.543894</ele>
        <time>2026-05-06T14:11:57.103Z</time>
      </trkpt>
      <trkpt lat="51.75857" lon="6.39852">
        <ele>69.739116</ele>
        <time>2026-05-06T14:12:00.110Z</time>
      </trkpt>
      <trkpt lat="51.75847" lon="6.39843">
        <ele>69.986637</ele>
        <time>2026-05-06T14:12:03.108Z</time>
      </trkpt>
      <trkpt lat="51.75838" lon="6.39835">
        <ele>70.201891</ele>
        <time>2026-05-06T14:12:06.101Z</time>
      </trkpt>
      <trkpt lat="51.75829" lon="6.3983">
        <ele>70.391543</ele>
        <time>2026-05-06T14:12:09.099Z</time>
      </trkpt>
      <trkpt lat="51.75819" lon="6.39827">
        <ele>70.599479</ele>
        <time>2026-05-06T14:12:12.105Z</time>
      </trkpt>
      <trkpt lat="51.75809" lon="6.39826">
        <ele>70.823598</ele>
        <time>2026-05-06T14:12:15.099Z</time>
      </trkpt>
      <trkpt lat="51.75798" lon="6.39825">
        <ele>70.912792</ele>
        <time>2026-05-06T14:12:18.104Z</time>
      </trkpt>
      <trkpt lat="51.75788" lon="6.39824">
        <ele>70.992307</ele>
        <time>2026-05-06T14:12:21.103Z</time>
      </trkpt>
      <trkpt lat="51.75777" lon="6.39821">
        <ele>71.086077</ele>
        <time>2026-05-06T14:12:24.111Z</time>
      </trkpt>
      <trkpt lat="51.75765" lon="6.39813">
        <ele>71.18731</ele>
        <time>2026-05-06T14:12:27.101Z</time>
      </trkpt>
      <trkpt lat="51.75756" lon="6.39807">
        <ele>71.265881</ele>
        <time>2026-05-06T14:12:30.099Z</time>
      </trkpt>
      <trkpt lat="51.75747" lon="6.39799">
        <ele>71.347784</ele>
        <time>2026-05-06T14:12:34.095Z</time>
      </trkpt>
      <trkpt lat="51.75746" lon="6.39782">
        <ele>71.434221</ele>
        <time>2026-05-06T14:12:52.102Z</time>
      </trkpt>
      <trkpt lat="51.75747" lon="6.39763">
        <ele>71.529328</ele>
        <time>2026-05-06T14:12:56.102Z</time>
      </trkpt>
      <trkpt lat="51.75743" lon="6.39748">
        <ele>71.607648</ele>
        <time>2026-05-06T14:12:59.100Z</time>
      </trkpt>
      <trkpt lat="51.75736" lon="6.39733">
        <ele>71.702289</ele>
        <time>2026-05-06T14:13:03.112Z</time>
      </trkpt>
      <trkpt lat="51.75734" lon="6.39719">
        <ele>71.775186</ele>
        <time>2026-05-06T14:13:10.109Z</time>
      </trkpt>
      <trkpt lat="51.75733" lon="6.39701">
        <ele>71.864146</ele>
        <time>2026-05-06T14:13:18.111Z</time>
      </trkpt>
      <trkpt lat="51.75737" lon="6.39687">
        <ele>71.94355</ele>
        <time>2026-05-06T14:13:21.099Z</time>
      </trkpt>
      <trkpt lat="51.75742" lon="6.39673">
        <ele>72.024149</ele>
        <time>2026-05-06T14:13:24.109Z</time>
      </trkpt>
      <trkpt lat="51.75748" lon="6.39659">
        <ele>72.104725</ele>
        <time>2026-05-06T14:13:27.098Z</time>
      </trkpt>
      <trkpt lat="51.75754" lon="6.39643">
        <ele>72.200047</ele>
        <time>2026-05-06T14:13:31.115Z</time>
      </trkpt>
      <trkpt lat="51.7576" lon="6.3963">
        <ele>72.246094</ele>
        <time>2026-05-06T14:13:35.108Z</time>
      </trkpt>
      <trkpt lat="51.75768" lon="6.39619">
        <ele>72.048634</ele>
        <time>2026-05-06T14:13:39.094Z</time>
      </trkpt>
      <trkpt lat="51.75775" lon="6.39607">
        <ele>71.857167</ele>
        <time>2026-05-06T14:13:44.104Z</time>
      </trkpt>
      <trkpt lat="51.75782" lon="6.39596">
        <ele>71.678042</ele>
        <time>2026-05-06T14:13:48.101Z</time>
      </trkpt>
      <trkpt lat="51.7579" lon="6.39583">
        <ele>71.467662</ele>
        <time>2026-05-06T14:13:52.119Z</time>
      </trkpt>
      <trkpt lat="51.75796" lon="6.39571">
        <ele>71.287848</ele>
        <time>2026-05-06T14:13:56.107Z</time>
      </trkpt>
      <trkpt lat="51.75804" lon="6.39561">
        <ele>71.099832</ele>
        <time>2026-05-06T14:14:00.102Z</time>
      </trkpt>
      <trkpt lat="51.75812" lon="6.39555">
        <ele>70.926917</ele>
        <time>2026-05-06T14:14:06.111Z</time>
      </trkpt>
      <trkpt lat="51.75788" lon="6.39574">
        <ele>70.421925</ele>
        <time>2026-05-06T14:15:54.102Z</time>
      </trkpt>
      <trkpt lat="51.75781" lon="6.39585">
        <ele>70.248036</ele>
        <time>2026-05-06T14:15:57.109Z</time>
      </trkpt>
      <trkpt lat="51.75774" lon="6.39596">
        <ele>70.054783</ele>
        <time>2026-05-06T14:16:01.105Z</time>
      </trkpt>
      <trkpt lat="51.75768" lon="6.39607">
        <ele>69.884234</ele>
        <time>2026-05-06T14:16:05.094Z</time>
      </trkpt>
      <trkpt lat="51.75759" lon="6.39616">
        <ele>69.686525</ele>
        <time>2026-05-06T14:16:10.110Z</time>
      </trkpt>
      <trkpt lat="51.7575" lon="6.39616">
        <ele>69.504017</ele>
        <time>2026-05-06T14:16:19.099Z</time>
      </trkpt>
      <trkpt lat="51.75741" lon="6.39608">
        <ele>69.317435</ele>
        <time>2026-05-06T14:16:23.099Z</time>
      </trkpt>
      <trkpt lat="51.75732" lon="6.39601">
        <ele>69.132083</ele>
        <time>2026-05-06T14:16:27.102Z</time>
      </trkpt>
      <trkpt lat="51.75723" lon="6.39591">
        <ele>68.921743</ele>
        <time>2026-05-06T14:16:31.099Z</time>
      </trkpt>
      <trkpt lat="51.75715" lon="6.39579">
        <ele>68.935968</ele>
        <time>2026-05-06T14:16:36.105Z</time>
      </trkpt>
      <trkpt lat="51.75707" lon="6.3957">
        <ele>68.986892</ele>
        <time>2026-05-06T14:16:42.110Z</time>
      </trkpt>
      <trkpt lat="51.75701" lon="6.39624">
        <ele>69.165147</ele>
        <time>2026-05-06T14:17:42.108Z</time>
      </trkpt>
      <trkpt lat="51.75703" lon="6.3961">
        <ele>69.213145</ele>
        <time>2026-05-06T14:17:58.100Z</time>
      </trkpt>
      <trkpt lat="51.75705" lon="6.39594">
        <ele>69.264743</ele>
        <time>2026-05-06T14:18:01.099Z</time>
      </trkpt>
      <trkpt lat="51.75708" lon="6.3958">
        <ele>69.312428</ele>
        <time>2026-05-06T14:18:05.104Z</time>
      </trkpt>
      <trkpt lat="51.75718" lon="6.39585">
        <ele>69.365824</ele>
        <time>2026-05-06T14:18:09.109Z</time>
      </trkpt>
      <trkpt lat="51.75727" lon="6.39595">
        <ele>69.420842</ele>
        <time>2026-05-06T14:18:13.111Z</time>
      </trkpt>
      <trkpt lat="51.75734" lon="6.39606">
        <ele>69.472276</ele>
        <time>2026-05-06T14:18:18.101Z</time>
      </trkpt>
      <trkpt lat="51.7574" lon="6.39618">
        <ele>69.52298</ele>
        <time>2026-05-06T14:18:23.110Z</time>
      </trkpt>
      <trkpt lat="51.75728" lon="6.39662">
        <ele>69.678077</ele>
        <time>2026-05-06T14:19:06.103Z</time>
      </trkpt>
      <trkpt lat="51.75724" lon="6.39678">
        <ele>69.73328</ele>
        <time>2026-05-06T14:19:10.098Z</time>
      </trkpt>
      <trkpt lat="51.75719" lon="6.39691">
        <ele>69.783148</ele>
        <time>2026-05-06T14:19:14.112Z</time>
      </trkpt>
      <trkpt lat="51.75715" lon="6.39707">
        <ele>69.930032</ele>
        <time>2026-05-06T14:19:19.106Z</time>
      </trkpt>
      <trkpt lat="51.7572" lon="6.3972">
        <ele>70.287465</ele>
        <time>2026-05-06T14:19:24.108Z</time>
      </trkpt>
      <trkpt lat="51.75729" lon="6.39726">
        <ele>70.653405</ele>
        <time>2026-05-06T14:19:28.106Z</time>
      </trkpt>
      <trkpt lat="51.75737" lon="6.39739">
        <ele>71.080684</ele>
        <time>2026-05-06T14:19:32.102Z</time>
      </trkpt>
      <trkpt lat="51.75739" lon="6.39755">
        <ele>71.465292</ele>
        <time>2026-05-06T14:19:36.105Z</time>
      </trkpt>
      <trkpt lat="51.75735" lon="6.39769">
        <ele>71.801873</ele>
        <time>2026-05-06T14:19:39.104Z</time>
      </trkpt>
      <trkpt lat="51.75734" lon="6.39786">
        <ele>72.196603</ele>
        <time>2026-05-06T14:19:43.104Z</time>
      </trkpt>
      <trkpt lat="51.75741" lon="6.39799">
        <ele>72.596202</ele>
        <time>2026-05-06T14:19:50.106Z</time>
      </trkpt>
      <trkpt lat="51.75749" lon="6.39808">
        <ele>72.95969</ele>
        <time>2026-05-06T14:19:54.104Z</time>
      </trkpt>
      <trkpt lat="51.75758" lon="6.39813">
        <ele>73.327302</ele>
        <time>2026-05-06T14:19:58.118Z</time>
      </trkpt>
      <trkpt lat="51.7577" lon="6.39818">
        <ele>73.754264</ele>
        <time>2026-05-06T14:20:02.099Z</time>
      </trkpt>
      <trkpt lat="51.75779" lon="6.3982">
        <ele>74.120032</ele>
        <time>2026-05-06T14:20:05.110Z</time>
      </trkpt>
      <trkpt lat="51.75791" lon="6.39823">
        <ele>74.557959</ele>
        <time>2026-05-06T14:20:09.100Z</time>
      </trkpt>
      <trkpt lat="51.75802" lon="6.39824">
        <ele>74.969447</ele>
        <time>2026-05-06T14:20:13.100Z</time>
      </trkpt>
      <trkpt lat="51.75812" lon="6.39825">
        <ele>75.339153</ele>
        <time>2026-05-06T14:20:17.101Z</time>
      </trkpt>
      <trkpt lat="51.75822" lon="6.39826">
        <ele>75.739479</ele>
        <time>2026-05-06T14:20:22.103Z</time>
      </trkpt>
      <trkpt lat="51.75805" lon="6.39807">
        <ele>76.53033</ele>
        <time>2026-05-06T14:27:24.111Z</time>
      </trkpt>
      <trkpt lat="51.75796" lon="6.39803">
        <ele>76.201798</ele>
        <time>2026-05-06T14:27:27.102Z</time>
      </trkpt>
      <trkpt lat="51.75786" lon="6.39801">
        <ele>75.822886</ele>
        <time>2026-05-06T14:27:31.103Z</time>
      </trkpt>
      <trkpt lat="51.75776" lon="6.39802">
        <ele>75.465437</ele>
        <time>2026-05-06T14:27:36.106Z</time>
      </trkpt>
      <trkpt lat="51.75768" lon="6.39789">
        <ele>75.070278</ele>
        <time>2026-05-06T14:27:41.109Z</time>
      </trkpt>
      <trkpt lat="51.75765" lon="6.39773">
        <ele>74.702581</ele>
        <time>2026-05-06T14:27:45.113Z</time>
      </trkpt>
      <trkpt lat="51.75759" lon="6.3976">
        <ele>74.338138</ele>
        <time>2026-05-06T14:27:49.101Z</time>
      </trkpt>
      <trkpt lat="51.75752" lon="6.39747">
        <ele>73.958432</ele>
        <time>2026-05-06T14:27:53.107Z</time>
      </trkpt>
      <trkpt lat="51.75745" lon="6.39738">
        <ele>73.626414</ele>
        <time>2026-05-06T14:27:56.113Z</time>
      </trkpt>
      <trkpt lat="51.75736" lon="6.39727">
        <ele>73.24306</ele>
        <time>2026-05-06T14:27:59.095Z</time>
      </trkpt>
      <trkpt lat="51.7573" lon="6.39715">
        <ele>72.901017</ele>
        <time>2026-05-06T14:28:02.110Z</time>
      </trkpt>
      <trkpt lat="51.75732" lon="6.397">
        <ele>72.555225</ele>
        <time>2026-05-06T14:28:07.097Z</time>
      </trkpt>
      <trkpt lat="51.75736" lon="6.39683">
        <ele>72.161569</ele>
        <time>2026-05-06T14:28:11.100Z</time>
      </trkpt>
      <trkpt lat="51.75741" lon="6.39667">
        <ele>71.756164</ele>
        <time>2026-05-06T14:28:15.105Z</time>
      </trkpt>
      <trkpt lat="51.75748" lon="6.39652">
        <ele>71.349181</ele>
        <time>2026-05-06T14:28:19.110Z</time>
      </trkpt>
      <trkpt lat="51.75753" lon="6.39635">
        <ele>70.918037</ele>
        <time>2026-05-06T14:28:23.100Z</time>
      </trkpt>
      <trkpt lat="51.75761" lon="6.39622">
        <ele>70.541467</ele>
        <time>2026-05-06T14:28:26.107Z</time>
      </trkpt>
      <trkpt lat="51.75768" lon="6.39612">
        <ele>70.185884</ele>
        <time>2026-05-06T14:28:29.111Z</time>
      </trkpt>
      <trkpt lat="51.75774" lon="6.39601">
        <ele>70.01328</ele>
        <time>2026-05-06T14:28:32.096Z</time>
      </trkpt>
      <trkpt lat="51.75782" lon="6.3959">
        <ele>69.867293</ele>
        <time>2026-05-06T14:28:35.099Z</time>
      </trkpt>
      <trkpt lat="51.75789" lon="6.39579">
        <ele>69.73337</ele>
        <time>2026-05-06T14:28:38.102Z</time>
      </trkpt>
      <trkpt lat="51.75796" lon="6.39568">
        <ele>69.599448</ele>
        <time>2026-05-06T14:28:41.094Z</time>
      </trkpt>
      <trkpt lat="51.75802" lon="6.39557">
        <ele>69.468426</ele>
        <time>2026-05-06T14:28:44.115Z</time>
      </trkpt>
      <trkpt lat="51.75809" lon="6.39544">
        <ele>69.321684</ele>
        <time>2026-05-06T14:28:47.103Z</time>
      </trkpt>
      <trkpt lat="51.75815" lon="6.39533">
        <ele>69.187026</ele>
        <time>2026-05-06T14:28:50.108Z</time>
      </trkpt>
      <trkpt lat="51.75823" lon="6.39523">
        <ele>69.057947</ele>
        <time>2026-05-06T14:28:56.109Z</time>
      </trkpt>
      <trkpt lat="51.75825" lon="6.39508">
        <ele>68.919021</ele>
        <time>2026-05-06T14:29:10.104Z</time>
      </trkpt>
      <trkpt lat="51.75818" lon="6.39497">
        <ele>68.791915</ele>
        <time>2026-05-06T14:29:14.106Z</time>
      </trkpt>
      <trkpt lat="51.7581" lon="6.39489">
        <ele>68.663255</ele>
        <time>2026-05-06T14:29:17.106Z</time>
      </trkpt>
      <trkpt lat="51.75802" lon="6.39481">
        <ele>68.531513</ele>
        <time>2026-05-06T14:29:20.097Z</time>
      </trkpt>
      <trkpt lat="51.75793" lon="6.39474">
        <ele>68.390385</ele>
        <time>2026-05-06T14:29:23.095Z</time>
      </trkpt>
      <trkpt lat="51.75786" lon="6.39466">
        <ele>68.262417</ele>
        <time>2026-05-06T14:29:26.123Z</time>
      </trkpt>
      <trkpt lat="51.75778" lon="6.39457">
        <ele>68.123773</ele>
        <time>2026-05-06T14:29:29.110Z</time>
      </trkpt>
      <trkpt lat="51.7577" lon="6.39448">
        <ele>67.987916</ele>
        <time>2026-05-06T14:29:32.105Z</time>
      </trkpt>
      <trkpt lat="51.75763" lon="6.39434">
        <ele>67.838616</ele>
        <time>2026-05-06T14:29:35.110Z</time>
      </trkpt>
      <trkpt lat="51.75761" lon="6.3942">
        <ele>67.710704</ele>
        <time>2026-05-06T14:29:38.102Z</time>
      </trkpt>
      <trkpt lat="51.75763" lon="6.39405">
        <ele>67.591346</ele>
        <time>2026-05-06T14:29:41.109Z</time>
      </trkpt>
      <trkpt lat="51.75763" lon="6.39389">
        <ele>67.591346</ele>
        <time>2026-05-06T14:29:44.106Z</time>
      </trkpt>
      <trkpt lat="51.75762" lon="6.39375">
        <ele>67.591346</ele>
        <time>2026-05-06T14:29:47.096Z</time>
      </trkpt>
      <trkpt lat="51.75763" lon="6.3936">
        <ele>67.591346</ele>
        <time>2026-05-06T14:29:50.104Z</time>
      </trkpt>
      <trkpt lat="51.75768" lon="6.39344">
        <ele>67.591346</ele>
        <time>2026-05-06T14:29:54.100Z</time>
      </trkpt>
      <trkpt lat="51.75774" lon="6.39328">
        <ele>67.591346</ele>
        <time>2026-05-06T14:29:58.109Z</time>
      </trkpt>
      <trkpt lat="51.75781" lon="6.39314">
        <ele>67.591346</ele>
        <time>2026-05-06T14:30:02.112Z</time>
      </trkpt>
      <trkpt lat="51.75785" lon="6.39299">
        <ele>67.591346</ele>
        <time>2026-05-06T14:30:07.113Z</time>
      </trkpt>
      <trkpt lat="51.75782" lon="6.39285">
        <ele>67.591346</ele>
        <time>2026-05-06T14:30:11.101Z</time>
      </trkpt>
      <trkpt lat="51.75773" lon="6.39272">
        <ele>67.591346</ele>
        <time>2026-05-06T14:30:15.106Z</time>
      </trkpt>
      <trkpt lat="51.75765" lon="6.39264">
        <ele>67.591346</ele>
        <time>2026-05-06T14:30:20.108Z</time>
      </trkpt>
    </trkseg>
  </trk>
</gpx>